<?xml version='1.0' encoding='UTF-8'?><gpx version="1.1" creator="JPX - https://github.com/jenetics/jpx" xmlns="http://www.topografix.com/GPX/1/1"><trk><trkseg><trkpt lat="45.569851457297915" lon="8.637627455838892"><ele>202.0</ele><time>2026-04-26T11:41:52.993Z</time></trkpt><trkpt lat="45.56977993384215" lon="8.63756980251665"><ele>202.0</ele><time>2026-04-26T11:53:34.001Z</time></trkpt><trkpt lat="45.569757406334716" lon="8.637459992678348"><ele>202.0</ele><time>2026-04-26T11:53:42.001Z</time></trkpt><trkpt lat="45.56968745818432" lon="8.63736326259245"><ele>202.0</ele><time>2026-04-26T11:53:44.001Z</time></trkpt><trkpt lat="45.56960550927421" lon="8.637237494242523"><ele>202.0</ele><time>2026-04-26T11:53:46.001Z</time></trkpt><trkpt lat="45.56953094229225" lon="8.637104126602813"><ele>202.0</ele><time>2026-04-26T11:53:48.001Z</time></trkpt><trkpt lat="45.56948733737392" lon="8.63703147085556"><ele>202.0</ele><time>2026-04-26T11:53:49.001Z</time></trkpt><trkpt lat="45.56944111055283" lon="8.636955700734443"><ele>202.0</ele><time>2026-04-26T11:53:50.001Z</time></trkpt><trkpt lat="45.569367924795344" lon="8.636829909493654"><ele>202.0</ele><time>2026-04-26T11:53:52.001Z</time></trkpt><trkpt lat="45.56929485121918" lon="8.63673433091829"><ele>202.0</ele><time>2026-04-26T11:53:54.001Z</time></trkpt><trkpt lat="45.56924463323126" lon="8.63658697845771"><ele>203.75</ele><time>2026-04-26T11:53:56.001Z</time></trkpt><trkpt lat="45.56919281586104" lon="8.636438582734533"><ele>205.5</ele><time>2026-04-26T11:53:58.002Z</time></trkpt><trkpt lat="45.56914293708771" lon="8.636293834711962"><ele>207.25</ele><time>2026-04-26T11:54:00.002Z</time></trkpt><trkpt lat="45.5691028061375" lon="8.636141866317072"><ele>209.0</ele><time>2026-04-26T11:54:02.002Z</time></trkpt><trkpt lat="45.56906526659173" lon="8.635991560120548"><ele>209.6</ele><time>2026-04-26T11:54:04.002Z</time></trkpt><trkpt lat="45.56902570312923" lon="8.635838601540916"><ele>210.2</ele><time>2026-04-26T11:54:06.002Z</time></trkpt><trkpt lat="45.56903039008737" lon="8.63570219759675"><ele>210.79999999999998</ele><time>2026-04-26T11:54:08.002Z</time></trkpt><trkpt lat="45.56913057437022" lon="8.635653346052687"><ele>211.39999999999998</ele><time>2026-04-26T11:54:10.002Z</time></trkpt><trkpt lat="45.5692067117643" lon="8.635621121632795"><ele>212.0</ele><time>2026-04-26T11:54:11.002Z</time></trkpt><trkpt lat="45.56929725799496" lon="8.635571571986624"><ele>212.0</ele><time>2026-04-26T11:54:12.002Z</time></trkpt><trkpt lat="45.569392491252145" lon="8.635547368381838"><ele>212.0</ele><time>2026-04-26T11:54:13.002Z</time></trkpt><trkpt lat="45.56949608980622" lon="8.635503642935026"><ele>212.0</ele><time>2026-04-26T11:54:14.002Z</time></trkpt><trkpt lat="45.5696033919912" lon="8.635454129861778"><ele>212.0</ele><time>2026-04-26T11:54:15.002Z</time></trkpt><trkpt lat="45.56972532116775" lon="8.63539175495132"><ele>212.0</ele><time>2026-04-26T11:54:16.002Z</time></trkpt><trkpt lat="45.569852607715234" lon="8.635317885310549"><ele>213.0</ele><time>2026-04-26T11:54:17.002Z</time></trkpt><trkpt lat="45.56998917633975" lon="8.635234457730546"><ele>214.0</ele><time>2026-04-26T11:54:18.002Z</time></trkpt><trkpt lat="45.570130088475906" lon="8.635133982098248"><ele>215.0</ele><time>2026-04-26T11:54:19.002Z</time></trkpt><trkpt lat="45.57027457956995" lon="8.635033006004203"><ele>216.33333333333334</ele><time>2026-04-26T11:54:20.002Z</time></trkpt><trkpt lat="45.57044038979047" lon="8.635000391928704"><ele>217.66666666666669</ele><time>2026-04-26T11:54:21.002Z</time></trkpt><trkpt lat="45.57060483357842" lon="8.635067363420271"><ele>219.0</ele><time>2026-04-26T11:54:22.002Z</time></trkpt><trkpt lat="45.5707757670417" lon="8.635094809314579"><ele>219.0</ele><time>2026-04-26T11:54:23.002Z</time></trkpt><trkpt lat="45.57094874777853" lon="8.635150706501484"><ele>219.0</ele><time>2026-04-26T11:54:24.002Z</time></trkpt><trkpt lat="45.571119432947235" lon="8.635201895688239"><ele>219.0</ele><time>2026-04-26T11:54:25.002Z</time></trkpt><trkpt lat="45.57128705443649" lon="8.635247758548383"><ele>220.0</ele><time>2026-04-26T11:54:25.999Z</time></trkpt><trkpt lat="45.57146210198239" lon="8.635295379655487"><ele>221.0</ele><time>2026-04-26T11:54:26.999Z</time></trkpt><trkpt lat="45.57180359394718" lon="8.635385588237979"><ele>221.0</ele><time>2026-04-26T11:54:28.999Z</time></trkpt><trkpt lat="45.57198316737307" lon="8.635435063763875"><ele>221.0</ele><time>2026-04-26T11:54:29.999Z</time></trkpt><trkpt lat="45.57214260191325" lon="8.635477384736358"><ele>221.0</ele><time>2026-04-26T11:54:30.999Z</time></trkpt><trkpt lat="45.57230031837564" lon="8.635516590194836"><ele>221.0</ele><time>2026-04-26T11:54:31.999Z</time></trkpt><trkpt lat="45.572453764959846" lon="8.635546998782411"><ele>221.0</ele><time>2026-04-26T11:54:32.999Z</time></trkpt><trkpt lat="45.57260050040182" lon="8.635499466995228"><ele>221.0</ele><time>2026-04-26T11:54:33.999Z</time></trkpt><trkpt lat="45.57273363666384" lon="8.635396137179209"><ele>220.66666666666669</ele><time>2026-04-26T11:54:34.999Z</time></trkpt><trkpt lat="45.572872984143444" lon="8.63528582630859"><ele>220.33333333333331</ele><time>2026-04-26T11:54:35.999Z</time></trkpt><trkpt lat="45.57302058670961" lon="8.635196863532965"><ele>220.0</ele><time>2026-04-26T11:54:36.999Z</time></trkpt><trkpt lat="45.57317520098325" lon="8.635112293300015"><ele>220.0</ele><time>2026-04-26T11:54:37.999Z</time></trkpt><trkpt lat="45.573327592587894" lon="8.635024272693403"><ele>220.0</ele><time>2026-04-26T11:54:38.999Z</time></trkpt><trkpt lat="45.573488484207715" lon="8.634938100827204"><ele>220.0</ele><time>2026-04-26T11:54:39.999Z</time></trkpt><trkpt lat="45.573648534512344" lon="8.634853788975178"><ele>220.0</ele><time>2026-04-26T11:54:40.999Z</time></trkpt><trkpt lat="45.57378384385204" lon="8.634786090296139"><ele>220.0</ele><time>2026-04-26T11:54:41.999Z</time></trkpt><trkpt lat="45.57390823808012" lon="8.634719542532622"><ele>220.0</ele><time>2026-04-26T11:54:42.999Z</time></trkpt><trkpt lat="45.57401258144115" lon="8.634635307510592"><ele>220.0</ele><time>2026-04-26T11:54:43.999Z</time></trkpt><trkpt lat="45.574094053699405" lon="8.634540712303412"><ele>220.0</ele><time>2026-04-26T11:54:44.999Z</time></trkpt><trkpt lat="45.574166038902376" lon="8.63444841423566"><ele>220.0</ele><time>2026-04-26T11:54:45.999Z</time></trkpt><trkpt lat="45.57422370776399" lon="8.634351480544563"><ele>220.0</ele><time>2026-04-26T11:54:46.999Z</time></trkpt><trkpt lat="45.574199993357446" lon="8.634200595078436"><ele>220.0</ele><time>2026-04-26T11:54:47.999Z</time></trkpt><trkpt lat="45.5742567582728" lon="8.634093695546497"><ele>220.0</ele><time>2026-04-26T11:54:49Z</time></trkpt><trkpt lat="45.574281687362095" lon="8.633982116024729"><ele>220.0</ele><time>2026-04-26T11:54:50Z</time></trkpt><trkpt lat="45.574361061324865" lon="8.633910362718543"><ele>220.0</ele><time>2026-04-26T11:54:51Z</time></trkpt><trkpt lat="45.57446752020515" lon="8.633980432227757"><ele>220.0</ele><time>2026-04-26T11:54:52Z</time></trkpt><trkpt lat="45.57455411810407" lon="8.634056509167564"><ele>220.0</ele><time>2026-04-26T11:54:53Z</time></trkpt><trkpt lat="45.57466261623249" lon="8.634106059380171"><ele>220.0</ele><time>2026-04-26T11:54:54Z</time></trkpt><trkpt lat="45.57477627068651" lon="8.634188682404913"><ele>220.33333333333331</ele><time>2026-04-26T11:54:55Z</time></trkpt><trkpt lat="45.57491778055004" lon="8.634264560822196"><ele>220.66666666666669</ele><time>2026-04-26T11:54:56Z</time></trkpt><trkpt lat="45.575066095328935" lon="8.634329553170838"><ele>221.0</ele><time>2026-04-26T11:54:57Z</time></trkpt><trkpt lat="45.57524369354083" lon="8.634356606526866"><ele>221.66666666666669</ele><time>2026-04-26T11:54:58Z</time></trkpt><trkpt lat="45.57544162232652" lon="8.634346745623587"><ele>222.33333333333331</ele><time>2026-04-26T11:54:59Z</time></trkpt><trkpt lat="45.57565529053637" lon="8.63435210032228"><ele>223.0</ele><time>2026-04-26T11:55:00Z</time></trkpt><trkpt lat="45.575870853849594" lon="8.634351072800484"><ele>223.0</ele><time>2026-04-26T11:55:01Z</time></trkpt><trkpt lat="45.57609413558805" lon="8.63432529197487"><ele>223.0</ele><time>2026-04-26T11:55:02Z</time></trkpt><trkpt lat="45.5763004250611" lon="8.634327704105736"><ele>223.0</ele><time>2026-04-26T11:55:03Z</time></trkpt><trkpt lat="45.57648255105714" lon="8.634327448289051"><ele>223.5</ele><time>2026-04-26T11:55:04Z</time></trkpt><trkpt lat="45.57663472576875" lon="8.634334418775762"><ele>224.0</ele><time>2026-04-26T11:55:05Z</time></trkpt><trkpt lat="45.57676556298396" lon="8.634336141744736"><ele>224.5</ele><time>2026-04-26T11:55:06Z</time></trkpt><trkpt lat="45.57687067586937" lon="8.634324533879223"><ele>225.0</ele><time>2026-04-26T11:55:07Z</time></trkpt><trkpt lat="45.57694134069021" lon="8.634277789309472"><ele>225.0</ele><time>2026-04-26T11:55:08Z</time></trkpt><trkpt lat="45.57698812916064" lon="8.634195237572982"><ele>225.0</ele><time>2026-04-26T11:55:09Z</time></trkpt><trkpt lat="45.57697577440183" lon="8.634020146796216"><ele>225.0</ele><time>2026-04-26T11:55:10Z</time></trkpt><trkpt lat="45.57694788493666" lon="8.633873170763573"><ele>225.0</ele><time>2026-04-26T11:55:11Z</time></trkpt><trkpt lat="45.576927806611316" lon="8.633724643024694"><ele>225.0</ele><time>2026-04-26T11:55:12Z</time></trkpt><trkpt lat="45.57690405067509" lon="8.633554928720356"><ele>224.6</ele><time>2026-04-26T11:55:13Z</time></trkpt><trkpt lat="45.57688813330011" lon="8.633392681182452"><ele>224.2</ele><time>2026-04-26T11:55:14Z</time></trkpt><trkpt lat="45.57688015381326" lon="8.633226549133939"><ele>223.8</ele><time>2026-04-26T11:55:15Z</time></trkpt><trkpt lat="45.576873727348975" lon="8.63308111628126"><ele>223.4</ele><time>2026-04-26T11:55:16Z</time></trkpt><trkpt lat="45.57688481095154" lon="8.632981675440252"><ele>223.0</ele><time>2026-04-26T11:55:17Z</time></trkpt><trkpt lat="45.576954702818725" lon="8.6329210839984"><ele>223.0</ele><time>2026-04-26T11:55:18Z</time></trkpt><trkpt lat="45.577038697107646" lon="8.632916149563108"><ele>223.0</ele><time>2026-04-26T11:55:19Z</time></trkpt><trkpt lat="45.5771460058938" lon="8.63294876207083"><ele>223.0</ele><time>2026-04-26T11:55:20Z</time></trkpt><trkpt lat="45.57727147705083" lon="8.632974668728984"><ele>223.0</ele><time>2026-04-26T11:55:21Z</time></trkpt><trkpt lat="45.57741603512989" lon="8.6329914689277"><ele>223.0</ele><time>2026-04-26T11:55:22Z</time></trkpt><trkpt lat="45.577573640651686" lon="8.633003223725613"><ele>223.0</ele><time>2026-04-26T11:55:23Z</time></trkpt><trkpt lat="45.57775032156304" lon="8.633031084418601"><ele>223.0</ele><time>2026-04-26T11:55:24Z</time></trkpt><trkpt lat="45.577943713881254" lon="8.633051933869737"><ele>222.66666666666666</ele><time>2026-04-26T11:55:25Z</time></trkpt><trkpt lat="45.57815197826286" lon="8.633074605077152"><ele>222.33333333333331</ele><time>2026-04-26T11:55:26Z</time></trkpt><trkpt lat="45.57836783245428" lon="8.633098159037985"><ele>222.0</ele><time>2026-04-26T11:55:27Z</time></trkpt><trkpt lat="45.57859417499226" lon="8.633116823547324"><ele>222.5</ele><time>2026-04-26T11:55:28Z</time></trkpt><trkpt lat="45.5788198970731" lon="8.63313965004869"><ele>223.0</ele><time>2026-04-26T11:55:29Z</time></trkpt><trkpt lat="45.579048914658344" lon="8.633165180899235"><ele>223.0</ele><time>2026-04-26T11:55:30Z</time></trkpt><trkpt lat="45.57927915312688" lon="8.633185860022044"><ele>223.0</ele><time>2026-04-26T11:55:31Z</time></trkpt><trkpt lat="45.57950799683564" lon="8.633210776364832"><ele>224.0</ele><time>2026-04-26T11:55:32Z</time></trkpt><trkpt lat="45.57973662459867" lon="8.633245284776805"><ele>225.0</ele><time>2026-04-26T11:55:33Z</time></trkpt><trkpt lat="45.57996276505581" lon="8.633289905086084"><ele>225.0</ele><time>2026-04-26T11:55:34Z</time></trkpt><trkpt lat="45.580194544820706" lon="8.633336000339696"><ele>225.0</ele><time>2026-04-26T11:55:35Z</time></trkpt><trkpt lat="45.58042502457403" lon="8.633381837057541"><ele>224.5</ele><time>2026-04-26T11:55:36Z</time></trkpt><trkpt lat="45.58065379381543" lon="8.633430006113592"><ele>224.0</ele><time>2026-04-26T11:55:37Z</time></trkpt><trkpt lat="45.58088294190628" lon="8.63347844548653"><ele>224.0</ele><time>2026-04-26T11:55:38Z</time></trkpt><trkpt lat="45.58111186410945" lon="8.633525830236866"><ele>224.0</ele><time>2026-04-26T11:55:39Z</time></trkpt><trkpt lat="45.58133705995356" lon="8.633572275984811"><ele>224.5</ele><time>2026-04-26T11:55:40.001Z</time></trkpt><trkpt lat="45.581562483355576" lon="8.633618768574236"><ele>225.0</ele><time>2026-04-26T11:55:41.001Z</time></trkpt><trkpt lat="45.58178873354045" lon="8.633665369859758"><ele>225.0</ele><time>2026-04-26T11:55:42.001Z</time></trkpt><trkpt lat="45.58201288981248" lon="8.633711872138816"><ele>225.0</ele><time>2026-04-26T11:55:43.001Z</time></trkpt><trkpt lat="45.58222048489545" lon="8.633754730327732"><ele>225.0</ele><time>2026-04-26T11:55:44.001Z</time></trkpt><trkpt lat="45.58242107179723" lon="8.633796060519021"><ele>224.66666666666669</ele><time>2026-04-26T11:55:45.001Z</time></trkpt><trkpt lat="45.582588464065395" lon="8.633809145520038"><ele>224.33333333333334</ele><time>2026-04-26T11:55:46.001Z</time></trkpt><trkpt lat="45.58274284082345" lon="8.63383104229054"><ele>224.0</ele><time>2026-04-26T11:55:47.001Z</time></trkpt><trkpt lat="45.582905289995345" lon="8.63381261109195"><ele>224.0</ele><time>2026-04-26T11:55:48.001Z</time></trkpt><trkpt lat="45.58308455044535" lon="8.633758783808958"><ele>224.0</ele><time>2026-04-26T11:55:49.001Z</time></trkpt><trkpt lat="45.583263569770246" lon="8.633706953149266"><ele>224.0</ele><time>2026-04-26T11:55:50.001Z</time></trkpt><trkpt lat="45.58345339537406" lon="8.633649936560099"><ele>224.66666666666669</ele><time>2026-04-26T11:55:51.001Z</time></trkpt><trkpt lat="45.58363218019615" lon="8.633595846190993"><ele>225.33333333333331</ele><time>2026-04-26T11:55:52.001Z</time></trkpt><trkpt lat="45.583795294529935" lon="8.633546498987764"><ele>226.0</ele><time>2026-04-26T11:55:53.001Z</time></trkpt><trkpt lat="45.58394641379496" lon="8.633500778804871"><ele>226.25</ele><time>2026-04-26T11:55:54.001Z</time></trkpt><trkpt lat="45.584081622777056" lon="8.633459872108498"><ele>226.5</ele><time>2026-04-26T11:55:55.001Z</time></trkpt><trkpt lat="45.58419555882296" lon="8.633433420642392"><ele>226.75</ele><time>2026-04-26T11:55:56.001Z</time></trkpt><trkpt lat="45.584297516724185" lon="8.633438097837809"><ele>227.0</ele><time>2026-04-26T11:55:57.001Z</time></trkpt><trkpt lat="45.584405413505934" lon="8.633519614283852"><ele>227.33333333333334</ele><time>2026-04-26T11:55:58.001Z</time></trkpt><trkpt lat="45.58451885599919" lon="8.633634012083302"><ele>227.66666666666669</ele><time>2026-04-26T11:55:59.001Z</time></trkpt><trkpt lat="45.58464365096188" lon="8.633758290485991"><ele>228.0</ele><time>2026-04-26T11:56:00.001Z</time></trkpt><trkpt lat="45.58480340431981" lon="8.633837705220309"><ele>228.33333333333331</ele><time>2026-04-26T11:56:01.001Z</time></trkpt><trkpt lat="45.58498212414931" lon="8.633871281660415"><ele>228.66666666666666</ele><time>2026-04-26T11:56:02.001Z</time></trkpt><trkpt lat="45.585179250834535" lon="8.633921513266102"><ele>229.0</ele><time>2026-04-26T11:56:03.001Z</time></trkpt><trkpt lat="45.58537524198486" lon="8.633958683026313"><ele>229.0</ele><time>2026-04-26T11:56:04.001Z</time></trkpt><trkpt lat="45.58556320960455" lon="8.633994375749731"><ele>229.0</ele><time>2026-04-26T11:56:05.001Z</time></trkpt><trkpt lat="45.585746837244834" lon="8.634029523833496"><ele>229.0</ele><time>2026-04-26T11:56:06.001Z</time></trkpt><trkpt lat="45.58595093986576" lon="8.63405057747965"><ele>229.0</ele><time>2026-04-26T11:56:07.001Z</time></trkpt><trkpt lat="45.58610437718305" lon="8.634075786257837"><ele>229.0</ele><time>2026-04-26T11:56:08.001Z</time></trkpt><trkpt lat="45.58631694943536" lon="8.63412155481294"><ele>229.0</ele><time>2026-04-26T11:56:09.001Z</time></trkpt><trkpt lat="45.58650919739719" lon="8.634155863238911"><ele>229.33333333333331</ele><time>2026-04-26T11:56:10.001Z</time></trkpt><trkpt lat="45.586705067016275" lon="8.63415899339147"><ele>229.66666666666669</ele><time>2026-04-26T11:56:11.001Z</time></trkpt><trkpt lat="45.58690397954006" lon="8.63415239219387"><ele>230.0</ele><time>2026-04-26T11:56:12.001Z</time></trkpt><trkpt lat="45.58710851938612" lon="8.63413286354809"><ele>231.0</ele><time>2026-04-26T11:56:13.001Z</time></trkpt><trkpt lat="45.587508954788824" lon="8.634111064892803"><ele>232.0</ele><time>2026-04-26T11:56:15.001Z</time></trkpt><trkpt lat="45.58770592732531" lon="8.63409777803555"><ele>232.0</ele><time>2026-04-26T11:56:16.001Z</time></trkpt><trkpt lat="45.587905916602026" lon="8.634113404477096"><ele>232.0</ele><time>2026-04-26T11:56:17.001Z</time></trkpt><trkpt lat="45.58809719385231" lon="8.634132180392703"><ele>232.0</ele><time>2026-04-26T11:56:18.001Z</time></trkpt><trkpt lat="45.58826340439672" lon="8.634182255426557"><ele>232.0</ele><time>2026-04-26T11:56:19.001Z</time></trkpt><trkpt lat="45.58844518916871" lon="8.634253879820456"><ele>232.0</ele><time>2026-04-26T11:56:20.001Z</time></trkpt><trkpt lat="45.58863139805085" lon="8.634329094125912"><ele>232.0</ele><time>2026-04-26T11:56:21.001Z</time></trkpt><trkpt lat="45.58882398850442" lon="8.634406883932856"><ele>232.0</ele><time>2026-04-26T11:56:22.001Z</time></trkpt><trkpt lat="45.58901558720995" lon="8.634483634150925"><ele>232.0</ele><time>2026-04-26T11:56:23.001Z</time></trkpt><trkpt lat="45.58921129250146" lon="8.634560899951186"><ele>232.0</ele><time>2026-04-26T11:56:24.001Z</time></trkpt><trkpt lat="45.589368305994206" lon="8.634613805502935"><ele>232.0</ele><time>2026-04-26T11:56:25.001Z</time></trkpt><trkpt lat="45.58946930572583" lon="8.634663275626014"><ele>232.0</ele><time>2026-04-26T11:56:26.001Z</time></trkpt><trkpt lat="45.58957410545921" lon="8.634693960888944"><ele>232.0</ele><time>2026-04-26T11:56:27.001Z</time></trkpt><trkpt lat="45.589694561177616" lon="8.634678041165786"><ele>232.0</ele><time>2026-04-26T11:56:28.001Z</time></trkpt><trkpt lat="45.5898351631823" lon="8.63463722914329"><ele>232.25</ele><time>2026-04-26T11:56:29.001Z</time></trkpt><trkpt lat="45.589968964887674" lon="8.634591651577542"><ele>232.5</ele><time>2026-04-26T11:56:30.001Z</time></trkpt><trkpt lat="45.590110296133396" lon="8.63455926099712"><ele>232.75</ele><time>2026-04-26T11:56:31.001Z</time></trkpt><trkpt lat="45.5902586201798" lon="8.634520909567584"><ele>233.0</ele><time>2026-04-26T11:56:31.997Z</time></trkpt><trkpt lat="45.590412024309884" lon="8.634481349586613"><ele>233.25</ele><time>2026-04-26T11:56:32.997Z</time></trkpt><trkpt lat="45.59056761463382" lon="8.634444649618674"><ele>233.5</ele><time>2026-04-26T11:56:33.997Z</time></trkpt><trkpt lat="45.59071091532883" lon="8.634407889784333"><ele>233.75</ele><time>2026-04-26T11:56:34.997Z</time></trkpt><trkpt lat="45.590836569190806" lon="8.634388092311974"><ele>234.0</ele><time>2026-04-26T11:56:35.997Z</time></trkpt><trkpt lat="45.59095913997064" lon="8.634369143126058"><ele>234.0</ele><time>2026-04-26T11:56:36.998Z</time></trkpt><trkpt lat="45.59106905254184" lon="8.634381606486311"><ele>233.99999999999997</ele><time>2026-04-26T11:56:37.998Z</time></trkpt><trkpt lat="45.591150437462474" lon="8.634434497536866"><ele>233.99999999999997</ele><time>2026-04-26T11:56:38.998Z</time></trkpt><trkpt lat="45.591209463610866" lon="8.634545562726547"><ele>234.0</ele><time>2026-04-26T11:56:39.998Z</time></trkpt><trkpt lat="45.59130301620053" lon="8.6346505094312"><ele>234.0</ele><time>2026-04-26T11:56:40.998Z</time></trkpt><trkpt lat="45.591400432422816" lon="8.634758934131712"><ele>234.0</ele><time>2026-04-26T11:56:41.998Z</time></trkpt><trkpt lat="45.591497333629455" lon="8.634865136700412"><ele>234.0</ele><time>2026-04-26T11:56:42.998Z</time></trkpt><trkpt lat="45.59158842080483" lon="8.634988443670382"><ele>234.0</ele><time>2026-04-26T11:56:43.998Z</time></trkpt><trkpt lat="45.591655336158" lon="8.635172404763564"><ele>234.0</ele><time>2026-04-26T11:56:44.998Z</time></trkpt><trkpt lat="45.59169473909933" lon="8.6353186387423"><ele>233.5</ele><time>2026-04-26T11:56:45.998Z</time></trkpt><trkpt lat="45.59174826069769" lon="8.635494481600311"><ele>233.0</ele><time>2026-04-26T11:56:46.998Z</time></trkpt><trkpt lat="45.59180267819452" lon="8.635638275183812"><ele>232.5</ele><time>2026-04-26T11:56:47.998Z</time></trkpt><trkpt lat="45.59188173462212" lon="8.635800229893038"><ele>232.0</ele><time>2026-04-26T11:56:48.998Z</time></trkpt><trkpt lat="45.59196037469143" lon="8.63591523048085"><ele>232.25</ele><time>2026-04-26T11:56:49.998Z</time></trkpt><trkpt lat="45.59205801203517" lon="8.635997921549688"><ele>232.5</ele><time>2026-04-26T11:56:50.998Z</time></trkpt><trkpt lat="45.5921820182309" lon="8.636042658222452"><ele>232.75</ele><time>2026-04-26T11:56:51.999Z</time></trkpt><trkpt lat="45.59231544209064" lon="8.636039550857586"><ele>233.0</ele><time>2026-04-26T11:56:52.999Z</time></trkpt><trkpt lat="45.59247648243812" lon="8.636030055640855"><ele>233.0</ele><time>2026-04-26T11:56:53.999Z</time></trkpt><trkpt lat="45.59263758854611" lon="8.636035998745193"><ele>233.0</ele><time>2026-04-26T11:56:54.999Z</time></trkpt><trkpt lat="45.59279223771383" lon="8.636049665908162"><ele>233.0</ele><time>2026-04-26T11:56:55.999Z</time></trkpt><trkpt lat="45.59295082136452" lon="8.636056869041434"><ele>233.66666666666669</ele><time>2026-04-26T11:56:56.999Z</time></trkpt><trkpt lat="45.593111674698996" lon="8.636066857503055"><ele>234.33333333333331</ele><time>2026-04-26T11:56:57.999Z</time></trkpt><trkpt lat="45.593267063904285" lon="8.636075453075021"><ele>235.0</ele><time>2026-04-26T11:56:58.999Z</time></trkpt><trkpt lat="45.59342096727839" lon="8.636082104150415"><ele>235.0</ele><time>2026-04-26T11:56:59.999Z</time></trkpt><trkpt lat="45.59357988494571" lon="8.636087407509912"><ele>235.0</ele><time>2026-04-26T11:57:00.999Z</time></trkpt><trkpt lat="45.59373811253055" lon="8.636082617485553"><ele>235.0</ele><time>2026-04-26T11:57:01.999Z</time></trkpt><trkpt lat="45.593893566033245" lon="8.6360841859749"><ele>234.5</ele><time>2026-04-26T11:57:02.999Z</time></trkpt><trkpt lat="45.594193961146495" lon="8.636009982731652"><ele>234.0</ele><time>2026-04-26T11:57:04.999Z</time></trkpt><trkpt lat="45.594343023563894" lon="8.635960253003532"><ele>234.0</ele><time>2026-04-26T11:57:05.999Z</time></trkpt><trkpt lat="45.59447829422695" lon="8.635924477079513"><ele>234.0</ele><time>2026-04-26T11:57:06.999Z</time></trkpt><trkpt lat="45.5945959496697" lon="8.63589504536458"><ele>234.0</ele><time>2026-04-26T11:57:07.999Z</time></trkpt><trkpt lat="45.59469106548021" lon="8.635840419368252"><ele>234.0</ele><time>2026-04-26T11:57:08.999Z</time></trkpt><trkpt lat="45.59474604113447" lon="8.635711552154104"><ele>233.5</ele><time>2026-04-26T11:57:09.999Z</time></trkpt><trkpt lat="45.59478549797005" lon="8.635538875896309"><ele>233.0</ele><time>2026-04-26T11:57:10.999Z</time></trkpt><trkpt lat="45.59483664987253" lon="8.635369395697479"><ele>232.5</ele><time>2026-04-26T11:57:11.999Z</time></trkpt><trkpt lat="45.594894719101184" lon="8.635212839068515"><ele>232.0</ele><time>2026-04-26T11:57:12.999Z</time></trkpt><trkpt lat="45.59495995370462" lon="8.6350621584354"><ele>232.0</ele><time>2026-04-26T11:57:14Z</time></trkpt><trkpt lat="45.59502794113919" lon="8.634914035952812"><ele>232.0</ele><time>2026-04-26T11:57:15Z</time></trkpt><trkpt lat="45.59506697879738" lon="8.634780240834319"><ele>232.0</ele><time>2026-04-26T11:57:16Z</time></trkpt><trkpt lat="45.595111408103506" lon="8.634663536169173"><ele>232.0</ele><time>2026-04-26T11:57:17Z</time></trkpt><trkpt lat="45.59516897292139" lon="8.63458670258528"><ele>232.0</ele><time>2026-04-26T11:57:18Z</time></trkpt><trkpt lat="45.595208490249945" lon="8.63450858957044"><ele>232.0</ele><time>2026-04-26T11:57:20Z</time></trkpt><trkpt lat="45.59526335244259" lon="8.634665729726766"><ele>232.0</ele><time>2026-04-26T11:57:22Z</time></trkpt><trkpt lat="45.59516105211495" lon="8.634873649021399"><ele>232.0</ele><time>2026-04-26T11:57:24Z</time></trkpt><trkpt lat="45.59512988960344" lon="8.634960268283546"><ele>232.0</ele><time>2026-04-26T11:57:25Z</time></trkpt><trkpt lat="45.59517209935296" lon="8.635035470433694"><ele>232.0</ele><time>2026-04-26T11:57:26Z</time></trkpt><trkpt lat="45.59530573894052" lon="8.6350111526135"><ele>232.0</ele><time>2026-04-26T11:57:28Z</time></trkpt><trkpt lat="45.59530189135434" lon="8.634763017729343"><ele>232.0</ele><time>2026-04-26T11:57:30Z</time></trkpt><trkpt lat="45.5953240657412" lon="8.634651629936391"><ele>232.0</ele><time>2026-04-26T11:57:31Z</time></trkpt><trkpt lat="45.59535073796866" lon="8.63453889834062"><ele>232.0</ele><time>2026-04-26T11:57:32Z</time></trkpt><trkpt lat="45.595349229916714" lon="8.634418512174015"><ele>232.0</ele><time>2026-04-26T11:57:33Z</time></trkpt><trkpt lat="45.59529920568649" lon="8.634304719370938"><ele>232.6</ele><time>2026-04-26T11:57:34Z</time></trkpt><trkpt lat="45.595246329483196" lon="8.634182514735613"><ele>233.2</ele><time>2026-04-26T11:57:35Z</time></trkpt><trkpt lat="45.59520600874027" lon="8.634052112120411"><ele>233.8</ele><time>2026-04-26T11:57:36Z</time></trkpt><trkpt lat="45.595169200655675" lon="8.633916955494236"><ele>234.4</ele><time>2026-04-26T11:57:37Z</time></trkpt><trkpt lat="45.595124322600256" lon="8.633775728491909"><ele>235.0</ele><time>2026-04-26T11:57:38Z</time></trkpt><trkpt lat="45.59507959485742" lon="8.633627543677038"><ele>235.25</ele><time>2026-04-26T11:57:39Z</time></trkpt><trkpt lat="45.595029735123504" lon="8.633465589405624"><ele>235.5</ele><time>2026-04-26T11:57:40Z</time></trkpt><trkpt lat="45.59499199286566" lon="8.633298094914739"><ele>235.75</ele><time>2026-04-26T11:57:41Z</time></trkpt><trkpt lat="45.594959941646" lon="8.633117723388326"><ele>236.0</ele><time>2026-04-26T11:57:42Z</time></trkpt><trkpt lat="45.59493465210657" lon="8.632922221473947"><ele>236.5</ele><time>2026-04-26T11:57:43Z</time></trkpt><trkpt lat="45.594921924910906" lon="8.632718372476681"><ele>237.0</ele><time>2026-04-26T11:57:44Z</time></trkpt><trkpt lat="45.59491433038361" lon="8.632513444856983"><ele>237.5</ele><time>2026-04-26T11:57:45Z</time></trkpt><trkpt lat="45.59491345143491" lon="8.632285039500259"><ele>238.0</ele><time>2026-04-26T11:57:46Z</time></trkpt><trkpt lat="45.59491060368055" lon="8.632082403006612"><ele>238.0</ele><time>2026-04-26T11:57:47Z</time></trkpt><trkpt lat="45.594911823878036" lon="8.631867654778576"><ele>238.0</ele><time>2026-04-26T11:57:48Z</time></trkpt><trkpt lat="45.594907001236486" lon="8.631654503256959"><ele>238.0</ele><time>2026-04-26T11:57:49Z</time></trkpt><trkpt lat="45.594903057340474" lon="8.631449423675292"><ele>238.0</ele><time>2026-04-26T11:57:50Z</time></trkpt><trkpt lat="45.594891052089245" lon="8.63123442130107"><ele>237.75</ele><time>2026-04-26T11:57:51Z</time></trkpt><trkpt lat="45.59489213489778" lon="8.631024309027215"><ele>237.5</ele><time>2026-04-26T11:57:52.001Z</time></trkpt><trkpt lat="45.594887075496224" lon="8.630813622175841"><ele>237.25</ele><time>2026-04-26T11:57:53.001Z</time></trkpt><trkpt lat="45.59488209370401" lon="8.630605853638496"><ele>237.0</ele><time>2026-04-26T11:57:54.001Z</time></trkpt><trkpt lat="45.594878928819675" lon="8.630395279172816"><ele>237.75</ele><time>2026-04-26T11:57:55.001Z</time></trkpt><trkpt lat="45.594875888287184" lon="8.630183602875066"><ele>238.5</ele><time>2026-04-26T11:57:56.001Z</time></trkpt><trkpt lat="45.59487113894496" lon="8.629972615340897"><ele>239.25</ele><time>2026-04-26T11:57:57.001Z</time></trkpt><trkpt lat="45.594861340018696" lon="8.629756540879033"><ele>240.0</ele><time>2026-04-26T11:57:58.001Z</time></trkpt><trkpt lat="45.59486224586127" lon="8.629550312878765"><ele>239.75</ele><time>2026-04-26T11:57:59.001Z</time></trkpt><trkpt lat="45.594853006779566" lon="8.629333130261063"><ele>239.5</ele><time>2026-04-26T11:58:00.001Z</time></trkpt><trkpt lat="45.594848569895824" lon="8.62912300415603"><ele>239.25</ele><time>2026-04-26T11:58:01.001Z</time></trkpt><trkpt lat="45.59484613834603" lon="8.628909134732178"><ele>239.0</ele><time>2026-04-26T11:58:02.001Z</time></trkpt><trkpt lat="45.59484843225619" lon="8.628696997676352"><ele>238.0</ele><time>2026-04-26T11:58:03.001Z</time></trkpt><trkpt lat="45.59484166684506" lon="8.628477347165227"><ele>237.0</ele><time>2026-04-26T11:58:04.001Z</time></trkpt><trkpt lat="45.59483263059171" lon="8.628251614139455"><ele>236.0</ele><time>2026-04-26T11:58:05.001Z</time></trkpt><trkpt lat="45.59482641743029" lon="8.62803283666137"><ele>236.0</ele><time>2026-04-26T11:58:06.001Z</time></trkpt><trkpt lat="45.594830723976145" lon="8.62782608494118"><ele>236.0</ele><time>2026-04-26T11:58:07.001Z</time></trkpt><trkpt lat="45.59482224894904" lon="8.627621137989971"><ele>236.0</ele><time>2026-04-26T11:58:08.001Z</time></trkpt><trkpt lat="45.594817061574766" lon="8.627428000844938"><ele>236.0</ele><time>2026-04-26T11:58:09.001Z</time></trkpt><trkpt lat="45.59481536438832" lon="8.627241315130522"><ele>235.25</ele><time>2026-04-26T11:58:10.001Z</time></trkpt><trkpt lat="45.59481096866151" lon="8.627058115284067"><ele>234.5</ele><time>2026-04-26T11:58:11.001Z</time></trkpt><trkpt lat="45.59481558406594" lon="8.626887287392679"><ele>233.75</ele><time>2026-04-26T11:58:12.001Z</time></trkpt><trkpt lat="45.5948393504309" lon="8.626726326817346"><ele>233.0</ele><time>2026-04-26T11:58:13.001Z</time></trkpt><trkpt lat="45.59487649054484" lon="8.626588386080353"><ele>232.25</ele><time>2026-04-26T11:58:14.001Z</time></trkpt><trkpt lat="45.59487052583858" lon="8.626456449404055"><ele>231.5</ele><time>2026-04-26T11:58:15.001Z</time></trkpt><trkpt lat="45.594819646518125" lon="8.626283428445236"><ele>230.75</ele><time>2026-04-26T11:58:16.001Z</time></trkpt><trkpt lat="45.59479406701361" lon="8.626071616699727"><ele>230.0</ele><time>2026-04-26T11:58:17.001Z</time></trkpt><trkpt lat="45.594789301607456" lon="8.625830210643624"><ele>229.66666666666669</ele><time>2026-04-26T11:58:18.001Z</time></trkpt><trkpt lat="45.594787421422865" lon="8.625577708928914"><ele>229.33333333333331</ele><time>2026-04-26T11:58:19.001Z</time></trkpt><trkpt lat="45.59478063893573" lon="8.62532554311603"><ele>229.0</ele><time>2026-04-26T11:58:20.001Z</time></trkpt><trkpt lat="45.594781656664296" lon="8.625065903100811"><ele>229.0</ele><time>2026-04-26T11:58:21.001Z</time></trkpt><trkpt lat="45.594779605331965" lon="8.624815461389112"><ele>229.0</ele><time>2026-04-26T11:58:22.001Z</time></trkpt><trkpt lat="45.59477658572272" lon="8.624583381558233"><ele>229.0</ele><time>2026-04-26T11:58:23.001Z</time></trkpt><trkpt lat="45.59477117928779" lon="8.624366012905302"><ele>228.79999999999998</ele><time>2026-04-26T11:58:24.001Z</time></trkpt><trkpt lat="45.59476856155558" lon="8.62418988969872"><ele>228.59999999999997</ele><time>2026-04-26T11:58:25.001Z</time></trkpt><trkpt lat="45.59476644743457" lon="8.62403058858316"><ele>228.4</ele><time>2026-04-26T11:58:26.001Z</time></trkpt><trkpt lat="45.59476520353271" lon="8.623899215704979"><ele>228.2</ele><time>2026-04-26T11:58:27.001Z</time></trkpt><trkpt lat="45.59478087564139" lon="8.623793150690743"><ele>228.0</ele><time>2026-04-26T11:58:28.001Z</time></trkpt><trkpt lat="45.59481621918083" lon="8.62370691917345"><ele>228.0</ele><time>2026-04-26T11:58:29.001Z</time></trkpt><trkpt lat="45.59486541865562" lon="8.62364996099327"><ele>227.99999999999997</ele><time>2026-04-26T11:58:30.001Z</time></trkpt><trkpt lat="45.59490085973454" lon="8.623546352778233"><ele>228.0</ele><time>2026-04-26T11:58:32.001Z</time></trkpt><trkpt lat="45.594890123232105" lon="8.623443168057221"><ele>228.0</ele><time>2026-04-26T11:58:35.001Z</time></trkpt><trkpt lat="45.59491449629443" lon="8.623359781979927"><ele>227.99999999999997</ele><time>2026-04-26T12:02:36.003Z</time></trkpt><trkpt lat="45.5948991425655" lon="8.623263381812311"><ele>228.0</ele><time>2026-04-26T12:02:49.003Z</time></trkpt><trkpt lat="45.59484554209844" lon="8.623158438332883"><ele>228.0</ele><time>2026-04-26T12:02:51.003Z</time></trkpt><trkpt lat="45.59478084051204" lon="8.623083476254747"><ele>228.0</ele><time>2026-04-26T12:02:54.003Z</time></trkpt><trkpt lat="45.594749180150195" lon="8.622882377874328"><ele>228.0</ele><time>2026-04-26T12:02:56.002Z</time></trkpt><trkpt lat="45.59474847553997" lon="8.622723640289552"><ele>228.0</ele><time>2026-04-26T12:02:57.002Z</time></trkpt><trkpt lat="45.59474712790382" lon="8.622552806378014"><ele>228.0</ele><time>2026-04-26T12:02:58.002Z</time></trkpt><trkpt lat="45.594745606090534" lon="8.622373656729533"><ele>227.5</ele><time>2026-04-26T12:02:59.002Z</time></trkpt><trkpt lat="45.59474081606905" lon="8.622188167431858"><ele>227.0</ele><time>2026-04-26T12:03:00.002Z</time></trkpt><trkpt lat="45.594737524840795" lon="8.62198679931337"><ele>226.5</ele><time>2026-04-26T12:03:01.002Z</time></trkpt><trkpt lat="45.594730297551656" lon="8.621766333517767"><ele>226.0</ele><time>2026-04-26T12:03:02.002Z</time></trkpt><trkpt lat="45.594726655073565" lon="8.621540737623535"><ele>226.0</ele><time>2026-04-26T12:03:03.002Z</time></trkpt><trkpt lat="45.59472375992604" lon="8.621314337657711"><ele>226.0</ele><time>2026-04-26T12:03:04.002Z</time></trkpt><trkpt lat="45.59471696320343" lon="8.621079015106766"><ele>226.0</ele><time>2026-04-26T12:03:05.002Z</time></trkpt><trkpt lat="45.59471122960458" lon="8.620832884265734"><ele>226.66666666666666</ele><time>2026-04-26T12:03:06.002Z</time></trkpt><trkpt lat="45.594697586263635" lon="8.620592592739255"><ele>227.33333333333331</ele><time>2026-04-26T12:03:07.002Z</time></trkpt><trkpt lat="45.59468927535869" lon="8.620360550755931"><ele>228.0</ele><time>2026-04-26T12:03:08.002Z</time></trkpt><trkpt lat="45.594685583309264" lon="8.620140923645787"><ele>228.0</ele><time>2026-04-26T12:03:09.002Z</time></trkpt><trkpt lat="45.59467996333553" lon="8.619943182349543"><ele>228.0</ele><time>2026-04-26T12:03:10.002Z</time></trkpt><trkpt lat="45.594683111352545" lon="8.61972246436011"><ele>228.0</ele><time>2026-04-26T12:03:11.002Z</time></trkpt><trkpt lat="45.59467170757321" lon="8.619487880397468"><ele>228.0</ele><time>2026-04-26T12:03:12.002Z</time></trkpt><trkpt lat="45.594669195192694" lon="8.619240320222417"><ele>228.0</ele><time>2026-04-26T12:03:13.002Z</time></trkpt><trkpt lat="45.594664087833515" lon="8.618983237547422"><ele>228.0</ele><time>2026-04-26T12:03:14.002Z</time></trkpt><trkpt lat="45.5946599693153" lon="8.618710912637896"><ele>227.66666666666669</ele><time>2026-04-26T12:03:15.002Z</time></trkpt><trkpt lat="45.59465460963847" lon="8.618426763540752"><ele>227.33333333333334</ele><time>2026-04-26T12:03:16.002Z</time></trkpt><trkpt lat="45.59464723185762" lon="8.618136829214645"><ele>227.0</ele><time>2026-04-26T12:03:17.002Z</time></trkpt><trkpt lat="45.59464075474528" lon="8.61783984554724"><ele>226.33333333333334</ele><time>2026-04-26T12:03:18.002Z</time></trkpt><trkpt lat="45.59463107215027" lon="8.617535247390007"><ele>225.66666666666669</ele><time>2026-04-26T12:03:19.002Z</time></trkpt><trkpt lat="45.59460776522307" lon="8.617220416724216"><ele>225.0</ele><time>2026-04-26T12:03:20.002Z</time></trkpt><trkpt lat="45.59457961021908" lon="8.616908105740036"><ele>225.0</ele><time>2026-04-26T12:03:21.002Z</time></trkpt><trkpt lat="45.59453957631073" lon="8.616578513238304"><ele>225.0</ele><time>2026-04-26T12:03:22.002Z</time></trkpt><trkpt lat="45.59449353877945" lon="8.616251279802468"><ele>224.0</ele><time>2026-04-26T12:03:23.002Z</time></trkpt><trkpt lat="45.59444728697676" lon="8.615923262438908"><ele>223.0</ele><time>2026-04-26T12:03:24.002Z</time></trkpt><trkpt lat="45.59439658716495" lon="8.615583485437554"><ele>224.5</ele><time>2026-04-26T12:03:25.002Z</time></trkpt><trkpt lat="45.59434083477959" lon="8.615254064079021"><ele>226.0</ele><time>2026-04-26T12:03:26.002Z</time></trkpt><trkpt lat="45.594281756323184" lon="8.614956048682481"><ele>226.0</ele><time>2026-04-26T12:03:27.002Z</time></trkpt><trkpt lat="45.59421958334836" lon="8.614663606134089"><ele>226.0</ele><time>2026-04-26T12:03:28.002Z</time></trkpt><trkpt lat="45.59413341741295" lon="8.614389788765589"><ele>226.0</ele><time>2026-04-26T12:03:29.002Z</time></trkpt><trkpt lat="45.59403713009456" lon="8.614112303482242"><ele>226.33333333333331</ele><time>2026-04-26T12:03:30.002Z</time></trkpt><trkpt lat="45.593932962825676" lon="8.613840418557613"><ele>226.66666666666669</ele><time>2026-04-26T12:03:31.002Z</time></trkpt><trkpt lat="45.59383393272852" lon="8.613569312508488"><ele>227.0</ele><time>2026-04-26T12:03:32.002Z</time></trkpt><trkpt lat="45.59374055014492" lon="8.6132864114685"><ele>225.5</ele><time>2026-04-26T12:03:33.002Z</time></trkpt><trkpt lat="45.593650443247185" lon="8.612990028856721"><ele>224.0</ele><time>2026-04-26T12:03:34.002Z</time></trkpt><trkpt lat="45.59356615443011" lon="8.612681980093427"><ele>223.5</ele><time>2026-04-26T12:03:35.002Z</time></trkpt><trkpt lat="45.59348039844599" lon="8.612366729612559"><ele>223.0</ele><time>2026-04-26T12:03:36.002Z</time></trkpt><trkpt lat="45.59339614220799" lon="8.61205245212973"><ele>223.0</ele><time>2026-04-26T12:03:37.002Z</time></trkpt><trkpt lat="45.59331324275914" lon="8.611740678998581"><ele>223.0</ele><time>2026-04-26T12:03:38.002Z</time></trkpt><trkpt lat="45.593229842565144" lon="8.611417147776592"><ele>222.5</ele><time>2026-04-26T12:03:39.002Z</time></trkpt><trkpt lat="45.59314005673111" lon="8.611093703432166"><ele>222.0</ele><time>2026-04-26T12:03:40.002Z</time></trkpt><trkpt lat="45.59305229084931" lon="8.610768058887421"><ele>222.0</ele><time>2026-04-26T12:03:41.002Z</time></trkpt><trkpt lat="45.59296374801499" lon="8.610436590999043"><ele>222.0</ele><time>2026-04-26T12:03:42.002Z</time></trkpt><trkpt lat="45.59287585328564" lon="8.610120676385128"><ele>222.0</ele><time>2026-04-26T12:03:43.002Z</time></trkpt><trkpt lat="45.59279632418293" lon="8.609801829873282"><ele>222.0</ele><time>2026-04-26T12:03:44.002Z</time></trkpt><trkpt lat="45.592725019109324" lon="8.609481133089368"><ele>222.0</ele><time>2026-04-26T12:03:45.002Z</time></trkpt><trkpt lat="45.59266231015698" lon="8.609156243999152"><ele>222.0</ele><time>2026-04-26T12:03:46.002Z</time></trkpt><trkpt lat="45.59260526097875" lon="8.608833666939407"><ele>223.0</ele><time>2026-04-26T12:03:47.002Z</time></trkpt><trkpt lat="45.592554841331925" lon="8.60850126858247"><ele>224.0</ele><time>2026-04-26T12:03:48.002Z</time></trkpt><trkpt lat="45.59251374808605" lon="8.608175795899772"><ele>224.0</ele><time>2026-04-26T12:03:49.002Z</time></trkpt><trkpt lat="45.59247287110917" lon="8.607852145325772"><ele>224.0</ele><time>2026-04-26T12:03:50.002Z</time></trkpt><trkpt lat="45.592434182119526" lon="8.607532488380714"><ele>224.33333333333334</ele><time>2026-04-26T12:03:51.002Z</time></trkpt><trkpt lat="45.59239590728292" lon="8.607214652522504"><ele>224.66666666666669</ele><time>2026-04-26T12:03:52.002Z</time></trkpt><trkpt lat="45.592359534530964" lon="8.606907778043817"><ele>225.0</ele><time>2026-04-26T12:03:53.002Z</time></trkpt><trkpt lat="45.592323954058514" lon="8.606599476578145"><ele>225.33333333333331</ele><time>2026-04-26T12:03:54.002Z</time></trkpt><trkpt lat="45.5922875384852" lon="8.606296312835145"><ele>225.66666666666666</ele><time>2026-04-26T12:03:55.002Z</time></trkpt><trkpt lat="45.59225042497051" lon="8.605990663402071"><ele>226.0</ele><time>2026-04-26T12:03:56.002Z</time></trkpt><trkpt lat="45.592212799078354" lon="8.605690285394406"><ele>226.0</ele><time>2026-04-26T12:03:57.002Z</time></trkpt><trkpt lat="45.59217714287595" lon="8.60539052883091"><ele>226.0</ele><time>2026-04-26T12:03:58.002Z</time></trkpt><trkpt lat="45.592140463253685" lon="8.605085590328542"><ele>226.0</ele><time>2026-04-26T12:03:59.002Z</time></trkpt><trkpt lat="45.59210651652391" lon="8.604779281865236"><ele>226.0</ele><time>2026-04-26T12:04:00.002Z</time></trkpt><trkpt lat="45.59206906090381" lon="8.604477266941082"><ele>226.0</ele><time>2026-04-26T12:04:01.002Z</time></trkpt><trkpt lat="45.59203074820026" lon="8.604170856556474"><ele>226.0</ele><time>2026-04-26T12:04:02.002Z</time></trkpt><trkpt lat="45.591995295390014" lon="8.603863380955664"><ele>226.0</ele><time>2026-04-26T12:04:03.002Z</time></trkpt><trkpt lat="45.591955715560196" lon="8.603545876891811"><ele>226.0</ele><time>2026-04-26T12:04:04.002Z</time></trkpt><trkpt lat="45.59191844217067" lon="8.603229968546001"><ele>226.0</ele><time>2026-04-26T12:04:05.002Z</time></trkpt><trkpt lat="45.59188138476235" lon="8.602909518407754"><ele>226.0</ele><time>2026-04-26T12:04:06.002Z</time></trkpt><trkpt lat="45.59184217931433" lon="8.602585364534757"><ele>226.0</ele><time>2026-04-26T12:04:07.002Z</time></trkpt><trkpt lat="45.591807328137435" lon="8.602262196648537"><ele>226.0</ele><time>2026-04-26T12:04:08.002Z</time></trkpt><trkpt lat="45.59176791829741" lon="8.601934744959449"><ele>227.0</ele><time>2026-04-26T12:04:09.002Z</time></trkpt><trkpt lat="45.591729439598524" lon="8.601610836581985"><ele>228.0</ele><time>2026-04-26T12:04:10.002Z</time></trkpt><trkpt lat="45.591690067685214" lon="8.60128396313296"><ele>228.0</ele><time>2026-04-26T12:04:11.002Z</time></trkpt><trkpt lat="45.59164234601931" lon="8.60095227980895"><ele>228.0</ele><time>2026-04-26T12:04:12.002Z</time></trkpt><trkpt lat="45.59158722564148" lon="8.600622806289767"><ele>227.5</ele><time>2026-04-26T12:04:13.002Z</time></trkpt><trkpt lat="45.59152326634669" lon="8.60029184069113"><ele>227.0</ele><time>2026-04-26T12:04:14.002Z</time></trkpt><trkpt lat="45.59145605633901" lon="8.599954215891543"><ele>227.0</ele><time>2026-04-26T12:04:15.002Z</time></trkpt><trkpt lat="45.591391510997205" lon="8.599623934176325"><ele>227.0</ele><time>2026-04-26T12:04:16.002Z</time></trkpt><trkpt lat="45.591327835413644" lon="8.59928558471981"><ele>227.0</ele><time>2026-04-26T12:04:17.002Z</time></trkpt><trkpt lat="45.59126466521574" lon="8.598946911020601"><ele>227.0</ele><time>2026-04-26T12:04:18.002Z</time></trkpt><trkpt lat="45.59120111088205" lon="8.598602152655927"><ele>227.0</ele><time>2026-04-26T12:04:19.002Z</time></trkpt><trkpt lat="45.59113830173891" lon="8.598250127275962"><ele>227.0</ele><time>2026-04-26T12:04:20.002Z</time></trkpt><trkpt lat="45.59107237118107" lon="8.597895190952935"><ele>225.5</ele><time>2026-04-26T12:04:21.002Z</time></trkpt><trkpt lat="45.5910049716521" lon="8.597541927219925"><ele>224.0</ele><time>2026-04-26T12:04:22.002Z</time></trkpt><trkpt lat="45.5909319285854" lon="8.5971863520662"><ele>224.33333333333334</ele><time>2026-04-26T12:04:23.002Z</time></trkpt><trkpt lat="45.59084952570312" lon="8.59681208172625"><ele>224.66666666666669</ele><time>2026-04-26T12:04:24.002Z</time></trkpt><trkpt lat="45.59078162448179" lon="8.596652543211215"><ele>225.0</ele><time>2026-04-26T12:04:25.002Z</time></trkpt><trkpt lat="45.59066717678019" lon="8.596354128632965"><ele>223.5</ele><time>2026-04-26T12:04:26.002Z</time></trkpt><trkpt lat="45.59053253907113" lon="8.59606898784159"><ele>222.0</ele><time>2026-04-26T12:04:27.002Z</time></trkpt><trkpt lat="45.59038973481515" lon="8.595782917753828"><ele>222.5</ele><time>2026-04-26T12:04:28.002Z</time></trkpt><trkpt lat="45.5902469718182" lon="8.595499322887894"><ele>223.0</ele><time>2026-04-26T12:04:29.002Z</time></trkpt><trkpt lat="45.59010661344749" lon="8.595214989097718"><ele>224.0</ele><time>2026-04-26T12:04:30.002Z</time></trkpt><trkpt lat="45.58996601911977" lon="8.594928785235323"><ele>225.0</ele><time>2026-04-26T12:04:31.002Z</time></trkpt><trkpt lat="45.58982726101015" lon="8.594640095167637"><ele>226.0</ele><time>2026-04-26T12:04:32.002Z</time></trkpt><trkpt lat="45.589687565085974" lon="8.594352918534948"><ele>227.0</ele><time>2026-04-26T12:04:33.002Z</time></trkpt><trkpt lat="45.58954722493574" lon="8.594058578652234"><ele>225.0</ele><time>2026-04-26T12:04:34.002Z</time></trkpt><trkpt lat="45.58941988800701" lon="8.593739587573923"><ele>223.0</ele><time>2026-04-26T12:04:35.002Z</time></trkpt><trkpt lat="45.589262212979" lon="8.593437222624388"><ele>222.0</ele><time>2026-04-26T12:04:36.002Z</time></trkpt><trkpt lat="45.589122789612624" lon="8.593111058547782"><ele>221.0</ele><time>2026-04-26T12:04:37.002Z</time></trkpt><trkpt lat="45.58900258664423" lon="8.592736567353993"><ele>219.5</ele><time>2026-04-26T12:04:38.002Z</time></trkpt><trkpt lat="45.58887038068504" lon="8.592340200744298"><ele>218.0</ele><time>2026-04-26T12:04:39.002Z</time></trkpt><trkpt lat="45.588747472990015" lon="8.59192428653972"><ele>216.0</ele><time>2026-04-26T12:04:40.002Z</time></trkpt><trkpt lat="45.58863030596949" lon="8.591526227849242"><ele>214.0</ele><time>2026-04-26T12:04:41.002Z</time></trkpt><trkpt lat="45.588503871659" lon="8.591148957764364"><ele>213.5</ele><time>2026-04-26T12:04:42.002Z</time></trkpt><trkpt lat="45.5883961802815" lon="8.590758887777652"><ele>213.0</ele><time>2026-04-26T12:04:43.002Z</time></trkpt><trkpt lat="45.588285067365454" lon="8.590367710118246"><ele>213.0</ele><time>2026-04-26T12:04:44.002Z</time></trkpt><trkpt lat="45.588168741644424" lon="8.58998157284592"><ele>213.0</ele><time>2026-04-26T12:04:45.002Z</time></trkpt><trkpt lat="45.5880546348176" lon="8.589589275975795"><ele>212.5</ele><time>2026-04-26T12:04:46.002Z</time></trkpt><trkpt lat="45.5879433467657" lon="8.589160678602997"><ele>212.0</ele><time>2026-04-26T12:04:47.002Z</time></trkpt><trkpt lat="45.58781778891834" lon="8.588728023942913"><ele>212.0</ele><time>2026-04-26T12:04:48.002Z</time></trkpt><trkpt lat="45.58769367643641" lon="8.588301090240854"><ele>212.0</ele><time>2026-04-26T12:04:49.002Z</time></trkpt><trkpt lat="45.58757037009369" lon="8.58787939312577"><ele>212.0</ele><time>2026-04-26T12:04:50.002Z</time></trkpt><trkpt lat="45.58743791686187" lon="8.587467637845588"><ele>212.0</ele><time>2026-04-26T12:04:51.002Z</time></trkpt><trkpt lat="45.58731905176637" lon="8.587055203071133"><ele>211.5</ele><time>2026-04-26T12:04:52.002Z</time></trkpt><trkpt lat="45.58718498350951" lon="8.586655987629783"><ele>211.0</ele><time>2026-04-26T12:04:53.002Z</time></trkpt><trkpt lat="45.58703865934598" lon="8.58628794575741"><ele>211.0</ele><time>2026-04-26T12:04:54.002Z</time></trkpt><trkpt lat="45.58686805205191" lon="8.585954901617928"><ele>211.0</ele><time>2026-04-26T12:04:55.002Z</time></trkpt><trkpt lat="45.5866966239189" lon="8.585632435484232"><ele>212.0</ele><time>2026-04-26T12:04:56.001Z</time></trkpt><trkpt lat="45.58652805930896" lon="8.585333425305095"><ele>213.0</ele><time>2026-04-26T12:04:57.001Z</time></trkpt><trkpt lat="45.58637325845222" lon="8.585056806788947"><ele>213.0</ele><time>2026-04-26T12:04:58.001Z</time></trkpt><trkpt lat="45.58624670270762" lon="8.58479252530089"><ele>213.0</ele><time>2026-04-26T12:04:59.001Z</time></trkpt><trkpt lat="45.58616989982331" lon="8.584517121847464"><ele>213.0</ele><time>2026-04-26T12:05:00.001Z</time></trkpt><trkpt lat="45.58610639418986" lon="8.584221817991594"><ele>212.5</ele><time>2026-04-26T12:05:01.001Z</time></trkpt><trkpt lat="45.58602917688661" lon="8.583907118222433"><ele>212.0</ele><time>2026-04-26T12:05:02.001Z</time></trkpt><trkpt lat="45.58596853244418" lon="8.583585029733333"><ele>212.0</ele><time>2026-04-26T12:05:03Z</time></trkpt><trkpt lat="45.5858976523016" lon="8.583304824381315"><ele>212.0</ele><time>2026-04-26T12:05:04Z</time></trkpt><trkpt lat="45.58580822041694" lon="8.58307605763851"><ele>212.0</ele><time>2026-04-26T12:05:05Z</time></trkpt><trkpt lat="45.58569793648543" lon="8.582919444220211"><ele>212.0</ele><time>2026-04-26T12:05:06Z</time></trkpt><trkpt lat="45.58558373626154" lon="8.58280160426305"><ele>212.0</ele><time>2026-04-26T12:05:07Z</time></trkpt><trkpt lat="45.585520258903415" lon="8.58267561784211"><ele>212.0</ele><time>2026-04-26T12:05:08Z</time></trkpt><trkpt lat="45.585483934734754" lon="8.582598229876096"><ele>212.0</ele><time>2026-04-26T12:05:09Z</time></trkpt><trkpt lat="45.58562121545398" lon="8.58238517537169"><ele>212.0</ele><time>2026-04-26T12:05:10Z</time></trkpt><trkpt lat="45.585743989460994" lon="8.582183321034275"><ele>212.0</ele><time>2026-04-26T12:05:11Z</time></trkpt><trkpt lat="45.58589733573043" lon="8.581923167167792"><ele>212.0</ele><time>2026-04-26T12:05:12Z</time></trkpt><trkpt lat="45.586084162781205" lon="8.581630930611729"><ele>213.0</ele><time>2026-04-26T12:05:13Z</time></trkpt><trkpt lat="45.58627375592402" lon="8.581307118335252"><ele>214.0</ele><time>2026-04-26T12:05:14Z</time></trkpt><trkpt lat="45.58648050288911" lon="8.580972502972273"><ele>215.0</ele><time>2026-04-26T12:05:15Z</time></trkpt><trkpt lat="45.58670803046694" lon="8.580623086852778"><ele>216.0</ele><time>2026-04-26T12:05:16Z</time></trkpt><trkpt lat="45.586939931503146" lon="8.580258346283276"><ele>216.0</ele><time>2026-04-26T12:05:17Z</time></trkpt><trkpt lat="45.58716917852288" lon="8.579895049638852"><ele>216.0</ele><time>2026-04-26T12:05:18Z</time></trkpt><trkpt lat="45.587396260900476" lon="8.579531186995196"><ele>216.5</ele><time>2026-04-26T12:05:19Z</time></trkpt><trkpt lat="45.587616236226374" lon="8.579174975448472"><ele>217.0</ele><time>2026-04-26T12:05:20Z</time></trkpt><trkpt lat="45.587838370956995" lon="8.578819459657849"><ele>217.0</ele><time>2026-04-26T12:05:21Z</time></trkpt><trkpt lat="45.58805989831177" lon="8.578464378918886"><ele>217.0</ele><time>2026-04-26T12:05:22Z</time></trkpt><trkpt lat="45.58828246536609" lon="8.578110540454166"><ele>217.5</ele><time>2026-04-26T12:05:23Z</time></trkpt><trkpt lat="45.588507583830754" lon="8.577756445274867"><ele>218.0</ele><time>2026-04-26T12:05:24Z</time></trkpt><trkpt lat="45.58872923596007" lon="8.577402442627692"><ele>218.0</ele><time>2026-04-26T12:05:25Z</time></trkpt><trkpt lat="45.588951499838025" lon="8.577045290967227"><ele>218.0</ele><time>2026-04-26T12:05:26Z</time></trkpt><trkpt lat="45.58917409224114" lon="8.57668942219407"><ele>218.0</ele><time>2026-04-26T12:05:27Z</time></trkpt><trkpt lat="45.58939822800688" lon="8.57633795921195"><ele>218.0</ele><time>2026-04-26T12:05:28Z</time></trkpt><trkpt lat="45.58962131323348" lon="8.575985605365823"><ele>217.0</ele><time>2026-04-26T12:05:29Z</time></trkpt><trkpt lat="45.589846335478825" lon="8.575624765956283"><ele>216.0</ele><time>2026-04-26T12:05:30Z</time></trkpt><trkpt lat="45.59007164043726" lon="8.575260948325976"><ele>216.0</ele><time>2026-04-26T12:05:31Z</time></trkpt><trkpt lat="45.59029782170033" lon="8.574897819189927"><ele>216.0</ele><time>2026-04-26T12:05:32Z</time></trkpt><trkpt lat="45.590524988805264" lon="8.574536965883395"><ele>216.5</ele><time>2026-04-26T12:05:33Z</time></trkpt><trkpt lat="45.59075155450086" lon="8.574173991210344"><ele>217.0</ele><time>2026-04-26T12:05:34Z</time></trkpt><trkpt lat="45.590976920828545" lon="8.57381132275813"><ele>218.0</ele><time>2026-04-26T12:05:35Z</time></trkpt><trkpt lat="45.59120509044804" lon="8.573447730853475"><ele>219.0</ele><time>2026-04-26T12:05:36Z</time></trkpt><trkpt lat="45.59143135295257" lon="8.573085152018416"><ele>219.0</ele><time>2026-04-26T12:05:37Z</time></trkpt><trkpt lat="45.59165242351414" lon="8.572728900244574"><ele>219.0</ele><time>2026-04-26T12:05:38Z</time></trkpt><trkpt lat="45.59187589871799" lon="8.572370991406997"><ele>221.0</ele><time>2026-04-26T12:05:39Z</time></trkpt><trkpt lat="45.59209787625966" lon="8.572018514828208"><ele>223.0</ele><time>2026-04-26T12:05:40Z</time></trkpt><trkpt lat="45.59231803990599" lon="8.571666344971458"><ele>223.0</ele><time>2026-04-26T12:05:41Z</time></trkpt><trkpt lat="45.59254111565138" lon="8.571320698016757"><ele>223.0</ele><time>2026-04-26T12:05:42Z</time></trkpt><trkpt lat="45.59276158021639" lon="8.570969925920709"><ele>223.0</ele><time>2026-04-26T12:05:43Z</time></trkpt><trkpt lat="45.59297890467595" lon="8.570616502515545"><ele>223.0</ele><time>2026-04-26T12:05:44Z</time></trkpt><trkpt lat="45.59319979154081" lon="8.57026602424514"><ele>223.0</ele><time>2026-04-26T12:05:45Z</time></trkpt><trkpt lat="45.593420825418356" lon="8.569919009900472"><ele>223.0</ele><time>2026-04-26T12:05:46.001Z</time></trkpt><trkpt lat="45.593640319526216" lon="8.569576397035247"><ele>222.5</ele><time>2026-04-26T12:05:47.001Z</time></trkpt><trkpt lat="45.59385750836894" lon="8.569230225770111"><ele>222.0</ele><time>2026-04-26T12:05:48.001Z</time></trkpt><trkpt lat="45.59407357141951" lon="8.568886714388762"><ele>222.0</ele><time>2026-04-26T12:05:49.001Z</time></trkpt><trkpt lat="45.59429128170796" lon="8.568540810510465"><ele>222.0</ele><time>2026-04-26T12:05:50.001Z</time></trkpt><trkpt lat="45.59450067316179" lon="8.568201003313138"><ele>223.0</ele><time>2026-04-26T12:05:51.001Z</time></trkpt><trkpt lat="45.594707231589126" lon="8.567859383087002"><ele>224.0</ele><time>2026-04-26T12:05:52.001Z</time></trkpt><trkpt lat="45.5949190375112" lon="8.567523598918672"><ele>224.0</ele><time>2026-04-26T12:05:53.001Z</time></trkpt><trkpt lat="45.59513098770302" lon="8.567187762066112"><ele>224.0</ele><time>2026-04-26T12:05:54.001Z</time></trkpt><trkpt lat="45.59534476363656" lon="8.566854928602902"><ele>224.0</ele><time>2026-04-26T12:05:55.001Z</time></trkpt><trkpt lat="45.59555387007532" lon="8.56652156539795"><ele>224.0</ele><time>2026-04-26T12:05:56.001Z</time></trkpt><trkpt lat="45.59575560859888" lon="8.566187065175114"><ele>224.0</ele><time>2026-04-26T12:05:57.001Z</time></trkpt><trkpt lat="45.59594575906517" lon="8.565885102638891"><ele>224.0</ele><time>2026-04-26T12:05:58.001Z</time></trkpt><trkpt lat="45.596123262543614" lon="8.565606777524799"><ele>226.0</ele><time>2026-04-26T12:05:59.001Z</time></trkpt><trkpt lat="45.596298752078894" lon="8.565331269626531"><ele>228.0</ele><time>2026-04-26T12:06:00.001Z</time></trkpt><trkpt lat="45.5964648272577" lon="8.565064295694464"><ele>228.0</ele><time>2026-04-26T12:06:01.001Z</time></trkpt><trkpt lat="45.59661302839415" lon="8.564827815024252"><ele>228.0</ele><time>2026-04-26T12:06:02.001Z</time></trkpt><trkpt lat="45.596763320999884" lon="8.564593707569218"><ele>228.0</ele><time>2026-04-26T12:06:03.001Z</time></trkpt><trkpt lat="45.59691472598406" lon="8.564355292746306"><ele>227.33333333333331</ele><time>2026-04-26T12:06:04.001Z</time></trkpt><trkpt lat="45.5970679433896" lon="8.564118844386092"><ele>226.66666666666666</ele><time>2026-04-26T12:06:05.001Z</time></trkpt><trkpt lat="45.597214421763574" lon="8.563878947553627"><ele>226.0</ele><time>2026-04-26T12:06:06.001Z</time></trkpt><trkpt lat="45.59735720740216" lon="8.563613531294724"><ele>226.0</ele><time>2026-04-26T12:06:07.001Z</time></trkpt><trkpt lat="45.597517657759354" lon="8.563348860332665"><ele>226.0</ele><time>2026-04-26T12:06:08.001Z</time></trkpt><trkpt lat="45.59768575354683" lon="8.56309301815271"><ele>226.5</ele><time>2026-04-26T12:06:09.001Z</time></trkpt><trkpt lat="45.597851127132955" lon="8.562848764159476"><ele>227.0</ele><time>2026-04-26T12:06:10.001Z</time></trkpt><trkpt lat="45.59801538810451" lon="8.562598746676745"><ele>227.0</ele><time>2026-04-26T12:06:11.001Z</time></trkpt><trkpt lat="45.59817287950961" lon="8.56234495198167"><ele>227.0</ele><time>2026-04-26T12:06:12.001Z</time></trkpt><trkpt lat="45.59832802630197" lon="8.5620956374452"><ele>227.5</ele><time>2026-04-26T12:06:13.001Z</time></trkpt><trkpt lat="45.59848438988366" lon="8.561846920384568"><ele>228.0</ele><time>2026-04-26T12:06:14.001Z</time></trkpt><trkpt lat="45.598637063700274" lon="8.56160624724801"><ele>228.0</ele><time>2026-04-26T12:06:15.001Z</time></trkpt><trkpt lat="45.59878798199408" lon="8.561366365058424"><ele>228.0</ele><time>2026-04-26T12:06:16.001Z</time></trkpt><trkpt lat="45.59893806666366" lon="8.561129102460276"><ele>228.0</ele><time>2026-04-26T12:06:17.001Z</time></trkpt><trkpt lat="45.599086419452604" lon="8.560897512124502"><ele>228.0</ele><time>2026-04-26T12:06:18.001Z</time></trkpt><trkpt lat="45.59922803994186" lon="8.560668808064857"><ele>228.0</ele><time>2026-04-26T12:06:19.001Z</time></trkpt><trkpt lat="45.599354769525775" lon="8.56046086552986"><ele>228.0</ele><time>2026-04-26T12:06:20.001Z</time></trkpt><trkpt lat="45.59947424583507" lon="8.560266705363933"><ele>228.0</ele><time>2026-04-26T12:06:21.001Z</time></trkpt><trkpt lat="45.599582600548985" lon="8.560089243869374"><ele>228.0</ele><time>2026-04-26T12:06:22.001Z</time></trkpt><trkpt lat="45.59967629157965" lon="8.559936977020046"><ele>228.0</ele><time>2026-04-26T12:06:23.001Z</time></trkpt><trkpt lat="45.59976232253379" lon="8.559795859670881"><ele>228.0</ele><time>2026-04-26T12:06:24.001Z</time></trkpt><trkpt lat="45.599847349336315" lon="8.559661432210625"><ele>228.0</ele><time>2026-04-26T12:06:25.001Z</time></trkpt><trkpt lat="45.599927386470384" lon="8.55953525080032"><ele>228.0</ele><time>2026-04-26T12:06:26.001Z</time></trkpt><trkpt lat="45.600014562347056" lon="8.559397848626547"><ele>228.0</ele><time>2026-04-26T12:06:27.001Z</time></trkpt><trkpt lat="45.600107442574206" lon="8.559250540422788"><ele>228.0</ele><time>2026-04-26T12:06:28.001Z</time></trkpt><trkpt lat="45.60020348485767" lon="8.559092408887292"><ele>228.0</ele><time>2026-04-26T12:06:29.001Z</time></trkpt><trkpt lat="45.6003010054026" lon="8.558933191841557"><ele>228.0</ele><time>2026-04-26T12:06:30.001Z</time></trkpt><trkpt lat="45.60040102860414" lon="8.55877205324646"><ele>228.0</ele><time>2026-04-26T12:06:31.001Z</time></trkpt><trkpt lat="45.600498444471974" lon="8.558613095468234"><ele>228.0</ele><time>2026-04-26T12:06:32.001Z</time></trkpt><trkpt lat="45.60059505506283" lon="8.558453906878777"><ele>228.25</ele><time>2026-04-26T12:06:33.001Z</time></trkpt><trkpt lat="45.60068886052805" lon="8.55829174343811"><ele>228.5</ele><time>2026-04-26T12:06:34.001Z</time></trkpt><trkpt lat="45.60079228068088" lon="8.558134319618382"><ele>228.75</ele><time>2026-04-26T12:06:35.001Z</time></trkpt><trkpt lat="45.60089499087868" lon="8.557981368613927"><ele>229.0</ele><time>2026-04-26T12:06:36.001Z</time></trkpt><trkpt lat="45.6009935647227" lon="8.557815403311997"><ele>229.33333333333331</ele><time>2026-04-26T12:06:37.001Z</time></trkpt><trkpt lat="45.60109373408245" lon="8.557653998011359"><ele>229.66666666666669</ele><time>2026-04-26T12:06:38.001Z</time></trkpt><trkpt lat="45.60119633646721" lon="8.557493764260931"><ele>230.0</ele><time>2026-04-26T12:06:39.001Z</time></trkpt><trkpt lat="45.60129422448646" lon="8.557331118809957"><ele>230.33333333333334</ele><time>2026-04-26T12:06:40.001Z</time></trkpt><trkpt lat="45.60138150134487" lon="8.557160666000852"><ele>230.66666666666669</ele><time>2026-04-26T12:06:41.001Z</time></trkpt><trkpt lat="45.601483869407964" lon="8.556994987310372"><ele>231.0</ele><time>2026-04-26T12:06:42.001Z</time></trkpt><trkpt lat="45.60159087731655" lon="8.5568411348074"><ele>231.0</ele><time>2026-04-26T12:06:43.001Z</time></trkpt><trkpt lat="45.60170388227623" lon="8.55670586090818"><ele>231.0</ele><time>2026-04-26T12:06:44.001Z</time></trkpt><trkpt lat="45.60180371826793" lon="8.556546395938168"><ele>231.0</ele><time>2026-04-26T12:06:45.001Z</time></trkpt><trkpt lat="45.60190165467699" lon="8.556389965091373"><ele>231.0</ele><time>2026-04-26T12:06:46.001Z</time></trkpt><trkpt lat="45.601996122873096" lon="8.556237776361032"><ele>231.5</ele><time>2026-04-26T12:06:47.001Z</time></trkpt><trkpt lat="45.60209443604389" lon="8.556080170483197"><ele>232.0</ele><time>2026-04-26T12:06:48.001Z</time></trkpt><trkpt lat="45.60219507632321" lon="8.555918861123667"><ele>232.5</ele><time>2026-04-26T12:06:49.001Z</time></trkpt><trkpt lat="45.60229447553006" lon="8.555759540414716"><ele>233.0</ele><time>2026-04-26T12:06:50.001Z</time></trkpt><trkpt lat="45.602395250339264" lon="8.555598564613765"><ele>233.0</ele><time>2026-04-26T12:06:51.001Z</time></trkpt><trkpt lat="45.60248429785333" lon="8.555457904995258"><ele>233.0</ele><time>2026-04-26T12:06:52.001Z</time></trkpt><trkpt lat="45.60259692844273" lon="8.555279993413166"><ele>233.0</ele><time>2026-04-26T12:06:53.001Z</time></trkpt><trkpt lat="45.60269780983237" lon="8.555120656844338"><ele>233.0</ele><time>2026-04-26T12:06:54.001Z</time></trkpt><trkpt lat="45.602797396485485" lon="8.554963369895685"><ele>233.0</ele><time>2026-04-26T12:06:55.001Z</time></trkpt><trkpt lat="45.60288391798043" lon="8.554826718029538"><ele>233.0</ele><time>2026-04-26T12:06:56.001Z</time></trkpt><trkpt lat="45.60296704189361" lon="8.554695283438823"><ele>233.0</ele><time>2026-04-26T12:06:57.001Z</time></trkpt><trkpt lat="45.60304719467659" lon="8.554567170400444"><ele>233.25</ele><time>2026-04-26T12:06:58.001Z</time></trkpt><trkpt lat="45.60312093314265" lon="8.554449308241818"><ele>233.5</ele><time>2026-04-26T12:06:59.001Z</time></trkpt><trkpt lat="45.603203456025966" lon="8.554317367586401"><ele>233.75</ele><time>2026-04-26T12:07:00.001Z</time></trkpt><trkpt lat="45.60328855001534" lon="8.554181316157644"><ele>234.0</ele><time>2026-04-26T12:07:01.001Z</time></trkpt><trkpt lat="45.60337856531892" lon="8.554024254790932"><ele>234.0</ele><time>2026-04-26T12:07:01.999Z</time></trkpt><trkpt lat="45.60349806229379" lon="8.553923376910369"><ele>234.0</ele><time>2026-04-26T12:07:02.999Z</time></trkpt><trkpt lat="45.60359059598532" lon="8.553818415054993"><ele>234.0</ele><time>2026-04-26T12:07:03.999Z</time></trkpt><trkpt lat="45.60367979101426" lon="8.553721420543289"><ele>234.0</ele><time>2026-04-26T12:07:04.999Z</time></trkpt><trkpt lat="45.60376412573015" lon="8.553654984111217"><ele>234.6</ele><time>2026-04-26T12:07:05.999Z</time></trkpt><trkpt lat="45.603843966021444" lon="8.553582247589366"><ele>235.2</ele><time>2026-04-26T12:07:06.999Z</time></trkpt><trkpt lat="45.603940073780244" lon="8.553516832232761"><ele>235.79999999999998</ele><time>2026-04-26T12:07:07.999Z</time></trkpt><trkpt lat="45.60404525032794" lon="8.553471885933268"><ele>236.39999999999998</ele><time>2026-04-26T12:07:08.999Z</time></trkpt><trkpt lat="45.60414821079819" lon="8.553445090699551"><ele>237.0</ele><time>2026-04-26T12:07:09.999Z</time></trkpt><trkpt lat="45.604249779930065" lon="8.553384727996313"><ele>237.0</ele><time>2026-04-26T12:07:10.999Z</time></trkpt><trkpt lat="45.60433710192933" lon="8.553317445427899"><ele>237.0</ele><time>2026-04-26T12:07:11.999Z</time></trkpt><trkpt lat="45.60441403927791" lon="8.553257693537981"><ele>237.0</ele><time>2026-04-26T12:07:12.999Z</time></trkpt><trkpt lat="45.6044863999732" lon="8.553208429100678"><ele>237.0</ele><time>2026-04-26T12:07:13.999Z</time></trkpt><trkpt lat="45.604534686232945" lon="8.55310967477134"><ele>237.0</ele><time>2026-04-26T12:07:15.999Z</time></trkpt><trkpt lat="45.604438819622615" lon="8.552921956283285"><ele>237.0</ele><time>2026-04-26T12:07:16.999Z</time></trkpt><trkpt lat="45.604403944594196" lon="8.552793039267659"><ele>237.0</ele><time>2026-04-26T12:07:17.999Z</time></trkpt><trkpt lat="45.60436147038455" lon="8.55266406127249"><ele>237.0</ele><time>2026-04-26T12:07:18.999Z</time></trkpt><trkpt lat="45.604319236056845" lon="8.552518661417087"><ele>237.0</ele><time>2026-04-26T12:07:20Z</time></trkpt><trkpt lat="45.60427358025503" lon="8.552368506140615"><ele>237.0</ele><time>2026-04-26T12:07:21Z</time></trkpt><trkpt lat="45.60426720247519" lon="8.552187399213222"><ele>236.5</ele><time>2026-04-26T12:07:22Z</time></trkpt><trkpt lat="45.60424427084729" lon="8.552006894279954"><ele>236.0</ele><time>2026-04-26T12:07:23Z</time></trkpt><trkpt lat="45.60419721170919" lon="8.55183049195243"><ele>235.5</ele><time>2026-04-26T12:07:24Z</time></trkpt><trkpt lat="45.60412528986696" lon="8.551669766247041"><ele>235.0</ele><time>2026-04-26T12:07:25Z</time></trkpt><trkpt lat="45.60404663427219" lon="8.551542148921053"><ele>235.0</ele><time>2026-04-26T12:07:26Z</time></trkpt><trkpt lat="45.603976954907544" lon="8.551442914485284"><ele>235.0</ele><time>2026-04-26T12:07:27Z</time></trkpt><trkpt lat="45.60393281088403" lon="8.551349909370582"><ele>235.0</ele><time>2026-04-26T12:07:28Z</time></trkpt><trkpt lat="45.60393179356667" lon="8.551171990829321"><ele>235.0</ele><time>2026-04-26T12:07:30Z</time></trkpt><trkpt lat="45.60398461706922" lon="8.551062826460191"><ele>235.0</ele><time>2026-04-26T12:07:31Z</time></trkpt><trkpt lat="45.60404927206864" lon="8.550913763274941"><ele>234.75</ele><time>2026-04-26T12:07:32Z</time></trkpt><trkpt lat="45.60410077769305" lon="8.55076073101917"><ele>234.5</ele><time>2026-04-26T12:07:33Z</time></trkpt><trkpt lat="45.60415739938495" lon="8.550609023248201"><ele>234.25</ele><time>2026-04-26T12:07:34Z</time></trkpt><trkpt lat="45.60418868169432" lon="8.5504449224913"><ele>234.0</ele><time>2026-04-26T12:07:35Z</time></trkpt><trkpt lat="45.60415641192841" lon="8.550246573250961"><ele>234.0</ele><time>2026-04-26T12:07:36Z</time></trkpt><trkpt lat="45.604107031473724" lon="8.550076001733727"><ele>234.0</ele><time>2026-04-26T12:07:37Z</time></trkpt><trkpt lat="45.6040523366017" lon="8.549909197203396"><ele>234.0</ele><time>2026-04-26T12:07:38Z</time></trkpt><trkpt lat="45.60398205982293" lon="8.54974018928583"><ele>234.0</ele><time>2026-04-26T12:07:39Z</time></trkpt><trkpt lat="45.603904296740595" lon="8.549579795008771"><ele>233.66666666666669</ele><time>2026-04-26T12:07:40Z</time></trkpt><trkpt lat="45.6038076182912" lon="8.549426027769755"><ele>233.33333333333334</ele><time>2026-04-26T12:07:41Z</time></trkpt><trkpt lat="45.603716801483294" lon="8.54925252570966"><ele>233.0</ele><time>2026-04-26T12:07:42Z</time></trkpt><trkpt lat="45.60363775711912" lon="8.549062185574154"><ele>232.66666666666669</ele><time>2026-04-26T12:07:43Z</time></trkpt><trkpt lat="45.6035479603942" lon="8.54888906976339"><ele>232.33333333333331</ele><time>2026-04-26T12:07:44Z</time></trkpt><trkpt lat="45.60345811479958" lon="8.548715859715436"><ele>232.0</ele><time>2026-04-26T12:07:45Z</time></trkpt><trkpt lat="45.60335718207375" lon="8.548553812683108"><ele>231.5</ele><time>2026-04-26T12:07:46Z</time></trkpt><trkpt lat="45.603277943808465" lon="8.548386444066978"><ele>231.0</ele><time>2026-04-26T12:07:47Z</time></trkpt><trkpt lat="45.603209920849146" lon="8.548220551812706"><ele>230.5</ele><time>2026-04-26T12:07:48Z</time></trkpt><trkpt lat="45.603144469253856" lon="8.54806038025588"><ele>230.0</ele><time>2026-04-26T12:07:49Z</time></trkpt><trkpt lat="45.6030910404299" lon="8.547908052090763"><ele>230.0</ele><time>2026-04-26T12:07:50Z</time></trkpt><trkpt lat="45.603036924687146" lon="8.547770199824258"><ele>230.0</ele><time>2026-04-26T12:07:51Z</time></trkpt><trkpt lat="45.6029890079946" lon="8.547643610841835"><ele>230.0</ele><time>2026-04-26T12:07:52Z</time></trkpt><trkpt lat="45.60293889949255" lon="8.54752171765632"><ele>230.0</ele><time>2026-04-26T12:07:53Z</time></trkpt><trkpt lat="45.602889514870064" lon="8.547367765666127"><ele>230.0</ele><time>2026-04-26T12:07:54Z</time></trkpt><trkpt lat="45.602833536463635" lon="8.547211456743343"><ele>229.75</ele><time>2026-04-26T12:07:55Z</time></trkpt><trkpt lat="45.60276849728749" lon="8.54704396063754"><ele>229.5</ele><time>2026-04-26T12:07:56Z</time></trkpt><trkpt lat="45.602702872388406" lon="8.54686869676891"><ele>229.25</ele><time>2026-04-26T12:07:57Z</time></trkpt><trkpt lat="45.602631537807916" lon="8.546683860692154"><ele>229.0</ele><time>2026-04-26T12:07:58Z</time></trkpt><trkpt lat="45.602555785169585" lon="8.546490877039089"><ele>229.0</ele><time>2026-04-26T12:07:59Z</time></trkpt><trkpt lat="45.602479086993206" lon="8.546286494884306"><ele>229.0</ele><time>2026-04-26T12:08:00Z</time></trkpt><trkpt lat="45.60240003038348" lon="8.546080261062944"><ele>229.0</ele><time>2026-04-26T12:08:01Z</time></trkpt><trkpt lat="45.60231731489534" lon="8.545865901116121"><ele>229.0</ele><time>2026-04-26T12:08:02Z</time></trkpt><trkpt lat="45.60222742355183" lon="8.54564197161095"><ele>229.0</ele><time>2026-04-26T12:08:03Z</time></trkpt><trkpt lat="45.60214903771207" lon="8.545424102283548"><ele>229.0</ele><time>2026-04-26T12:08:04Z</time></trkpt><trkpt lat="45.60206739431871" lon="8.545205115535232"><ele>229.33333333333331</ele><time>2026-04-26T12:08:05Z</time></trkpt><trkpt lat="45.60198273158361" lon="8.544966715384792"><ele>229.66666666666669</ele><time>2026-04-26T12:08:06Z</time></trkpt><trkpt lat="45.60190882226927" lon="8.544736814206336"><ele>230.0</ele><time>2026-04-26T12:08:07Z</time></trkpt><trkpt lat="45.6018205880827" lon="8.544499226350235"><ele>229.33333333333334</ele><time>2026-04-26T12:08:08Z</time></trkpt><trkpt lat="45.601733077845864" lon="8.54426358786518"><ele>228.66666666666669</ele><time>2026-04-26T12:08:09Z</time></trkpt><trkpt lat="45.6016407680455" lon="8.54402146301609"><ele>228.0</ele><time>2026-04-26T12:08:10Z</time></trkpt><trkpt lat="45.60154752524152" lon="8.543778761318306"><ele>227.33333333333331</ele><time>2026-04-26T12:08:11Z</time></trkpt><trkpt lat="45.60144065100451" lon="8.543536854010007"><ele>226.66666666666666</ele><time>2026-04-26T12:08:12Z</time></trkpt><trkpt lat="45.601339012350984" lon="8.543274279345836"><ele>226.0</ele><time>2026-04-26T12:08:13Z</time></trkpt><trkpt lat="45.60123727820821" lon="8.543006174740857"><ele>227.33333333333331</ele><time>2026-04-26T12:08:14Z</time></trkpt><trkpt lat="45.60113442496855" lon="8.542734167237079"><ele>228.66666666666669</ele><time>2026-04-26T12:08:15Z</time></trkpt><trkpt lat="45.60103659264489" lon="8.542467898619428"><ele>230.0</ele><time>2026-04-26T12:08:16Z</time></trkpt><trkpt lat="45.600933832987245" lon="8.542196394743442"><ele>229.66666666666669</ele><time>2026-04-26T12:08:17Z</time></trkpt><trkpt lat="45.60083551065319" lon="8.541927508717555"><ele>229.33333333333331</ele><time>2026-04-26T12:08:18Z</time></trkpt><trkpt lat="45.60073140059936" lon="8.541648662323503"><ele>229.0</ele><time>2026-04-26T12:08:19Z</time></trkpt><trkpt lat="45.60063943353822" lon="8.541362211012782"><ele>228.66666666666666</ele><time>2026-04-26T12:08:20Z</time></trkpt><trkpt lat="45.600535526552065" lon="8.541091727770114"><ele>228.33333333333331</ele><time>2026-04-26T12:08:21.001Z</time></trkpt><trkpt lat="45.60043225266894" lon="8.540815315959637"><ele>228.0</ele><time>2026-04-26T12:08:22.001Z</time></trkpt><trkpt lat="45.60031516857405" lon="8.540548783001546"><ele>227.5</ele><time>2026-04-26T12:08:23.001Z</time></trkpt><trkpt lat="45.60022322745922" lon="8.540262206957646"><ele>227.0</ele><time>2026-04-26T12:08:24.001Z</time></trkpt><trkpt lat="45.600111967388315" lon="8.539971135354905"><ele>227.0</ele><time>2026-04-26T12:08:25.001Z</time></trkpt><trkpt lat="45.60000004841608" lon="8.53967741828163"><ele>227.0</ele><time>2026-04-26T12:08:26.001Z</time></trkpt><trkpt lat="45.59988837710369" lon="8.539392073053772"><ele>230.0</ele><time>2026-04-26T12:08:27.001Z</time></trkpt><trkpt lat="45.5996696686491" lon="8.538802484070914"><ele>230.0</ele><time>2026-04-26T12:08:29.001Z</time></trkpt><trkpt lat="45.59955750455747" lon="8.53850931339998"><ele>230.0</ele><time>2026-04-26T12:08:30.001Z</time></trkpt><trkpt lat="45.599431621498944" lon="8.538229272799317"><ele>229.0</ele><time>2026-04-26T12:08:31.001Z</time></trkpt><trkpt lat="45.59932341523764" lon="8.53793929575762"><ele>228.0</ele><time>2026-04-26T12:08:32.001Z</time></trkpt><trkpt lat="45.59923023151799" lon="8.537683279928718"><ele>227.0</ele><time>2026-04-26T12:08:33.001Z</time></trkpt><trkpt lat="45.599136587675304" lon="8.53743816981386"><ele>227.0</ele><time>2026-04-26T12:08:34.001Z</time></trkpt><trkpt lat="45.599048634190545" lon="8.537202973426467"><ele>227.0</ele><time>2026-04-26T12:08:35.001Z</time></trkpt><trkpt lat="45.598973846449184" lon="8.537004237260604"><ele>227.0</ele><time>2026-04-26T12:08:36.001Z</time></trkpt><trkpt lat="45.59889539171207" lon="8.536802959901864"><ele>228.0</ele><time>2026-04-26T12:08:37.001Z</time></trkpt><trkpt lat="45.598840768735734" lon="8.536611755040763"><ele>229.0</ele><time>2026-04-26T12:08:38.001Z</time></trkpt><trkpt lat="45.59877162604373" lon="8.536424112895228"><ele>230.0</ele><time>2026-04-26T12:08:39.001Z</time></trkpt><trkpt lat="45.598696379498385" lon="8.536217911082872"><ele>229.5</ele><time>2026-04-26T12:08:40.001Z</time></trkpt><trkpt lat="45.598610776585" lon="8.53602443878388"><ele>229.0</ele><time>2026-04-26T12:08:41.001Z</time></trkpt><trkpt lat="45.59853506206707" lon="8.535838068022047"><ele>228.5</ele><time>2026-04-26T12:08:42.001Z</time></trkpt><trkpt lat="45.59848450720728" lon="8.53565690597297"><ele>228.0</ele><time>2026-04-26T12:08:43.001Z</time></trkpt><trkpt lat="45.59842230213188" lon="8.53550306868346"><ele>228.25</ele><time>2026-04-26T12:08:44.001Z</time></trkpt><trkpt lat="45.59838305714812" lon="8.535340338007218"><ele>228.5</ele><time>2026-04-26T12:08:45.001Z</time></trkpt><trkpt lat="45.59833136543602" lon="8.53520793302733"><ele>228.75</ele><time>2026-04-26T12:08:46.001Z</time></trkpt><trkpt lat="45.598407580544475" lon="8.535022959186273"><ele>229.0</ele><time>2026-04-26T12:08:47.001Z</time></trkpt><trkpt lat="45.59846033077962" lon="8.534860295756113"><ele>229.0</ele><time>2026-04-26T12:08:48.001Z</time></trkpt><trkpt lat="45.59852532785597" lon="8.534677863595139"><ele>229.0</ele><time>2026-04-26T12:08:49.001Z</time></trkpt><trkpt lat="45.59869678568425" lon="8.534514853450478"><ele>229.0</ele><time>2026-04-26T12:08:50.001Z</time></trkpt><trkpt lat="45.598829886627364" lon="8.534332995608326"><ele>229.0</ele><time>2026-04-26T12:08:51.001Z</time></trkpt><trkpt lat="45.59897810915661" lon="8.534137631185645"><ele>229.0</ele><time>2026-04-26T12:08:52.001Z</time></trkpt><trkpt lat="45.59914925050694" lon="8.533960657827775"><ele>229.0</ele><time>2026-04-26T12:08:53.001Z</time></trkpt><trkpt lat="45.59933440015829" lon="8.533800968135921"><ele>229.5</ele><time>2026-04-26T12:08:54.001Z</time></trkpt><trkpt lat="45.59952259359698" lon="8.533646327707954"><ele>230.0</ele><time>2026-04-26T12:08:55.001Z</time></trkpt><trkpt lat="45.59972703791277" lon="8.533472722883351"><ele>230.0</ele><time>2026-04-26T12:08:56.001Z</time></trkpt><trkpt lat="45.599924741228726" lon="8.533314031069505"><ele>230.0</ele><time>2026-04-26T12:08:57.001Z</time></trkpt><trkpt lat="45.600133717132884" lon="8.533142901718454"><ele>230.0</ele><time>2026-04-26T12:08:58.001Z</time></trkpt><trkpt lat="45.600319460622565" lon="8.532967507813026"><ele>230.0</ele><time>2026-04-26T12:08:59.001Z</time></trkpt><trkpt lat="45.60050041474783" lon="8.532821405669864"><ele>230.0</ele><time>2026-04-26T12:09:00.001Z</time></trkpt><trkpt lat="45.60067530876562" lon="8.532672487934759"><ele>230.0</ele><time>2026-04-26T12:09:01.001Z</time></trkpt><trkpt lat="45.6008461524844" lon="8.532503085295469"><ele>230.0</ele><time>2026-04-26T12:09:02.001Z</time></trkpt><trkpt lat="45.6010052531427" lon="8.532305877368584"><ele>230.0</ele><time>2026-04-26T12:09:03.001Z</time></trkpt><trkpt lat="45.60116576968849" lon="8.53207862898078"><ele>231.0</ele><time>2026-04-26T12:09:04.001Z</time></trkpt><trkpt lat="45.60133000207128" lon="8.531808293763488"><ele>232.0</ele><time>2026-04-26T12:09:05.001Z</time></trkpt><trkpt lat="45.60150289995117" lon="8.53150395125197"><ele>232.0</ele><time>2026-04-26T12:09:06.001Z</time></trkpt><trkpt lat="45.60168343511847" lon="8.531187223767109"><ele>232.0</ele><time>2026-04-26T12:09:07.001Z</time></trkpt><trkpt lat="45.60187211867305" lon="8.530866450914369"><ele>231.0</ele><time>2026-04-26T12:09:08Z</time></trkpt><trkpt lat="45.6020655337002" lon="8.530540157186044"><ele>230.0</ele><time>2026-04-26T12:09:09Z</time></trkpt><trkpt lat="45.60225716590126" lon="8.530216171563115"><ele>230.0</ele><time>2026-04-26T12:09:10Z</time></trkpt><trkpt lat="45.602447363129315" lon="8.529896016041187"><ele>230.0</ele><time>2026-04-26T12:09:11Z</time></trkpt><trkpt lat="45.60263699116491" lon="8.529571772053027"><ele>230.5</ele><time>2026-04-26T12:09:12Z</time></trkpt><trkpt lat="45.602831335961305" lon="8.529253429347445"><ele>231.0</ele><time>2026-04-26T12:09:13Z</time></trkpt><trkpt lat="45.603023938597154" lon="8.528933941759785"><ele>232.5</ele><time>2026-04-26T12:09:14Z</time></trkpt><trkpt lat="45.60322744419117" lon="8.528632776817624"><ele>234.0</ele><time>2026-04-26T12:09:15Z</time></trkpt><trkpt lat="45.603425172991294" lon="8.528328964436474"><ele>234.0</ele><time>2026-04-26T12:09:16Z</time></trkpt><trkpt lat="45.60363122519738" lon="8.528048365817268"><ele>234.0</ele><time>2026-04-26T12:09:17Z</time></trkpt><trkpt lat="45.603852847835206" lon="8.527771360034334"><ele>234.5</ele><time>2026-04-26T12:09:18Z</time></trkpt><trkpt lat="45.60407996230309" lon="8.527505848402646"><ele>235.0</ele><time>2026-04-26T12:09:19Z</time></trkpt><trkpt lat="45.604310154676355" lon="8.527245346940413"><ele>236.0</ele><time>2026-04-26T12:09:20Z</time></trkpt><trkpt lat="45.60453706613928" lon="8.5269857778727"><ele>237.0</ele><time>2026-04-26T12:09:21Z</time></trkpt><trkpt lat="45.6047653863063" lon="8.526729243343757"><ele>237.0</ele><time>2026-04-26T12:09:22Z</time></trkpt><trkpt lat="45.604998618653106" lon="8.526465266678303"><ele>237.0</ele><time>2026-04-26T12:09:23Z</time></trkpt><trkpt lat="45.60522627490246" lon="8.526205222148457"><ele>236.0</ele><time>2026-04-26T12:09:24Z</time></trkpt><trkpt lat="45.6054452305374" lon="8.525925182912884"><ele>235.0</ele><time>2026-04-26T12:09:25Z</time></trkpt><trkpt lat="45.605673087039484" lon="8.525672676949927"><ele>235.0</ele><time>2026-04-26T12:09:26Z</time></trkpt><trkpt lat="45.6059041788101" lon="8.525406612854718"><ele>235.0</ele><time>2026-04-26T12:09:27Z</time></trkpt><trkpt lat="45.606139882969714" lon="8.525155477448658"><ele>234.5</ele><time>2026-04-26T12:09:28Z</time></trkpt><trkpt lat="45.60638773429823" lon="8.524937196821655"><ele>234.0</ele><time>2026-04-26T12:09:29Z</time></trkpt><trkpt lat="45.60664267655728" lon="8.524731763290887"><ele>234.0</ele><time>2026-04-26T12:09:30Z</time></trkpt><trkpt lat="45.606885500011366" lon="8.524511342827122"><ele>234.0</ele><time>2026-04-26T12:09:31Z</time></trkpt><trkpt lat="45.60712114445527" lon="8.52432569981302"><ele>233.5</ele><time>2026-04-26T12:09:32Z</time></trkpt><trkpt lat="45.60733678921272" lon="8.524140511935084"><ele>233.0</ele><time>2026-04-26T12:09:33Z</time></trkpt><trkpt lat="45.60754909105825" lon="8.523954994506235"><ele>233.0</ele><time>2026-04-26T12:09:34Z</time></trkpt><trkpt lat="45.6077594377845" lon="8.523766267386508"><ele>233.0</ele><time>2026-04-26T12:09:35Z</time></trkpt><trkpt lat="45.60796209432835" lon="8.523584842014408"><ele>235.5</ele><time>2026-04-26T12:09:36Z</time></trkpt><trkpt lat="45.608155543929314" lon="8.52340300808146"><ele>238.0</ele><time>2026-04-26T12:09:37Z</time></trkpt><trkpt lat="45.60834450629773" lon="8.523223339152139"><ele>238.0</ele><time>2026-04-26T12:09:38Z</time></trkpt><trkpt lat="45.60853616092468" lon="8.523039849366162"><ele>238.0</ele><time>2026-04-26T12:09:39Z</time></trkpt><trkpt lat="45.60871264324632" lon="8.522873281392265"><ele>238.0</ele><time>2026-04-26T12:09:40Z</time></trkpt><trkpt lat="45.60887636479207" lon="8.522722825923724"><ele>237.5</ele><time>2026-04-26T12:09:41Z</time></trkpt><trkpt lat="45.60902920868624" lon="8.522582087933838"><ele>237.0</ele><time>2026-04-26T12:09:42Z</time></trkpt><trkpt lat="45.60915568416936" lon="8.522469761136152"><ele>236.5</ele><time>2026-04-26T12:09:43Z</time></trkpt><trkpt lat="45.609244075116216" lon="8.522388398482791"><ele>236.0</ele><time>2026-04-26T12:09:44Z</time></trkpt><trkpt lat="45.60929814738582" lon="8.522308158372633"><ele>236.0</ele><time>2026-04-26T12:09:45Z</time></trkpt><trkpt lat="45.60929772542212" lon="8.5222054061597"><ele>236.0</ele><time>2026-04-26T12:09:46Z</time></trkpt><trkpt lat="45.60926060198348" lon="8.522091652855408"><ele>236.0</ele><time>2026-04-26T12:09:47Z</time></trkpt><trkpt lat="45.60918929215097" lon="8.521936031396038"><ele>236.0</ele><time>2026-04-26T12:09:48Z</time></trkpt><trkpt lat="45.60909911894333" lon="8.521744376476775"><ele>235.66666666666669</ele><time>2026-04-26T12:09:49Z</time></trkpt><trkpt lat="45.609017597199895" lon="8.52151952512957"><ele>235.33333333333331</ele><time>2026-04-26T12:09:50Z</time></trkpt><trkpt lat="45.608933996555336" lon="8.52128532392905"><ele>235.0</ele><time>2026-04-26T12:09:51Z</time></trkpt><trkpt lat="45.60884478314804" lon="8.521052185878249"><ele>235.33333333333331</ele><time>2026-04-26T12:09:52Z</time></trkpt><trkpt lat="45.60877149421859" lon="8.520835557418456"><ele>235.66666666666669</ele><time>2026-04-26T12:09:53Z</time></trkpt><trkpt lat="45.60869776929078" lon="8.520625325078313"><ele>236.0</ele><time>2026-04-26T12:09:54Z</time></trkpt><trkpt lat="45.60862387634409" lon="8.52042053741613"><ele>235.5</ele><time>2026-04-26T12:09:55Z</time></trkpt><trkpt lat="45.608556327337745" lon="8.520232710336925"><ele>235.0</ele><time>2026-04-26T12:09:56Z</time></trkpt><trkpt lat="45.60848945958721" lon="8.520057643044218"><ele>234.5</ele><time>2026-04-26T12:09:57Z</time></trkpt><trkpt lat="45.608428171598256" lon="8.5198888203926"><ele>234.0</ele><time>2026-04-26T12:09:58Z</time></trkpt><trkpt lat="45.608369975293606" lon="8.519708919671377"><ele>235.33333333333331</ele><time>2026-04-26T12:09:59Z</time></trkpt><trkpt lat="45.60831110312505" lon="8.519521996893655"><ele>236.66666666666666</ele><time>2026-04-26T12:10:00Z</time></trkpt><trkpt lat="45.608244151530315" lon="8.519312556927167"><ele>238.0</ele><time>2026-04-26T12:10:01Z</time></trkpt><trkpt lat="45.60815042707459" lon="8.519077642948732"><ele>238.0</ele><time>2026-04-26T12:10:02Z</time></trkpt><trkpt lat="45.60806119266085" lon="8.518835096187532"><ele>238.0</ele><time>2026-04-26T12:10:03Z</time></trkpt><trkpt lat="45.607975616075805" lon="8.518599062234346"><ele>238.0</ele><time>2026-04-26T12:10:04Z</time></trkpt><trkpt lat="45.60788754349647" lon="8.518355375163203"><ele>238.33333333333331</ele><time>2026-04-26T12:10:05Z</time></trkpt><trkpt lat="45.607802177915005" lon="8.518113021856054"><ele>238.66666666666669</ele><time>2026-04-26T12:10:06Z</time></trkpt><trkpt lat="45.60771190213354" lon="8.517863652047248"><ele>239.0</ele><time>2026-04-26T12:10:07Z</time></trkpt><trkpt lat="45.60762148785152" lon="8.517611964308566"><ele>239.0</ele><time>2026-04-26T12:10:08Z</time></trkpt><trkpt lat="45.60752986954156" lon="8.517358284450799"><ele>239.0</ele><time>2026-04-26T12:10:09Z</time></trkpt><trkpt lat="45.607440835724624" lon="8.51710380681946"><ele>239.0</ele><time>2026-04-26T12:10:10.001Z</time></trkpt><trkpt lat="45.6073448988199" lon="8.516844768092689"><ele>239.0</ele><time>2026-04-26T12:10:11.001Z</time></trkpt><trkpt lat="45.607251676669684" lon="8.516586652102246"><ele>239.0</ele><time>2026-04-26T12:10:12.001Z</time></trkpt><trkpt lat="45.60715272861579" lon="8.516324490552718"><ele>239.0</ele><time>2026-04-26T12:10:13.001Z</time></trkpt><trkpt lat="45.607056949923184" lon="8.516052544416354"><ele>238.66666666666669</ele><time>2026-04-26T12:10:14.001Z</time></trkpt><trkpt lat="45.6069621124509" lon="8.515795173505532"><ele>238.33333333333331</ele><time>2026-04-26T12:10:15.001Z</time></trkpt><trkpt lat="45.60688545519002" lon="8.515521779410202"><ele>238.0</ele><time>2026-04-26T12:10:16.001Z</time></trkpt><trkpt lat="45.60678265594575" lon="8.515273561709439"><ele>238.0</ele><time>2026-04-26T12:10:17.001Z</time></trkpt><trkpt lat="45.60669387028375" lon="8.515035543690253"><ele>238.0</ele><time>2026-04-26T12:10:18.001Z</time></trkpt><trkpt lat="45.60662666937824" lon="8.51479925859592"><ele>238.0</ele><time>2026-04-26T12:10:19.001Z</time></trkpt><trkpt lat="45.60654622350761" lon="8.514579170981515"><ele>237.66666666666666</ele><time>2026-04-26T12:10:20.001Z</time></trkpt><trkpt lat="45.60644821815756" lon="8.514357168929791"><ele>237.33333333333331</ele><time>2026-04-26T12:10:21.001Z</time></trkpt><trkpt lat="45.60637833748972" lon="8.514118608263612"><ele>237.0</ele><time>2026-04-26T12:10:22.001Z</time></trkpt><trkpt lat="45.606281314756245" lon="8.513895233122234"><ele>237.33333333333331</ele><time>2026-04-26T12:10:23.001Z</time></trkpt><trkpt lat="45.606205825996334" lon="8.513635643231996"><ele>237.66666666666666</ele><time>2026-04-26T12:10:24.001Z</time></trkpt><trkpt lat="45.60611234509565" lon="8.51337331735305"><ele>238.0</ele><time>2026-04-26T12:10:25.001Z</time></trkpt><trkpt lat="45.606016360855506" lon="8.513103966584582"><ele>236.33333333333331</ele><time>2026-04-26T12:10:26.001Z</time></trkpt><trkpt lat="45.60592148943723" lon="8.512837738640691"><ele>234.66666666666669</ele><time>2026-04-26T12:10:27.001Z</time></trkpt><trkpt lat="45.605820785213176" lon="8.512555142664448"><ele>233.0</ele><time>2026-04-26T12:10:28.001Z</time></trkpt><trkpt lat="45.6057215339887" lon="8.512279242961695"><ele>232.33333333333334</ele><time>2026-04-26T12:10:29.001Z</time></trkpt><trkpt lat="45.60561960668902" lon="8.511997493459585"><ele>231.66666666666669</ele><time>2026-04-26T12:10:30.001Z</time></trkpt><trkpt lat="45.605518580221364" lon="8.511716184830616"><ele>231.0</ele><time>2026-04-26T12:10:31.001Z</time></trkpt><trkpt lat="45.605421131843606" lon="8.51143464538387"><ele>231.5</ele><time>2026-04-26T12:10:32.001Z</time></trkpt><trkpt lat="45.60532844987352" lon="8.511139712310241"><ele>232.0</ele><time>2026-04-26T12:10:33.001Z</time></trkpt><trkpt lat="45.6052548348173" lon="8.510831546894062"><ele>232.0</ele><time>2026-04-26T12:10:34.001Z</time></trkpt><trkpt lat="45.60519066233468" lon="8.510522586495851"><ele>232.0</ele><time>2026-04-26T12:10:35.001Z</time></trkpt><trkpt lat="45.605134104115415" lon="8.510198336163436"><ele>232.0</ele><time>2026-04-26T12:10:36.001Z</time></trkpt><trkpt lat="45.605078387688145" lon="8.509861994442423"><ele>232.0</ele><time>2026-04-26T12:10:37.001Z</time></trkpt><trkpt lat="45.6050123454727" lon="8.509515844401445"><ele>232.0</ele><time>2026-04-26T12:10:38.001Z</time></trkpt><trkpt lat="45.604948191818146" lon="8.509156158219993"><ele>232.0</ele><time>2026-04-26T12:10:39.001Z</time></trkpt><trkpt lat="45.604879405038716" lon="8.508790051864574"><ele>231.5</ele><time>2026-04-26T12:10:40.001Z</time></trkpt><trkpt lat="45.604823541444176" lon="8.508422376896931"><ele>231.0</ele><time>2026-04-26T12:10:41.001Z</time></trkpt><trkpt lat="45.6047629651539" lon="8.508041309322142"><ele>231.0</ele><time>2026-04-26T12:10:42.001Z</time></trkpt><trkpt lat="45.60469459000111" lon="8.507659346424832"><ele>231.0</ele><time>2026-04-26T12:10:43.001Z</time></trkpt><trkpt lat="45.604644217387374" lon="8.507274778366527"><ele>231.0</ele><time>2026-04-26T12:10:44.001Z</time></trkpt><trkpt lat="45.60456561732497" lon="8.506898778051054"><ele>231.0</ele><time>2026-04-26T12:10:45.001Z</time></trkpt><trkpt lat="45.60450263943648" lon="8.506513226205406"><ele>231.5</ele><time>2026-04-26T12:10:46.001Z</time></trkpt><trkpt lat="45.604446389340644" lon="8.506164714663656"><ele>232.0</ele><time>2026-04-26T12:10:47.001Z</time></trkpt><trkpt lat="45.60439006388413" lon="8.505835900614473"><ele>232.0</ele><time>2026-04-26T12:10:48.001Z</time></trkpt><trkpt lat="45.60433520109318" lon="8.505530070139944"><ele>232.0</ele><time>2026-04-26T12:10:49.001Z</time></trkpt><trkpt lat="45.60430341995838" lon="8.50523943934166"><ele>232.0</ele><time>2026-04-26T12:10:50.001Z</time></trkpt><trkpt lat="45.60425990575448" lon="8.504976132037363"><ele>232.0</ele><time>2026-04-26T12:10:51.001Z</time></trkpt><trkpt lat="45.60420513727206" lon="8.504743513275223"><ele>232.0</ele><time>2026-04-26T12:10:52.001Z</time></trkpt><trkpt lat="45.60418354601071" lon="8.504514074210979"><ele>232.0</ele><time>2026-04-26T12:10:53.001Z</time></trkpt><trkpt lat="45.60414018362366" lon="8.504336197123468"><ele>232.25</ele><time>2026-04-26T12:10:54.001Z</time></trkpt><trkpt lat="45.60411145291331" lon="8.50414595664582"><ele>232.5</ele><time>2026-04-26T12:10:55.001Z</time></trkpt><trkpt lat="45.6040851713329" lon="8.50397311752007"><ele>232.75</ele><time>2026-04-26T12:10:56.001Z</time></trkpt><trkpt lat="45.604067431070455" lon="8.50380544425888"><ele>233.0</ele><time>2026-04-26T12:10:57.001Z</time></trkpt><trkpt lat="45.604033924826986" lon="8.503653318152985"><ele>233.60000000000002</ele><time>2026-04-26T12:10:58.001Z</time></trkpt><trkpt lat="45.604013493668226" lon="8.50352382216569"><ele>234.20000000000002</ele><time>2026-04-26T12:10:59.001Z</time></trkpt><trkpt lat="45.60399581982159" lon="8.503402311343534"><ele>234.8</ele><time>2026-04-26T12:11:00.001Z</time></trkpt><trkpt lat="45.60397947978604" lon="8.503282543788755"><ele>235.4</ele><time>2026-04-26T12:11:01.001Z</time></trkpt><trkpt lat="45.603950844135504" lon="8.503149245749702"><ele>236.0</ele><time>2026-04-26T12:11:02.001Z</time></trkpt><trkpt lat="45.60392960634582" lon="8.503008679177505"><ele>236.0</ele><time>2026-04-26T12:11:03.001Z</time></trkpt><trkpt lat="45.603910782919705" lon="8.502861124711423"><ele>236.00000000000003</ele><time>2026-04-26T12:11:04.001Z</time></trkpt><trkpt lat="45.603881042769665" lon="8.502703930489261"><ele>236.00000000000003</ele><time>2026-04-26T12:11:05.001Z</time></trkpt><trkpt lat="45.60385620564975" lon="8.502546092083472"><ele>236.0</ele><time>2026-04-26T12:11:06.001Z</time></trkpt><trkpt lat="45.60383196926909" lon="8.502386342999262"><ele>236.0</ele><time>2026-04-26T12:11:07.001Z</time></trkpt><trkpt lat="45.603802250518115" lon="8.502225275842262"><ele>236.0</ele><time>2026-04-26T12:11:08.001Z</time></trkpt><trkpt lat="45.60377861374866" lon="8.50206767770796"><ele>236.00000000000003</ele><time>2026-04-26T12:11:09.001Z</time></trkpt><trkpt lat="45.60375017350291" lon="8.501907585033006"><ele>236.00000000000003</ele><time>2026-04-26T12:11:10.001Z</time></trkpt><trkpt lat="45.60371725149538" lon="8.501768465130686"><ele>236.0</ele><time>2026-04-26T12:11:11.001Z</time></trkpt><trkpt lat="45.603659739758434" lon="8.501649438232075"><ele>236.0</ele><time>2026-04-26T12:11:12.001Z</time></trkpt><trkpt lat="45.60358959012035" lon="8.501554403314756"><ele>236.20000000000002</ele><time>2026-04-26T12:11:13.001Z</time></trkpt><trkpt lat="45.60352268702064" lon="8.501462764293002"><ele>236.40000000000003</ele><time>2026-04-26T12:11:13.999Z</time></trkpt><trkpt lat="45.6034622576054" lon="8.501357781579223"><ele>236.6</ele><time>2026-04-26T12:11:14.999Z</time></trkpt><trkpt lat="45.603392298508744" lon="8.501236311564151"><ele>236.8</ele><time>2026-04-26T12:11:15.999Z</time></trkpt><trkpt lat="45.60333398394665" lon="8.501141880777888"><ele>237.0</ele><time>2026-04-26T12:11:16.999Z</time></trkpt><trkpt lat="45.603274153002204" lon="8.501042191160776"><ele>237.16666666666666</ele><time>2026-04-26T12:11:17.999Z</time></trkpt><trkpt lat="45.6032185750845" lon="8.500954663212024"><ele>237.33333333333331</ele><time>2026-04-26T12:11:18.999Z</time></trkpt><trkpt lat="45.603173326983374" lon="8.500861754342838"><ele>237.5</ele><time>2026-04-26T12:11:19.999Z</time></trkpt><trkpt lat="45.60312925287836" lon="8.500796814201143"><ele>237.66666666666666</ele><time>2026-04-26T12:11:20.999Z</time></trkpt><trkpt lat="45.60312272095677" lon="8.500674320983844"><ele>237.83333333333331</ele><time>2026-04-26T12:11:22.999Z</time></trkpt><trkpt lat="45.603177126520414" lon="8.500601968646889"><ele>238.0</ele><time>2026-04-26T12:11:23.999Z</time></trkpt><trkpt lat="45.603255871490596" lon="8.50054805052386"><ele>237.99999999999997</ele><time>2026-04-26T12:11:24.999Z</time></trkpt><trkpt lat="45.60331634704081" lon="8.500480097526983"><ele>238.0</ele><time>2026-04-26T12:11:25.999Z</time></trkpt><trkpt lat="45.60339275446893" lon="8.50041153637408"><ele>238.0</ele><time>2026-04-26T12:11:26.999Z</time></trkpt><trkpt lat="45.603451793718754" lon="8.500354352814611"><ele>238.0</ele><time>2026-04-26T12:11:27.999Z</time></trkpt><trkpt lat="45.60351854908297" lon="8.500228986579318"><ele>237.99999999999997</ele><time>2026-04-26T12:11:29.999Z</time></trkpt><trkpt lat="45.60347165031392" lon="8.500120621376388"><ele>238.0</ele><time>2026-04-26T12:11:30.999Z</time></trkpt><trkpt lat="45.6034177466041" lon="8.500005262047804"><ele>237.75</ele><time>2026-04-26T12:11:31.999Z</time></trkpt><trkpt lat="45.60336580997167" lon="8.49986347858861"><ele>237.5</ele><time>2026-04-26T12:11:33Z</time></trkpt><trkpt lat="45.60330868066616" lon="8.499701214788136"><ele>237.25</ele><time>2026-04-26T12:11:34Z</time></trkpt><trkpt lat="45.60324656334438" lon="8.499544311858624"><ele>237.0</ele><time>2026-04-26T12:11:35Z</time></trkpt><trkpt lat="45.60318306952974" lon="8.499388233858006"><ele>236.25</ele><time>2026-04-26T12:11:36Z</time></trkpt><trkpt lat="45.60309104915877" lon="8.49923975329899"><ele>235.5</ele><time>2026-04-26T12:11:37Z</time></trkpt><trkpt lat="45.6029950911685" lon="8.499110742627643"><ele>234.75</ele><time>2026-04-26T12:11:38Z</time></trkpt><trkpt lat="45.60292248055306" lon="8.498994489452494"><ele>234.0</ele><time>2026-04-26T12:11:39Z</time></trkpt><trkpt lat="45.60286497581524" lon="8.498888227942315"><ele>234.0</ele><time>2026-04-26T12:11:40Z</time></trkpt><trkpt lat="45.60283236774331" lon="8.498805847449058"><ele>233.99999999999997</ele><time>2026-04-26T12:11:41Z</time></trkpt><trkpt lat="45.602840051093715" lon="8.498620228161679"><ele>233.99999999999997</ele><time>2026-04-26T12:11:43Z</time></trkpt><trkpt lat="45.60291937579311" lon="8.498530866991386"><ele>234.0</ele><time>2026-04-26T12:11:44Z</time></trkpt><trkpt lat="45.603040227589986" lon="8.498471262241848"><ele>234.0</ele><time>2026-04-26T12:11:45Z</time></trkpt><trkpt lat="45.60319505210246" lon="8.498389133782041"><ele>234.0</ele><time>2026-04-26T12:11:46Z</time></trkpt><trkpt lat="45.6033609140114" lon="8.498249586783826"><ele>234.0</ele><time>2026-04-26T12:11:47Z</time></trkpt><trkpt lat="45.60356390771529" lon="8.498095316715865"><ele>234.0</ele><time>2026-04-26T12:11:48Z</time></trkpt><trkpt lat="45.603774710368455" lon="8.497931805065083"><ele>234.5</ele><time>2026-04-26T12:11:49Z</time></trkpt><trkpt lat="45.60398916944772" lon="8.497767941743591"><ele>235.0</ele><time>2026-04-26T12:11:50Z</time></trkpt><trkpt lat="45.604207847369956" lon="8.49760589003833"><ele>235.0</ele><time>2026-04-26T12:11:51Z</time></trkpt><trkpt lat="45.604429270082065" lon="8.497443271773891"><ele>235.0</ele><time>2026-04-26T12:11:52Z</time></trkpt><trkpt lat="45.60465440631199" lon="8.497274915917128"><ele>235.0</ele><time>2026-04-26T12:11:53Z</time></trkpt><trkpt lat="45.604871362514835" lon="8.49711228002117"><ele>235.0</ele><time>2026-04-26T12:11:54Z</time></trkpt><trkpt lat="45.60508199888719" lon="8.496952945109689"><ele>235.0</ele><time>2026-04-26T12:11:55Z</time></trkpt><trkpt lat="45.605285470229" lon="8.496801659635773"><ele>235.0</ele><time>2026-04-26T12:11:56Z</time></trkpt><trkpt lat="45.60549128091629" lon="8.496651705710725"><ele>235.5</ele><time>2026-04-26T12:11:57Z</time></trkpt><trkpt lat="45.6056965595387" lon="8.49650461943663"><ele>236.0</ele><time>2026-04-26T12:11:58Z</time></trkpt><trkpt lat="45.605903228190776" lon="8.496364613868153"><ele>235.5</ele><time>2026-04-26T12:11:59Z</time></trkpt><trkpt lat="45.60611607485864" lon="8.49624154681656"><ele>235.0</ele><time>2026-04-26T12:12:00Z</time></trkpt><trkpt lat="45.606329400643595" lon="8.496143062982654"><ele>235.66666666666666</ele><time>2026-04-26T12:12:01Z</time></trkpt><trkpt lat="45.606543075908554" lon="8.49606028239132"><ele>236.33333333333331</ele><time>2026-04-26T12:12:02Z</time></trkpt><trkpt lat="45.606761251721196" lon="8.495989377530682"><ele>237.0</ele><time>2026-04-26T12:12:03Z</time></trkpt><trkpt lat="45.606985456458105" lon="8.495936622262327"><ele>236.5</ele><time>2026-04-26T12:12:04Z</time></trkpt><trkpt lat="45.607221524693976" lon="8.495885062795809"><ele>236.0</ele><time>2026-04-26T12:12:05Z</time></trkpt><trkpt lat="45.60746087725099" lon="8.495835230701214"><ele>236.0</ele><time>2026-04-26T12:12:06Z</time></trkpt><trkpt lat="45.60770853690911" lon="8.49578312653482"><ele>236.0</ele><time>2026-04-26T12:12:07Z</time></trkpt><trkpt lat="45.607968783765166" lon="8.495723080781636"><ele>237.0</ele><time>2026-04-26T12:12:08Z</time></trkpt><trkpt lat="45.60821898140657" lon="8.49566834136562"><ele>238.0</ele><time>2026-04-26T12:12:09Z</time></trkpt><trkpt lat="45.60847024343726" lon="8.495617351375564"><ele>238.5</ele><time>2026-04-26T12:12:10Z</time></trkpt><trkpt lat="45.60871978360656" lon="8.495565889851557"><ele>239.0</ele><time>2026-04-26T12:12:11Z</time></trkpt><trkpt lat="45.6089679117907" lon="8.49551646753729"><ele>239.0</ele><time>2026-04-26T12:12:12Z</time></trkpt><trkpt lat="45.609217711076916" lon="8.49546568267034"><ele>239.0</ele><time>2026-04-26T12:12:13Z</time></trkpt><trkpt lat="45.60946794461781" lon="8.495413710016557"><ele>240.0</ele><time>2026-04-26T12:12:14Z</time></trkpt><trkpt lat="45.60971696828955" lon="8.495359231709672"><ele>241.0</ele><time>2026-04-26T12:12:15Z</time></trkpt><trkpt lat="45.609951520637345" lon="8.495309951099117"><ele>241.0</ele><time>2026-04-26T12:12:16Z</time></trkpt><trkpt lat="45.610171835917605" lon="8.495262564272755"><ele>241.0</ele><time>2026-04-26T12:12:17Z</time></trkpt><trkpt lat="45.61037666535627" lon="8.495215309781933"><ele>241.0</ele><time>2026-04-26T12:12:18Z</time></trkpt><trkpt lat="45.61057042221363" lon="8.495163112109358"><ele>241.0</ele><time>2026-04-26T12:12:19Z</time></trkpt><trkpt lat="45.610745130423474" lon="8.495105226396763"><ele>241.0</ele><time>2026-04-26T12:12:20Z</time></trkpt><trkpt lat="45.61091152761322" lon="8.495045115501778"><ele>241.0</ele><time>2026-04-26T12:12:21Z</time></trkpt><trkpt lat="45.611063949812056" lon="8.494987279687015"><ele>240.75</ele><time>2026-04-26T12:12:22Z</time></trkpt><trkpt lat="45.61121436162523" lon="8.49492767890666"><ele>240.5</ele><time>2026-04-26T12:12:23.001Z</time></trkpt><trkpt lat="45.61135163907922" lon="8.494874472183662"><ele>240.25</ele><time>2026-04-26T12:12:24.001Z</time></trkpt><trkpt lat="45.61148265858928" lon="8.49481591203625"><ele>240.0</ele><time>2026-04-26T12:12:25.001Z</time></trkpt><trkpt lat="45.61160034441093" lon="8.494761391110913"><ele>240.0</ele><time>2026-04-26T12:12:26.001Z</time></trkpt><trkpt lat="45.61171423774133" lon="8.494720558386424"><ele>240.0</ele><time>2026-04-26T12:12:27.001Z</time></trkpt><trkpt lat="45.611818569822674" lon="8.494658287460156"><ele>240.0</ele><time>2026-04-26T12:12:28.001Z</time></trkpt><trkpt lat="45.61193004755142" lon="8.49458497148971"><ele>240.0</ele><time>2026-04-26T12:12:29.001Z</time></trkpt><trkpt lat="45.61204215685444" lon="8.49452979587187"><ele>240.2</ele><time>2026-04-26T12:12:30.001Z</time></trkpt><trkpt lat="45.612143703393414" lon="8.494473756572402"><ele>240.4</ele><time>2026-04-26T12:12:31.001Z</time></trkpt><trkpt lat="45.61223846095404" lon="8.494423719462759"><ele>240.60000000000002</ele><time>2026-04-26T12:12:32.001Z</time></trkpt><trkpt lat="45.61233299791182" lon="8.494396885888738"><ele>240.8</ele><time>2026-04-26T12:12:33.001Z</time></trkpt><trkpt lat="45.612413489931285" lon="8.494401819865585"><ele>241.0</ele><time>2026-04-26T12:12:34.001Z</time></trkpt><trkpt lat="45.61248420033509" lon="8.494354203344821"><ele>240.99999999999997</ele><time>2026-04-26T12:12:35.001Z</time></trkpt><trkpt lat="45.612505883907936" lon="8.494261956332053"><ele>241.0</ele><time>2026-04-26T12:12:36.001Z</time></trkpt><trkpt lat="45.61248367727581" lon="8.494167093477852"><ele>241.0</ele><time>2026-04-26T12:12:37.001Z</time></trkpt><trkpt lat="45.61241912411597" lon="8.494091088574432"><ele>241.0</ele><time>2026-04-26T12:12:38.001Z</time></trkpt><trkpt lat="45.6123494664497" lon="8.494013293638256"><ele>240.99999999999997</ele><time>2026-04-26T12:12:39.001Z</time></trkpt><trkpt lat="45.61229480056708" lon="8.493911621602432"><ele>241.0</ele><time>2026-04-26T12:12:40.001Z</time></trkpt><trkpt lat="45.612248982399954" lon="8.493790905578164"><ele>241.0</ele><time>2026-04-26T12:12:41.001Z</time></trkpt><trkpt lat="45.61221569687575" lon="8.493653599056255"><ele>241.00000000000003</ele><time>2026-04-26T12:12:42.001Z</time></trkpt><trkpt lat="45.612193880383224" lon="8.493505630030143"><ele>241.00000000000003</ele><time>2026-04-26T12:12:43.001Z</time></trkpt><trkpt lat="45.61217343121736" lon="8.493348833408772"><ele>241.0</ele><time>2026-04-26T12:12:44.001Z</time></trkpt><trkpt lat="45.61215241021419" lon="8.49318826034838"><ele>241.0</ele><time>2026-04-26T12:12:45.001Z</time></trkpt><trkpt lat="45.61213596107842" lon="8.493019980330528"><ele>241.25</ele><time>2026-04-26T12:12:46.001Z</time></trkpt><trkpt lat="45.61212575966731" lon="8.492845421411658"><ele>241.5</ele><time>2026-04-26T12:12:47.001Z</time></trkpt><trkpt lat="45.612116268287885" lon="8.492663022748731"><ele>241.75</ele><time>2026-04-26T12:12:48.001Z</time></trkpt><trkpt lat="45.61210356467024" lon="8.492478379334996"><ele>242.0</ele><time>2026-04-26T12:12:49.001Z</time></trkpt><trkpt lat="45.61209111106336" lon="8.492288420988583"><ele>242.0</ele><time>2026-04-26T12:12:50.001Z</time></trkpt><trkpt lat="45.6120773639072" lon="8.492093478768227"><ele>242.0</ele><time>2026-04-26T12:12:51.001Z</time></trkpt><trkpt lat="45.61206332732593" lon="8.491892677557704"><ele>242.0</ele><time>2026-04-26T12:12:52.001Z</time></trkpt><trkpt lat="45.61204621159022" lon="8.49168559235204"><ele>242.0</ele><time>2026-04-26T12:12:53.001Z</time></trkpt><trkpt lat="45.61202929999425" lon="8.491477141076256"><ele>242.0</ele><time>2026-04-26T12:12:54.001Z</time></trkpt><trkpt lat="45.612016053660135" lon="8.491265484455402"><ele>242.0</ele><time>2026-04-26T12:12:55.001Z</time></trkpt><trkpt lat="45.612006917254924" lon="8.491050731459072"><ele>242.0</ele><time>2026-04-26T12:12:56.001Z</time></trkpt><trkpt lat="45.61200397094515" lon="8.49085101376971"><ele>242.0</ele><time>2026-04-26T12:12:57.001Z</time></trkpt><trkpt lat="45.61201358683557" lon="8.490661518161433"><ele>241.75</ele><time>2026-04-26T12:12:58.001Z</time></trkpt><trkpt lat="45.61203301686708" lon="8.490493509271577"><ele>241.5</ele><time>2026-04-26T12:12:59.001Z</time></trkpt><trkpt lat="45.61206104065181" lon="8.49032355751047"><ele>241.25</ele><time>2026-04-26T12:13:00.001Z</time></trkpt><trkpt lat="45.61208608612321" lon="8.490146541075662"><ele>241.0</ele><time>2026-04-26T12:13:01.001Z</time></trkpt><trkpt lat="45.612100618105494" lon="8.48996140954492"><ele>241.0</ele><time>2026-04-26T12:13:02.001Z</time></trkpt><trkpt lat="45.612107100494406" lon="8.489776720872852"><ele>241.0</ele><time>2026-04-26T12:13:03.001Z</time></trkpt><trkpt lat="45.61209055604034" lon="8.4895919922379"><ele>241.0</ele><time>2026-04-26T12:13:04.001Z</time></trkpt><trkpt lat="45.61205410672436" lon="8.489412311319244"><ele>241.0</ele><time>2026-04-26T12:13:05.001Z</time></trkpt><trkpt lat="45.61199528011129" lon="8.489231717505671"><ele>241.20000000000002</ele><time>2026-04-26T12:13:06.001Z</time></trkpt><trkpt lat="45.61194303202381" lon="8.489067539983775"><ele>241.40000000000003</ele><time>2026-04-26T12:13:07.001Z</time></trkpt><trkpt lat="45.611895289318674" lon="8.488920007723316"><ele>241.6</ele><time>2026-04-26T12:13:08.001Z</time></trkpt><trkpt lat="45.611859484749274" lon="8.488799535925015"><ele>241.8</ele><time>2026-04-26T12:13:09.001Z</time></trkpt><trkpt lat="45.61182510992813" lon="8.488675673456939"><ele>242.0</ele><time>2026-04-26T12:13:10.001Z</time></trkpt><trkpt lat="45.61179321577103" lon="8.488555878838165"><ele>242.2</ele><time>2026-04-26T12:13:11.001Z</time></trkpt><trkpt lat="45.61176410509348" lon="8.48842757233265"><ele>242.39999999999998</ele><time>2026-04-26T12:13:12.001Z</time></trkpt><trkpt lat="45.61172896010905" lon="8.488291004870035"><ele>242.60000000000002</ele><time>2026-04-26T12:13:13.001Z</time></trkpt><trkpt lat="45.611698465807926" lon="8.488164487862587"><ele>242.8</ele><time>2026-04-26T12:13:14.001Z</time></trkpt><trkpt lat="45.61166870201532" lon="8.48804347319424"><ele>243.0</ele><time>2026-04-26T12:13:15.001Z</time></trkpt><trkpt lat="45.61162586770449" lon="8.487916681720547"><ele>243.0</ele><time>2026-04-26T12:13:16.001Z</time></trkpt><trkpt lat="45.61154481319131" lon="8.487635015412724"><ele>243.0</ele><time>2026-04-26T12:13:18.001Z</time></trkpt><trkpt lat="45.61150584769769" lon="8.487485983978766"><ele>243.0</ele><time>2026-04-26T12:13:19.001Z</time></trkpt><trkpt lat="45.61146350150052" lon="8.487346109849128"><ele>243.0</ele><time>2026-04-26T12:13:19.999Z</time></trkpt><trkpt lat="45.61142476787755" lon="8.48721954557036"><ele>242.8</ele><time>2026-04-26T12:13:20.999Z</time></trkpt><trkpt lat="45.611387937997755" lon="8.487090651385872"><ele>242.60000000000002</ele><time>2026-04-26T12:13:21.999Z</time></trkpt><trkpt lat="45.611349510305786" lon="8.486955877878927"><ele>242.39999999999998</ele><time>2026-04-26T12:13:22.999Z</time></trkpt><trkpt lat="45.61131182809213" lon="8.486819154128186"><ele>242.2</ele><time>2026-04-26T12:13:23.999Z</time></trkpt><trkpt lat="45.61127678560814" lon="8.48668924201666"><ele>242.0</ele><time>2026-04-26T12:13:24.999Z</time></trkpt><trkpt lat="45.6112434666236" lon="8.486569192936168"><ele>242.0</ele><time>2026-04-26T12:13:25.999Z</time></trkpt><trkpt lat="45.61121596091927" lon="8.486470914544965"><ele>242.0</ele><time>2026-04-26T12:13:26.999Z</time></trkpt><trkpt lat="45.61119406850627" lon="8.486368223848832"><ele>242.0</ele><time>2026-04-26T12:13:27.999Z</time></trkpt><trkpt lat="45.61114393964852" lon="8.486168204163208"><ele>242.0</ele><time>2026-04-26T12:13:29.999Z</time></trkpt><trkpt lat="45.611102527954024" lon="8.486064708740619"><ele>242.0</ele><time>2026-04-26T12:13:30.999Z</time></trkpt><trkpt lat="45.6110696402406" lon="8.485962210187648"><ele>242.16666666666669</ele><time>2026-04-26T12:13:31.999Z</time></trkpt><trkpt lat="45.611036974039344" lon="8.485847330696554"><ele>242.33333333333334</ele><time>2026-04-26T12:13:32.999Z</time></trkpt><trkpt lat="45.61100293578743" lon="8.48573497683503"><ele>242.5</ele><time>2026-04-26T12:13:33.999Z</time></trkpt><trkpt lat="45.61097383868503" lon="8.485628890520848"><ele>242.66666666666669</ele><time>2026-04-26T12:13:35Z</time></trkpt><trkpt lat="45.61094262329552" lon="8.485525757324153"><ele>242.83333333333334</ele><time>2026-04-26T12:13:36Z</time></trkpt><trkpt lat="45.61090922409469" lon="8.485425842532223"><ele>243.0</ele><time>2026-04-26T12:13:37Z</time></trkpt><trkpt lat="45.61088127711019" lon="8.485332874063753"><ele>243.0</ele><time>2026-04-26T12:13:38Z</time></trkpt><trkpt lat="45.610850417098156" lon="8.485220162232464"><ele>243.0</ele><time>2026-04-26T12:13:39Z</time></trkpt><trkpt lat="45.610815899410504" lon="8.485107080817444"><ele>243.0</ele><time>2026-04-26T12:13:40Z</time></trkpt><trkpt lat="45.6107824290466" lon="8.484989113706206"><ele>243.0</ele><time>2026-04-26T12:13:41Z</time></trkpt><trkpt lat="45.610740348929696" lon="8.484860671357746"><ele>243.0</ele><time>2026-04-26T12:13:42Z</time></trkpt><trkpt lat="45.610711301561096" lon="8.4847499487796"><ele>243.0</ele><time>2026-04-26T12:13:43Z</time></trkpt><trkpt lat="45.610676764706554" lon="8.484631697517944"><ele>243.4</ele><time>2026-04-26T12:13:44Z</time></trkpt><trkpt lat="45.61065585200754" lon="8.484492634182702"><ele>243.8</ele><time>2026-04-26T12:13:45Z</time></trkpt><trkpt lat="45.61061655472544" lon="8.484370232582071"><ele>244.2</ele><time>2026-04-26T12:13:46Z</time></trkpt><trkpt lat="45.6105725153578" lon="8.484251822073213"><ele>244.6</ele><time>2026-04-26T12:13:47Z</time></trkpt><trkpt lat="45.61052034281042" lon="8.484124563213834"><ele>245.0</ele><time>2026-04-26T12:13:48Z</time></trkpt><trkpt lat="45.61047621523089" lon="8.484003344625355"><ele>245.00000000000003</ele><time>2026-04-26T12:13:49Z</time></trkpt><trkpt lat="45.6104432914931" lon="8.48387186072502"><ele>245.0</ele><time>2026-04-26T12:13:50Z</time></trkpt><trkpt lat="45.61040876369067" lon="8.483744252314036"><ele>245.0</ele><time>2026-04-26T12:13:51Z</time></trkpt><trkpt lat="45.610375348052735" lon="8.48362256168353"><ele>245.0</ele><time>2026-04-26T12:13:52Z</time></trkpt><trkpt lat="45.6103451584074" lon="8.48352266057511"><ele>245.00000000000003</ele><time>2026-04-26T12:13:53Z</time></trkpt><trkpt lat="45.61029551573308" lon="8.483441832809124"><ele>245.0</ele><time>2026-04-26T12:13:54Z</time></trkpt><trkpt lat="45.61027836494589" lon="8.483345642210232"><ele>245.66666666666669</ele><time>2026-04-26T12:13:55Z</time></trkpt><trkpt lat="45.61025086368013" lon="8.483246260502376"><ele>246.33333333333334</ele><time>2026-04-26T12:13:57Z</time></trkpt><trkpt lat="45.61023318917943" lon="8.483151467256462"><ele>247.0</ele><time>2026-04-26T12:13:59Z</time></trkpt><trkpt lat="45.61020406778195" lon="8.483042428723053"><ele>247.66666666666669</ele><time>2026-04-26T12:14:01Z</time></trkpt><trkpt lat="45.61012426587601" lon="8.482945601392277"><ele>248.33333333333334</ele><time>2026-04-26T12:14:03Z</time></trkpt><trkpt lat="45.61007743486461" lon="8.482877165999911"><ele>249.0</ele><time>2026-04-26T12:14:04Z</time></trkpt><trkpt lat="45.609992572813105" lon="8.482779435029892"><ele>249.33333333333334</ele><time>2026-04-26T12:14:06Z</time></trkpt><trkpt lat="45.60994236183517" lon="8.482721609868163"><ele>249.66666666666669</ele><time>2026-04-26T12:14:10Z</time></trkpt><trkpt lat="45.609888030141725" lon="8.482674933509132"><ele>250.0</ele><time>2026-04-26T12:14:13Z</time></trkpt><trkpt lat="45.60978357207649" lon="8.48273427741528"><ele>250.33333333333334</ele><time>2026-04-26T12:14:14Z</time></trkpt><trkpt lat="45.609723475663245" lon="8.482774626102868"><ele>250.66666666666669</ele><time>2026-04-26T12:14:15Z</time></trkpt><trkpt lat="45.60965482856445" lon="8.482845754989375"><ele>251.0</ele><time>2026-04-26T12:14:16Z</time></trkpt><trkpt lat="45.609603534510356" lon="8.482898790619291"><ele>251.16666666666669</ele><time>2026-04-26T12:14:17Z</time></trkpt><trkpt lat="45.60955505282044" lon="8.482986044112568"><ele>251.33333333333334</ele><time>2026-04-26T12:14:18Z</time></trkpt><trkpt lat="45.60947554502199" lon="8.4830428479571"><ele>251.5</ele><time>2026-04-26T12:14:19.001Z</time></trkpt><trkpt lat="45.609416246786616" lon="8.483094909625601"><ele>251.66666666666669</ele><time>2026-04-26T12:14:20.001Z</time></trkpt><trkpt lat="45.60931427827689" lon="8.483175888252262"><ele>251.83333333333334</ele><time>2026-04-26T12:14:22.001Z</time></trkpt><trkpt lat="45.60926456991515" lon="8.483238774671095"><ele>252.0</ele><time>2026-04-26T12:14:23.001Z</time></trkpt><trkpt lat="45.609219100281145" lon="8.483309100916546"><ele>252.0</ele><time>2026-04-26T12:14:24.001Z</time></trkpt><trkpt lat="45.60911337293048" lon="8.483399313220792"><ele>252.0</ele><time>2026-04-26T12:14:26.001Z</time></trkpt><trkpt lat="45.60904688600136" lon="8.483447597969088"><ele>252.0</ele><time>2026-04-26T12:14:27.001Z</time></trkpt><trkpt lat="45.60896965410234" lon="8.483490414385665"><ele>252.0</ele><time>2026-04-26T12:14:28.001Z</time></trkpt><trkpt lat="45.60889298521916" lon="8.483529739912525"><ele>252.0</ele><time>2026-04-26T12:14:29.001Z</time></trkpt><trkpt lat="45.60883045515726" lon="8.483567927442817"><ele>252.0</ele><time>2026-04-26T12:14:30.001Z</time></trkpt><trkpt lat="45.60878292473689" lon="8.483432274782217"><ele>252.0</ele><time>2026-04-26T12:14:32.001Z</time></trkpt><trkpt lat="45.60877314823427" lon="8.48332071685977"><ele>252.0</ele><time>2026-04-26T12:14:33.001Z</time></trkpt><trkpt lat="45.60874692846468" lon="8.483218858777049"><ele>252.0</ele><time>2026-04-26T12:14:34.001Z</time></trkpt><trkpt lat="45.60872217218366" lon="8.483087364745433"><ele>252.0</ele><time>2026-04-26T12:14:35.001Z</time></trkpt><trkpt lat="45.60869360343256" lon="8.482974084204347"><ele>252.0</ele><time>2026-04-26T12:14:36.001Z</time></trkpt><trkpt lat="45.60866178929595" lon="8.482858679110786"><ele>252.0</ele><time>2026-04-26T12:14:37.001Z</time></trkpt><trkpt lat="45.60863455095785" lon="8.482742463929647"><ele>252.39999999999998</ele><time>2026-04-26T12:14:38.001Z</time></trkpt><trkpt lat="45.60859200391432" lon="8.482663813617311"><ele>252.79999999999998</ele><time>2026-04-26T12:14:39.001Z</time></trkpt><trkpt lat="45.60858881525511" lon="8.482549202621064"><ele>253.2</ele><time>2026-04-26T12:14:41.001Z</time></trkpt><trkpt lat="45.60868364064864" lon="8.482456051271479"><ele>253.6</ele><time>2026-04-26T12:14:42.001Z</time></trkpt><trkpt lat="45.60874909808913" lon="8.482323282002712"><ele>254.0</ele><time>2026-04-26T12:14:43.001Z</time></trkpt><trkpt lat="45.60880265655027" lon="8.482151302475632"><ele>256.25</ele><time>2026-04-26T12:14:44.001Z</time></trkpt><trkpt lat="45.60887437170221" lon="8.481981081675256"><ele>258.5</ele><time>2026-04-26T12:14:45.001Z</time></trkpt><trkpt lat="45.60892694773549" lon="8.481814976053267"><ele>260.75</ele><time>2026-04-26T12:14:46.001Z</time></trkpt><trkpt lat="45.60901200522724" lon="8.481658643902023"><ele>263.0</ele><time>2026-04-26T12:14:47.001Z</time></trkpt><trkpt lat="45.609094585197326" lon="8.481497405724916"><ele>263.0</ele><time>2026-04-26T12:14:48.001Z</time></trkpt><trkpt lat="45.609161566998296" lon="8.481328840699986"><ele>263.0</ele><time>2026-04-26T12:14:49.001Z</time></trkpt><trkpt lat="45.60923759203324" lon="8.481159776131497"><ele>263.0</ele><time>2026-04-26T12:14:50.001Z</time></trkpt><trkpt lat="45.609307069243044" lon="8.480984718628847"><ele>263.0</ele><time>2026-04-26T12:14:51.001Z</time></trkpt><trkpt lat="45.60936590803942" lon="8.480791429481501"><ele>266.75</ele><time>2026-04-26T12:14:52.001Z</time></trkpt><trkpt lat="45.6094213003645" lon="8.480599174551246"><ele>270.5</ele><time>2026-04-26T12:14:53.001Z</time></trkpt><trkpt lat="45.609490532089474" lon="8.48042164351193"><ele>274.25</ele><time>2026-04-26T12:14:54.001Z</time></trkpt><trkpt lat="45.60958037049184" lon="8.480237161208144"><ele>278.0</ele><time>2026-04-26T12:14:55.001Z</time></trkpt><trkpt lat="45.60967498963844" lon="8.480065408233939"><ele>279.33333333333337</ele><time>2026-04-26T12:14:56.001Z</time></trkpt><trkpt lat="45.60975221087387" lon="8.479878022963332"><ele>280.6666666666667</ele><time>2026-04-26T12:14:57.001Z</time></trkpt><trkpt lat="45.609821239817144" lon="8.479688224251495"><ele>282.0</ele><time>2026-04-26T12:14:58.001Z</time></trkpt><trkpt lat="45.609904034287226" lon="8.479497132138535"><ele>283.6666666666667</ele><time>2026-04-26T12:14:59.001Z</time></trkpt><trkpt lat="45.61000320009393" lon="8.479315834595441"><ele>285.33333333333337</ele><time>2026-04-26T12:15:00.001Z</time></trkpt><trkpt lat="45.61011260021745" lon="8.479140156187016"><ele>287.0</ele><time>2026-04-26T12:15:01.001Z</time></trkpt><trkpt lat="45.61022029514984" lon="8.478964107215369"><ele>287.33333333333337</ele><time>2026-04-26T12:15:02.001Z</time></trkpt><trkpt lat="45.610342112145354" lon="8.478802095329513"><ele>287.6666666666667</ele><time>2026-04-26T12:15:03.001Z</time></trkpt><trkpt lat="45.61047706764663" lon="8.478691897539584"><ele>288.0</ele><time>2026-04-26T12:15:04.001Z</time></trkpt><trkpt lat="45.610620280583326" lon="8.478623264517706"><ele>288.3333333333333</ele><time>2026-04-26T12:15:05.001Z</time></trkpt><trkpt lat="45.61077423361948" lon="8.478546242068727"><ele>288.66666666666663</ele><time>2026-04-26T12:15:06.001Z</time></trkpt><trkpt lat="45.610928315388435" lon="8.478474241629733"><ele>289.0</ele><time>2026-04-26T12:15:07.001Z</time></trkpt><trkpt lat="45.611049538093795" lon="8.478359999720588"><ele>289.0</ele><time>2026-04-26T12:15:08.001Z</time></trkpt><trkpt lat="45.611145986387925" lon="8.478196656041458"><ele>289.0</ele><time>2026-04-26T12:15:09.001Z</time></trkpt><trkpt lat="45.61119749872973" lon="8.47798006618575"><ele>289.0</ele><time>2026-04-26T12:15:10.001Z</time></trkpt><trkpt lat="45.611272739034675" lon="8.477752018444889"><ele>290.66666666666663</ele><time>2026-04-26T12:15:11.001Z</time></trkpt><trkpt lat="45.61135201709671" lon="8.477517687052913"><ele>292.3333333333333</ele><time>2026-04-26T12:15:12.001Z</time></trkpt><trkpt lat="45.61143533640911" lon="8.477321169006045"><ele>294.0</ele><time>2026-04-26T12:15:13.002Z</time></trkpt><trkpt lat="45.61147660165863" lon="8.477143401893752"><ele>293.5</ele><time>2026-04-26T12:15:14.002Z</time></trkpt><trkpt lat="45.611535865348415" lon="8.477003840374367"><ele>293.0</ele><time>2026-04-26T12:15:15.002Z</time></trkpt><trkpt lat="45.61159685905153" lon="8.476874213751874"><ele>292.5</ele><time>2026-04-26T12:15:16.002Z</time></trkpt><trkpt lat="45.61165980265863" lon="8.476727479286273"><ele>292.0</ele><time>2026-04-26T12:15:17.002Z</time></trkpt><trkpt lat="45.61171070407419" lon="8.476556220856628"><ele>292.0</ele><time>2026-04-26T12:15:18.002Z</time></trkpt><trkpt lat="45.611771755549185" lon="8.476372178376705"><ele>292.0</ele><time>2026-04-26T12:15:19.002Z</time></trkpt><trkpt lat="45.61182076043157" lon="8.476170250494992"><ele>292.0</ele><time>2026-04-26T12:15:20.002Z</time></trkpt><trkpt lat="45.611862783497855" lon="8.475951469712053"><ele>291.3333333333333</ele><time>2026-04-26T12:15:21.002Z</time></trkpt><trkpt lat="45.611875202189125" lon="8.475728007903532"><ele>290.6666666666667</ele><time>2026-04-26T12:15:22.002Z</time></trkpt><trkpt lat="45.61185828922866" lon="8.475483610929938"><ele>290.0</ele><time>2026-04-26T12:15:23.002Z</time></trkpt><trkpt lat="45.61184421690743" lon="8.475237145712683"><ele>290.0</ele><time>2026-04-26T12:15:24.002Z</time></trkpt><trkpt lat="45.611835082184676" lon="8.474987222880573"><ele>290.0</ele><time>2026-04-26T12:15:25.002Z</time></trkpt><trkpt lat="45.61182822668083" lon="8.474740146686566"><ele>290.0</ele><time>2026-04-26T12:15:26Z</time></trkpt><trkpt lat="45.61182029489862" lon="8.474493539045795"><ele>290.33333333333337</ele><time>2026-04-26T12:15:27Z</time></trkpt><trkpt lat="45.61181530498797" lon="8.474245931985381"><ele>290.6666666666667</ele><time>2026-04-26T12:15:28Z</time></trkpt><trkpt lat="45.61182050328004" lon="8.474013297216278"><ele>291.0</ele><time>2026-04-26T12:15:29Z</time></trkpt><trkpt lat="45.61185088128962" lon="8.473784764104574"><ele>291.6666666666667</ele><time>2026-04-26T12:15:30Z</time></trkpt><trkpt lat="45.611913543292594" lon="8.47354956130185"><ele>292.33333333333337</ele><time>2026-04-26T12:15:31Z</time></trkpt><trkpt lat="45.61197979673089" lon="8.473302430391008"><ele>293.0</ele><time>2026-04-26T12:15:32Z</time></trkpt><trkpt lat="45.612051979278014" lon="8.473070443845474"><ele>293.6666666666667</ele><time>2026-04-26T12:15:33Z</time></trkpt><trkpt lat="45.61213882958898" lon="8.472867369937452"><ele>294.3333333333333</ele><time>2026-04-26T12:15:34Z</time></trkpt><trkpt lat="45.61223913479404" lon="8.472704545073677"><ele>295.0</ele><time>2026-04-26T12:15:35Z</time></trkpt><trkpt lat="45.61235834874938" lon="8.472574627112024"><ele>295.0</ele><time>2026-04-26T12:15:36Z</time></trkpt><trkpt lat="45.61248732374278" lon="8.472420787882363"><ele>295.0</ele><time>2026-04-26T12:15:37Z</time></trkpt><trkpt lat="45.612596276071756" lon="8.472221100691176"><ele>295.0</ele><time>2026-04-26T12:15:38Z</time></trkpt><trkpt lat="45.61270743878067" lon="8.472014618107279"><ele>295.0</ele><time>2026-04-26T12:15:39Z</time></trkpt><trkpt lat="45.61283003516757" lon="8.471803992723723"><ele>295.0</ele><time>2026-04-26T12:15:40Z</time></trkpt><trkpt lat="45.612958808587884" lon="8.471584305097108"><ele>295.0</ele><time>2026-04-26T12:15:41Z</time></trkpt><trkpt lat="45.61308652415531" lon="8.47136204014419"><ele>295.0</ele><time>2026-04-26T12:15:42Z</time></trkpt><trkpt lat="45.61320418772812" lon="8.471104350347655"><ele>295.0</ele><time>2026-04-26T12:15:43Z</time></trkpt><trkpt lat="45.613300163260725" lon="8.470810695241934"><ele>295.0</ele><time>2026-04-26T12:15:44Z</time></trkpt><trkpt lat="45.61339233008946" lon="8.470489022227788"><ele>292.0</ele><time>2026-04-26T12:15:45Z</time></trkpt><trkpt lat="45.6135106276749" lon="8.47018086357165"><ele>289.0</ele><time>2026-04-26T12:15:46Z</time></trkpt><trkpt lat="45.613621348700484" lon="8.469877785761613"><ele>287.5</ele><time>2026-04-26T12:15:47Z</time></trkpt><trkpt lat="45.613727634490346" lon="8.46956296030089"><ele>286.0</ele><time>2026-04-26T12:15:48Z</time></trkpt><trkpt lat="45.61381395794435" lon="8.469231102276831"><ele>286.0</ele><time>2026-04-26T12:15:49Z</time></trkpt><trkpt lat="45.6139085886331" lon="8.468910291271357"><ele>286.0</ele><time>2026-04-26T12:15:50Z</time></trkpt><trkpt lat="45.613994287096844" lon="8.468585219629023"><ele>286.0</ele><time>2026-04-26T12:15:51Z</time></trkpt><trkpt lat="45.614061093667594" lon="8.468241563457482"><ele>286.0</ele><time>2026-04-26T12:15:52Z</time></trkpt><trkpt lat="45.61411239563383" lon="8.467868649489258"><ele>287.0</ele><time>2026-04-26T12:15:53Z</time></trkpt><trkpt lat="45.61416007723618" lon="8.467484688537358"><ele>288.0</ele><time>2026-04-26T12:15:54Z</time></trkpt><trkpt lat="45.61420936226188" lon="8.467105091555858"><ele>291.0</ele><time>2026-04-26T12:15:55Z</time></trkpt><trkpt lat="45.61426527771781" lon="8.466734510843775"><ele>294.0</ele><time>2026-04-26T12:15:56Z</time></trkpt><trkpt lat="45.61432631467988" lon="8.466383400833712"><ele>295.0</ele><time>2026-04-26T12:15:57Z</time></trkpt><trkpt lat="45.6143890745954" lon="8.466073107562707"><ele>296.0</ele><time>2026-04-26T12:15:58Z</time></trkpt><trkpt lat="45.61444696321013" lon="8.465802343666835"><ele>297.0</ele><time>2026-04-26T12:15:59Z</time></trkpt><trkpt lat="45.61450154931702" lon="8.465572863500157"><ele>297.3333333333333</ele><time>2026-04-26T12:16:00Z</time></trkpt><trkpt lat="45.6145773612147" lon="8.465382828075956"><ele>297.66666666666663</ele><time>2026-04-26T12:16:01Z</time></trkpt><trkpt lat="45.61471318142398" lon="8.465252778651575"><ele>298.0</ele><time>2026-04-26T12:16:02Z</time></trkpt><trkpt lat="45.61485870826458" lon="8.465088425755988"><ele>298.0</ele><time>2026-04-26T12:16:03Z</time></trkpt><trkpt lat="45.6150085674682" lon="8.464932270523942"><ele>298.0</ele><time>2026-04-26T12:16:04Z</time></trkpt><trkpt lat="45.615132479194905" lon="8.464753101825572"><ele>298.0</ele><time>2026-04-26T12:16:05Z</time></trkpt><trkpt lat="45.61520319089218" lon="8.464519110797504"><ele>298.0</ele><time>2026-04-26T12:16:06Z</time></trkpt><trkpt lat="45.61522716282543" lon="8.46424113663395"><ele>298.0</ele><time>2026-04-26T12:16:07Z</time></trkpt><trkpt lat="45.61526421209901" lon="8.463952244796102"><ele>298.0</ele><time>2026-04-26T12:16:08Z</time></trkpt><trkpt lat="45.61528308444899" lon="8.463629960089492"><ele>298.0</ele><time>2026-04-26T12:16:09Z</time></trkpt><trkpt lat="45.61532044090639" lon="8.463314229768995"><ele>298.0</ele><time>2026-04-26T12:16:10Z</time></trkpt><trkpt lat="45.61535366193823" lon="8.463000728137914"><ele>298.0</ele><time>2026-04-26T12:16:11Z</time></trkpt><trkpt lat="45.61539211494963" lon="8.462670019173126"><ele>297.5</ele><time>2026-04-26T12:16:12Z</time></trkpt><trkpt lat="45.61543324966962" lon="8.46233101687758"><ele>297.0</ele><time>2026-04-26T12:16:13Z</time></trkpt><trkpt lat="45.61546903341561" lon="8.461983850832357"><ele>296.5</ele><time>2026-04-26T12:16:14.001Z</time></trkpt><trkpt lat="45.61549500097261" lon="8.46163062523743"><ele>296.0</ele><time>2026-04-26T12:16:15.001Z</time></trkpt><trkpt lat="45.61551100953008" lon="8.461275500433379"><ele>295.0</ele><time>2026-04-26T12:16:16.001Z</time></trkpt><trkpt lat="45.61552596076728" lon="8.460935539700792"><ele>294.0</ele><time>2026-04-26T12:16:17.001Z</time></trkpt><trkpt lat="45.61554354923595" lon="8.460626238697323"><ele>295.0</ele><time>2026-04-26T12:16:18.001Z</time></trkpt><trkpt lat="45.61555388576705" lon="8.460349455497939"><ele>296.0</ele><time>2026-04-26T12:16:19.001Z</time></trkpt><trkpt lat="45.615581339525576" lon="8.460132565557627"><ele>297.0</ele><time>2026-04-26T12:16:20.001Z</time></trkpt><trkpt lat="45.61561972971799" lon="8.459945192408794"><ele>297.0</ele><time>2026-04-26T12:16:21.001Z</time></trkpt><trkpt lat="45.61568864359277" lon="8.459780351061012"><ele>297.0</ele><time>2026-04-26T12:16:22.001Z</time></trkpt><trkpt lat="45.61574312309145" lon="8.459569190084283"><ele>297.0</ele><time>2026-04-26T12:16:23.001Z</time></trkpt><trkpt lat="45.615750085592076" lon="8.45931527087594"><ele>297.3333333333333</ele><time>2026-04-26T12:16:24.001Z</time></trkpt><trkpt lat="45.61576582471208" lon="8.45905197897882"><ele>297.66666666666663</ele><time>2026-04-26T12:16:25.001Z</time></trkpt><trkpt lat="45.6157755222566" lon="8.458771764833871"><ele>298.0</ele><time>2026-04-26T12:16:26.001Z</time></trkpt><trkpt lat="45.6157813088159" lon="8.458476612102945"><ele>298.3333333333333</ele><time>2026-04-26T12:16:27.001Z</time></trkpt><trkpt lat="45.61568246273694" lon="8.458169898043051"><ele>298.6666666666667</ele><time>2026-04-26T12:16:28.001Z</time></trkpt><trkpt lat="45.61566724170457" lon="8.457886567826257"><ele>299.0</ele><time>2026-04-26T12:16:29.001Z</time></trkpt><trkpt lat="45.615654476508794" lon="8.457614745036823"><ele>299.0</ele><time>2026-04-26T12:16:30.001Z</time></trkpt><trkpt lat="45.61564148379746" lon="8.457363318676109"><ele>299.0</ele><time>2026-04-26T12:16:31.001Z</time></trkpt><trkpt lat="45.61562995982857" lon="8.45712022996989"><ele>299.0</ele><time>2026-04-26T12:16:32.001Z</time></trkpt><trkpt lat="45.615629192768836" lon="8.456878804081237"><ele>299.33333333333337</ele><time>2026-04-26T12:16:33.001Z</time></trkpt><trkpt lat="45.615621861828785" lon="8.45663391718625"><ele>299.6666666666667</ele><time>2026-04-26T12:16:34.001Z</time></trkpt><trkpt lat="45.6156076245403" lon="8.456378276136311"><ele>300.0</ele><time>2026-04-26T12:16:35.001Z</time></trkpt><trkpt lat="45.61559342445042" lon="8.45611518953285"><ele>300.0</ele><time>2026-04-26T12:16:36.001Z</time></trkpt><trkpt lat="45.615577474360656" lon="8.455847982863839"><ele>300.0</ele><time>2026-04-26T12:16:37.001Z</time></trkpt><trkpt lat="45.6155646363191" lon="8.455575040394702"><ele>300.0</ele><time>2026-04-26T12:16:38.001Z</time></trkpt><trkpt lat="45.61555292597645" lon="8.455303496470057"><ele>300.6666666666667</ele><time>2026-04-26T12:16:39.001Z</time></trkpt><trkpt lat="45.615544153701336" lon="8.45501457870941"><ele>301.33333333333337</ele><time>2026-04-26T12:16:40.001Z</time></trkpt><trkpt lat="45.61554096028921" lon="8.454721844073996"><ele>302.0</ele><time>2026-04-26T12:16:41.001Z</time></trkpt><trkpt lat="45.615539514784594" lon="8.454418718574747"><ele>302.33333333333337</ele><time>2026-04-26T12:16:42.001Z</time></trkpt><trkpt lat="45.61553613931412" lon="8.454107893368144"><ele>302.6666666666667</ele><time>2026-04-26T12:16:43.001Z</time></trkpt><trkpt lat="45.61553454188414" lon="8.453787940200861"><ele>303.0</ele><time>2026-04-26T12:16:44.001Z</time></trkpt><trkpt lat="45.615532406698854" lon="8.453463102470655"><ele>303.0</ele><time>2026-04-26T12:16:45.001Z</time></trkpt><trkpt lat="45.615530259121634" lon="8.453135370368265"><ele>303.0</ele><time>2026-04-26T12:16:46.001Z</time></trkpt><trkpt lat="45.615527459920045" lon="8.452799631821833"><ele>303.0</ele><time>2026-04-26T12:16:47.001Z</time></trkpt><trkpt lat="45.615527358304256" lon="8.452467905577224"><ele>303.0</ele><time>2026-04-26T12:16:48.001Z</time></trkpt><trkpt lat="45.615527729302165" lon="8.45214247863256"><ele>302.6666666666667</ele><time>2026-04-26T12:16:49.001Z</time></trkpt><trkpt lat="45.61552849995591" lon="8.451840684642379"><ele>302.33333333333337</ele><time>2026-04-26T12:16:50.001Z</time></trkpt><trkpt lat="45.61552625872026" lon="8.451562754176056"><ele>302.0</ele><time>2026-04-26T12:16:51.001Z</time></trkpt><trkpt lat="45.61552363944046" lon="8.451303537245492"><ele>301.6666666666667</ele><time>2026-04-26T12:16:52.001Z</time></trkpt><trkpt lat="45.615525957258704" lon="8.451055615473308"><ele>301.3333333333333</ele><time>2026-04-26T12:16:53.001Z</time></trkpt><trkpt lat="45.61552868233689" lon="8.450812402170884"><ele>301.0</ele><time>2026-04-26T12:16:54.001Z</time></trkpt><trkpt lat="45.61552627849827" lon="8.45058033121282"><ele>301.3333333333333</ele><time>2026-04-26T12:16:55.001Z</time></trkpt><trkpt lat="45.615503837133" lon="8.450358968347308"><ele>301.6666666666667</ele><time>2026-04-26T12:16:56.001Z</time></trkpt><trkpt lat="45.61544899868819" lon="8.45014195548362"><ele>302.0</ele><time>2026-04-26T12:16:57.001Z</time></trkpt><trkpt lat="45.61536089889705" lon="8.449937479461756"><ele>302.33333333333337</ele><time>2026-04-26T12:16:58.001Z</time></trkpt><trkpt lat="45.61524585445365" lon="8.449765582297166"><ele>302.6666666666667</ele><time>2026-04-26T12:16:59.001Z</time></trkpt><trkpt lat="45.61510051053762" lon="8.449620381451696"><ele>303.0</ele><time>2026-04-26T12:17:00.001Z</time></trkpt><trkpt lat="45.61493699817448" lon="8.449503682863652"><ele>303.0</ele><time>2026-04-26T12:17:01.001Z</time></trkpt><trkpt lat="45.614758548460266" lon="8.449381418355838"><ele>303.0</ele><time>2026-04-26T12:17:02.001Z</time></trkpt><trkpt lat="45.614603024734116" lon="8.449242747174566"><ele>303.0</ele><time>2026-04-26T12:17:03.001Z</time></trkpt><trkpt lat="45.61447080578626" lon="8.449075785920527"><ele>301.6666666666667</ele><time>2026-04-26T12:17:04.001Z</time></trkpt><trkpt lat="45.61436018912527" lon="8.448901140644036"><ele>300.33333333333337</ele><time>2026-04-26T12:17:05.001Z</time></trkpt><trkpt lat="45.614276188446965" lon="8.448700616152164"><ele>299.0</ele><time>2026-04-26T12:17:06.002Z</time></trkpt><trkpt lat="45.6142167750878" lon="8.44845935210154"><ele>299.0</ele><time>2026-04-26T12:17:07.002Z</time></trkpt><trkpt lat="45.61419444685543" lon="8.448186728698207"><ele>299.0</ele><time>2026-04-26T12:17:08.002Z</time></trkpt><trkpt lat="45.614204610509425" lon="8.447897344933773"><ele>299.0</ele><time>2026-04-26T12:17:09.002Z</time></trkpt><trkpt lat="45.61420572667526" lon="8.447602303245741"><ele>298.33333333333337</ele><time>2026-04-26T12:17:10.002Z</time></trkpt><trkpt lat="45.61421062790327" lon="8.447325709264586"><ele>297.6666666666667</ele><time>2026-04-26T12:17:11.002Z</time></trkpt><trkpt lat="45.61420489134897" lon="8.44707011194281"><ele>297.0</ele><time>2026-04-26T12:17:12.002Z</time></trkpt><trkpt lat="45.6141663126794" lon="8.446816968870042"><ele>296.6666666666667</ele><time>2026-04-26T12:17:13.002Z</time></trkpt><trkpt lat="45.61408623825216" lon="8.446595639685748"><ele>296.33333333333337</ele><time>2026-04-26T12:17:14.002Z</time></trkpt><trkpt lat="45.61396733109558" lon="8.44641033688923"><ele>296.0</ele><time>2026-04-26T12:17:15.002Z</time></trkpt><trkpt lat="45.61382558754931" lon="8.446263664619277"><ele>294.6666666666667</ele><time>2026-04-26T12:17:16.002Z</time></trkpt><trkpt lat="45.613685739047234" lon="8.446135657444557"><ele>293.3333333333333</ele><time>2026-04-26T12:17:17.002Z</time></trkpt><trkpt lat="45.61358372129998" lon="8.445968447600114"><ele>292.0</ele><time>2026-04-26T12:17:18.002Z</time></trkpt><trkpt lat="45.61353333204706" lon="8.445768398179494"><ele>290.3333333333333</ele><time>2026-04-26T12:17:19.002Z</time></trkpt><trkpt lat="45.61351290344407" lon="8.445542219141377"><ele>288.6666666666667</ele><time>2026-04-26T12:17:20.002Z</time></trkpt><trkpt lat="45.61352403461075" lon="8.445272854214299"><ele>287.0</ele><time>2026-04-26T12:17:21.002Z</time></trkpt><trkpt lat="45.61354817222654" lon="8.444963722198423"><ele>285.0</ele><time>2026-04-26T12:17:22.002Z</time></trkpt><trkpt lat="45.613558777664686" lon="8.444634922221034"><ele>283.0</ele><time>2026-04-26T12:17:23.002Z</time></trkpt><trkpt lat="45.613565988590715" lon="8.44428222712519"><ele>283.0</ele><time>2026-04-26T12:17:24.002Z</time></trkpt><trkpt lat="45.61356771783901" lon="8.443908478621628"><ele>283.0</ele><time>2026-04-26T12:17:25.002Z</time></trkpt><trkpt lat="45.61358394298264" lon="8.443548880758343"><ele>283.0</ele><time>2026-04-26T12:17:26.002Z</time></trkpt><trkpt lat="45.613619294762806" lon="8.443184405032945"><ele>283.0</ele><time>2026-04-26T12:17:27.002Z</time></trkpt><trkpt lat="45.613650729727496" lon="8.442813298037901"><ele>283.5</ele><time>2026-04-26T12:17:28.002Z</time></trkpt><trkpt lat="45.613673895235124" lon="8.442431601054022"><ele>284.0</ele><time>2026-04-26T12:17:29.002Z</time></trkpt><trkpt lat="45.61366533773023" lon="8.442047973424607"><ele>288.5</ele><time>2026-04-26T12:17:30.002Z</time></trkpt><trkpt lat="45.6136611563601" lon="8.441698005390625"><ele>293.0</ele><time>2026-04-26T12:17:31.002Z</time></trkpt><trkpt lat="45.61361021394214" lon="8.44137447918243"><ele>296.0</ele><time>2026-04-26T12:17:32.001Z</time></trkpt><trkpt lat="45.61352396762526" lon="8.441058495802752"><ele>299.0</ele><time>2026-04-26T12:17:33.001Z</time></trkpt><trkpt lat="45.6134056484543" lon="8.440756643962676"><ele>300.0</ele><time>2026-04-26T12:17:34.001Z</time></trkpt><trkpt lat="45.61326525890228" lon="8.440448365319"><ele>301.0</ele><time>2026-04-26T12:17:35.001Z</time></trkpt><trkpt lat="45.61312088473923" lon="8.440146292288572"><ele>301.0</ele><time>2026-04-26T12:17:36.001Z</time></trkpt><trkpt lat="45.6129928675707" lon="8.439851474202875"><ele>301.0</ele><time>2026-04-26T12:17:37.001Z</time></trkpt><trkpt lat="45.61288153812953" lon="8.439585106219239"><ele>300.0</ele><time>2026-04-26T12:17:38.001Z</time></trkpt><trkpt lat="45.612769735756174" lon="8.439307984051624"><ele>299.0</ele><time>2026-04-26T12:17:39.001Z</time></trkpt><trkpt lat="45.61267048144721" lon="8.439025593418453"><ele>298.0</ele><time>2026-04-26T12:17:40.001Z</time></trkpt><trkpt lat="45.612584711460514" lon="8.438737318973383"><ele>298.0</ele><time>2026-04-26T12:17:41.001Z</time></trkpt><trkpt lat="45.6125122818334" lon="8.438442431899272"><ele>298.0</ele><time>2026-04-26T12:17:42.001Z</time></trkpt><trkpt lat="45.61245333916947" lon="8.438142439888907"><ele>298.0</ele><time>2026-04-26T12:17:43.001Z</time></trkpt><trkpt lat="45.612407953104544" lon="8.437846510807008"><ele>298.0</ele><time>2026-04-26T12:17:44.001Z</time></trkpt><trkpt lat="45.6123798559398" lon="8.437570430372638"><ele>298.0</ele><time>2026-04-26T12:17:45.001Z</time></trkpt><trkpt lat="45.61236079600837" lon="8.437282947227242"><ele>298.0</ele><time>2026-04-26T12:17:46.001Z</time></trkpt><trkpt lat="45.6123385571096" lon="8.436995600565385"><ele>298.0</ele><time>2026-04-26T12:17:47.001Z</time></trkpt><trkpt lat="45.61231591859591" lon="8.436708042548016"><ele>298.0</ele><time>2026-04-26T12:17:48.001Z</time></trkpt><trkpt lat="45.612296708576395" lon="8.43641565435257"><ele>298.0</ele><time>2026-04-26T12:17:49.001Z</time></trkpt><trkpt lat="45.6122784997054" lon="8.436120274525017"><ele>298.0</ele><time>2026-04-26T12:17:50.001Z</time></trkpt><trkpt lat="45.61225983755295" lon="8.435825651647422"><ele>298.0</ele><time>2026-04-26T12:17:51.001Z</time></trkpt><trkpt lat="45.612238221832925" lon="8.435528582330274"><ele>298.0</ele><time>2026-04-26T12:17:52.001Z</time></trkpt><trkpt lat="45.61221324710672" lon="8.435227960720125"><ele>298.0</ele><time>2026-04-26T12:17:53.001Z</time></trkpt><trkpt lat="45.61218220975424" lon="8.434933001361994"><ele>298.0</ele><time>2026-04-26T12:17:54.001Z</time></trkpt><trkpt lat="45.61214518216381" lon="8.434641363648403"><ele>298.0</ele><time>2026-04-26T12:17:55.001Z</time></trkpt><trkpt lat="45.61209368972381" lon="8.43438213108104"><ele>298.3333333333333</ele><time>2026-04-26T12:17:56.001Z</time></trkpt><trkpt lat="45.61202399254972" lon="8.434125900964695"><ele>298.6666666666667</ele><time>2026-04-26T12:17:57.001Z</time></trkpt><trkpt lat="45.61193066992193" lon="8.433883849936938"><ele>299.0</ele><time>2026-04-26T12:17:58.001Z</time></trkpt><trkpt lat="45.61183645432602" lon="8.433676462779557"><ele>297.33333333333337</ele><time>2026-04-26T12:17:59.001Z</time></trkpt><trkpt lat="45.6117331333143" lon="8.433495450956396"><ele>295.6666666666667</ele><time>2026-04-26T12:18:00.001Z</time></trkpt><trkpt lat="45.611619676185654" lon="8.433340758932134"><ele>294.0</ele><time>2026-04-26T12:18:01.001Z</time></trkpt><trkpt lat="45.61150315703916" lon="8.433211010003497"><ele>294.0</ele><time>2026-04-26T12:18:02.001Z</time></trkpt><trkpt lat="45.61138277687388" lon="8.43309593986837"><ele>294.0</ele><time>2026-04-26T12:18:03.001Z</time></trkpt><trkpt lat="45.61126888301185" lon="8.432975384404592"><ele>294.0</ele><time>2026-04-26T12:18:04.001Z</time></trkpt><trkpt lat="45.61117276866788" lon="8.432840392704268"><ele>294.0</ele><time>2026-04-26T12:18:05.001Z</time></trkpt><trkpt lat="45.611134389858556" lon="8.432665544624953"><ele>294.0</ele><time>2026-04-26T12:18:06.001Z</time></trkpt><trkpt lat="45.61109802630689" lon="8.432508345364822"><ele>294.0</ele><time>2026-04-26T12:18:07.001Z</time></trkpt><trkpt lat="45.61106247259674" lon="8.432340287060853"><ele>294.0</ele><time>2026-04-26T12:18:08.001Z</time></trkpt><trkpt lat="45.61100976646062" lon="8.432170738213767"><ele>294.0</ele><time>2026-04-26T12:18:09.001Z</time></trkpt><trkpt lat="45.61097527438756" lon="8.431966491146394"><ele>293.0</ele><time>2026-04-26T12:18:10.001Z</time></trkpt><trkpt lat="45.61092486317034" lon="8.431753860748303"><ele>292.0</ele><time>2026-04-26T12:18:11.001Z</time></trkpt><trkpt lat="45.61085126199678" lon="8.43155619933182"><ele>291.0</ele><time>2026-04-26T12:18:12.001Z</time></trkpt><trkpt lat="45.61072693867331" lon="8.43135976545513"><ele>287.5</ele><time>2026-04-26T12:18:13.001Z</time></trkpt><trkpt lat="45.61054612631704" lon="8.431116321071256"><ele>284.0</ele><time>2026-04-26T12:18:14.001Z</time></trkpt><trkpt lat="45.61036044333721" lon="8.430862318421099"><ele>283.0</ele><time>2026-04-26T12:18:15.001Z</time></trkpt><trkpt lat="45.610171819233095" lon="8.43057243137999"><ele>282.0</ele><time>2026-04-26T12:18:16.001Z</time></trkpt><trkpt lat="45.6100138206287" lon="8.43028892283873"><ele>277.0</ele><time>2026-04-26T12:18:17.001Z</time></trkpt><trkpt lat="45.60987508574796" lon="8.430021851362017"><ele>272.0</ele><time>2026-04-26T12:18:18.001Z</time></trkpt><trkpt lat="45.609768824833345" lon="8.429746418298143"><ele>271.33333333333337</ele><time>2026-04-26T12:18:19.001Z</time></trkpt><trkpt lat="45.609669886480084" lon="8.429493978060236"><ele>270.6666666666667</ele><time>2026-04-26T12:18:20.001Z</time></trkpt><trkpt lat="45.6095768731715" lon="8.429235952063182"><ele>270.0</ele><time>2026-04-26T12:18:21.001Z</time></trkpt><trkpt lat="45.609489015321984" lon="8.428950444349685"><ele>269.0</ele><time>2026-04-26T12:18:22.001Z</time></trkpt><trkpt lat="45.60942075008296" lon="8.428651160219546"><ele>268.0</ele><time>2026-04-26T12:18:23.001Z</time></trkpt><trkpt lat="45.609364557630535" lon="8.428331690901647"><ele>268.0</ele><time>2026-04-26T12:18:24.001Z</time></trkpt><trkpt lat="45.609317842102406" lon="8.427999614756041"><ele>268.0</ele><time>2026-04-26T12:18:25.001Z</time></trkpt><trkpt lat="45.60926760929823" lon="8.42765103994598"><ele>268.5</ele><time>2026-04-26T12:18:26.001Z</time></trkpt><trkpt lat="45.609214934388696" lon="8.427281475960076"><ele>269.0</ele><time>2026-04-26T12:18:27.001Z</time></trkpt><trkpt lat="45.60916125405338" lon="8.426902853980195"><ele>268.0</ele><time>2026-04-26T12:18:28.001Z</time></trkpt><trkpt lat="45.60910617242668" lon="8.426514347864686"><ele>267.0</ele><time>2026-04-26T12:18:29.001Z</time></trkpt><trkpt lat="45.60905543530855" lon="8.42612506715492"><ele>267.0</ele><time>2026-04-26T12:18:30.001Z</time></trkpt><trkpt lat="45.609020767149204" lon="8.42573861059874"><ele>267.0</ele><time>2026-04-26T12:18:31.001Z</time></trkpt><trkpt lat="45.60900207693428" lon="8.425361466844674"><ele>274.5</ele><time>2026-04-26T12:18:32.001Z</time></trkpt><trkpt lat="45.60897071852445" lon="8.425017450430305"><ele>282.0</ele><time>2026-04-26T12:18:33.001Z</time></trkpt><trkpt lat="45.60895695875796" lon="8.424712340505657"><ele>284.0</ele><time>2026-04-26T12:18:34.001Z</time></trkpt><trkpt lat="45.60888302754728" lon="8.42443504069"><ele>286.0</ele><time>2026-04-26T12:18:35.001Z</time></trkpt><trkpt lat="45.608772805668984" lon="8.424175991961976"><ele>288.0</ele><time>2026-04-26T12:18:36.001Z</time></trkpt><trkpt lat="45.60863736765546" lon="8.42395162918954"><ele>287.5</ele><time>2026-04-26T12:18:37.001Z</time></trkpt><trkpt lat="45.6084727054853" lon="8.423730068986387"><ele>287.0</ele><time>2026-04-26T12:18:38.001Z</time></trkpt><trkpt lat="45.60829771325373" lon="8.42352388558323"><ele>287.0</ele><time>2026-04-26T12:18:39.001Z</time></trkpt><trkpt lat="45.60813768752568" lon="8.423300583779014"><ele>287.0</ele><time>2026-04-26T12:18:40.001Z</time></trkpt><trkpt lat="45.60800251941537" lon="8.423071297159023"><ele>287.0</ele><time>2026-04-26T12:18:41.001Z</time></trkpt><trkpt lat="45.607875890364895" lon="8.42282339358421"><ele>287.6666666666667</ele><time>2026-04-26T12:18:42.001Z</time></trkpt><trkpt lat="45.607749413086054" lon="8.42256445069489"><ele>288.3333333333333</ele><time>2026-04-26T12:18:43.001Z</time></trkpt><trkpt lat="45.607618288578685" lon="8.422308749528103"><ele>289.0</ele><time>2026-04-26T12:18:44.001Z</time></trkpt><trkpt lat="45.60748163168921" lon="8.422087480436087"><ele>284.66666666666663</ele><time>2026-04-26T12:18:45.001Z</time></trkpt><trkpt lat="45.607319809330946" lon="8.421919168260064"><ele>280.3333333333333</ele><time>2026-04-26T12:18:46.001Z</time></trkpt><trkpt lat="45.60714274513734" lon="8.421792820672614"><ele>276.0</ele><time>2026-04-26T12:18:47.001Z</time></trkpt><trkpt lat="45.60696163831222" lon="8.421720882105271"><ele>272.6666666666667</ele><time>2026-04-26T12:18:48.001Z</time></trkpt><trkpt lat="45.6067682052381" lon="8.421678658917877"><ele>269.33333333333337</ele><time>2026-04-26T12:18:49.001Z</time></trkpt><trkpt lat="45.60657258237592" lon="8.421681084070496"><ele>266.0</ele><time>2026-04-26T12:18:50.001Z</time></trkpt><trkpt lat="45.60638216410139" lon="8.42168885344985"><ele>266.0</ele><time>2026-04-26T12:18:51.001Z</time></trkpt><trkpt lat="45.606204278532566" lon="8.421694173082937"><ele>266.0</ele><time>2026-04-26T12:18:52.001Z</time></trkpt><trkpt lat="45.60603361711829" lon="8.421690648012431"><ele>266.0</ele><time>2026-04-26T12:18:53.001Z</time></trkpt><trkpt lat="45.60586456908506" lon="8.421684450879233"><ele>263.75</ele><time>2026-04-26T12:18:54.001Z</time></trkpt><trkpt lat="45.60571376193334" lon="8.421677724468507"><ele>261.5</ele><time>2026-04-26T12:18:55.001Z</time></trkpt><trkpt lat="45.60556944229472" lon="8.421662833725403"><ele>259.25</ele><time>2026-04-26T12:18:56.002Z</time></trkpt><trkpt lat="45.605439190808355" lon="8.421647775612803"><ele>257.0</ele><time>2026-04-26T12:18:57.002Z</time></trkpt><trkpt lat="45.60532307893573" lon="8.421626808490641"><ele>256.0</ele><time>2026-04-26T12:18:58.002Z</time></trkpt><trkpt lat="45.60521578778268" lon="8.421591645489528"><ele>255.0</ele><time>2026-04-26T12:18:59.002Z</time></trkpt><trkpt lat="45.60512009303165" lon="8.421546042958425"><ele>254.0</ele><time>2026-04-26T12:19:00.002Z</time></trkpt><trkpt lat="45.60503024721387" lon="8.421501461036721"><ele>253.0</ele><time>2026-04-26T12:19:01.002Z</time></trkpt><trkpt lat="45.60495012152209" lon="8.421459471015375"><ele>252.0</ele><time>2026-04-26T12:19:02.002Z</time></trkpt><trkpt lat="45.6048821677845" lon="8.421416145837085"><ele>252.0</ele><time>2026-04-26T12:19:03.002Z</time></trkpt><trkpt lat="45.604821683274345" lon="8.421372434372627"><ele>252.0</ele><time>2026-04-26T12:19:04.002Z</time></trkpt><trkpt lat="45.60476449614452" lon="8.421329973884589"><ele>252.0</ele><time>2026-04-26T12:19:05.002Z</time></trkpt><trkpt lat="45.60466684094426" lon="8.421253046536977"><ele>252.0</ele><time>2026-04-26T12:19:07.002Z</time></trkpt><trkpt lat="45.60460479860995" lon="8.421186437616042"><ele>252.0</ele><time>2026-04-26T12:19:09.002Z</time></trkpt><trkpt lat="45.60454659111121" lon="8.421104854699701"><ele>252.0</ele><time>2026-04-26T12:19:12.002Z</time></trkpt><trkpt lat="45.60449622680725" lon="8.421016238077517"><ele>251.6</ele><time>2026-04-26T12:19:23.002Z</time></trkpt><trkpt lat="45.604499726787644" lon="8.420875418123892"><ele>251.2</ele><time>2026-04-26T12:19:25.002Z</time></trkpt><trkpt lat="45.604554628126444" lon="8.42075165379526"><ele>250.8</ele><time>2026-04-26T12:19:26.002Z</time></trkpt><trkpt lat="45.6046121311778" lon="8.420608523615396"><ele>250.4</ele><time>2026-04-26T12:19:27.002Z</time></trkpt><trkpt lat="45.604674611831925" lon="8.420441212207653"><ele>250.0</ele><time>2026-04-26T12:19:28.002Z</time></trkpt><trkpt lat="45.604746318962285" lon="8.42023364933953"><ele>249.33333333333331</ele><time>2026-04-26T12:19:29.002Z</time></trkpt><trkpt lat="45.604835327298076" lon="8.419966103605141"><ele>248.66666666666669</ele><time>2026-04-26T12:19:30.002Z</time></trkpt><trkpt lat="45.604934453063606" lon="8.419693002610419"><ele>248.0</ele><time>2026-04-26T12:19:31.002Z</time></trkpt><trkpt lat="45.60502784502664" lon="8.41939585802489"><ele>247.66666666666669</ele><time>2026-04-26T12:19:32.002Z</time></trkpt><trkpt lat="45.60513408779177" lon="8.419098435489435"><ele>247.33333333333331</ele><time>2026-04-26T12:19:33.002Z</time></trkpt><trkpt lat="45.60523447818487" lon="8.41883261254088"><ele>247.0</ele><time>2026-04-26T12:19:34.002Z</time></trkpt><trkpt lat="45.605327824706364" lon="8.418579182144311"><ele>247.0</ele><time>2026-04-26T12:19:35.002Z</time></trkpt><trkpt lat="45.60541460656879" lon="8.41833219534228"><ele>247.0</ele><time>2026-04-26T12:19:36.002Z</time></trkpt><trkpt lat="45.60549925412279" lon="8.418116330803079"><ele>247.0</ele><time>2026-04-26T12:19:37.002Z</time></trkpt><trkpt lat="45.60557505569606" lon="8.417883674682077"><ele>247.0</ele><time>2026-04-26T12:19:38.001Z</time></trkpt><trkpt lat="45.60565747880031" lon="8.417643678045106"><ele>247.0</ele><time>2026-04-26T12:19:39.001Z</time></trkpt><trkpt lat="45.60574261368625" lon="8.417409460078323"><ele>247.0</ele><time>2026-04-26T12:19:40.001Z</time></trkpt><trkpt lat="45.605832731418445" lon="8.4171718663386"><ele>247.66666666666666</ele><time>2026-04-26T12:19:41.001Z</time></trkpt><trkpt lat="45.605919156147515" lon="8.416939434366894"><ele>248.33333333333331</ele><time>2026-04-26T12:19:42.001Z</time></trkpt><trkpt lat="45.60599891345372" lon="8.416704821286928"><ele>249.0</ele><time>2026-04-26T12:19:43.001Z</time></trkpt><trkpt lat="45.606079063097354" lon="8.416469213622936"><ele>249.0</ele><time>2026-04-26T12:19:44.001Z</time></trkpt><trkpt lat="45.60616231396159" lon="8.41623248216162"><ele>249.0</ele><time>2026-04-26T12:19:45.001Z</time></trkpt><trkpt lat="45.60624436657241" lon="8.415998032448256"><ele>249.0</ele><time>2026-04-26T12:19:46.001Z</time></trkpt><trkpt lat="45.606324508070216" lon="8.415765417293004"><ele>249.0</ele><time>2026-04-26T12:19:47.001Z</time></trkpt><trkpt lat="45.60640524093109" lon="8.415526979375958"><ele>249.0</ele><time>2026-04-26T12:19:48.001Z</time></trkpt><trkpt lat="45.60648754726621" lon="8.415293618458806"><ele>249.0</ele><time>2026-04-26T12:19:49.001Z</time></trkpt><trkpt lat="45.60656787787656" lon="8.415059535301877"><ele>249.0</ele><time>2026-04-26T12:19:50.001Z</time></trkpt><trkpt lat="45.6066529318008" lon="8.414825723617012"><ele>249.0</ele><time>2026-04-26T12:19:51.001Z</time></trkpt><trkpt lat="45.60673641526701" lon="8.414590916047075"><ele>249.0</ele><time>2026-04-26T12:19:52.001Z</time></trkpt><trkpt lat="45.60681763423554" lon="8.414353551650043"><ele>249.33333333333331</ele><time>2026-04-26T12:19:53.001Z</time></trkpt><trkpt lat="45.60689984943142" lon="8.414130633268936"><ele>249.66666666666666</ele><time>2026-04-26T12:19:54.001Z</time></trkpt><trkpt lat="45.60698100142116" lon="8.413935751628454"><ele>250.0</ele><time>2026-04-26T12:19:55.001Z</time></trkpt><trkpt lat="45.60706005915992" lon="8.413769185039351"><ele>250.4</ele><time>2026-04-26T12:19:56.001Z</time></trkpt><trkpt lat="45.60712098675214" lon="8.413683451078295"><ele>250.8</ele><time>2026-04-26T12:19:57.001Z</time></trkpt><trkpt lat="45.60718374710722" lon="8.413608404161225"><ele>251.2</ele><time>2026-04-26T12:20:02.001Z</time></trkpt><trkpt lat="45.60726758600614" lon="8.413555450656727"><ele>251.6</ele><time>2026-04-26T12:20:04.001Z</time></trkpt><trkpt lat="45.60738326281142" lon="8.413507871777226"><ele>252.0</ele><time>2026-04-26T12:20:06.001Z</time></trkpt><trkpt lat="45.60746328618656" lon="8.413399774003965"><ele>252.0</ele><time>2026-04-26T12:20:08.001Z</time></trkpt><trkpt lat="45.60750363268873" lon="8.413227588874998"><ele>252.0</ele><time>2026-04-26T12:20:10.001Z</time></trkpt><trkpt lat="45.60747230091458" lon="8.413121375649421"><ele>252.0</ele><time>2026-04-26T12:20:11.001Z</time></trkpt><trkpt lat="45.60745401787985" lon="8.413011717548935"><ele>252.0</ele><time>2026-04-26T12:20:12.001Z</time></trkpt><trkpt lat="45.60745589089855" lon="8.412906090025155"><ele>252.0</ele><time>2026-04-26T12:20:13.001Z</time></trkpt><trkpt lat="45.60749329705546" lon="8.41280243183931"><ele>252.0</ele><time>2026-04-26T12:20:14.001Z</time></trkpt><trkpt lat="45.607549002349" lon="8.41271592417303"><ele>251.8</ele><time>2026-04-26T12:20:15.001Z</time></trkpt><trkpt lat="45.60761026657511" lon="8.41264461251219"><ele>251.6</ele><time>2026-04-26T12:20:16.001Z</time></trkpt><trkpt lat="45.607695012513254" lon="8.412574390981682"><ele>251.40000000000003</ele><time>2026-04-26T12:20:17.001Z</time></trkpt><trkpt lat="45.607779507651266" lon="8.412502147611326"><ele>251.20000000000002</ele><time>2026-04-26T12:20:18.001Z</time></trkpt><trkpt lat="45.60787769624903" lon="8.41241925050027"><ele>251.0</ele><time>2026-04-26T12:20:19.001Z</time></trkpt><trkpt lat="45.607971655115904" lon="8.412335728372254"><ele>251.20000000000002</ele><time>2026-04-26T12:20:20.001Z</time></trkpt><trkpt lat="45.60806970890021" lon="8.412243814088828"><ele>251.40000000000003</ele><time>2026-04-26T12:20:21.001Z</time></trkpt><trkpt lat="45.6081686477525" lon="8.412157822150288"><ele>251.6</ele><time>2026-04-26T12:20:22.001Z</time></trkpt><trkpt lat="45.608265878377935" lon="8.412082718208056"><ele>251.8</ele><time>2026-04-26T12:20:23.001Z</time></trkpt><trkpt lat="45.60835636932758" lon="8.412008314564382"><ele>252.0</ele><time>2026-04-26T12:20:24.001Z</time></trkpt><trkpt lat="45.608453540641655" lon="8.411926896686019"><ele>252.0</ele><time>2026-04-26T12:20:25.001Z</time></trkpt><trkpt lat="45.60854942732581" lon="8.411841690976654"><ele>252.0</ele><time>2026-04-26T12:20:26.001Z</time></trkpt><trkpt lat="45.60864442787953" lon="8.411753049369466"><ele>252.0</ele><time>2026-04-26T12:20:27.001Z</time></trkpt><trkpt lat="45.608741235430216" lon="8.41166656645123"><ele>252.0</ele><time>2026-04-26T12:20:28.001Z</time></trkpt><trkpt lat="45.60883390905371" lon="8.411583127372248"><ele>252.0</ele><time>2026-04-26T12:20:29.001Z</time></trkpt><trkpt lat="45.608929597157626" lon="8.411496788185872"><ele>252.0</ele><time>2026-04-26T12:20:30.001Z</time></trkpt><trkpt lat="45.6090218172184" lon="8.411410413985806"><ele>252.0</ele><time>2026-04-26T12:20:31.001Z</time></trkpt><trkpt lat="45.609116043598064" lon="8.411324792059062"><ele>252.0</ele><time>2026-04-26T12:20:32.001Z</time></trkpt><trkpt lat="45.60921068796459" lon="8.411239044261274"><ele>252.0</ele><time>2026-04-26T12:20:33.001Z</time></trkpt><trkpt lat="45.60930443261462" lon="8.411154611980509"><ele>252.0</ele><time>2026-04-26T12:20:34.001Z</time></trkpt><trkpt lat="45.6093956445427" lon="8.411068192449184"><ele>252.0</ele><time>2026-04-26T12:20:35.001Z</time></trkpt><trkpt lat="45.6094886429227" lon="8.410985175138162"><ele>252.0</ele><time>2026-04-26T12:20:36.001Z</time></trkpt><trkpt lat="45.609584751068084" lon="8.410900096572853"><ele>252.0</ele><time>2026-04-26T12:20:37.001Z</time></trkpt><trkpt lat="45.60967549903352" lon="8.410812241707276"><ele>252.0</ele><time>2026-04-26T12:20:38.001Z</time></trkpt><trkpt lat="45.60976831489903" lon="8.410723054146237"><ele>252.0</ele><time>2026-04-26T12:20:39.001Z</time></trkpt><trkpt lat="45.609864568571545" lon="8.41064006015593"><ele>252.0</ele><time>2026-04-26T12:20:40.001Z</time></trkpt><trkpt lat="45.60995817357504" lon="8.41055668010217"><ele>252.0</ele><time>2026-04-26T12:20:41.001Z</time></trkpt><trkpt lat="45.61005224575964" lon="8.410470460230473"><ele>252.0</ele><time>2026-04-26T12:20:42.001Z</time></trkpt><trkpt lat="45.610145385048526" lon="8.410388695266326"><ele>252.0</ele><time>2026-04-26T12:20:43.001Z</time></trkpt><trkpt lat="45.610240186788396" lon="8.410308314922213"><ele>252.6</ele><time>2026-04-26T12:20:44.001Z</time></trkpt><trkpt lat="45.61033571903391" lon="8.410222598499516"><ele>253.2</ele><time>2026-04-26T12:20:45.001Z</time></trkpt><trkpt lat="45.610426898251426" lon="8.410138385955843"><ele>253.8</ele><time>2026-04-26T12:20:46.001Z</time></trkpt><trkpt lat="45.61051027136035" lon="8.41006603056721"><ele>254.4</ele><time>2026-04-26T12:20:47.001Z</time></trkpt><trkpt lat="45.610620030000575" lon="8.409976227641438"><ele>255.0</ele><time>2026-04-26T12:20:48.001Z</time></trkpt><trkpt lat="45.61071589663985" lon="8.409869474575775"><ele>255.0</ele><time>2026-04-26T12:20:49.001Z</time></trkpt><trkpt lat="45.6108006432821" lon="8.40980328110183"><ele>255.0</ele><time>2026-04-26T12:20:50.001Z</time></trkpt><trkpt lat="45.6108980638257" lon="8.409716385117013"><ele>255.0</ele><time>2026-04-26T12:20:51.001Z</time></trkpt><trkpt lat="45.610990272677405" lon="8.40963434323398"><ele>255.0</ele><time>2026-04-26T12:20:52.001Z</time></trkpt><trkpt lat="45.611082372221915" lon="8.409548727575551"><ele>255.0</ele><time>2026-04-26T12:20:53.001Z</time></trkpt><trkpt lat="45.61117647648847" lon="8.409461872318607"><ele>254.4</ele><time>2026-04-26T12:20:54.001Z</time></trkpt><trkpt lat="45.61127059462044" lon="8.409379276620712"><ele>253.8</ele><time>2026-04-26T12:20:55.001Z</time></trkpt><trkpt lat="45.611364763312395" lon="8.409298115979754"><ele>253.2</ele><time>2026-04-26T12:20:56.001Z</time></trkpt><trkpt lat="45.61145737496815" lon="8.409214722560389"><ele>252.6</ele><time>2026-04-26T12:20:57.001Z</time></trkpt><trkpt lat="45.61155272282659" lon="8.409129211547825"><ele>252.0</ele><time>2026-04-26T12:20:58.001Z</time></trkpt><trkpt lat="45.61164788322077" lon="8.40904124214843"><ele>252.0</ele><time>2026-04-26T12:20:59.001Z</time></trkpt><trkpt lat="45.61174068324504" lon="8.4089562097026"><ele>252.0</ele><time>2026-04-26T12:21:00.002Z</time></trkpt><trkpt lat="45.61183591401093" lon="8.408873592933633"><ele>252.0</ele><time>2026-04-26T12:21:01.002Z</time></trkpt><trkpt lat="45.61192515263802" lon="8.408795433439886"><ele>252.0</ele><time>2026-04-26T12:21:02.002Z</time></trkpt><trkpt lat="45.61200574025513" lon="8.408715623235521"><ele>252.0</ele><time>2026-04-26T12:21:03.002Z</time></trkpt><trkpt lat="45.61208791504772" lon="8.40864048236657"><ele>252.16666666666666</ele><time>2026-04-26T12:21:04.002Z</time></trkpt><trkpt lat="45.61216245998461" lon="8.40856137550813"><ele>252.33333333333331</ele><time>2026-04-26T12:21:05.002Z</time></trkpt><trkpt lat="45.612248412639666" lon="8.408510386655708"><ele>252.5</ele><time>2026-04-26T12:21:06.002Z</time></trkpt><trkpt lat="45.61233011077648" lon="8.40844678730005"><ele>252.66666666666666</ele><time>2026-04-26T12:21:07.002Z</time></trkpt><trkpt lat="45.612405951981025" lon="8.408396016633096"><ele>252.83333333333331</ele><time>2026-04-26T12:21:08.002Z</time></trkpt><trkpt lat="45.61247468452354" lon="8.408372510536442"><ele>253.0</ele><time>2026-04-26T12:21:09.002Z</time></trkpt><trkpt lat="45.61256553270684" lon="8.408355057469354"><ele>253.0</ele><time>2026-04-26T12:21:10.002Z</time></trkpt><trkpt lat="45.61266721340242" lon="8.408435555078052"><ele>253.0</ele><time>2026-04-26T12:21:11.002Z</time></trkpt><trkpt lat="45.61278307738086" lon="8.408439184980054"><ele>253.0</ele><time>2026-04-26T12:21:12.002Z</time></trkpt><trkpt lat="45.61287323414221" lon="8.408353592980113"><ele>253.0</ele><time>2026-04-26T12:21:13.002Z</time></trkpt><trkpt lat="45.61294710317771" lon="8.408261618482909"><ele>253.0</ele><time>2026-04-26T12:21:14.002Z</time></trkpt><trkpt lat="45.61300640175172" lon="8.40813809454988"><ele>253.8</ele><time>2026-04-26T12:21:15.002Z</time></trkpt><trkpt lat="45.6130425964874" lon="8.407979881290428"><ele>254.60000000000002</ele><time>2026-04-26T12:21:16.002Z</time></trkpt><trkpt lat="45.61308302291158" lon="8.407828468389765"><ele>255.39999999999998</ele><time>2026-04-26T12:21:17.002Z</time></trkpt><trkpt lat="45.61315108442126" lon="8.407697336896662"><ele>256.2</ele><time>2026-04-26T12:21:18.002Z</time></trkpt><trkpt lat="45.61320793549064" lon="8.407571192435148"><ele>257.0</ele><time>2026-04-26T12:21:19.002Z</time></trkpt><trkpt lat="45.613345269443975" lon="8.407529027544728"><ele>257.0</ele><time>2026-04-26T12:21:20.002Z</time></trkpt><trkpt lat="45.613453946233975" lon="8.407436526002227"><ele>257.0</ele><time>2026-04-26T12:21:21.002Z</time></trkpt><trkpt lat="45.61356122213064" lon="8.407328120969245"><ele>257.0</ele><time>2026-04-26T12:21:22.002Z</time></trkpt><trkpt lat="45.61368040971274" lon="8.40723181687523"><ele>257.0</ele><time>2026-04-26T12:21:23.002Z</time></trkpt><trkpt lat="45.61379800885266" lon="8.40713051776824"><ele>257.25</ele><time>2026-04-26T12:21:24.002Z</time></trkpt><trkpt lat="45.61391325450087" lon="8.407026815610948"><ele>257.5</ele><time>2026-04-26T12:21:25.002Z</time></trkpt><trkpt lat="45.61403179399528" lon="8.406920174381073"><ele>257.75</ele><time>2026-04-26T12:21:26.002Z</time></trkpt><trkpt lat="45.614147659264894" lon="8.406814316280261"><ele>258.0</ele><time>2026-04-26T12:21:27.002Z</time></trkpt><trkpt lat="45.61426006754241" lon="8.406711859587325"><ele>258.0</ele><time>2026-04-26T12:21:28.002Z</time></trkpt><trkpt lat="45.61436825610476" lon="8.406615406638316"><ele>258.0</ele><time>2026-04-26T12:21:29.002Z</time></trkpt><trkpt lat="45.61446848849951" lon="8.406525382494056"><ele>258.0</ele><time>2026-04-26T12:21:30.002Z</time></trkpt><trkpt lat="45.614572862421284" lon="8.406429404479274"><ele>258.0</ele><time>2026-04-26T12:21:31.002Z</time></trkpt><trkpt lat="45.61467135086076" lon="8.406343508410645"><ele>258.2</ele><time>2026-04-26T12:21:32.002Z</time></trkpt><trkpt lat="45.6147636631351" lon="8.406265182972067"><ele>258.4</ele><time>2026-04-26T12:21:33.002Z</time></trkpt><trkpt lat="45.61484690031673" lon="8.406193057545739"><ele>258.59999999999997</ele><time>2026-04-26T12:21:34.002Z</time></trkpt><trkpt lat="45.61492999979038" lon="8.406122587715837"><ele>258.8</ele><time>2026-04-26T12:21:35.002Z</time></trkpt><trkpt lat="45.6150138875762" lon="8.406045503485146"><ele>259.0</ele><time>2026-04-26T12:21:36.002Z</time></trkpt><trkpt lat="45.615104952234695" lon="8.40596247240005"><ele>259.0</ele><time>2026-04-26T12:21:37.002Z</time></trkpt><trkpt lat="45.6151947760423" lon="8.405877826702486"><ele>259.0</ele><time>2026-04-26T12:21:38.002Z</time></trkpt><trkpt lat="45.61528055226193" lon="8.40579971866437"><ele>259.0</ele><time>2026-04-26T12:21:39.002Z</time></trkpt><trkpt lat="45.615366628946404" lon="8.405722389204495"><ele>259.0</ele><time>2026-04-26T12:21:40.002Z</time></trkpt><trkpt lat="45.61545769570293" lon="8.405641995353427"><ele>259.0</ele><time>2026-04-26T12:21:41.002Z</time></trkpt><trkpt lat="45.61555337100969" lon="8.405558140367825"><ele>258.75</ele><time>2026-04-26T12:21:42.002Z</time></trkpt><trkpt lat="45.61565160691028" lon="8.405474565836183"><ele>258.5</ele><time>2026-04-26T12:21:43.002Z</time></trkpt><trkpt lat="45.61575074313867" lon="8.405389221199368"><ele>258.25</ele><time>2026-04-26T12:21:44Z</time></trkpt><trkpt lat="45.615852855343164" lon="8.405296988845048"><ele>258.0</ele><time>2026-04-26T12:21:45Z</time></trkpt><trkpt lat="45.61596079095393" lon="8.40519638948574"><ele>258.0</ele><time>2026-04-26T12:21:46Z</time></trkpt><trkpt lat="45.61606459951431" lon="8.40510154083734"><ele>258.0</ele><time>2026-04-26T12:21:47Z</time></trkpt><trkpt lat="45.61616689994474" lon="8.405007548441697"><ele>258.0</ele><time>2026-04-26T12:21:48Z</time></trkpt><trkpt lat="45.61627086697598" lon="8.404913432577603"><ele>258.0</ele><time>2026-04-26T12:21:49Z</time></trkpt><trkpt lat="45.61637519668063" lon="8.404824378434542"><ele>258.0</ele><time>2026-04-26T12:21:50Z</time></trkpt><trkpt lat="45.61647757805505" lon="8.404730463494062"><ele>258.0</ele><time>2026-04-26T12:21:51Z</time></trkpt><trkpt lat="45.61657961218164" lon="8.404636728607139"><ele>258.0</ele><time>2026-04-26T12:21:52Z</time></trkpt><trkpt lat="45.616683745253404" lon="8.404545158833423"><ele>258.0</ele><time>2026-04-26T12:21:53Z</time></trkpt><trkpt lat="45.61679174919341" lon="8.404454792450744"><ele>258.0</ele><time>2026-04-26T12:21:54Z</time></trkpt><trkpt lat="45.61689935513026" lon="8.40436434205985"><ele>258.0</ele><time>2026-04-26T12:21:55Z</time></trkpt><trkpt lat="45.617006102282524" lon="8.404266015931213"><ele>258.0</ele><time>2026-04-26T12:21:56Z</time></trkpt><trkpt lat="45.61711482631306" lon="8.40416418173379"><ele>258.0</ele><time>2026-04-26T12:21:57Z</time></trkpt><trkpt lat="45.617226232798316" lon="8.404065577732473"><ele>258.0</ele><time>2026-04-26T12:21:58Z</time></trkpt><trkpt lat="45.61733501312774" lon="8.403968898524985"><ele>258.0</ele><time>2026-04-26T12:21:59Z</time></trkpt><trkpt lat="45.61744558751441" lon="8.403881752965093"><ele>258.0</ele><time>2026-04-26T12:22:00Z</time></trkpt><trkpt lat="45.61755795393522" lon="8.403821081681192"><ele>258.0</ele><time>2026-04-26T12:22:01Z</time></trkpt><trkpt lat="45.617666843096465" lon="8.403840768918656"><ele>258.0</ele><time>2026-04-26T12:22:02Z</time></trkpt><trkpt lat="45.61778702076865" lon="8.403875110050388"><ele>258.0</ele><time>2026-04-26T12:22:03Z</time></trkpt><trkpt lat="45.61790637346588" lon="8.4038378468534"><ele>258.0</ele><time>2026-04-26T12:22:04Z</time></trkpt><trkpt lat="45.61800673165246" lon="8.403756163628707"><ele>258.0</ele><time>2026-04-26T12:22:05Z</time></trkpt><trkpt lat="45.61803579268322" lon="8.403531036739539"><ele>258.25</ele><time>2026-04-26T12:22:06Z</time></trkpt><trkpt lat="45.618102295700375" lon="8.403376581188265"><ele>258.5</ele><time>2026-04-26T12:22:07Z</time></trkpt><trkpt lat="45.61818434372361" lon="8.40324278473986"><ele>258.75</ele><time>2026-04-26T12:22:08Z</time></trkpt><trkpt lat="45.618276064852694" lon="8.403108419420235"><ele>259.0</ele><time>2026-04-26T12:22:09Z</time></trkpt><trkpt lat="45.61838688142001" lon="8.403001969254237"><ele>259.75</ele><time>2026-04-26T12:22:10Z</time></trkpt><trkpt lat="45.61850418895556" lon="8.402896415036208"><ele>260.5</ele><time>2026-04-26T12:22:11Z</time></trkpt><trkpt lat="45.61862851338461" lon="8.40279043999205"><ele>261.25</ele><time>2026-04-26T12:22:12Z</time></trkpt><trkpt lat="45.61876435943066" lon="8.402669359091435"><ele>262.0</ele><time>2026-04-26T12:22:13Z</time></trkpt><trkpt lat="45.61891034976601" lon="8.40253603924853"><ele>262.0</ele><time>2026-04-26T12:22:14Z</time></trkpt><trkpt lat="45.61905587557438" lon="8.40240391214054"><ele>262.0</ele><time>2026-04-26T12:22:15Z</time></trkpt><trkpt lat="45.61920680014907" lon="8.402272109386757"><ele>262.0</ele><time>2026-04-26T12:22:16Z</time></trkpt><trkpt lat="45.61935609225622" lon="8.40214000476423"><ele>262.3333333333333</ele><time>2026-04-26T12:22:17Z</time></trkpt><trkpt lat="45.61950431061569" lon="8.402003242242735"><ele>262.6666666666667</ele><time>2026-04-26T12:22:18Z</time></trkpt><trkpt lat="45.61965805623456" lon="8.40186367710623"><ele>263.0</ele><time>2026-04-26T12:22:19Z</time></trkpt><trkpt lat="45.61981416455111" lon="8.401723947718747"><ele>263.0</ele><time>2026-04-26T12:22:20Z</time></trkpt><trkpt lat="45.61997103325138" lon="8.401583960536113"><ele>263.0</ele><time>2026-04-26T12:22:21Z</time></trkpt><trkpt lat="45.62013147607987" lon="8.401443084271385"><ele>263.0</ele><time>2026-04-26T12:22:22Z</time></trkpt><trkpt lat="45.620282429638955" lon="8.401308665931788"><ele>263.33333333333337</ele><time>2026-04-26T12:22:23Z</time></trkpt><trkpt lat="45.62041950940743" lon="8.401185529866325"><ele>263.6666666666667</ele><time>2026-04-26T12:22:24Z</time></trkpt><trkpt lat="45.62054790244824" lon="8.401070019007289"><ele>264.0</ele><time>2026-04-26T12:22:25.001Z</time></trkpt><trkpt lat="45.62066784986495" lon="8.400962129715236"><ele>264.0</ele><time>2026-04-26T12:22:26.001Z</time></trkpt><trkpt lat="45.62077765072409" lon="8.40088088001064"><ele>264.0</ele><time>2026-04-26T12:22:27.001Z</time></trkpt><trkpt lat="45.62088080313956" lon="8.400827504152215"><ele>264.0</ele><time>2026-04-26T12:22:28.001Z</time></trkpt><trkpt lat="45.62098095040212" lon="8.4007721857496"><ele>264.0</ele><time>2026-04-26T12:22:29.001Z</time></trkpt><trkpt lat="45.62106279988432" lon="8.400696437292284"><ele>264.0</ele><time>2026-04-26T12:22:30.001Z</time></trkpt><trkpt lat="45.62112977265863" lon="8.400638070624693"><ele>263.8333333333333</ele><time>2026-04-26T12:22:31.001Z</time></trkpt><trkpt lat="45.62119499249383" lon="8.400610238957244"><ele>263.6666666666667</ele><time>2026-04-26T12:22:33.001Z</time></trkpt><trkpt lat="45.621241350693225" lon="8.400677356509032"><ele>263.5</ele><time>2026-04-26T12:22:34.001Z</time></trkpt><trkpt lat="45.62135549423996" lon="8.40059315256543"><ele>263.33333333333337</ele><time>2026-04-26T12:22:36.001Z</time></trkpt><trkpt lat="45.62141511114084" lon="8.400531989640893"><ele>263.1666666666667</ele><time>2026-04-26T12:22:37.001Z</time></trkpt><trkpt lat="45.621483495951374" lon="8.400585208573382"><ele>263.0</ele><time>2026-04-26T12:22:40.001Z</time></trkpt><trkpt lat="45.62152570013238" lon="8.40068067506215"><ele>263.0</ele><time>2026-04-26T12:22:42.001Z</time></trkpt><trkpt lat="45.62156286478758" lon="8.400778902023788"><ele>263.0</ele><time>2026-04-26T12:22:43.001Z</time></trkpt><trkpt lat="45.62160644417122" lon="8.400877876994668"><ele>263.0</ele><time>2026-04-26T12:22:44.001Z</time></trkpt><trkpt lat="45.621785143910394" lon="8.400804501178627"><ele>263.0</ele><time>2026-04-26T12:22:47.001Z</time></trkpt><trkpt lat="45.621853892036974" lon="8.400727649743839"><ele>263.0</ele><time>2026-04-26T12:22:48.001Z</time></trkpt><trkpt lat="45.62192822757525" lon="8.400669905659862"><ele>263.0</ele><time>2026-04-26T12:22:49.001Z</time></trkpt><trkpt lat="45.621989031062704" lon="8.400618994410536"><ele>263.0</ele><time>2026-04-26T12:22:50.001Z</time></trkpt><trkpt lat="45.622035876742835" lon="8.400553928584616"><ele>263.0</ele><time>2026-04-26T12:22:52.001Z</time></trkpt><trkpt lat="45.62207764098659" lon="8.400440434223848"><ele>263.0</ele><time>2026-04-26T12:22:54.001Z</time></trkpt><trkpt lat="45.62207400860629" lon="8.400321421660673"><ele>263.0</ele><time>2026-04-26T12:22:56.001Z</time></trkpt><trkpt lat="45.62203851157536" lon="8.400232547074806"><ele>263.0</ele><time>2026-04-26T12:22:58.001Z</time></trkpt><trkpt lat="45.62194955224469" lon="8.400140774347278"><ele>262.8</ele><time>2026-04-26T12:23:00.001Z</time></trkpt><trkpt lat="45.62186981069972" lon="8.400096876954995"><ele>262.6</ele><time>2026-04-26T12:23:02.001Z</time></trkpt><trkpt lat="45.621829762698454" lon="8.400197179996313"><ele>262.4</ele><time>2026-04-26T12:23:03.001Z</time></trkpt><trkpt lat="45.62183634429511" lon="8.400308941099267"><ele>262.2</ele><time>2026-04-26T12:24:15Z</time></trkpt><trkpt lat="45.621830766736345" lon="8.400419540327103"><ele>262.0</ele><time>2026-04-26T12:24:22Z</time></trkpt><trkpt lat="45.621780464004665" lon="8.400241149746318"><ele>262.0</ele><time>2026-04-26T12:37:49.013Z</time></trkpt><trkpt lat="45.62182596721957" lon="8.400171466516067"><ele>262.0</ele><time>2026-04-26T12:37:58.007Z</time></trkpt><trkpt lat="45.62178242591566" lon="8.40026631080256"><ele>262.0</ele><time>2026-04-26T12:40:54Z</time></trkpt><trkpt lat="45.62171074039187" lon="8.40030804681002"><ele>262.0</ele><time>2026-04-26T12:40:56Z</time></trkpt><trkpt lat="45.62162358027573" lon="8.400367643462392"><ele>262.0</ele><time>2026-04-26T12:40:58Z</time></trkpt><trkpt lat="45.6215366668066" lon="8.40043141281417"><ele>262.0</ele><time>2026-04-26T12:41:00Z</time></trkpt><trkpt lat="45.62146281993729" lon="8.400503008375694"><ele>262.25</ele><time>2026-04-26T12:41:02Z</time></trkpt><trkpt lat="45.62137821143973" lon="8.400585151207775"><ele>262.5</ele><time>2026-04-26T12:41:04Z</time></trkpt><trkpt lat="45.62128219438475" lon="8.40067303381082"><ele>262.75</ele><time>2026-04-26T12:41:06Z</time></trkpt><trkpt lat="45.62118423949999" lon="8.400761772138551"><ele>263.0</ele><time>2026-04-26T12:41:08Z</time></trkpt><trkpt lat="45.62108960334334" lon="8.400866268508919"><ele>263.1666666666667</ele><time>2026-04-26T12:41:10Z</time></trkpt><trkpt lat="45.62098536756586" lon="8.400957058883161"><ele>263.33333333333337</ele><time>2026-04-26T12:41:12Z</time></trkpt><trkpt lat="45.6209045612411" lon="8.401027360481145"><ele>263.5</ele><time>2026-04-26T12:41:14Z</time></trkpt><trkpt lat="45.62083404295885" lon="8.401078219292838"><ele>263.6666666666667</ele><time>2026-04-26T12:41:16Z</time></trkpt><trkpt lat="45.62077337994194" lon="8.401115837088021"><ele>263.8333333333333</ele><time>2026-04-26T12:41:17Z</time></trkpt><trkpt lat="45.620712881029824" lon="8.401168753363319"><ele>264.0</ele><time>2026-04-26T12:41:18Z</time></trkpt><trkpt lat="45.62062148692771" lon="8.401201301062967"><ele>264.0</ele><time>2026-04-26T12:41:20Z</time></trkpt><trkpt lat="45.62058239346909" lon="8.40110582318493"><ele>264.0</ele><time>2026-04-26T12:41:23Z</time></trkpt><trkpt lat="45.62063196255485" lon="8.400994988033709"><ele>264.0</ele><time>2026-04-26T12:41:25Z</time></trkpt><trkpt lat="45.62071639055672" lon="8.40094614460241"><ele>264.0</ele><time>2026-04-26T12:41:26Z</time></trkpt><trkpt lat="45.62079345621988" lon="8.40088117922891"><ele>264.0</ele><time>2026-04-26T12:41:27Z</time></trkpt><trkpt lat="45.62087948966641" lon="8.400794246914609"><ele>264.0</ele><time>2026-04-26T12:41:28Z</time></trkpt><trkpt lat="45.620978083697295" lon="8.400705225043891"><ele>264.0</ele><time>2026-04-26T12:41:29Z</time></trkpt><trkpt lat="45.62108776891127" lon="8.400605797438415"><ele>264.0</ele><time>2026-04-26T12:41:30Z</time></trkpt><trkpt lat="45.62119943940109" lon="8.400504405327982"><ele>264.0</ele><time>2026-04-26T12:41:31Z</time></trkpt><trkpt lat="45.621303512322925" lon="8.400415302173936"><ele>263.3333333333333</ele><time>2026-04-26T12:41:32Z</time></trkpt><trkpt lat="45.62145550263049" lon="8.400279511980406"><ele>262.66666666666663</ele><time>2026-04-26T12:41:33Z</time></trkpt><trkpt lat="45.62158519530503" lon="8.400137355404306"><ele>262.0</ele><time>2026-04-26T12:41:34Z</time></trkpt><trkpt lat="45.621704705597104" lon="8.400056145264337"><ele>262.0</ele><time>2026-04-26T12:41:35Z</time></trkpt><trkpt lat="45.62180217387266" lon="8.39994647723737"><ele>262.0</ele><time>2026-04-26T12:41:36Z</time></trkpt><trkpt lat="45.62190222677301" lon="8.399867601217679"><ele>262.0</ele><time>2026-04-26T12:41:37Z</time></trkpt><trkpt lat="45.62200750146635" lon="8.399838261881238"><ele>262.0</ele><time>2026-04-26T12:41:38Z</time></trkpt><trkpt lat="45.62210648285695" lon="8.399851908142736"><ele>262.0</ele><time>2026-04-26T12:41:39Z</time></trkpt><trkpt lat="45.622215866925856" lon="8.399834055641378"><ele>262.25</ele><time>2026-04-26T12:41:40Z</time></trkpt><trkpt lat="45.622321335361946" lon="8.399748274333154"><ele>262.5</ele><time>2026-04-26T12:41:41Z</time></trkpt><trkpt lat="45.62237913902775" lon="8.39961331474883"><ele>262.75</ele><time>2026-04-26T12:41:42Z</time></trkpt><trkpt lat="45.62242773715575" lon="8.399445996505778"><ele>263.0</ele><time>2026-04-26T12:41:43Z</time></trkpt><trkpt lat="45.62251350629284" lon="8.399313169953933"><ele>263.25</ele><time>2026-04-26T12:41:44Z</time></trkpt><trkpt lat="45.62263349854601" lon="8.399202046460271"><ele>263.5</ele><time>2026-04-26T12:41:45Z</time></trkpt><trkpt lat="45.62275818803759" lon="8.399100187609738"><ele>263.75</ele><time>2026-04-26T12:41:46Z</time></trkpt><trkpt lat="45.622873417303126" lon="8.39899500509844"><ele>264.0</ele><time>2026-04-26T12:41:47Z</time></trkpt><trkpt lat="45.62299503235903" lon="8.39888646092783"><ele>263.25</ele><time>2026-04-26T12:41:48Z</time></trkpt><trkpt lat="45.623116004157566" lon="8.398777661567658"><ele>262.5</ele><time>2026-04-26T12:41:49Z</time></trkpt><trkpt lat="45.62323639328379" lon="8.398671446969532"><ele>261.75</ele><time>2026-04-26T12:41:50Z</time></trkpt><trkpt lat="45.62335400368932" lon="8.398566006031464"><ele>261.0</ele><time>2026-04-26T12:41:51Z</time></trkpt><trkpt lat="45.62346734280377" lon="8.39846287047557"><ele>261.0</ele><time>2026-04-26T12:41:52Z</time></trkpt><trkpt lat="45.62358137229132" lon="8.39835689951424"><ele>261.0</ele><time>2026-04-26T12:41:53Z</time></trkpt><trkpt lat="45.623697890078326" lon="8.398254304134927"><ele>261.0</ele><time>2026-04-26T12:41:54Z</time></trkpt><trkpt lat="45.62381452255524" lon="8.398150791909794"><ele>261.0</ele><time>2026-04-26T12:41:55Z</time></trkpt><trkpt lat="45.62393173573407" lon="8.398052956192943"><ele>261.0</ele><time>2026-04-26T12:41:56.001Z</time></trkpt><trkpt lat="45.62405041918538" lon="8.39795029351081"><ele>261.0</ele><time>2026-04-26T12:41:57.001Z</time></trkpt><trkpt lat="45.62415847083199" lon="8.397856071438673"><ele>261.0</ele><time>2026-04-26T12:41:58.001Z</time></trkpt><trkpt lat="45.624267150104146" lon="8.397791690573797"><ele>261.0</ele><time>2026-04-26T12:41:59.001Z</time></trkpt><trkpt lat="45.624385912765014" lon="8.397808551532417"><ele>261.75</ele><time>2026-04-26T12:42:00.001Z</time></trkpt><trkpt lat="45.624482795159416" lon="8.39778246372057"><ele>262.5</ele><time>2026-04-26T12:42:01.001Z</time></trkpt><trkpt lat="45.62455595100992" lon="8.39763812305475"><ele>263.25</ele><time>2026-04-26T12:42:02.001Z</time></trkpt><trkpt lat="45.624624985120384" lon="8.39748421749579"><ele>264.0</ele><time>2026-04-26T12:42:03.001Z</time></trkpt><trkpt lat="45.62471463545695" lon="8.397350832039804"><ele>264.0</ele><time>2026-04-26T12:42:04.001Z</time></trkpt><trkpt lat="45.6248253807915" lon="8.39723800674503"><ele>264.0</ele><time>2026-04-26T12:42:05.001Z</time></trkpt><trkpt lat="45.62494812308776" lon="8.397133652554754"><ele>264.0</ele><time>2026-04-26T12:42:06.001Z</time></trkpt><trkpt lat="45.6250746367467" lon="8.397018024358198"><ele>264.0</ele><time>2026-04-26T12:42:07.001Z</time></trkpt><trkpt lat="45.62520226400194" lon="8.396905097003335"><ele>264.6666666666667</ele><time>2026-04-26T12:42:07.999Z</time></trkpt><trkpt lat="45.62533353018462" lon="8.396785689295223"><ele>265.33333333333337</ele><time>2026-04-26T12:42:08.999Z</time></trkpt><trkpt lat="45.625465117188014" lon="8.39667588520448"><ele>266.0</ele><time>2026-04-26T12:42:09.999Z</time></trkpt><trkpt lat="45.62559973572983" lon="8.39656124717955"><ele>266.0</ele><time>2026-04-26T12:42:10.999Z</time></trkpt><trkpt lat="45.62572935019463" lon="8.396440812913971"><ele>266.0</ele><time>2026-04-26T12:42:11.999Z</time></trkpt><trkpt lat="45.625858233224996" lon="8.396322548718214"><ele>266.0</ele><time>2026-04-26T12:42:12.999Z</time></trkpt><trkpt lat="45.62599278666038" lon="8.396202799701502"><ele>265.6666666666667</ele><time>2026-04-26T12:42:13.999Z</time></trkpt><trkpt lat="45.62612554595678" lon="8.396081786458181"><ele>265.3333333333333</ele><time>2026-04-26T12:42:14.999Z</time></trkpt><trkpt lat="45.62625349077632" lon="8.395965318359616"><ele>265.0</ele><time>2026-04-26T12:42:15.999Z</time></trkpt><trkpt lat="45.626380755574374" lon="8.395846555085761"><ele>265.0</ele><time>2026-04-26T12:42:16.999Z</time></trkpt><trkpt lat="45.626511728984774" lon="8.395728119794176"><ele>265.0</ele><time>2026-04-26T12:42:17.999Z</time></trkpt><trkpt lat="45.626644295673366" lon="8.395614948387035"><ele>265.0</ele><time>2026-04-26T12:42:18.999Z</time></trkpt><trkpt lat="45.62677334023885" lon="8.395500799440406"><ele>264.3333333333333</ele><time>2026-04-26T12:42:19.999Z</time></trkpt><trkpt lat="45.62690135536791" lon="8.395381417600168"><ele>263.6666666666667</ele><time>2026-04-26T12:42:20.999Z</time></trkpt><trkpt lat="45.62703208844419" lon="8.395260714711545"><ele>263.0</ele><time>2026-04-26T12:42:21.999Z</time></trkpt><trkpt lat="45.62716450431532" lon="8.395146274864182"><ele>264.33333333333337</ele><time>2026-04-26T12:42:22.999Z</time></trkpt><trkpt lat="45.62729222969147" lon="8.395034861588174"><ele>265.6666666666667</ele><time>2026-04-26T12:42:23.999Z</time></trkpt><trkpt lat="45.62742078310754" lon="8.394919411686606"><ele>267.0</ele><time>2026-04-26T12:42:24.999Z</time></trkpt><trkpt lat="45.62754571500618" lon="8.394793777603583"><ele>267.0</ele><time>2026-04-26T12:42:25.999Z</time></trkpt><trkpt lat="45.627676190641125" lon="8.39467639213976"><ele>267.0</ele><time>2026-04-26T12:42:26.999Z</time></trkpt><trkpt lat="45.627809350412946" lon="8.394560928729044"><ele>267.0</ele><time>2026-04-26T12:42:27.999Z</time></trkpt><trkpt lat="45.62793780374321" lon="8.394438926651743"><ele>267.6666666666667</ele><time>2026-04-26T12:42:28.999Z</time></trkpt><trkpt lat="45.62806549496809" lon="8.394320134289874"><ele>268.33333333333337</ele><time>2026-04-26T12:42:29.999Z</time></trkpt><trkpt lat="45.6281954707732" lon="8.394206923950764"><ele>269.0</ele><time>2026-04-26T12:42:30.999Z</time></trkpt><trkpt lat="45.628327652313146" lon="8.394094878907676"><ele>269.0</ele><time>2026-04-26T12:42:31.999Z</time></trkpt><trkpt lat="45.62845636899981" lon="8.393975710869972"><ele>269.0</ele><time>2026-04-26T12:42:32.999Z</time></trkpt><trkpt lat="45.62858301570183" lon="8.39385349376576"><ele>269.0</ele><time>2026-04-26T12:42:33.999Z</time></trkpt><trkpt lat="45.62871429504955" lon="8.393737721315075"><ele>269.0</ele><time>2026-04-26T12:42:34.999Z</time></trkpt><trkpt lat="45.62884531170084" lon="8.393623495980998"><ele>269.0</ele><time>2026-04-26T12:42:35.999Z</time></trkpt><trkpt lat="45.62897917217263" lon="8.39351015030655"><ele>269.0</ele><time>2026-04-26T12:42:36.999Z</time></trkpt><trkpt lat="45.62910720935939" lon="8.393387191156982"><ele>269.0</ele><time>2026-04-26T12:42:37.999Z</time></trkpt><trkpt lat="45.629229131575" lon="8.393282619441257"><ele>269.0</ele><time>2026-04-26T12:42:38.999Z</time></trkpt><trkpt lat="45.62936764017247" lon="8.393168189525468"><ele>269.0</ele><time>2026-04-26T12:42:39.999Z</time></trkpt><trkpt lat="45.62949890036723" lon="8.393049776498968"><ele>268.75</ele><time>2026-04-26T12:42:40.999Z</time></trkpt><trkpt lat="45.629618459735646" lon="8.392925780980512"><ele>268.5</ele><time>2026-04-26T12:42:41.999Z</time></trkpt><trkpt lat="45.62973036207072" lon="8.392834858225742"><ele>268.25</ele><time>2026-04-26T12:42:42.999Z</time></trkpt><trkpt lat="45.62984344808872" lon="8.39273367335824"><ele>268.0</ele><time>2026-04-26T12:42:43.999Z</time></trkpt><trkpt lat="45.62994320257826" lon="8.39264553675609"><ele>268.0</ele><time>2026-04-26T12:42:44.999Z</time></trkpt><trkpt lat="45.63003291518348" lon="8.392587844101547"><ele>268.0</ele><time>2026-04-26T12:42:45.999Z</time></trkpt><trkpt lat="45.630122485625876" lon="8.392549767294065"><ele>268.0</ele><time>2026-04-26T12:42:46.999Z</time></trkpt><trkpt lat="45.63020891280939" lon="8.392507056614214"><ele>268.0</ele><time>2026-04-26T12:42:47.999Z</time></trkpt><trkpt lat="45.63027405373524" lon="8.392412403738923"><ele>268.0</ele><time>2026-04-26T12:42:48.999Z</time></trkpt><trkpt lat="45.630341747239896" lon="8.392288572862364"><ele>268.0</ele><time>2026-04-26T12:42:49.999Z</time></trkpt><trkpt lat="45.63042566141294" lon="8.392217615125487"><ele>268.0</ele><time>2026-04-26T12:42:50.999Z</time></trkpt><trkpt lat="45.63052129270548" lon="8.39213023651218"><ele>268.0</ele><time>2026-04-26T12:42:51.999Z</time></trkpt><trkpt lat="45.630660746020986" lon="8.392004856643249"><ele>268.0</ele><time>2026-04-26T12:42:52.999Z</time></trkpt><trkpt lat="45.63084197163094" lon="8.391843315116517"><ele>268.0</ele><time>2026-04-26T12:42:53.999Z</time></trkpt><trkpt lat="45.631028463140765" lon="8.39167155134449"><ele>268.0</ele><time>2026-04-26T12:42:54.999Z</time></trkpt><trkpt lat="45.63119738607712" lon="8.39152435500187"><ele>268.0</ele><time>2026-04-26T12:42:55.999Z</time></trkpt><trkpt lat="45.63135191530401" lon="8.391370626410849"><ele>268.66666666666663</ele><time>2026-04-26T12:42:56.999Z</time></trkpt><trkpt lat="45.63148652982463" lon="8.391185881273005"><ele>269.3333333333333</ele><time>2026-04-26T12:42:58Z</time></trkpt><trkpt lat="45.63161043466868" lon="8.3909850933308"><ele>270.0</ele><time>2026-04-26T12:42:59Z</time></trkpt><trkpt lat="45.63171444103785" lon="8.390762860639326"><ele>270.0</ele><time>2026-04-26T12:43:00Z</time></trkpt><trkpt lat="45.63180888598598" lon="8.390526291799825"><ele>270.0</ele><time>2026-04-26T12:43:01Z</time></trkpt><trkpt lat="45.63186289142453" lon="8.390279704571252"><ele>270.0</ele><time>2026-04-26T12:43:02Z</time></trkpt><trkpt lat="45.63192236811835" lon="8.390056219494596"><ele>270.0</ele><time>2026-04-26T12:43:03Z</time></trkpt><trkpt lat="45.631961227668235" lon="8.389842901727349"><ele>270.0</ele><time>2026-04-26T12:43:04Z</time></trkpt><trkpt lat="45.63200402958037" lon="8.389680807067105"><ele>270.0</ele><time>2026-04-26T12:43:05Z</time></trkpt><trkpt lat="45.63202780835068" lon="8.389550395339903"><ele>270.0</ele><time>2026-04-26T12:43:06Z</time></trkpt><trkpt lat="45.63204408902029" lon="8.389458973426086"><ele>270.0</ele><time>2026-04-26T12:43:07Z</time></trkpt><trkpt lat="45.632052296841564" lon="8.389357613852068"><ele>270.6</ele><time>2026-04-26T12:43:09Z</time></trkpt><trkpt lat="45.632070249646645" lon="8.389253205658818"><ele>271.2</ele><time>2026-04-26T12:43:13Z</time></trkpt><trkpt lat="45.63207868184921" lon="8.38916374753856"><ele>271.8</ele><time>2026-04-26T12:43:32Z</time></trkpt><trkpt lat="45.63213108683429" lon="8.38895909922697"><ele>272.4</ele><time>2026-04-26T12:43:34Z</time></trkpt><trkpt lat="45.63214386744438" lon="8.388801569651026"><ele>273.0</ele><time>2026-04-26T12:43:35Z</time></trkpt><trkpt lat="45.63217253857467" lon="8.38862229067392"><ele>273.0</ele><time>2026-04-26T12:43:36Z</time></trkpt><trkpt lat="45.63220167282522" lon="8.388429335635509"><ele>273.0</ele><time>2026-04-26T12:43:37Z</time></trkpt><trkpt lat="45.6322443925267" lon="8.388246583861871"><ele>273.0</ele><time>2026-04-26T12:43:38Z</time></trkpt><trkpt lat="45.63227036120794" lon="8.388046709110164"><ele>273.0</ele><time>2026-04-26T12:43:39Z</time></trkpt><trkpt lat="45.63230463824526" lon="8.387841448736971"><ele>273.0</ele><time>2026-04-26T12:43:40Z</time></trkpt><trkpt lat="45.63234077276778" lon="8.387637377914405"><ele>273.0</ele><time>2026-04-26T12:43:41Z</time></trkpt><trkpt lat="45.63238537174587" lon="8.38742730370219"><ele>273.0</ele><time>2026-04-26T12:43:42Z</time></trkpt><trkpt lat="45.63243457777809" lon="8.38723567275862"><ele>273.0</ele><time>2026-04-26T12:43:43Z</time></trkpt><trkpt lat="45.63249061467429" lon="8.387071984917938"><ele>273.0</ele><time>2026-04-26T12:43:44Z</time></trkpt><trkpt lat="45.63254851627841" lon="8.386887902529402"><ele>273.0</ele><time>2026-04-26T12:43:45Z</time></trkpt><trkpt lat="45.63259488536127" lon="8.386724229270412"><ele>273.0</ele><time>2026-04-26T12:43:46Z</time></trkpt><trkpt lat="45.632639887237865" lon="8.386564916539145"><ele>273.0</ele><time>2026-04-26T12:43:47Z</time></trkpt><trkpt lat="45.632690230808024" lon="8.386405733601562"><ele>273.0</ele><time>2026-04-26T12:43:48Z</time></trkpt><trkpt lat="45.632739186755835" lon="8.38624109967015"><ele>273.0</ele><time>2026-04-26T12:43:49Z</time></trkpt><trkpt lat="45.63277992902922" lon="8.38606967306192"><ele>273.0</ele><time>2026-04-26T12:43:50Z</time></trkpt><trkpt lat="45.6328255076815" lon="8.385897310466655"><ele>273.0</ele><time>2026-04-26T12:43:51Z</time></trkpt><trkpt lat="45.63286203990192" lon="8.385732656608264"><ele>273.6</ele><time>2026-04-26T12:43:52Z</time></trkpt><trkpt lat="45.632905254567916" lon="8.385566508645146"><ele>274.20000000000005</ele><time>2026-04-26T12:43:53Z</time></trkpt><trkpt lat="45.6329570844466" lon="8.385434161938877"><ele>274.8</ele><time>2026-04-26T12:43:54Z</time></trkpt><trkpt lat="45.63299804777497" lon="8.38529894177233"><ele>275.40000000000003</ele><time>2026-04-26T12:43:55Z</time></trkpt><trkpt lat="45.63300025392642" lon="8.38517441969493"><ele>276.0</ele><time>2026-04-26T12:43:56Z</time></trkpt><trkpt lat="45.63306564773986" lon="8.385083417800038"><ele>276.2</ele><time>2026-04-26T12:43:58Z</time></trkpt><trkpt lat="45.63314510604208" lon="8.38507566888502"><ele>276.40000000000003</ele><time>2026-04-26T12:44:00Z</time></trkpt><trkpt lat="45.63322356782767" lon="8.385104801331163"><ele>276.6</ele><time>2026-04-26T12:44:01Z</time></trkpt><trkpt lat="45.63330779137885" lon="8.385148316367241"><ele>276.8</ele><time>2026-04-26T12:44:02Z</time></trkpt><trkpt lat="45.63339604600302" lon="8.38515420432291"><ele>277.0</ele><time>2026-04-26T12:44:03Z</time></trkpt><trkpt lat="45.633531837029736" lon="8.385136754032057"><ele>277.75</ele><time>2026-04-26T12:44:04Z</time></trkpt><trkpt lat="45.633675648739924" lon="8.385059372698356"><ele>278.5</ele><time>2026-04-26T12:44:05Z</time></trkpt><trkpt lat="45.63379313051349" lon="8.384973090692577"><ele>279.25</ele><time>2026-04-26T12:44:06Z</time></trkpt><trkpt lat="45.633906265505125" lon="8.38487213038062"><ele>280.0</ele><time>2026-04-26T12:44:07Z</time></trkpt><trkpt lat="45.63401378572376" lon="8.38480238435957"><ele>280.0</ele><time>2026-04-26T12:44:08Z</time></trkpt><trkpt lat="45.63410525606108" lon="8.38471441285837"><ele>280.0</ele><time>2026-04-26T12:44:09Z</time></trkpt><trkpt lat="45.63417259296985" lon="8.384655124266148"><ele>280.0</ele><time>2026-04-26T12:44:10Z</time></trkpt><trkpt lat="45.634244085245435" lon="8.384551810214596"><ele>280.0</ele><time>2026-04-26T12:44:12Z</time></trkpt><trkpt lat="45.634275146747434" lon="8.384448990127186"><ele>280.0</ele><time>2026-04-26T12:44:13Z</time></trkpt><trkpt lat="45.63431777079862" lon="8.384311559048529"><ele>279.75</ele><time>2026-04-26T12:44:13.995Z</time></trkpt><trkpt lat="45.63440243552741" lon="8.384169293126734"><ele>279.5</ele><time>2026-04-26T12:44:14.995Z</time></trkpt><trkpt lat="45.6344826557826" lon="8.38401399920241"><ele>279.25</ele><time>2026-04-26T12:44:15.996Z</time></trkpt><trkpt lat="45.634576051094314" lon="8.383840039457844"><ele>279.0</ele><time>2026-04-26T12:44:16.996Z</time></trkpt><trkpt lat="45.63467398864813" lon="8.383644989800151"><ele>279.0</ele><time>2026-04-26T12:44:17.996Z</time></trkpt><trkpt lat="45.634764153089705" lon="8.383426791334033"><ele>279.0</ele><time>2026-04-26T12:44:18.996Z</time></trkpt><trkpt lat="45.63486973555247" lon="8.383218785422823"><ele>279.0</ele><time>2026-04-26T12:44:19.996Z</time></trkpt><trkpt lat="45.63496299554597" lon="8.38302295450135"><ele>279.0</ele><time>2026-04-26T12:44:20.996Z</time></trkpt><trkpt lat="45.63504508794596" lon="8.382855584294393"><ele>279.0</ele><time>2026-04-26T12:44:21.996Z</time></trkpt><trkpt lat="45.635120727518" lon="8.382702557147082"><ele>279.0</ele><time>2026-04-26T12:44:22.996Z</time></trkpt><trkpt lat="45.635178801550374" lon="8.38255632056317"><ele>279.0</ele><time>2026-04-26T12:44:23.996Z</time></trkpt><trkpt lat="45.63523228010707" lon="8.382431395660557"><ele>279.0</ele><time>2026-04-26T12:44:24.996Z</time></trkpt><trkpt lat="45.63527105969034" lon="8.3823442976382"><ele>279.0</ele><time>2026-04-26T12:44:25.996Z</time></trkpt><trkpt lat="45.63524385257725" lon="8.382233720618501"><ele>279.0</ele><time>2026-04-26T12:44:27.997Z</time></trkpt><trkpt lat="45.63518295136901" lon="8.382188492221353"><ele>279.0</ele><time>2026-04-26T12:44:28.997Z</time></trkpt><trkpt lat="45.635112534999145" lon="8.382127827663659"><ele>279.0</ele><time>2026-04-26T12:44:29.997Z</time></trkpt><trkpt lat="45.63503960627106" lon="8.382067737908393"><ele>279.0</ele><time>2026-04-26T12:44:30.997Z</time></trkpt><trkpt lat="45.63499840154025" lon="8.381998336843738"><ele>278.8333333333333</ele><time>2026-04-26T12:44:31.997Z</time></trkpt><trkpt lat="45.63492696830318" lon="8.381953534202882"><ele>278.6666666666667</ele><time>2026-04-26T12:44:32.997Z</time></trkpt><trkpt lat="45.63487206676115" lon="8.381896973410257"><ele>278.5</ele><time>2026-04-26T12:44:33.997Z</time></trkpt><trkpt lat="45.63481329410668" lon="8.381839664949823"><ele>278.33333333333337</ele><time>2026-04-26T12:44:34.997Z</time></trkpt><trkpt lat="45.63475566439499" lon="8.381778548842567"><ele>278.1666666666667</ele><time>2026-04-26T12:44:35.997Z</time></trkpt><trkpt lat="45.634710056788556" lon="8.381693488093852"><ele>278.0</ele><time>2026-04-26T12:44:37.998Z</time></trkpt><trkpt lat="45.63476453328924" lon="8.381537050308633"><ele>278.0</ele><time>2026-04-26T12:44:39.998Z</time></trkpt><trkpt lat="45.63482267794381" lon="8.38144356497125"><ele>278.0</ele><time>2026-04-26T12:44:40.998Z</time></trkpt><trkpt lat="45.634881892015464" lon="8.381348755845123"><ele>278.0</ele><time>2026-04-26T12:44:41.998Z</time></trkpt><trkpt lat="45.63493121404513" lon="8.38124989858088"><ele>278.0</ele><time>2026-04-26T12:44:42.998Z</time></trkpt><trkpt lat="45.6349603313048" lon="8.381142895890223"><ele>278.0</ele><time>2026-04-26T12:44:43.998Z</time></trkpt><trkpt lat="45.634985804885225" lon="8.381049805341947"><ele>278.0</ele><time>2026-04-26T12:44:44.998Z</time></trkpt><trkpt lat="45.63501830759901" lon="8.38096314925411"><ele>277.8</ele><time>2026-04-26T12:44:45.998Z</time></trkpt><trkpt lat="45.635048474121575" lon="8.380877383297669"><ele>277.6</ele><time>2026-04-26T12:44:46.998Z</time></trkpt><trkpt lat="45.63508060319307" lon="8.380726457365274"><ele>277.4</ele><time>2026-04-26T12:44:48.998Z</time></trkpt><trkpt lat="45.63509946048395" lon="8.3805989494454"><ele>277.2</ele><time>2026-04-26T12:44:50.998Z</time></trkpt><trkpt lat="45.635111873367194" lon="8.38049196666027"><ele>277.0</ele><time>2026-04-26T12:44:52.999Z</time></trkpt><trkpt lat="45.63515085582159" lon="8.380335434428112"><ele>276.25</ele><time>2026-04-26T12:44:54.999Z</time></trkpt><trkpt lat="45.63518652734402" lon="8.380199091395326"><ele>275.5</ele><time>2026-04-26T12:44:55.999Z</time></trkpt><trkpt lat="45.63526671698901" lon="8.380059985136674"><ele>274.75</ele><time>2026-04-26T12:44:56.999Z</time></trkpt><trkpt lat="45.63530441407813" lon="8.379866572223493"><ele>274.0</ele><time>2026-04-26T12:44:57.999Z</time></trkpt><trkpt lat="45.63535553319757" lon="8.379671739806422"><ele>276.66666666666663</ele><time>2026-04-26T12:44:58.999Z</time></trkpt><trkpt lat="45.63541687358333" lon="8.37947037161418"><ele>279.3333333333333</ele><time>2026-04-26T12:44:59.999Z</time></trkpt><trkpt lat="45.6354999638849" lon="8.379272951507941"><ele>282.0</ele><time>2026-04-26T12:45:00.999Z</time></trkpt><trkpt lat="45.63561197905487" lon="8.379101798192702"><ele>282.0</ele><time>2026-04-26T12:45:01.999Z</time></trkpt><trkpt lat="45.63574535198705" lon="8.378954230468178"><ele>282.0</ele><time>2026-04-26T12:45:02.999Z</time></trkpt><trkpt lat="45.635875843682136" lon="8.378821454287726"><ele>282.0</ele><time>2026-04-26T12:45:03.999Z</time></trkpt><trkpt lat="45.63602093293418" lon="8.378720453711171"><ele>280.0</ele><time>2026-04-26T12:45:04.999Z</time></trkpt><trkpt lat="45.63619903516626" lon="8.378696994336208"><ele>278.0</ele><time>2026-04-26T12:45:05.999Z</time></trkpt><trkpt lat="45.636376529281826" lon="8.378675997163704"><ele>276.0</ele><time>2026-04-26T12:45:06.999Z</time></trkpt><trkpt lat="45.636570380843544" lon="8.378655280568394"><ele>276.0</ele><time>2026-04-26T12:45:07.999Z</time></trkpt><trkpt lat="45.63676015821428" lon="8.378572535233207"><ele>276.0</ele><time>2026-04-26T12:45:08.999Z</time></trkpt><trkpt lat="45.63695631019024" lon="8.378453847251052"><ele>276.0</ele><time>2026-04-26T12:45:09.999Z</time></trkpt><trkpt lat="45.63715778912861" lon="8.378340937195148"><ele>277.6666666666667</ele><time>2026-04-26T12:45:10.999Z</time></trkpt><trkpt lat="45.63738064900736" lon="8.378222117549312"><ele>279.33333333333337</ele><time>2026-04-26T12:45:11.999Z</time></trkpt><trkpt lat="45.63758114731739" lon="8.378127891850482"><ele>281.0</ele><time>2026-04-26T12:45:12.999Z</time></trkpt><trkpt lat="45.637760029556006" lon="8.378043762512345"><ele>279.6666666666667</ele><time>2026-04-26T12:45:13.999Z</time></trkpt><trkpt lat="45.63794091003757" lon="8.377950722167634"><ele>278.3333333333333</ele><time>2026-04-26T12:45:14.999Z</time></trkpt><trkpt lat="45.63811223240465" lon="8.377863461185852"><ele>277.0</ele><time>2026-04-26T12:45:15.999Z</time></trkpt><trkpt lat="45.63826890974762" lon="8.377782550174091"><ele>277.0</ele><time>2026-04-26T12:45:16.999Z</time></trkpt><trkpt lat="45.63840732034226" lon="8.377718767486737"><ele>277.0</ele><time>2026-04-26T12:45:17.999Z</time></trkpt><trkpt lat="45.63849909410686" lon="8.377677048997668"><ele>277.0</ele><time>2026-04-26T12:45:18.999Z</time></trkpt><trkpt lat="45.63856126754235" lon="8.377636181421497"><ele>277.0</ele><time>2026-04-26T12:45:19.999Z</time></trkpt><trkpt lat="45.638641326193245" lon="8.377517489519992"><ele>277.0</ele><time>2026-04-26T12:45:21.999Z</time></trkpt><trkpt lat="45.63860420305661" lon="8.37743265430211"><ele>277.0</ele><time>2026-04-26T12:45:22.999Z</time></trkpt><trkpt lat="45.638565523129195" lon="8.377343853767165"><ele>277.0</ele><time>2026-04-26T12:45:23.999Z</time></trkpt><trkpt lat="45.63851999356943" lon="8.37718907931089"><ele>277.0</ele><time>2026-04-26T12:45:24.999Z</time></trkpt><trkpt lat="45.638434425570324" lon="8.377017598519767"><ele>277.0</ele><time>2026-04-26T12:45:25.999Z</time></trkpt><trkpt lat="45.638341961522684" lon="8.376836726921182"><ele>277.3333333333333</ele><time>2026-04-26T12:45:27Z</time></trkpt><trkpt lat="45.638249816934994" lon="8.376654970906666"><ele>277.6666666666667</ele><time>2026-04-26T12:45:28Z</time></trkpt><trkpt lat="45.63815032357718" lon="8.376460315460841"><ele>278.0</ele><time>2026-04-26T12:45:29Z</time></trkpt><trkpt lat="45.638054425862585" lon="8.376272033791276"><ele>278.0</ele><time>2026-04-26T12:45:30Z</time></trkpt><trkpt lat="45.637961733589094" lon="8.37608303802655"><ele>278.0</ele><time>2026-04-26T12:45:31Z</time></trkpt><trkpt lat="45.63788017814672" lon="8.375911774465305"><ele>278.0</ele><time>2026-04-26T12:45:32Z</time></trkpt><trkpt lat="45.63780106485439" lon="8.375752865951513"><ele>278.0</ele><time>2026-04-26T12:45:33Z</time></trkpt><trkpt lat="45.637737264495996" lon="8.375629237058085"><ele>276.75</ele><time>2026-04-26T12:45:34Z</time></trkpt><trkpt lat="45.63768328157334" lon="8.37551697948165"><ele>275.5</ele><time>2026-04-26T12:45:35Z</time></trkpt><trkpt lat="45.63762671831682" lon="8.375394581819112"><ele>274.25</ele><time>2026-04-26T12:45:36Z</time></trkpt><trkpt lat="45.6375570113927" lon="8.375246210052115"><ele>273.0</ele><time>2026-04-26T12:45:37Z</time></trkpt><trkpt lat="45.637482433271906" lon="8.37509326484006"><ele>273.0</ele><time>2026-04-26T12:45:38Z</time></trkpt><trkpt lat="45.63742116923144" lon="8.374964431270175"><ele>273.0</ele><time>2026-04-26T12:45:39Z</time></trkpt><trkpt lat="45.63737298498998" lon="8.374879763846815"><ele>273.0</ele><time>2026-04-26T12:45:42Z</time></trkpt><trkpt lat="45.6373414459272" lon="8.374721741111829"><ele>273.0</ele><time>2026-04-26T12:45:44Z</time></trkpt><trkpt lat="45.63735174046905" lon="8.37462364740184"><ele>273.0</ele><time>2026-04-26T12:45:45Z</time></trkpt><trkpt lat="45.63736816903239" lon="8.374507738946257"><ele>272.8</ele><time>2026-04-26T12:45:46Z</time></trkpt><trkpt lat="45.63741163859068" lon="8.37437022273679"><ele>272.6</ele><time>2026-04-26T12:45:47Z</time></trkpt><trkpt lat="45.63745205258585" lon="8.374244255397851"><ele>272.4</ele><time>2026-04-26T12:45:48Z</time></trkpt><trkpt lat="45.63747199749153" lon="8.374112099584691"><ele>272.2</ele><time>2026-04-26T12:45:49Z</time></trkpt><trkpt lat="45.637441877398444" lon="8.373965713414504"><ele>272.0</ele><time>2026-04-26T12:45:50Z</time></trkpt><trkpt lat="45.63734815800775" lon="8.373821476348043"><ele>270.6666666666667</ele><time>2026-04-26T12:45:51Z</time></trkpt><trkpt lat="45.637238353827314" lon="8.373650793648403"><ele>269.3333333333333</ele><time>2026-04-26T12:45:52Z</time></trkpt><trkpt lat="45.637135255567074" lon="8.37343297709075"><ele>268.0</ele><time>2026-04-26T12:45:53Z</time></trkpt><trkpt lat="45.63703749920716" lon="8.37319532332395"><ele>268.3333333333333</ele><time>2026-04-26T12:45:54Z</time></trkpt><trkpt lat="45.636942393563906" lon="8.372974621141813"><ele>268.6666666666667</ele><time>2026-04-26T12:45:55Z</time></trkpt><trkpt lat="45.63685002402755" lon="8.372783902826809"><ele>269.0</ele><time>2026-04-26T12:45:56Z</time></trkpt><trkpt lat="45.6367647924088" lon="8.372607239839533"><ele>269.0</ele><time>2026-04-26T12:45:57Z</time></trkpt><trkpt lat="45.63668960638516" lon="8.372451559737295"><ele>269.0</ele><time>2026-04-26T12:45:58Z</time></trkpt><trkpt lat="45.6366264008122" lon="8.372330866781082"><ele>269.0</ele><time>2026-04-26T12:45:59Z</time></trkpt><trkpt lat="45.63657944241995" lon="8.372235760982976"><ele>269.0</ele><time>2026-04-26T12:46:00Z</time></trkpt><trkpt lat="45.636533438893146" lon="8.372154070487463"><ele>269.0</ele><time>2026-04-26T12:46:01Z</time></trkpt><trkpt lat="45.63648701511717" lon="8.372082707824466"><ele>270.4</ele><time>2026-04-26T12:46:02Z</time></trkpt><trkpt lat="45.636427304658355" lon="8.372034903224602"><ele>271.79999999999995</ele><time>2026-04-26T12:46:03Z</time></trkpt><trkpt lat="45.63635923774281" lon="8.372025321477688"><ele>273.20000000000005</ele><time>2026-04-26T12:46:04Z</time></trkpt><trkpt lat="45.63625425718967" lon="8.371990924318354"><ele>274.6</ele><time>2026-04-26T12:46:06Z</time></trkpt><trkpt lat="45.6361963275618" lon="8.371829692790469"><ele>276.0</ele><time>2026-04-26T12:46:08Z</time></trkpt><trkpt lat="45.63621383382659" lon="8.37170566026222"><ele>276.0</ele><time>2026-04-26T12:46:09Z</time></trkpt><trkpt lat="45.636276662484704" lon="8.371578047641107"><ele>276.0</ele><time>2026-04-26T12:46:10Z</time></trkpt><trkpt lat="45.6363743201852" lon="8.371493428683026"><ele>276.0</ele><time>2026-04-26T12:46:11Z</time></trkpt><trkpt lat="45.63649913869232" lon="8.371416835333408"><ele>276.0</ele><time>2026-04-26T12:46:12Z</time></trkpt><trkpt lat="45.63665172595286" lon="8.371349443286"><ele>277.6666666666667</ele><time>2026-04-26T12:46:13.001Z</time></trkpt><trkpt lat="45.63680022206055" lon="8.371261001958727"><ele>279.33333333333337</ele><time>2026-04-26T12:46:14.001Z</time></trkpt><trkpt lat="45.636972729112834" lon="8.371142144425708"><ele>281.0</ele><time>2026-04-26T12:46:15.001Z</time></trkpt><trkpt lat="45.637159008166684" lon="8.371018134870617"><ele>281.0</ele><time>2026-04-26T12:46:16.001Z</time></trkpt><trkpt lat="45.637364122215146" lon="8.370879120724501"><ele>281.0</ele><time>2026-04-26T12:46:17.001Z</time></trkpt><trkpt lat="45.63757703857523" lon="8.37073073227706"><ele>281.0</ele><time>2026-04-26T12:46:18.001Z</time></trkpt><trkpt lat="45.637765150946606" lon="8.37061200823766"><ele>281.0</ele><time>2026-04-26T12:46:19.001Z</time></trkpt><trkpt lat="45.637931661801645" lon="8.370499721890496"><ele>281.0</ele><time>2026-04-26T12:46:19.996Z</time></trkpt><trkpt lat="45.63805626283397" lon="8.370383944705699"><ele>281.6666666666667</ele><time>2026-04-26T12:46:20.996Z</time></trkpt><trkpt lat="45.63815535319709" lon="8.370237813637184"><ele>282.3333333333333</ele><time>2026-04-26T12:46:21.996Z</time></trkpt><trkpt lat="45.638242469841245" lon="8.370015374843284"><ele>283.0</ele><time>2026-04-26T12:46:22.996Z</time></trkpt><trkpt lat="45.63834913145173" lon="8.369722436489262"><ele>298.5</ele><time>2026-04-26T12:46:23.996Z</time></trkpt><trkpt lat="45.638484357084536" lon="8.369476302709241"><ele>314.0</ele><time>2026-04-26T12:46:24.996Z</time></trkpt><trkpt lat="45.638607879936096" lon="8.369189718505112"><ele>304.0</ele><time>2026-04-26T12:46:25.996Z</time></trkpt><trkpt lat="45.638715198699366" lon="8.368934995397346"><ele>294.0</ele><time>2026-04-26T12:46:26.996Z</time></trkpt><trkpt lat="45.63885284916019" lon="8.36870818442219"><ele>284.0</ele><time>2026-04-26T12:46:27.996Z</time></trkpt><trkpt lat="45.63901046022067" lon="8.368517219023028"><ele>284.0</ele><time>2026-04-26T12:46:28.996Z</time></trkpt><trkpt lat="45.639161612685456" lon="8.3682968086688"><ele>284.0</ele><time>2026-04-26T12:46:29.996Z</time></trkpt><trkpt lat="45.63931439300228" lon="8.36808197053197"><ele>284.0</ele><time>2026-04-26T12:46:30.997Z</time></trkpt><trkpt lat="45.639512116453226" lon="8.367924445855888"><ele>287.0</ele><time>2026-04-26T12:46:31.997Z</time></trkpt><trkpt lat="45.6397009185459" lon="8.367752118610097"><ele>290.0</ele><time>2026-04-26T12:46:32.997Z</time></trkpt><trkpt lat="45.63985919765197" lon="8.367563221655486"><ele>293.0</ele><time>2026-04-26T12:46:33.997Z</time></trkpt><trkpt lat="45.64004253790205" lon="8.36739367168088"><ele>295.0</ele><time>2026-04-26T12:46:34.997Z</time></trkpt><trkpt lat="45.640301274856924" lon="8.367248026844042"><ele>297.0</ele><time>2026-04-26T12:46:35.997Z</time></trkpt><trkpt lat="45.640561943386906" lon="8.367090090990818"><ele>297.0</ele><time>2026-04-26T12:46:36.997Z</time></trkpt><trkpt lat="45.64081486613009" lon="8.366898175678271"><ele>297.0</ele><time>2026-04-26T12:46:37.997Z</time></trkpt><trkpt lat="45.641029038242415" lon="8.366701703376007"><ele>292.0</ele><time>2026-04-26T12:46:38.997Z</time></trkpt><trkpt lat="45.64121876384768" lon="8.366533408463457"><ele>287.0</ele><time>2026-04-26T12:46:39.998Z</time></trkpt><trkpt lat="45.64142820829669" lon="8.366424203307677"><ele>282.0</ele><time>2026-04-26T12:46:40.998Z</time></trkpt><trkpt lat="45.64166246586956" lon="8.366367047262177"><ele>293.0</ele><time>2026-04-26T12:46:41.998Z</time></trkpt><trkpt lat="45.641917284267784" lon="8.36636100348173"><ele>304.0</ele><time>2026-04-26T12:46:42.998Z</time></trkpt><trkpt lat="45.642179729379926" lon="8.36635126420282"><ele>305.5</ele><time>2026-04-26T12:46:43.998Z</time></trkpt><trkpt lat="45.6424450484174" lon="8.366285885769003"><ele>307.0</ele><time>2026-04-26T12:46:44.998Z</time></trkpt><trkpt lat="45.64269080551275" lon="8.366217537306808"><ele>300.0</ele><time>2026-04-26T12:46:45.998Z</time></trkpt><trkpt lat="45.642958334788986" lon="8.366108981198398"><ele>293.0</ele><time>2026-04-26T12:46:46.998Z</time></trkpt><trkpt lat="45.64321950567782" lon="8.36595252207515"><ele>293.0</ele><time>2026-04-26T12:46:47.998Z</time></trkpt><trkpt lat="45.64346371330743" lon="8.365742195704296"><ele>293.0</ele><time>2026-04-26T12:46:48.998Z</time></trkpt><trkpt lat="45.64370409407274" lon="8.365564837030558"><ele>294.5</ele><time>2026-04-26T12:46:49.998Z</time></trkpt><trkpt lat="45.643926766618385" lon="8.365378924040971"><ele>296.0</ele><time>2026-04-26T12:46:50.998Z</time></trkpt><trkpt lat="45.64412843084893" lon="8.36513655998758"><ele>296.0</ele><time>2026-04-26T12:46:51.999Z</time></trkpt><trkpt lat="45.644309714499805" lon="8.364813054426692"><ele>296.0</ele><time>2026-04-26T12:46:52.999Z</time></trkpt><trkpt lat="45.644501440407275" lon="8.364512460388983"><ele>286.5</ele><time>2026-04-26T12:46:53.999Z</time></trkpt><trkpt lat="45.64469896439378" lon="8.364230238156747"><ele>277.0</ele><time>2026-04-26T12:46:54.999Z</time></trkpt><trkpt lat="45.64488423063536" lon="8.363914602535713"><ele>283.5</ele><time>2026-04-26T12:46:55.999Z</time></trkpt><trkpt lat="45.64506727848997" lon="8.363582863131876"><ele>290.0</ele><time>2026-04-26T12:46:56.999Z</time></trkpt><trkpt lat="45.645236545411954" lon="8.363223092478414"><ele>289.5</ele><time>2026-04-26T12:46:57.999Z</time></trkpt><trkpt lat="45.64540533363192" lon="8.362870382513497"><ele>289.0</ele><time>2026-04-26T12:46:58.999Z</time></trkpt><trkpt lat="45.645578021425095" lon="8.362523370618778"><ele>298.0</ele><time>2026-04-26T12:46:59.999Z</time></trkpt><trkpt lat="45.64575221189849" lon="8.362178016721222"><ele>307.0</ele><time>2026-04-26T12:47:00.999Z</time></trkpt><trkpt lat="45.645937521574965" lon="8.361867979663792"><ele>294.5</ele><time>2026-04-26T12:47:01.999Z</time></trkpt><trkpt lat="45.646153918871896" lon="8.36159734125102"><ele>282.0</ele><time>2026-04-26T12:47:02.999Z</time></trkpt><trkpt lat="45.646368608378" lon="8.36138411927804"><ele>291.5</ele><time>2026-04-26T12:47:03.999Z</time></trkpt><trkpt lat="45.646575982627205" lon="8.361216940954183"><ele>301.0</ele><time>2026-04-26T12:47:04.999Z</time></trkpt><trkpt lat="45.646749799346814" lon="8.36102596705743"><ele>301.0</ele><time>2026-04-26T12:47:05.999Z</time></trkpt><trkpt lat="45.646881836489456" lon="8.360794016108143"><ele>301.0</ele><time>2026-04-26T12:47:06.999Z</time></trkpt><trkpt lat="45.64696319665305" lon="8.360506515002607"><ele>301.0</ele><time>2026-04-26T12:47:07.999Z</time></trkpt><trkpt lat="45.64700835613525" lon="8.360167342499686"><ele>293.0</ele><time>2026-04-26T12:47:08.999Z</time></trkpt><trkpt lat="45.647023472595016" lon="8.359811916512331"><ele>285.0</ele><time>2026-04-26T12:47:09.999Z</time></trkpt><trkpt lat="45.646998707918094" lon="8.35945478742204"><ele>285.0</ele><time>2026-04-26T12:47:10.999Z</time></trkpt><trkpt lat="45.64700265766342" lon="8.35912576901257"><ele>285.0</ele><time>2026-04-26T12:47:12Z</time></trkpt><trkpt lat="45.64706559596345" lon="8.358830459404034"><ele>285.0</ele><time>2026-04-26T12:47:13Z</time></trkpt><trkpt lat="45.64716036427368" lon="8.358534928914212"><ele>289.5</ele><time>2026-04-26T12:47:14Z</time></trkpt><trkpt lat="45.64729224913139" lon="8.35825987808798"><ele>294.0</ele><time>2026-04-26T12:47:15Z</time></trkpt><trkpt lat="45.64745458683299" lon="8.358021617968962"><ele>290.0</ele><time>2026-04-26T12:47:16Z</time></trkpt><trkpt lat="45.647646807489075" lon="8.357806754451525"><ele>286.0</ele><time>2026-04-26T12:47:17Z</time></trkpt><trkpt lat="45.647879994536545" lon="8.357602777610614"><ele>286.0</ele><time>2026-04-26T12:47:18Z</time></trkpt><trkpt lat="45.648129550134875" lon="8.357391694194135"><ele>286.0</ele><time>2026-04-26T12:47:19Z</time></trkpt><trkpt lat="45.64837150217092" lon="8.357143621879978"><ele>283.5</ele><time>2026-04-26T12:47:20Z</time></trkpt><trkpt lat="45.64860844775493" lon="8.356851846541165"><ele>281.0</ele><time>2026-04-26T12:47:21Z</time></trkpt><trkpt lat="45.648833974715195" lon="8.3565137097038"><ele>287.5</ele><time>2026-04-26T12:47:22Z</time></trkpt><trkpt lat="45.64904676100144" lon="8.356158535660287"><ele>294.0</ele><time>2026-04-26T12:47:23Z</time></trkpt><trkpt lat="45.64925743409001" lon="8.355799136583395"><ele>289.0</ele><time>2026-04-26T12:47:24Z</time></trkpt><trkpt lat="45.64946767158081" lon="8.355458682294293"><ele>284.0</ele><time>2026-04-26T12:47:25Z</time></trkpt><trkpt lat="45.649673842062164" lon="8.35512748986002"><ele>284.0</ele><time>2026-04-26T12:47:26Z</time></trkpt><trkpt lat="45.64987896594505" lon="8.35480568835199"><ele>284.0</ele><time>2026-04-26T12:47:27Z</time></trkpt><trkpt lat="45.65007854430611" lon="8.35448985402557"><ele>281.0</ele><time>2026-04-26T12:47:28Z</time></trkpt><trkpt lat="45.65027282175525" lon="8.35418046841197"><ele>278.0</ele><time>2026-04-26T12:47:29Z</time></trkpt><trkpt lat="45.65046036002329" lon="8.353879740146056"><ele>284.5</ele><time>2026-04-26T12:47:30Z</time></trkpt><trkpt lat="45.6506422269363" lon="8.35357481276677"><ele>291.0</ele><time>2026-04-26T12:47:31Z</time></trkpt><trkpt lat="45.650828157591896" lon="8.35327541221694"><ele>286.0</ele><time>2026-04-26T12:47:32Z</time></trkpt><trkpt lat="45.65101344406822" lon="8.352986031025656"><ele>281.0</ele><time>2026-04-26T12:47:33Z</time></trkpt><trkpt lat="45.65118996358419" lon="8.35271293250222"><ele>281.0</ele><time>2026-04-26T12:47:34Z</time></trkpt><trkpt lat="45.651352750325174" lon="8.352456225342252"><ele>281.0</ele><time>2026-04-26T12:47:35Z</time></trkpt><trkpt lat="45.651500489595534" lon="8.352221138529904"><ele>286.33333333333337</ele><time>2026-04-26T12:47:36Z</time></trkpt><trkpt lat="45.65164486594125" lon="8.351993404536264"><ele>291.6666666666667</ele><time>2026-04-26T12:47:37Z</time></trkpt><trkpt lat="45.65177705851416" lon="8.351780714535233"><ele>297.0</ele><time>2026-04-26T12:47:38Z</time></trkpt><trkpt lat="45.651909127915125" lon="8.351566711062341"><ele>292.0</ele><time>2026-04-26T12:47:39Z</time></trkpt><trkpt lat="45.65203630095002" lon="8.351338082906652"><ele>287.0</ele><time>2026-04-26T12:47:40Z</time></trkpt><trkpt lat="45.65214603033087" lon="8.35111122478328"><ele>282.0</ele><time>2026-04-26T12:47:41Z</time></trkpt><trkpt lat="45.65223731997354" lon="8.350903198609231"><ele>282.0</ele><time>2026-04-26T12:47:42.001Z</time></trkpt><trkpt lat="45.652325547674096" lon="8.35068808283954"><ele>282.0</ele><time>2026-04-26T12:47:43.001Z</time></trkpt><trkpt lat="45.65240368956171" lon="8.350478950666192"><ele>282.0</ele><time>2026-04-26T12:47:44.001Z</time></trkpt><trkpt lat="45.65247897227515" lon="8.350268177529406"><ele>287.6666666666667</ele><time>2026-04-26T12:47:45.001Z</time></trkpt><trkpt lat="45.652553081596075" lon="8.350053953696637"><ele>293.33333333333337</ele><time>2026-04-26T12:47:46.001Z</time></trkpt><trkpt lat="45.65262479300135" lon="8.349836314895917"><ele>299.0</ele><time>2026-04-26T12:47:47.001Z</time></trkpt><trkpt lat="45.652687651520466" lon="8.34961191508101"><ele>292.6666666666667</ele><time>2026-04-26T12:47:48.001Z</time></trkpt><trkpt lat="45.65274064882725" lon="8.349378807502772"><ele>286.3333333333333</ele><time>2026-04-26T12:47:49.001Z</time></trkpt><trkpt lat="45.65277704051427" lon="8.349146170374276"><ele>280.0</ele><time>2026-04-26T12:47:50.001Z</time></trkpt><trkpt lat="45.652810938253886" lon="8.348905376325307"><ele>280.66666666666663</ele><time>2026-04-26T12:47:51.001Z</time></trkpt><trkpt lat="45.65282768919271" lon="8.348663826300033"><ele>281.3333333333333</ele><time>2026-04-26T12:47:52.001Z</time></trkpt><trkpt lat="45.652820166347716" lon="8.348405782696535"><ele>282.0</ele><time>2026-04-26T12:47:53.001Z</time></trkpt><trkpt lat="45.652809170867364" lon="8.34816453225159"><ele>290.6666666666667</ele><time>2026-04-26T12:47:54.001Z</time></trkpt><trkpt lat="45.65276340752468" lon="8.34791069462247"><ele>299.33333333333337</ele><time>2026-04-26T12:47:55.001Z</time></trkpt><trkpt lat="45.65271097132223" lon="8.347658085708712"><ele>308.0</ele><time>2026-04-26T12:47:56.001Z</time></trkpt><trkpt lat="45.652661798091295" lon="8.347414001251515"><ele>306.6666666666667</ele><time>2026-04-26T12:47:57.001Z</time></trkpt><trkpt lat="45.652621848338654" lon="8.347165285967208"><ele>305.3333333333333</ele><time>2026-04-26T12:47:58.001Z</time></trkpt><trkpt lat="45.65260687255867" lon="8.346888377394217"><ele>304.0</ele><time>2026-04-26T12:47:59.001Z</time></trkpt><trkpt lat="45.652603122802205" lon="8.34655893810834"><ele>307.0</ele><time>2026-04-26T12:48:00.001Z</time></trkpt><trkpt lat="45.652608772178446" lon="8.346204440009837"><ele>310.0</ele><time>2026-04-26T12:48:01.001Z</time></trkpt><trkpt lat="45.65262106221976" lon="8.345812305144333"><ele>311.5</ele><time>2026-04-26T12:48:02.001Z</time></trkpt><trkpt lat="45.65263052267557" lon="8.345416128476153"><ele>313.0</ele><time>2026-04-26T12:48:03.001Z</time></trkpt><trkpt lat="45.65264277056346" lon="8.345018210762662"><ele>308.0</ele><time>2026-04-26T12:48:04.001Z</time></trkpt><trkpt lat="45.6526675376858" lon="8.344636593213272"><ele>303.0</ele><time>2026-04-26T12:48:05.001Z</time></trkpt><trkpt lat="45.65268191303682" lon="8.344254721285276"><ele>303.0</ele><time>2026-04-26T12:48:06.001Z</time></trkpt><trkpt lat="45.65268590285838" lon="8.343892555272731"><ele>303.0</ele><time>2026-04-26T12:48:07.001Z</time></trkpt><trkpt lat="45.6526900325535" lon="8.343542801250459"><ele>302.0</ele><time>2026-04-26T12:48:08.001Z</time></trkpt><trkpt lat="45.65269228503079" lon="8.343215256710556"><ele>301.0</ele><time>2026-04-26T12:48:09.001Z</time></trkpt><trkpt lat="45.65269566080793" lon="8.342889177134412"><ele>301.3333333333333</ele><time>2026-04-26T12:48:10.001Z</time></trkpt><trkpt lat="45.65269925158708" lon="8.34257357627713"><ele>301.6666666666667</ele><time>2026-04-26T12:48:11.001Z</time></trkpt><trkpt lat="45.65270055914371" lon="8.342250276961385"><ele>302.0</ele><time>2026-04-26T12:48:12.001Z</time></trkpt><trkpt lat="45.65270983334388" lon="8.341932101009123"><ele>302.0</ele><time>2026-04-26T12:48:13.001Z</time></trkpt><trkpt lat="45.6527318141173" lon="8.341639940697727"><ele>302.0</ele><time>2026-04-26T12:48:14.002Z</time></trkpt><trkpt lat="45.65277792780745" lon="8.341381743362529"><ele>302.0</ele><time>2026-04-26T12:48:15.002Z</time></trkpt><trkpt lat="45.65284967870881" lon="8.341153509627752"><ele>300.0</ele><time>2026-04-26T12:48:16.002Z</time></trkpt><trkpt lat="45.65295174363953" lon="8.340950449491253"><ele>298.0</ele><time>2026-04-26T12:48:17.002Z</time></trkpt><trkpt lat="45.653078914722194" lon="8.340763126708294"><ele>296.0</ele><time>2026-04-26T12:48:18.002Z</time></trkpt><trkpt lat="45.6532235236468" lon="8.340596744937903"><ele>296.33333333333337</ele><time>2026-04-26T12:48:19.002Z</time></trkpt><trkpt lat="45.653375122392184" lon="8.340466792046298"><ele>296.6666666666667</ele><time>2026-04-26T12:48:20.002Z</time></trkpt><trkpt lat="45.6535123407642" lon="8.340354588299416"><ele>297.0</ele><time>2026-04-26T12:48:21.002Z</time></trkpt><trkpt lat="45.653637716717824" lon="8.340245672328408"><ele>296.25</ele><time>2026-04-26T12:48:22.002Z</time></trkpt><trkpt lat="45.65374806638499" lon="8.34014936449819"><ele>295.5</ele><time>2026-04-26T12:48:23.002Z</time></trkpt><trkpt lat="45.65386127522245" lon="8.340104105186985"><ele>294.75</ele><time>2026-04-26T12:48:24.002Z</time></trkpt><trkpt lat="45.65397425290518" lon="8.340115376706096"><ele>294.0</ele><time>2026-04-26T12:48:25.002Z</time></trkpt><trkpt lat="45.654057099615855" lon="8.340038429835769"><ele>294.5</ele><time>2026-04-26T12:48:25.998Z</time></trkpt><trkpt lat="45.6542304214183" lon="8.339688385742283"><ele>295.0</ele><time>2026-04-26T12:48:27.998Z</time></trkpt><trkpt lat="45.65440589967574" lon="8.339526023303625"><ele>294.0</ele><time>2026-04-26T12:48:28.998Z</time></trkpt><trkpt lat="45.65460011152608" lon="8.339361857293012"><ele>293.0</ele><time>2026-04-26T12:48:29.998Z</time></trkpt><trkpt lat="45.65479064608587" lon="8.339191146497003"><ele>293.0</ele><time>2026-04-26T12:48:30.998Z</time></trkpt><trkpt lat="45.65498287000647" lon="8.339015686947347"><ele>293.0</ele><time>2026-04-26T12:48:31.998Z</time></trkpt><trkpt lat="45.6551761972252" lon="8.338835812376074"><ele>295.5</ele><time>2026-04-26T12:48:32.998Z</time></trkpt><trkpt lat="45.655373968083865" lon="8.338650420262882"><ele>298.0</ele><time>2026-04-26T12:48:33.999Z</time></trkpt><trkpt lat="45.65557504724415" lon="8.338460614337704"><ele>298.0</ele><time>2026-04-26T12:48:34.999Z</time></trkpt><trkpt lat="45.65578095131045" lon="8.338276348724426"><ele>298.0</ele><time>2026-04-26T12:48:35.999Z</time></trkpt><trkpt lat="45.65598516118318" lon="8.338090010152078"><ele>296.5</ele><time>2026-04-26T12:48:36.999Z</time></trkpt><trkpt lat="45.65619268039833" lon="8.337902761590717"><ele>295.0</ele><time>2026-04-26T12:48:37.999Z</time></trkpt><trkpt lat="45.65639666023022" lon="8.33771498956644"><ele>295.0</ele><time>2026-04-26T12:48:38.999Z</time></trkpt><trkpt lat="45.65659370226697" lon="8.337538819659482"><ele>295.0</ele><time>2026-04-26T12:48:39.999Z</time></trkpt><trkpt lat="45.65676884947246" lon="8.3373816030089"><ele>295.0</ele><time>2026-04-26T12:48:40.999Z</time></trkpt><trkpt lat="45.65692250634101" lon="8.337242801283264"><ele>295.25</ele><time>2026-04-26T12:48:41.999Z</time></trkpt><trkpt lat="45.65705149748644" lon="8.337105630015051"><ele>295.5</ele><time>2026-04-26T12:48:42.999Z</time></trkpt><trkpt lat="45.657183036998795" lon="8.336997966248013"><ele>295.75</ele><time>2026-04-26T12:48:43.999Z</time></trkpt><trkpt lat="45.657293978881334" lon="8.336901135666196"><ele>296.0</ele><time>2026-04-26T12:48:44.999Z</time></trkpt><trkpt lat="45.65738845282935" lon="8.336819622243667"><ele>296.0</ele><time>2026-04-26T12:48:46Z</time></trkpt><trkpt lat="45.65747643030543" lon="8.33673884694078"><ele>296.0</ele><time>2026-04-26T12:48:47Z</time></trkpt><trkpt lat="45.65755961255356" lon="8.336666118994861"><ele>296.0</ele><time>2026-04-26T12:48:48Z</time></trkpt><trkpt lat="45.65763252302366" lon="8.33660671009767"><ele>296.0</ele><time>2026-04-26T12:48:49Z</time></trkpt><trkpt lat="45.65769142320092" lon="8.33655812782645"><ele>296.0</ele><time>2026-04-26T12:48:50Z</time></trkpt><trkpt lat="45.65775918257545" lon="8.336528356227914"><ele>296.0</ele><time>2026-04-26T12:48:51Z</time></trkpt><trkpt lat="45.65782223048802" lon="8.336523857483026"><ele>296.0</ele><time>2026-04-26T12:48:52Z</time></trkpt><trkpt lat="45.65788598288856" lon="8.33650472698235"><ele>296.0</ele><time>2026-04-26T12:48:53Z</time></trkpt><trkpt lat="45.657948511277674" lon="8.336444548775244"><ele>296.0</ele><time>2026-04-26T12:48:54Z</time></trkpt><trkpt lat="45.65798964398385" lon="8.336366067414788"><ele>296.0</ele><time>2026-04-26T12:48:55Z</time></trkpt><trkpt lat="45.65803431627167" lon="8.33627883895079"><ele>296.0</ele><time>2026-04-26T12:48:56Z</time></trkpt><trkpt lat="45.65808855791222" lon="8.33619165631258"><ele>296.0</ele><time>2026-04-26T12:48:57Z</time></trkpt><trkpt lat="45.65816802650843" lon="8.336093651313925"><ele>296.33333333333337</ele><time>2026-04-26T12:48:58Z</time></trkpt><trkpt lat="45.65828752214023" lon="8.33597135621901"><ele>296.6666666666667</ele><time>2026-04-26T12:48:59Z</time></trkpt><trkpt lat="45.65841696489694" lon="8.335849160000848"><ele>297.0</ele><time>2026-04-26T12:49:00Z</time></trkpt><trkpt lat="45.65855170351923" lon="8.33573587508546"><ele>296.75</ele><time>2026-04-26T12:49:01Z</time></trkpt><trkpt lat="45.65869064750445" lon="8.335628492420831"><ele>296.5</ele><time>2026-04-26T12:49:02Z</time></trkpt><trkpt lat="45.658819466821534" lon="8.335519408845"><ele>296.25</ele><time>2026-04-26T12:49:03Z</time></trkpt><trkpt lat="45.65894043530066" lon="8.335413730253912"><ele>296.0</ele><time>2026-04-26T12:49:04.001Z</time></trkpt><trkpt lat="45.65905271261186" lon="8.335314455658855"><ele>296.0</ele><time>2026-04-26T12:49:05.001Z</time></trkpt><trkpt lat="45.659158417260116" lon="8.335220844007523"><ele>296.0</ele><time>2026-04-26T12:49:06.001Z</time></trkpt><trkpt lat="45.659258907354335" lon="8.335132830944193"><ele>296.0</ele><time>2026-04-26T12:49:07.001Z</time></trkpt><trkpt lat="45.65936206560485" lon="8.335044492348036"><ele>296.0</ele><time>2026-04-26T12:49:08.001Z</time></trkpt><trkpt lat="45.65946832822292" lon="8.334954684119415"><ele>296.0</ele><time>2026-04-26T12:49:09.001Z</time></trkpt><trkpt lat="45.65958155616392" lon="8.334855549047516"><ele>296.0</ele><time>2026-04-26T12:49:10.001Z</time></trkpt><trkpt lat="45.659701166989244" lon="8.33474205198785"><ele>296.0</ele><time>2026-04-26T12:49:11.001Z</time></trkpt><trkpt lat="45.6598292077428" lon="8.334622515313157"><ele>296.0</ele><time>2026-04-26T12:49:12.001Z</time></trkpt><trkpt lat="45.65995719018475" lon="8.33449905535415"><ele>296.6666666666667</ele><time>2026-04-26T12:49:13.001Z</time></trkpt><trkpt lat="45.660083368603246" lon="8.334379317254422"><ele>297.3333333333333</ele><time>2026-04-26T12:49:14.001Z</time></trkpt><trkpt lat="45.6602128236766" lon="8.334259224059965"><ele>298.0</ele><time>2026-04-26T12:49:15.001Z</time></trkpt><trkpt lat="45.66034672886608" lon="8.334138462872994"><ele>298.0</ele><time>2026-04-26T12:49:16.001Z</time></trkpt><trkpt lat="45.660476599471366" lon="8.334022114809866"><ele>298.0</ele><time>2026-04-26T12:49:17.001Z</time></trkpt><trkpt lat="45.6606005307163" lon="8.33390619001666"><ele>298.0</ele><time>2026-04-26T12:49:18.001Z</time></trkpt><trkpt lat="45.66071597008571" lon="8.333798436563395"><ele>298.0</ele><time>2026-04-26T12:49:19.001Z</time></trkpt><trkpt lat="45.66082533004724" lon="8.333700675860232"><ele>298.75</ele><time>2026-04-26T12:49:20.001Z</time></trkpt><trkpt lat="45.660931649009136" lon="8.333606356672368"><ele>299.5</ele><time>2026-04-26T12:49:21.001Z</time></trkpt><trkpt lat="45.66104365135506" lon="8.333513576982863"><ele>300.25</ele><time>2026-04-26T12:49:22.001Z</time></trkpt><trkpt lat="45.66116287272408" lon="8.333421139579986"><ele>301.0</ele><time>2026-04-26T12:49:23.001Z</time></trkpt><trkpt lat="45.66128870120158" lon="8.333333112661158"><ele>301.0</ele><time>2026-04-26T12:49:24.001Z</time></trkpt><trkpt lat="45.66142230441813" lon="8.333259292323557"><ele>301.0</ele><time>2026-04-26T12:49:25.001Z</time></trkpt><trkpt lat="45.66156162121447" lon="8.333198719816028"><ele>301.0</ele><time>2026-04-26T12:49:26.001Z</time></trkpt><trkpt lat="45.66171348345555" lon="8.333142534705505"><ele>301.0</ele><time>2026-04-26T12:49:27.001Z</time></trkpt><trkpt lat="45.66187013601289" lon="8.333099892596087"><ele>300.66666666666663</ele><time>2026-04-26T12:49:28.001Z</time></trkpt><trkpt lat="45.66202660131225" lon="8.333077133578472"><ele>300.3333333333333</ele><time>2026-04-26T12:49:29.001Z</time></trkpt><trkpt lat="45.66219105637594" lon="8.333058546753222"><ele>300.0</ele><time>2026-04-26T12:49:30.001Z</time></trkpt><trkpt lat="45.66236020880402" lon="8.333034929266832"><ele>300.0</ele><time>2026-04-26T12:49:31.002Z</time></trkpt><trkpt lat="45.66252166416541" lon="8.333012667987779"><ele>300.0</ele><time>2026-04-26T12:49:32.002Z</time></trkpt><trkpt lat="45.66267620638899" lon="8.332990888288467"><ele>300.0</ele><time>2026-04-26T12:49:33.002Z</time></trkpt><trkpt lat="45.66282437524775" lon="8.332974233520305"><ele>299.25</ele><time>2026-04-26T12:49:34.002Z</time></trkpt><trkpt lat="45.6629712013986" lon="8.332955575844204"><ele>298.5</ele><time>2026-04-26T12:49:35.002Z</time></trkpt><trkpt lat="45.6631090736343" lon="8.332937126546929"><ele>297.75</ele><time>2026-04-26T12:49:36.002Z</time></trkpt><trkpt lat="45.66325268733539" lon="8.332921946504365"><ele>297.0</ele><time>2026-04-26T12:49:37.002Z</time></trkpt><trkpt lat="45.66340060834593" lon="8.332906307999243"><ele>297.0</ele><time>2026-04-26T12:49:38.002Z</time></trkpt><trkpt lat="45.66354669636559" lon="8.332891381891637"><ele>297.0</ele><time>2026-04-26T12:49:39.002Z</time></trkpt><trkpt lat="45.66369601606183" lon="8.332877267572009"><ele>297.0</ele><time>2026-04-26T12:49:40.002Z</time></trkpt><trkpt lat="45.6638422950161" lon="8.332860388847141"><ele>297.0</ele><time>2026-04-26T12:49:41.002Z</time></trkpt><trkpt lat="45.6639895279334" lon="8.332846523312188"><ele>297.25</ele><time>2026-04-26T12:49:42.002Z</time></trkpt><trkpt lat="45.66414316668774" lon="8.332828999024303"><ele>297.5</ele><time>2026-04-26T12:49:43.002Z</time></trkpt><trkpt lat="45.66428652291432" lon="8.332812190343121"><ele>297.75</ele><time>2026-04-26T12:49:44.002Z</time></trkpt><trkpt lat="45.664435778825926" lon="8.332799307260075"><ele>298.0</ele><time>2026-04-26T12:49:45.002Z</time></trkpt><trkpt lat="45.66457003162292" lon="8.332781723789713"><ele>298.0</ele><time>2026-04-26T12:49:46.002Z</time></trkpt><trkpt lat="45.66472189921336" lon="8.332767629400463"><ele>298.0</ele><time>2026-04-26T12:49:47.002Z</time></trkpt><trkpt lat="45.664867347993905" lon="8.332750265008531"><ele>298.0</ele><time>2026-04-26T12:49:48.002Z</time></trkpt><trkpt lat="45.66501804692423" lon="8.33273625079687"><ele>298.0</ele><time>2026-04-26T12:49:49.002Z</time></trkpt><trkpt lat="45.66516438377062" lon="8.332727385198067"><ele>298.0</ele><time>2026-04-26T12:49:50.002Z</time></trkpt><trkpt lat="45.665308192334884" lon="8.332717665917619"><ele>298.0</ele><time>2026-04-26T12:49:51.002Z</time></trkpt><trkpt lat="45.665451850610275" lon="8.332706551126291"><ele>298.0</ele><time>2026-04-26T12:49:52.002Z</time></trkpt><trkpt lat="45.665598201046755" lon="8.332696876984862"><ele>298.0</ele><time>2026-04-26T12:49:53.002Z</time></trkpt><trkpt lat="45.66574572927366" lon="8.332688475630437"><ele>298.0</ele><time>2026-04-26T12:49:54.002Z</time></trkpt><trkpt lat="45.66589170334157" lon="8.332675133145262"><ele>298.0</ele><time>2026-04-26T12:49:55.002Z</time></trkpt><trkpt lat="45.66603771364574" lon="8.332667645648838"><ele>298.0</ele><time>2026-04-26T12:49:56.002Z</time></trkpt><trkpt lat="45.66618646064079" lon="8.33265616148792"><ele>298.0</ele><time>2026-04-26T12:49:57.002Z</time></trkpt><trkpt lat="45.66633143281258" lon="8.332648888060211"><ele>298.25</ele><time>2026-04-26T12:49:58.002Z</time></trkpt><trkpt lat="45.66647773768546" lon="8.332637587203935"><ele>298.5</ele><time>2026-04-26T12:49:59.002Z</time></trkpt><trkpt lat="45.66662541911139" lon="8.33262811218501"><ele>298.75</ele><time>2026-04-26T12:50:00.002Z</time></trkpt><trkpt lat="45.66677193336771" lon="8.332616115341809"><ele>299.0</ele><time>2026-04-26T12:50:01.002Z</time></trkpt><trkpt lat="45.66691778049049" lon="8.332603838289419"><ele>299.0</ele><time>2026-04-26T12:50:02.002Z</time></trkpt><trkpt lat="45.66706422644578" lon="8.332591274840029"><ele>299.0</ele><time>2026-04-26T12:50:03.003Z</time></trkpt><trkpt lat="45.66720948993817" lon="8.332580105731386"><ele>299.0</ele><time>2026-04-26T12:50:04.003Z</time></trkpt><trkpt lat="45.66735623923292" lon="8.332567555244811"><ele>299.0</ele><time>2026-04-26T12:50:05.003Z</time></trkpt><trkpt lat="45.667502596021144" lon="8.332552523103539"><ele>299.0</ele><time>2026-04-26T12:50:06.003Z</time></trkpt><trkpt lat="45.6676490355042" lon="8.332537764624233"><ele>299.0</ele><time>2026-04-26T12:50:07.003Z</time></trkpt><trkpt lat="45.66779691040384" lon="8.332523842401894"><ele>299.0</ele><time>2026-04-26T12:50:08.003Z</time></trkpt><trkpt lat="45.66794350268154" lon="8.332506599613003"><ele>299.0</ele><time>2026-04-26T12:50:09.003Z</time></trkpt><trkpt lat="45.66808908578975" lon="8.332489772384918"><ele>299.0</ele><time>2026-04-26T12:50:10.003Z</time></trkpt><trkpt lat="45.66823756097377" lon="8.332474102829433"><ele>299.0</ele><time>2026-04-26T12:50:11.003Z</time></trkpt><trkpt lat="45.66838407317009" lon="8.332457372432911"><ele>299.0</ele><time>2026-04-26T12:50:12.003Z</time></trkpt><trkpt lat="45.66853010107776" lon="8.332439634550784"><ele>299.0</ele><time>2026-04-26T12:50:13.003Z</time></trkpt><trkpt lat="45.668677679825876" lon="8.332419229222344"><ele>299.25</ele><time>2026-04-26T12:50:14.003Z</time></trkpt><trkpt lat="45.668822116857775" lon="8.332402734393217"><ele>299.5</ele><time>2026-04-26T12:50:15.003Z</time></trkpt><trkpt lat="45.66896466587761" lon="8.33237746328361"><ele>299.75</ele><time>2026-04-26T12:50:16.003Z</time></trkpt><trkpt lat="45.669108297147936" lon="8.332326817096888"><ele>300.0</ele><time>2026-04-26T12:50:17.003Z</time></trkpt><trkpt lat="45.66924384176056" lon="8.332255940664803"><ele>299.25</ele><time>2026-04-26T12:50:18.003Z</time></trkpt><trkpt lat="45.669366195100146" lon="8.332135752920358"><ele>298.5</ele><time>2026-04-26T12:50:19.003Z</time></trkpt><trkpt lat="45.6694776094256" lon="8.33199923517617"><ele>297.75</ele><time>2026-04-26T12:50:20.003Z</time></trkpt><trkpt lat="45.66956215059334" lon="8.331822462638508"><ele>297.0</ele><time>2026-04-26T12:50:21.003Z</time></trkpt><trkpt lat="45.66962187082391" lon="8.331638420728254"><ele>297.0</ele><time>2026-04-26T12:50:22.003Z</time></trkpt><trkpt lat="45.66965031637236" lon="8.33145288050876"><ele>297.0</ele><time>2026-04-26T12:50:23.003Z</time></trkpt><trkpt lat="45.669650041183736" lon="8.3312348777877"><ele>297.0</ele><time>2026-04-26T12:50:24.003Z</time></trkpt><trkpt lat="45.66963340732564" lon="8.330947758925111"><ele>297.6666666666667</ele><time>2026-04-26T12:50:25.003Z</time></trkpt><trkpt lat="45.669609237546176" lon="8.330686256351067"><ele>298.33333333333337</ele><time>2026-04-26T12:50:26.003Z</time></trkpt><trkpt lat="45.669576718223595" lon="8.330381383595878"><ele>299.0</ele><time>2026-04-26T12:50:27.003Z</time></trkpt><trkpt lat="45.669574245500655" lon="8.330092227433806"><ele>300.0</ele><time>2026-04-26T12:50:28.003Z</time></trkpt><trkpt lat="45.66961342413225" lon="8.329837920548348"><ele>301.0</ele><time>2026-04-26T12:50:29.003Z</time></trkpt><trkpt lat="45.669691936914056" lon="8.329569649336426"><ele>302.0</ele><time>2026-04-26T12:50:30.003Z</time></trkpt><trkpt lat="45.66980178067767" lon="8.32932466986721"><ele>302.0</ele><time>2026-04-26T12:50:31.003Z</time></trkpt><trkpt lat="45.66990588145001" lon="8.329073809520839"><ele>302.0</ele><time>2026-04-26T12:50:32Z</time></trkpt><trkpt lat="45.67000641253121" lon="8.328816102746448"><ele>302.0</ele><time>2026-04-26T12:50:33Z</time></trkpt><trkpt lat="45.67011271718425" lon="8.328554924967943"><ele>301.6666666666667</ele><time>2026-04-26T12:50:34Z</time></trkpt><trkpt lat="45.67022011389024" lon="8.328289723126586"><ele>301.3333333333333</ele><time>2026-04-26T12:50:35Z</time></trkpt><trkpt lat="45.67033384067979" lon="8.328025215072751"><ele>301.0</ele><time>2026-04-26T12:50:36Z</time></trkpt><trkpt lat="45.67044994444103" lon="8.327764004826367"><ele>301.0</ele><time>2026-04-26T12:50:37Z</time></trkpt><trkpt lat="45.67055976949211" lon="8.327495156527204"><ele>301.0</ele><time>2026-04-26T12:50:38Z</time></trkpt><trkpt lat="45.67067721481671" lon="8.32723103419385"><ele>301.0</ele><time>2026-04-26T12:50:39Z</time></trkpt><trkpt lat="45.67078481965702" lon="8.326954904091165"><ele>302.0</ele><time>2026-04-26T12:50:40Z</time></trkpt><trkpt lat="45.6708890210391" lon="8.326726566082462"><ele>303.0</ele><time>2026-04-26T12:50:41Z</time></trkpt><trkpt lat="45.67098970830644" lon="8.326514950098046"><ele>304.0</ele><time>2026-04-26T12:50:42Z</time></trkpt><trkpt lat="45.67107987197278" lon="8.326316186237316"><ele>305.66666666666663</ele><time>2026-04-26T12:50:43Z</time></trkpt><trkpt lat="45.6711660766398" lon="8.326129499265898"><ele>307.3333333333333</ele><time>2026-04-26T12:50:44Z</time></trkpt><trkpt lat="45.671261408290874" lon="8.32590161577186"><ele>309.0</ele><time>2026-04-26T12:50:45Z</time></trkpt><trkpt lat="45.671349878685504" lon="8.32567452691084"><ele>308.25</ele><time>2026-04-26T12:50:46Z</time></trkpt><trkpt lat="45.671446030477235" lon="8.325496082300367"><ele>307.5</ele><time>2026-04-26T12:50:47Z</time></trkpt><trkpt lat="45.67153802940259" lon="8.325338856347907"><ele>306.75</ele><time>2026-04-26T12:50:48Z</time></trkpt><trkpt lat="45.67161680719056" lon="8.325213983152834"><ele>306.0</ele><time>2026-04-26T12:50:49Z</time></trkpt><trkpt lat="45.67168862058961" lon="8.325120759593029"><ele>306.0</ele><time>2026-04-26T12:50:50Z</time></trkpt><trkpt lat="45.671766320912624" lon="8.325046037444906"><ele>306.0</ele><time>2026-04-26T12:50:51Z</time></trkpt><trkpt lat="45.671851393952366" lon="8.325005828939796"><ele>306.0</ele><time>2026-04-26T12:50:52Z</time></trkpt><trkpt lat="45.671945666943714" lon="8.324987649429477"><ele>306.0</ele><time>2026-04-26T12:50:53Z</time></trkpt><trkpt lat="45.672050058022805" lon="8.32494960287927"><ele>306.0</ele><time>2026-04-26T12:50:54Z</time></trkpt><trkpt lat="45.67215000135768" lon="8.32485827238186"><ele>306.0</ele><time>2026-04-26T12:50:55Z</time></trkpt><trkpt lat="45.67220714145691" lon="8.324721308110394"><ele>306.0</ele><time>2026-04-26T12:50:56Z</time></trkpt><trkpt lat="45.67220658974532" lon="8.32458285756463"><ele>306.0</ele><time>2026-04-26T12:50:57Z</time></trkpt><trkpt lat="45.67219676037335" lon="8.324432582979462"><ele>306.0</ele><time>2026-04-26T12:50:58Z</time></trkpt><trkpt lat="45.672219593928965" lon="8.32424706359077"><ele>306.0</ele><time>2026-04-26T12:50:59Z</time></trkpt><trkpt lat="45.67230858912952" lon="8.32411432976649"><ele>306.0</ele><time>2026-04-26T12:51:00Z</time></trkpt><trkpt lat="45.67242414362546" lon="8.323991994619105"><ele>306.0</ele><time>2026-04-26T12:51:01Z</time></trkpt><trkpt lat="45.67254040269594" lon="8.323871986960253"><ele>306.0</ele><time>2026-04-26T12:51:02.001Z</time></trkpt><trkpt lat="45.67265899915939" lon="8.323748750375646"><ele>306.0</ele><time>2026-04-26T12:51:03.001Z</time></trkpt><trkpt lat="45.6727884246945" lon="8.323623978340837"><ele>306.0</ele><time>2026-04-26T12:51:04.001Z</time></trkpt><trkpt lat="45.67291841964273" lon="8.32349418547437"><ele>306.0</ele><time>2026-04-26T12:51:05.001Z</time></trkpt><trkpt lat="45.67305179997846" lon="8.323374658611472"><ele>306.0</ele><time>2026-04-26T12:51:06.001Z</time></trkpt><trkpt lat="45.67317771035817" lon="8.323261433817413"><ele>306.0</ele><time>2026-04-26T12:51:07.001Z</time></trkpt><trkpt lat="45.67330968063291" lon="8.323144534690215"><ele>306.0</ele><time>2026-04-26T12:51:08.001Z</time></trkpt><trkpt lat="45.673429693153665" lon="8.323038327515361"><ele>306.0</ele><time>2026-04-26T12:51:09.001Z</time></trkpt><trkpt lat="45.67355084475558" lon="8.322931296119066"><ele>306.0</ele><time>2026-04-26T12:51:10.001Z</time></trkpt><trkpt lat="45.673663438671454" lon="8.32283483841267"><ele>306.40000000000003</ele><time>2026-04-26T12:51:11.001Z</time></trkpt><trkpt lat="45.6737633417597" lon="8.322744615779774"><ele>306.8</ele><time>2026-04-26T12:51:12.001Z</time></trkpt><trkpt lat="45.67385585340313" lon="8.322656402963203"><ele>307.20000000000005</ele><time>2026-04-26T12:51:13.001Z</time></trkpt><trkpt lat="45.6739459988493" lon="8.32256892202974"><ele>307.6</ele><time>2026-04-26T12:51:14.001Z</time></trkpt><trkpt lat="45.67402191618609" lon="8.322509167059534"><ele>308.0</ele><time>2026-04-26T12:51:15.001Z</time></trkpt><trkpt lat="45.67409310952001" lon="8.322428010782843"><ele>308.0</ele><time>2026-04-26T12:51:16.001Z</time></trkpt><trkpt lat="45.67419042201189" lon="8.322344479727507"><ele>308.0</ele><time>2026-04-26T12:51:17.001Z</time></trkpt><trkpt lat="45.67429005488098" lon="8.322272421549537"><ele>308.0</ele><time>2026-04-26T12:51:18.001Z</time></trkpt><trkpt lat="45.67441606490893" lon="8.322175230869657"><ele>308.0</ele><time>2026-04-26T12:51:19.001Z</time></trkpt><trkpt lat="45.67454003047379" lon="8.322065653064627"><ele>308.75</ele><time>2026-04-26T12:51:20.001Z</time></trkpt><trkpt lat="45.67465513454619" lon="8.321964701810225"><ele>309.5</ele><time>2026-04-26T12:51:21.001Z</time></trkpt><trkpt lat="45.67477171710828" lon="8.321859952164552"><ele>310.25</ele><time>2026-04-26T12:51:22.001Z</time></trkpt><trkpt lat="45.67489067986424" lon="8.321751644554526"><ele>311.0</ele><time>2026-04-26T12:51:23.001Z</time></trkpt><trkpt lat="45.67501321867911" lon="8.321643611068707"><ele>311.0</ele><time>2026-04-26T12:51:24.001Z</time></trkpt><trkpt lat="45.675137175887" lon="8.321537031312571"><ele>311.0</ele><time>2026-04-26T12:51:25.001Z</time></trkpt><trkpt lat="45.67525963594426" lon="8.321421843310784"><ele>311.0</ele><time>2026-04-26T12:51:26.001Z</time></trkpt><trkpt lat="45.67538319031769" lon="8.32131421361656"><ele>311.0</ele><time>2026-04-26T12:51:27.001Z</time></trkpt><trkpt lat="45.67550931463104" lon="8.321200191611151"><ele>311.25</ele><time>2026-04-26T12:51:28.001Z</time></trkpt><trkpt lat="45.6756374109086" lon="8.32109348441295"><ele>311.5</ele><time>2026-04-26T12:51:29.001Z</time></trkpt><trkpt lat="45.67576852287667" lon="8.320990026238235"><ele>311.75</ele><time>2026-04-26T12:51:30.001Z</time></trkpt><trkpt lat="45.67589580666832" lon="8.320874804669277"><ele>312.0</ele><time>2026-04-26T12:51:31.001Z</time></trkpt><trkpt lat="45.67602464590322" lon="8.320760496881382"><ele>312.0</ele><time>2026-04-26T12:51:32.001Z</time></trkpt><trkpt lat="45.67615641739878" lon="8.320645531139187"><ele>312.0</ele><time>2026-04-26T12:51:33.001Z</time></trkpt><trkpt lat="45.67628988528522" lon="8.320535702330911"><ele>312.0</ele><time>2026-04-26T12:51:34.001Z</time></trkpt><trkpt lat="45.676412523036745" lon="8.32042800830318"><ele>312.0</ele><time>2026-04-26T12:51:35.002Z</time></trkpt><trkpt lat="45.67653672458508" lon="8.320310427749689"><ele>312.0</ele><time>2026-04-26T12:51:36.002Z</time></trkpt><trkpt lat="45.67666402840359" lon="8.320191083855107"><ele>312.0</ele><time>2026-04-26T12:51:37.002Z</time></trkpt><trkpt lat="45.67679251243213" lon="8.320071465989672"><ele>312.0</ele><time>2026-04-26T12:51:38.002Z</time></trkpt><trkpt lat="45.676921031717924" lon="8.319955999776383"><ele>312.0</ele><time>2026-04-26T12:51:39.002Z</time></trkpt><trkpt lat="45.677048864932345" lon="8.319840653105974"><ele>312.0</ele><time>2026-04-26T12:51:40.002Z</time></trkpt><trkpt lat="45.67717532212777" lon="8.319724043681987"><ele>311.6666666666667</ele><time>2026-04-26T12:51:41.002Z</time></trkpt><trkpt lat="45.67729814549836" lon="8.319602883897034"><ele>311.33333333333337</ele><time>2026-04-26T12:51:42.002Z</time></trkpt><trkpt lat="45.67742847341865" lon="8.319492826001234"><ele>311.0</ele><time>2026-04-26T12:51:43.002Z</time></trkpt><trkpt lat="45.67756581389047" lon="8.319389993501604"><ele>311.0</ele><time>2026-04-26T12:51:44.002Z</time></trkpt><trkpt lat="45.67769914133647" lon="8.319285018484592"><ele>311.0</ele><time>2026-04-26T12:51:45.002Z</time></trkpt><trkpt lat="45.67782888961388" lon="8.31916843320688"><ele>311.0</ele><time>2026-04-26T12:51:46.002Z</time></trkpt><trkpt lat="45.67796063024039" lon="8.319047993673793"><ele>311.33333333333337</ele><time>2026-04-26T12:51:47.002Z</time></trkpt><trkpt lat="45.67808984063472" lon="8.31892959254829"><ele>311.6666666666667</ele><time>2026-04-26T12:51:48.002Z</time></trkpt><trkpt lat="45.678217421840465" lon="8.318815648155034"><ele>312.0</ele><time>2026-04-26T12:51:49.002Z</time></trkpt><trkpt lat="45.678351366956534" lon="8.318701701083592"><ele>312.3333333333333</ele><time>2026-04-26T12:51:50.002Z</time></trkpt><trkpt lat="45.67848733779722" lon="8.318585683402485"><ele>312.66666666666663</ele><time>2026-04-26T12:51:51.002Z</time></trkpt><trkpt lat="45.67862123497297" lon="8.3184669032214"><ele>313.0</ele><time>2026-04-26T12:51:52.002Z</time></trkpt><trkpt lat="45.6787542254861" lon="8.318343427151667"><ele>313.0</ele><time>2026-04-26T12:51:53.002Z</time></trkpt><trkpt lat="45.67887982725312" lon="8.318223482501462"><ele>313.0</ele><time>2026-04-26T12:51:54.002Z</time></trkpt><trkpt lat="45.6790000657129" lon="8.318113506163133"><ele>313.0</ele><time>2026-04-26T12:51:55.002Z</time></trkpt><trkpt lat="45.67912739687352" lon="8.317996807820322"><ele>313.0</ele><time>2026-04-26T12:51:56.002Z</time></trkpt><trkpt lat="45.67925805868614" lon="8.317879137780286"><ele>314.3333333333333</ele><time>2026-04-26T12:51:57.002Z</time></trkpt><trkpt lat="45.67939290880445" lon="8.317762972136377"><ele>315.6666666666667</ele><time>2026-04-26T12:51:58.002Z</time></trkpt><trkpt lat="45.679523612744426" lon="8.317648684223407"><ele>317.0</ele><time>2026-04-26T12:51:59.002Z</time></trkpt><trkpt lat="45.67965220061137" lon="8.317534808029322"><ele>317.33333333333337</ele><time>2026-04-26T12:52:00.002Z</time></trkpt><trkpt lat="45.67978050953332" lon="8.317421778228898"><ele>317.6666666666667</ele><time>2026-04-26T12:52:01.002Z</time></trkpt><trkpt lat="45.679909865734636" lon="8.317305830282157"><ele>318.0</ele><time>2026-04-26T12:52:02.002Z</time></trkpt><trkpt lat="45.68003972161543" lon="8.317188230113873"><ele>318.6666666666667</ele><time>2026-04-26T12:52:03.002Z</time></trkpt><trkpt lat="45.68016760575778" lon="8.317071696304847"><ele>319.33333333333337</ele><time>2026-04-26T12:52:04.002Z</time></trkpt><trkpt lat="45.68030125771844" lon="8.31695423917795"><ele>320.0</ele><time>2026-04-26T12:52:05.002Z</time></trkpt><trkpt lat="45.68043457712286" lon="8.316836041225931"><ele>320.25</ele><time>2026-04-26T12:52:06.002Z</time></trkpt><trkpt lat="45.68056193404565" lon="8.316726138729674"><ele>320.5</ele><time>2026-04-26T12:52:07.002Z</time></trkpt><trkpt lat="45.68067616314796" lon="8.31662187203166"><ele>320.75</ele><time>2026-04-26T12:52:08.003Z</time></trkpt><trkpt lat="45.68078519158752" lon="8.31652154352161"><ele>321.0</ele><time>2026-04-26T12:52:09.003Z</time></trkpt><trkpt lat="45.6808846886036" lon="8.31642515691718"><ele>321.20000000000005</ele><time>2026-04-26T12:52:10.003Z</time></trkpt><trkpt lat="45.680973988794186" lon="8.316332992268324"><ele>321.40000000000003</ele><time>2026-04-26T12:52:11.003Z</time></trkpt><trkpt lat="45.68105273567344" lon="8.316236958040852"><ele>321.6</ele><time>2026-04-26T12:52:12.003Z</time></trkpt><trkpt lat="45.681093135142525" lon="8.316118087334019"><ele>321.8</ele><time>2026-04-26T12:52:13.003Z</time></trkpt><trkpt lat="45.68110195687369" lon="8.315938199748475"><ele>322.0</ele><time>2026-04-26T12:52:14.003Z</time></trkpt><trkpt lat="45.681153761034416" lon="8.315745180551007"><ele>323.0</ele><time>2026-04-26T12:52:15.003Z</time></trkpt><trkpt lat="45.681217779007135" lon="8.315551305894894"><ele>324.0</ele><time>2026-04-26T12:52:16.003Z</time></trkpt><trkpt lat="45.6812826542126" lon="8.315358597636639"><ele>325.0</ele><time>2026-04-26T12:52:17.003Z</time></trkpt><trkpt lat="45.6813551479769" lon="8.315162742531884"><ele>325.0</ele><time>2026-04-26T12:52:18.003Z</time></trkpt><trkpt lat="45.68143176127792" lon="8.314966783104058"><ele>325.0</ele><time>2026-04-26T12:52:19.003Z</time></trkpt><trkpt lat="45.681515787067454" lon="8.314766772339407"><ele>325.0</ele><time>2026-04-26T12:52:20.003Z</time></trkpt><trkpt lat="45.681604857346656" lon="8.314568283099838"><ele>325.0</ele><time>2026-04-26T12:52:21.003Z</time></trkpt><trkpt lat="45.68170186082064" lon="8.314384101187207"><ele>325.0</ele><time>2026-04-26T12:52:22.003Z</time></trkpt><trkpt lat="45.681802988356395" lon="8.314205677871813"><ele>325.0</ele><time>2026-04-26T12:52:23.003Z</time></trkpt><trkpt lat="45.68190358447803" lon="8.314028631941264"><ele>326.3333333333333</ele><time>2026-04-26T12:52:24.003Z</time></trkpt><trkpt lat="45.68200603126363" lon="8.313851135594494"><ele>327.6666666666667</ele><time>2026-04-26T12:52:25.003Z</time></trkpt><trkpt lat="45.68210715197865" lon="8.313676302625016"><ele>329.0</ele><time>2026-04-26T12:52:26.003Z</time></trkpt><trkpt lat="45.68220762296304" lon="8.313501569713633"><ele>329.0</ele><time>2026-04-26T12:52:27.003Z</time></trkpt><trkpt lat="45.68230779663456" lon="8.313327016530204"><ele>329.0</ele><time>2026-04-26T12:52:28.003Z</time></trkpt><trkpt lat="45.68240840176811" lon="8.313151089552358"><ele>329.0</ele><time>2026-04-26T12:52:29.003Z</time></trkpt><trkpt lat="45.682508017955435" lon="8.312974267814772"><ele>329.0</ele><time>2026-04-26T12:52:30.003Z</time></trkpt><trkpt lat="45.68261002863382" lon="8.312797885412396"><ele>329.0</ele><time>2026-04-26T12:52:31.003Z</time></trkpt><trkpt lat="45.682711401821095" lon="8.31261648678634"><ele>329.0</ele><time>2026-04-26T12:52:32.003Z</time></trkpt><trkpt lat="45.68281334559077" lon="8.31243387265816"><ele>329.0</ele><time>2026-04-26T12:52:33.003Z</time></trkpt><trkpt lat="45.682914680753235" lon="8.312253600989731"><ele>329.0</ele><time>2026-04-26T12:52:34.003Z</time></trkpt><trkpt lat="45.68301759709424" lon="8.312073915672554"><ele>329.0</ele><time>2026-04-26T12:52:35.003Z</time></trkpt><trkpt lat="45.68311833962903" lon="8.311892732207282"><ele>330.0</ele><time>2026-04-26T12:52:36.003Z</time></trkpt><trkpt lat="45.68321818569333" lon="8.311711594138051"><ele>331.0</ele><time>2026-04-26T12:52:37.003Z</time></trkpt><trkpt lat="45.683318706348366" lon="8.31153400722215"><ele>332.0</ele><time>2026-04-26T12:52:38Z</time></trkpt><trkpt lat="45.68341768133854" lon="8.311357355009871"><ele>332.6666666666667</ele><time>2026-04-26T12:52:39Z</time></trkpt><trkpt lat="45.68351804225451" lon="8.311188764532796"><ele>333.3333333333333</ele><time>2026-04-26T12:52:40Z</time></trkpt><trkpt lat="45.683619386838934" lon="8.31101693341064"><ele>334.0</ele><time>2026-04-26T12:52:41Z</time></trkpt><trkpt lat="45.683719612051206" lon="8.310839419106866"><ele>332.66666666666663</ele><time>2026-04-26T12:52:42Z</time></trkpt><trkpt lat="45.68381562542977" lon="8.310661965601149"><ele>331.3333333333333</ele><time>2026-04-26T12:52:43Z</time></trkpt><trkpt lat="45.6839157583814" lon="8.310484043894657"><ele>330.0</ele><time>2026-04-26T12:52:44Z</time></trkpt><trkpt lat="45.68401194820521" lon="8.31029815906857"><ele>330.0</ele><time>2026-04-26T12:52:45Z</time></trkpt><trkpt lat="45.68410822999321" lon="8.31010965268638"><ele>330.0</ele><time>2026-04-26T12:52:46Z</time></trkpt><trkpt lat="45.6842031203232" lon="8.30992590737002"><ele>330.0</ele><time>2026-04-26T12:52:47Z</time></trkpt><trkpt lat="45.684303276777754" lon="8.309744741778802"><ele>330.3333333333333</ele><time>2026-04-26T12:52:48Z</time></trkpt><trkpt lat="45.6844049357022" lon="8.309560616279303"><ele>330.66666666666663</ele><time>2026-04-26T12:52:49Z</time></trkpt><trkpt lat="45.684502841251" lon="8.309378707598414"><ele>331.0</ele><time>2026-04-26T12:52:50Z</time></trkpt><trkpt lat="45.68460105924661" lon="8.309198325762237"><ele>331.3333333333333</ele><time>2026-04-26T12:52:51Z</time></trkpt><trkpt lat="45.6846979642042" lon="8.30901287115627"><ele>331.6666666666667</ele><time>2026-04-26T12:52:52Z</time></trkpt><trkpt lat="45.68478943961297" lon="8.308831500673415"><ele>332.0</ele><time>2026-04-26T12:52:53Z</time></trkpt><trkpt lat="45.68488544918038" lon="8.308643977825305"><ele>332.33333333333337</ele><time>2026-04-26T12:52:54Z</time></trkpt><trkpt lat="45.68497639843546" lon="8.308455707651422"><ele>332.6666666666667</ele><time>2026-04-26T12:52:55Z</time></trkpt><trkpt lat="45.68505275495758" lon="8.308259116432904"><ele>333.0</ele><time>2026-04-26T12:52:56Z</time></trkpt><trkpt lat="45.685111961584546" lon="8.30805254448235"><ele>333.6666666666667</ele><time>2026-04-26T12:52:57Z</time></trkpt><trkpt lat="45.68517030508069" lon="8.307837160802839"><ele>334.33333333333337</ele><time>2026-04-26T12:52:58Z</time></trkpt><trkpt lat="45.685225316679286" lon="8.307601048332442"><ele>335.0</ele><time>2026-04-26T12:52:59Z</time></trkpt><trkpt lat="45.68528360837572" lon="8.307330294016774"><ele>336.0</ele><time>2026-04-26T12:53:00Z</time></trkpt><trkpt lat="45.68534832525953" lon="8.307090776733514"><ele>337.0</ele><time>2026-04-26T12:53:01Z</time></trkpt><trkpt lat="45.685430497985706" lon="8.306851292227114"><ele>338.0</ele><time>2026-04-26T12:53:02Z</time></trkpt><trkpt lat="45.685522595945685" lon="8.306628913218157"><ele>338.0</ele><time>2026-04-26T12:53:03Z</time></trkpt><trkpt lat="45.685627059099794" lon="8.306417143249691"><ele>338.0</ele><time>2026-04-26T12:53:04Z</time></trkpt><trkpt lat="45.68574636670321" lon="8.306221301823543"><ele>338.0</ele><time>2026-04-26T12:53:05Z</time></trkpt><trkpt lat="45.68588464474426" lon="8.30604522570451"><ele>338.0</ele><time>2026-04-26T12:53:06Z</time></trkpt><trkpt lat="45.686028741830455" lon="8.305870795160374"><ele>338.0</ele><time>2026-04-26T12:53:07Z</time></trkpt><trkpt lat="45.68616414964196" lon="8.305682631320067"><ele>338.0</ele><time>2026-04-26T12:53:08Z</time></trkpt><trkpt lat="45.68630747044858" lon="8.305506594140516"><ele>338.0</ele><time>2026-04-26T12:53:09Z</time></trkpt><trkpt lat="45.6864556075371" lon="8.305340437439082"><ele>338.0</ele><time>2026-04-26T12:53:10.001Z</time></trkpt><trkpt lat="45.686618126141084" lon="8.30519888344071"><ele>338.0</ele><time>2026-04-26T12:53:11.001Z</time></trkpt><trkpt lat="45.686796279322564" lon="8.305101214683498"><ele>337.33333333333337</ele><time>2026-04-26T12:53:12.001Z</time></trkpt><trkpt lat="45.68698134624255" lon="8.305023475304013"><ele>336.6666666666667</ele><time>2026-04-26T12:53:13.001Z</time></trkpt><trkpt lat="45.68716185243229" lon="8.304934060148263"><ele>336.0</ele><time>2026-04-26T12:53:14.001Z</time></trkpt><trkpt lat="45.68732567073332" lon="8.30484801424031"><ele>336.0</ele><time>2026-04-26T12:53:15.001Z</time></trkpt><trkpt lat="45.68748257915216" lon="8.304770613492234"><ele>336.0</ele><time>2026-04-26T12:53:16.001Z</time></trkpt><trkpt lat="45.68763491819574" lon="8.304704074080224"><ele>336.0</ele><time>2026-04-26T12:53:17.001Z</time></trkpt><trkpt lat="45.687777681254595" lon="8.30463482215724"><ele>336.75</ele><time>2026-04-26T12:53:18.001Z</time></trkpt><trkpt lat="45.68790307081204" lon="8.304571762385086"><ele>337.5</ele><time>2026-04-26T12:53:19.001Z</time></trkpt><trkpt lat="45.688020587206246" lon="8.304515274413008"><ele>338.25</ele><time>2026-04-26T12:53:20.001Z</time></trkpt><trkpt lat="45.68813302963648" lon="8.304458444943922"><ele>339.0</ele><time>2026-04-26T12:53:21.001Z</time></trkpt><trkpt lat="45.688240167649866" lon="8.304395842231159"><ele>339.0</ele><time>2026-04-26T12:53:22.001Z</time></trkpt><trkpt lat="45.68835517608423" lon="8.304322375275248"><ele>339.0</ele><time>2026-04-26T12:53:23.001Z</time></trkpt><trkpt lat="45.68847567537462" lon="8.304228940199812"><ele>339.0</ele><time>2026-04-26T12:53:24.001Z</time></trkpt><trkpt lat="45.68859555554827" lon="8.304111772963227"><ele>339.0</ele><time>2026-04-26T12:53:25.001Z</time></trkpt><trkpt lat="45.68870828239094" lon="8.303978749032895"><ele>338.3333333333333</ele><time>2026-04-26T12:53:26.001Z</time></trkpt><trkpt lat="45.688820656430295" lon="8.303834077927592"><ele>337.66666666666663</ele><time>2026-04-26T12:53:27.001Z</time></trkpt><trkpt lat="45.6889313603748" lon="8.303667242786767"><ele>337.0</ele><time>2026-04-26T12:53:28.001Z</time></trkpt><trkpt lat="45.68905226883054" lon="8.303477085037672"><ele>337.0</ele><time>2026-04-26T12:53:29.001Z</time></trkpt><trkpt lat="45.6891841748673" lon="8.303277563272216"><ele>337.0</ele><time>2026-04-26T12:53:30.001Z</time></trkpt><trkpt lat="45.68933032272977" lon="8.303087243343931"><ele>337.0</ele><time>2026-04-26T12:53:31.001Z</time></trkpt><trkpt lat="45.68948284319931" lon="8.302892227252668"><ele>338.0</ele><time>2026-04-26T12:53:32.001Z</time></trkpt><trkpt lat="45.68964366994526" lon="8.302689599758013"><ele>339.0</ele><time>2026-04-26T12:53:33.001Z</time></trkpt><trkpt lat="45.68980862501091" lon="8.302484651345432"><ele>340.0</ele><time>2026-04-26T12:53:34.001Z</time></trkpt><trkpt lat="45.68997061438213" lon="8.30226476908975"><ele>338.0</ele><time>2026-04-26T12:53:35.001Z</time></trkpt><trkpt lat="45.690126855990286" lon="8.30205001380283"><ele>336.0</ele><time>2026-04-26T12:53:36.001Z</time></trkpt><trkpt lat="45.69027488474877" lon="8.301823767265356"><ele>334.0</ele><time>2026-04-26T12:53:37.001Z</time></trkpt><trkpt lat="45.690426481686025" lon="8.301590584799731"><ele>336.0</ele><time>2026-04-26T12:53:38.001Z</time></trkpt><trkpt lat="45.69059204672337" lon="8.301364429428437"><ele>338.0</ele><time>2026-04-26T12:53:39.001Z</time></trkpt><trkpt lat="45.690731085696726" lon="8.301172507356"><ele>340.0</ele><time>2026-04-26T12:53:40.001Z</time></trkpt><trkpt lat="45.69088965923097" lon="8.300969631828004"><ele>340.0</ele><time>2026-04-26T12:53:41.001Z</time></trkpt><trkpt lat="45.6910343430387" lon="8.300785477115493"><ele>340.0</ele><time>2026-04-26T12:53:42.001Z</time></trkpt><trkpt lat="45.69116742390788" lon="8.300615449768507"><ele>340.0</ele><time>2026-04-26T12:53:43.002Z</time></trkpt><trkpt lat="45.69128683647223" lon="8.3004590309484"><ele>338.75</ele><time>2026-04-26T12:53:44.002Z</time></trkpt><trkpt lat="45.691393147407766" lon="8.300318081750438"><ele>337.5</ele><time>2026-04-26T12:53:45.002Z</time></trkpt><trkpt lat="45.69149643718019" lon="8.30020616649608"><ele>336.25</ele><time>2026-04-26T12:53:46.002Z</time></trkpt><trkpt lat="45.69160821221165" lon="8.300112433441484"><ele>335.0</ele><time>2026-04-26T12:53:47.002Z</time></trkpt><trkpt lat="45.69172482504636" lon="8.300034890375013"><ele>335.0</ele><time>2026-04-26T12:53:48.002Z</time></trkpt><trkpt lat="45.691845452291545" lon="8.29994794307774"><ele>335.0</ele><time>2026-04-26T12:53:49.002Z</time></trkpt><trkpt lat="45.691968166625294" lon="8.299858308108186"><ele>335.0</ele><time>2026-04-26T12:53:50.002Z</time></trkpt><trkpt lat="45.69209177405246" lon="8.299772628952798"><ele>335.0</ele><time>2026-04-26T12:53:51.002Z</time></trkpt><trkpt lat="45.6922189703146" lon="8.299682360611152"><ele>335.75</ele><time>2026-04-26T12:53:52.002Z</time></trkpt><trkpt lat="45.692346234360905" lon="8.299592688894096"><ele>336.5</ele><time>2026-04-26T12:53:53.002Z</time></trkpt><trkpt lat="45.69247410316754" lon="8.299493475754817"><ele>337.25</ele><time>2026-04-26T12:53:54.002Z</time></trkpt><trkpt lat="45.69260406061558" lon="8.299396748942696"><ele>338.0</ele><time>2026-04-26T12:53:55.002Z</time></trkpt><trkpt lat="45.69273653409545" lon="8.299308163564602"><ele>337.75</ele><time>2026-04-26T12:53:56.002Z</time></trkpt><trkpt lat="45.69286909744561" lon="8.299218693109237"><ele>337.5</ele><time>2026-04-26T12:53:57.002Z</time></trkpt><trkpt lat="45.692994168876126" lon="8.299130579326661"><ele>337.25</ele><time>2026-04-26T12:53:58.002Z</time></trkpt><trkpt lat="45.69311614276519" lon="8.299044260633568"><ele>337.0</ele><time>2026-04-26T12:53:59.002Z</time></trkpt><trkpt lat="45.69322313202086" lon="8.298960663641239"><ele>337.0</ele><time>2026-04-26T12:54:00.002Z</time></trkpt><trkpt lat="45.69333670917182" lon="8.29887838969696"><ele>337.0</ele><time>2026-04-26T12:54:01.002Z</time></trkpt><trkpt lat="45.693447020102376" lon="8.298784884411756"><ele>337.0</ele><time>2026-04-26T12:54:02.002Z</time></trkpt><trkpt lat="45.69354874887111" lon="8.298677095688742"><ele>337.0</ele><time>2026-04-26T12:54:03.002Z</time></trkpt><trkpt lat="45.69365264021395" lon="8.29856946569982"><ele>337.0</ele><time>2026-04-26T12:54:04.002Z</time></trkpt><trkpt lat="45.69376285334672" lon="8.29845921574289"><ele>337.0</ele><time>2026-04-26T12:54:05.002Z</time></trkpt><trkpt lat="45.69387919801238" lon="8.298338003702918"><ele>337.0</ele><time>2026-04-26T12:54:06.002Z</time></trkpt><trkpt lat="45.6940162951083" lon="8.298197686944082"><ele>337.0</ele><time>2026-04-26T12:54:07.002Z</time></trkpt><trkpt lat="45.694161619593515" lon="8.298043480458725"><ele>337.0</ele><time>2026-04-26T12:54:08.002Z</time></trkpt><trkpt lat="45.6943138370241" lon="8.297887100075554"><ele>337.0</ele><time>2026-04-26T12:54:09.002Z</time></trkpt><trkpt lat="45.694467620767306" lon="8.29773552648002"><ele>337.0</ele><time>2026-04-26T12:54:10.002Z</time></trkpt><trkpt lat="45.69462609670002" lon="8.297588042844643"><ele>336.66666666666663</ele><time>2026-04-26T12:54:11.002Z</time></trkpt><trkpt lat="45.69478703795526" lon="8.297440056715319"><ele>336.3333333333333</ele><time>2026-04-26T12:54:12.002Z</time></trkpt><trkpt lat="45.69494479272478" lon="8.297299377146084"><ele>336.0</ele><time>2026-04-26T12:54:13.002Z</time></trkpt><trkpt lat="45.69510282547755" lon="8.297144326197614"><ele>336.0</ele><time>2026-04-26T12:54:14.002Z</time></trkpt><trkpt lat="45.69525182254014" lon="8.296971444129339"><ele>336.0</ele><time>2026-04-26T12:54:15.002Z</time></trkpt><trkpt lat="45.69539275090261" lon="8.296792871784278"><ele>336.0</ele><time>2026-04-26T12:54:16.003Z</time></trkpt><trkpt lat="45.6955264696561" lon="8.296611083373463"><ele>336.0</ele><time>2026-04-26T12:54:17.003Z</time></trkpt><trkpt lat="45.69563590988988" lon="8.296444515304717"><ele>336.0</ele><time>2026-04-26T12:54:18.003Z</time></trkpt><trkpt lat="45.695726968188985" lon="8.296294246083153"><ele>336.0</ele><time>2026-04-26T12:54:19.003Z</time></trkpt><trkpt lat="45.69581334886321" lon="8.296143208823178"><ele>336.0</ele><time>2026-04-26T12:54:20.003Z</time></trkpt><trkpt lat="45.6958872962662" lon="8.295996757234485"><ele>336.0</ele><time>2026-04-26T12:54:21.003Z</time></trkpt><trkpt lat="45.69596200595687" lon="8.29584379381361"><ele>336.0</ele><time>2026-04-26T12:54:22.003Z</time></trkpt><trkpt lat="45.69604067158543" lon="8.295677710252884"><ele>336.0</ele><time>2026-04-26T12:54:23.003Z</time></trkpt><trkpt lat="45.696141031728985" lon="8.295473063033624"><ele>336.0</ele><time>2026-04-26T12:54:24.003Z</time></trkpt><trkpt lat="45.6962064594031" lon="8.295266954546623"><ele>336.0</ele><time>2026-04-26T12:54:25.003Z</time></trkpt><trkpt lat="45.69628840126316" lon="8.29505249562378"><ele>336.0</ele><time>2026-04-26T12:54:26.003Z</time></trkpt><trkpt lat="45.69636722531263" lon="8.294841178663631"><ele>336.0</ele><time>2026-04-26T12:54:27.003Z</time></trkpt><trkpt lat="45.69644680591195" lon="8.294626964303616"><ele>336.0</ele><time>2026-04-26T12:54:28.003Z</time></trkpt><trkpt lat="45.696522771435" lon="8.294412431138563"><ele>336.0</ele><time>2026-04-26T12:54:29.003Z</time></trkpt><trkpt lat="45.696572870244395" lon="8.294190314296156"><ele>336.0</ele><time>2026-04-26T12:54:30.003Z</time></trkpt><trkpt lat="45.696611238252046" lon="8.29398270771853"><ele>336.0</ele><time>2026-04-26T12:54:31.003Z</time></trkpt><trkpt lat="45.69664603103687" lon="8.29378757420426"><ele>336.0</ele><time>2026-04-26T12:54:32.003Z</time></trkpt><trkpt lat="45.69667497423248" lon="8.293596058921626"><ele>336.0</ele><time>2026-04-26T12:54:33.003Z</time></trkpt><trkpt lat="45.69669890869272" lon="8.293410515429683"><ele>336.0</ele><time>2026-04-26T12:54:34.003Z</time></trkpt><trkpt lat="45.696719757033655" lon="8.293231986806587"><ele>336.75</ele><time>2026-04-26T12:54:35.003Z</time></trkpt><trkpt lat="45.69674004753845" lon="8.293060082919851"><ele>337.5</ele><time>2026-04-26T12:54:36.003Z</time></trkpt><trkpt lat="45.69675865224649" lon="8.292888808344188"><ele>338.25</ele><time>2026-04-26T12:54:37.003Z</time></trkpt><trkpt lat="45.69677778331109" lon="8.29272163177801"><ele>339.0</ele><time>2026-04-26T12:54:38.003Z</time></trkpt><trkpt lat="45.69679765414721" lon="8.292553478701048"><ele>339.0</ele><time>2026-04-26T12:54:39.003Z</time></trkpt><trkpt lat="45.696818423709146" lon="8.292388823726082"><ele>339.0</ele><time>2026-04-26T12:54:40.003Z</time></trkpt><trkpt lat="45.696837683606184" lon="8.292216172133104"><ele>339.0</ele><time>2026-04-26T12:54:41.003Z</time></trkpt><trkpt lat="45.69685835114926" lon="8.292040524726115"><ele>339.0</ele><time>2026-04-26T12:54:42.003Z</time></trkpt><trkpt lat="45.696877818202076" lon="8.291866453361443"><ele>339.5</ele><time>2026-04-26T12:54:43.003Z</time></trkpt><trkpt lat="45.696896283204204" lon="8.291686790372408"><ele>340.0</ele><time>2026-04-26T12:54:44Z</time></trkpt><trkpt lat="45.69691726299587" lon="8.291503296265356"><ele>340.5</ele><time>2026-04-26T12:54:45Z</time></trkpt><trkpt lat="45.69693171735821" lon="8.291317977012186"><ele>341.0</ele><time>2026-04-26T12:54:46Z</time></trkpt><trkpt lat="45.696956678406764" lon="8.291139258980357"><ele>340.25</ele><time>2026-04-26T12:54:47Z</time></trkpt><trkpt lat="45.69697736217007" lon="8.290966007614404"><ele>339.5</ele><time>2026-04-26T12:54:48Z</time></trkpt><trkpt lat="45.69699448280588" lon="8.29080238070758"><ele>338.75</ele><time>2026-04-26T12:54:49Z</time></trkpt><trkpt lat="45.697016852428604" lon="8.29064033806057"><ele>338.0</ele><time>2026-04-26T12:54:50Z</time></trkpt><trkpt lat="45.69703843224658" lon="8.290487501013743"><ele>338.0</ele><time>2026-04-26T12:54:51Z</time></trkpt><trkpt lat="45.69705661916845" lon="8.290337761522915"><ele>338.0</ele><time>2026-04-26T12:54:52Z</time></trkpt><trkpt lat="45.69707114012313" lon="8.29017694299949"><ele>338.0</ele><time>2026-04-26T12:54:53Z</time></trkpt><trkpt lat="45.69709056081251" lon="8.290014608347587"><ele>338.0</ele><time>2026-04-26T12:54:54Z</time></trkpt><trkpt lat="45.69711152439907" lon="8.289854444372235"><ele>338.0</ele><time>2026-04-26T12:54:55Z</time></trkpt><trkpt lat="45.69712859846809" lon="8.289685045629028"><ele>338.25</ele><time>2026-04-26T12:54:56Z</time></trkpt><trkpt lat="45.69714169496986" lon="8.289510487746233"><ele>338.5</ele><time>2026-04-26T12:54:57Z</time></trkpt><trkpt lat="45.697154031368704" lon="8.289333320128527"><ele>338.75</ele><time>2026-04-26T12:54:58Z</time></trkpt><trkpt lat="45.69716794403109" lon="8.289157345203202"><ele>339.0</ele><time>2026-04-26T12:54:59Z</time></trkpt><trkpt lat="45.69717430443435" lon="8.288996955878458"><ele>339.0</ele><time>2026-04-26T12:55:00Z</time></trkpt><trkpt lat="45.69717746381881" lon="8.288867272423548"><ele>339.0</ele><time>2026-04-26T12:55:01Z</time></trkpt><trkpt lat="45.697178055391895" lon="8.288761362108678"><ele>339.0</ele><time>2026-04-26T12:55:02Z</time></trkpt><trkpt lat="45.69717447455859" lon="8.288588807818371"><ele>339.0</ele><time>2026-04-26T12:55:04Z</time></trkpt><trkpt lat="45.69715004077168" lon="8.28841712480529"><ele>339.0</ele><time>2026-04-26T12:55:06Z</time></trkpt><trkpt lat="45.697138554727175" lon="8.28830308875326"><ele>339.0</ele><time>2026-04-26T12:55:07Z</time></trkpt><trkpt lat="45.69713580978273" lon="8.288178623419824"><ele>339.0</ele><time>2026-04-26T12:55:08Z</time></trkpt><trkpt lat="45.697136845941884" lon="8.288039286863675"><ele>339.0</ele><time>2026-04-26T12:55:09Z</time></trkpt><trkpt lat="45.69714043314293" lon="8.287887963925396"><ele>339.0</ele><time>2026-04-26T12:55:10Z</time></trkpt><trkpt lat="45.69714622277398" lon="8.28773822202026"><ele>339.0</ele><time>2026-04-26T12:55:11Z</time></trkpt><trkpt lat="45.69715087518245" lon="8.287614331086928"><ele>339.0</ele><time>2026-04-26T12:55:12Z</time></trkpt><trkpt lat="45.69716214735778" lon="8.287504672334913"><ele>339.0</ele><time>2026-04-26T12:55:13Z</time></trkpt><trkpt lat="45.69718970495425" lon="8.287408847670685"><ele>339.0</ele><time>2026-04-26T12:55:14Z</time></trkpt><trkpt lat="45.697214317826855" lon="8.287317530553176"><ele>339.0</ele><time>2026-04-26T12:55:15.001Z</time></trkpt><trkpt lat="45.697250876909166" lon="8.287238568180511"><ele>339.0</ele><time>2026-04-26T12:55:16.001Z</time></trkpt><trkpt lat="45.69729461184221" lon="8.287161977342281"><ele>339.0</ele><time>2026-04-26T12:55:17.001Z</time></trkpt><trkpt lat="45.697388466955346" lon="8.287059935680025"><ele>339.2</ele><time>2026-04-26T12:55:19.001Z</time></trkpt><trkpt lat="45.69749692434145" lon="8.286968140979289"><ele>339.4</ele><time>2026-04-26T12:55:21.001Z</time></trkpt><trkpt lat="45.69756821630435" lon="8.286939283528147"><ele>339.6</ele><time>2026-04-26T12:55:22.001Z</time></trkpt><trkpt lat="45.69765342559996" lon="8.286926299137065"><ele>339.8</ele><time>2026-04-26T12:55:23.001Z</time></trkpt><trkpt lat="45.697743004458694" lon="8.286922978052145"><ele>340.0</ele><time>2026-04-26T12:55:24.001Z</time></trkpt><trkpt lat="45.697849799225786" lon="8.286942787449124"><ele>338.75</ele><time>2026-04-26T12:55:25.001Z</time></trkpt><trkpt lat="45.69795570795877" lon="8.286949775287605"><ele>337.5</ele><time>2026-04-26T12:55:26.001Z</time></trkpt><trkpt lat="45.698061591173484" lon="8.286958994689492"><ele>336.25</ele><time>2026-04-26T12:55:27.001Z</time></trkpt><trkpt lat="45.69817198935756" lon="8.286972279313334"><ele>335.0</ele><time>2026-04-26T12:55:28.001Z</time></trkpt><trkpt lat="45.69841294202914" lon="8.287005082998292"><ele>335.0</ele><time>2026-04-26T12:55:30.001Z</time></trkpt><trkpt lat="45.698553474556896" lon="8.287006361935582"><ele>335.0</ele><time>2026-04-26T12:55:31.001Z</time></trkpt><trkpt lat="45.69870483321548" lon="8.28701597622207"><ele>335.0</ele><time>2026-04-26T12:55:32.001Z</time></trkpt><trkpt lat="45.698908061822344" lon="8.287039584771431"><ele>335.5</ele><time>2026-04-26T12:55:33.001Z</time></trkpt><trkpt lat="45.69913535704348" lon="8.287067767074568"><ele>336.0</ele><time>2026-04-26T12:55:34.001Z</time></trkpt><trkpt lat="45.69937668535824" lon="8.287093363938377"><ele>337.0</ele><time>2026-04-26T12:55:35.001Z</time></trkpt><trkpt lat="45.699619175552535" lon="8.287111793635813"><ele>338.0</ele><time>2026-04-26T12:55:36.001Z</time></trkpt><trkpt lat="45.69983965836918" lon="8.287141382543059"><ele>338.0</ele><time>2026-04-26T12:55:37.001Z</time></trkpt><trkpt lat="45.700038436336825" lon="8.287180111499865"><ele>338.0</ele><time>2026-04-26T12:55:38.001Z</time></trkpt><trkpt lat="45.7002181925319" lon="8.287205939252193"><ele>338.0</ele><time>2026-04-26T12:55:39.001Z</time></trkpt><trkpt lat="45.70038119520245" lon="8.287225640688655"><ele>338.4</ele><time>2026-04-26T12:55:40.001Z</time></trkpt><trkpt lat="45.70051356476513" lon="8.287237016004475"><ele>338.79999999999995</ele><time>2026-04-26T12:55:41.001Z</time></trkpt><trkpt lat="45.700635208594555" lon="8.28724625670637"><ele>339.2</ele><time>2026-04-26T12:55:42.001Z</time></trkpt><trkpt lat="45.70073100911223" lon="8.287253664272434"><ele>339.6</ele><time>2026-04-26T12:55:43.001Z</time></trkpt><trkpt lat="45.70081720835666" lon="8.287259987505804"><ele>340.0</ele><time>2026-04-26T12:55:44.001Z</time></trkpt><trkpt lat="45.70089492882507" lon="8.287266865604614"><ele>339.0</ele><time>2026-04-26T12:55:45.001Z</time></trkpt><trkpt lat="45.701012038000876" lon="8.287296076668556"><ele>338.0</ele><time>2026-04-26T12:55:47.002Z</time></trkpt><trkpt lat="45.7011181539179" lon="8.287438402748235"><ele>337.0</ele><time>2026-04-26T12:55:49.002Z</time></trkpt><trkpt lat="45.70117801546169" lon="8.287580865287833"><ele>336.0</ele><time>2026-04-26T12:55:50.002Z</time></trkpt><trkpt lat="45.701220957000444" lon="8.287781769431056"><ele>340.6666666666667</ele><time>2026-04-26T12:55:51.002Z</time></trkpt><trkpt lat="45.70124590320249" lon="8.288026720979083"><ele>345.33333333333337</ele><time>2026-04-26T12:55:52.002Z</time></trkpt><trkpt lat="45.70127328608837" lon="8.2882850164594"><ele>350.0</ele><time>2026-04-26T12:55:53.002Z</time></trkpt><trkpt lat="45.70131381068356" lon="8.28852242312099"><ele>350.0</ele><time>2026-04-26T12:55:54.002Z</time></trkpt><trkpt lat="45.70139346208897" lon="8.28869621113942"><ele>350.0</ele><time>2026-04-26T12:55:55.002Z</time></trkpt><trkpt lat="45.70150344405292" lon="8.28879607093189"><ele>350.0</ele><time>2026-04-26T12:55:56.002Z</time></trkpt><trkpt lat="45.70162528182695" lon="8.28881946746623"><ele>350.0</ele><time>2026-04-26T12:55:57.002Z</time></trkpt><trkpt lat="45.7017350633863" lon="8.28882647728724"><ele>350.0</ele><time>2026-04-26T12:55:58.002Z</time></trkpt><trkpt lat="45.70186183476788" lon="8.288812582151092"><ele>350.0</ele><time>2026-04-26T12:55:59.002Z</time></trkpt><trkpt lat="45.701999797385206" lon="8.288773718616612"><ele>350.0</ele><time>2026-04-26T12:56:00.002Z</time></trkpt><trkpt lat="45.70213062273953" lon="8.288762184612816"><ele>350.0</ele><time>2026-04-26T12:56:01.002Z</time></trkpt><trkpt lat="45.70228463127302" lon="8.288706309087985"><ele>350.6666666666667</ele><time>2026-04-26T12:56:02.002Z</time></trkpt><trkpt lat="45.702477636614084" lon="8.288646619564057"><ele>351.3333333333333</ele><time>2026-04-26T12:56:03.002Z</time></trkpt><trkpt lat="45.702696971016486" lon="8.288586951766844"><ele>352.0</ele><time>2026-04-26T12:56:04.002Z</time></trkpt><trkpt lat="45.70291478644973" lon="8.288535319305103"><ele>350.66666666666663</ele><time>2026-04-26T12:56:05.002Z</time></trkpt><trkpt lat="45.70313153210108" lon="8.288495166753531"><ele>349.3333333333333</ele><time>2026-04-26T12:56:06.002Z</time></trkpt><trkpt lat="45.70334585198384" lon="8.28845714814398"><ele>348.0</ele><time>2026-04-26T12:56:07.002Z</time></trkpt><trkpt lat="45.70355110178728" lon="8.288411509544098"><ele>347.3333333333333</ele><time>2026-04-26T12:56:08.002Z</time></trkpt><trkpt lat="45.70373720098468" lon="8.288337372190997"><ele>346.66666666666663</ele><time>2026-04-26T12:56:09.002Z</time></trkpt><trkpt lat="45.70390020103562" lon="8.288248860353137"><ele>346.0</ele><time>2026-04-26T12:56:10.002Z</time></trkpt><trkpt lat="45.70402207569675" lon="8.288174945462593"><ele>346.0</ele><time>2026-04-26T12:56:11.002Z</time></trkpt><trkpt lat="45.704119295962045" lon="8.288131882489273"><ele>346.0</ele><time>2026-04-26T12:56:12.002Z</time></trkpt><trkpt lat="45.70421328733572" lon="8.288122069656135"><ele>346.0</ele><time>2026-04-26T12:56:13.002Z</time></trkpt><trkpt lat="45.704311717824254" lon="8.288125483071731"><ele>346.0</ele><time>2026-04-26T12:56:14.002Z</time></trkpt><trkpt lat="45.70441382804482" lon="8.28814588048213"><ele>346.0</ele><time>2026-04-26T12:56:15.002Z</time></trkpt><trkpt lat="45.70451717952373" lon="8.288162875200639"><ele>346.0</ele><time>2026-04-26T12:56:16.002Z</time></trkpt><trkpt lat="45.704617426545695" lon="8.288165610712229"><ele>346.0</ele><time>2026-04-26T12:56:17.002Z</time></trkpt><trkpt lat="45.70472086893152" lon="8.288150470535104"><ele>346.0</ele><time>2026-04-26T12:56:18.002Z</time></trkpt><trkpt lat="45.704835446255096" lon="8.288116597529584"><ele>346.0</ele><time>2026-04-26T12:56:19.002Z</time></trkpt><trkpt lat="45.70496671378588" lon="8.288080066250005"><ele>345.75</ele><time>2026-04-26T12:56:20.003Z</time></trkpt><trkpt lat="45.70510052991524" lon="8.288051689844192"><ele>345.5</ele><time>2026-04-26T12:56:21.003Z</time></trkpt><trkpt lat="45.70524909956336" lon="8.288019285783447"><ele>345.25</ele><time>2026-04-26T12:56:22.003Z</time></trkpt><trkpt lat="45.705403184601494" lon="8.287991246624339"><ele>345.0</ele><time>2026-04-26T12:56:23.003Z</time></trkpt><trkpt lat="45.70556237418144" lon="8.287956222289186"><ele>345.0</ele><time>2026-04-26T12:56:24.003Z</time></trkpt><trkpt lat="45.7057277492858" lon="8.287918382101388"><ele>345.0</ele><time>2026-04-26T12:56:25.003Z</time></trkpt><trkpt lat="45.70589702859412" lon="8.287872775932343"><ele>345.0</ele><time>2026-04-26T12:56:26.003Z</time></trkpt><trkpt lat="45.70606136355162" lon="8.287791569012368"><ele>343.6666666666667</ele><time>2026-04-26T12:56:27.003Z</time></trkpt><trkpt lat="45.706200575964026" lon="8.287644239338487"><ele>342.33333333333337</ele><time>2026-04-26T12:56:28.003Z</time></trkpt><trkpt lat="45.706327599746665" lon="8.287486418458005"><ele>341.0</ele><time>2026-04-26T12:56:29.003Z</time></trkpt><trkpt lat="45.706446790579065" lon="8.287304435274887"><ele>342.33333333333337</ele><time>2026-04-26T12:56:30.003Z</time></trkpt><trkpt lat="45.70655159612163" lon="8.2871157541645"><ele>343.6666666666667</ele><time>2026-04-26T12:56:31.003Z</time></trkpt><trkpt lat="45.70666219371273" lon="8.28692234558063"><ele>345.0</ele><time>2026-04-26T12:56:32.003Z</time></trkpt><trkpt lat="45.706775324135705" lon="8.286743428336443"><ele>345.0</ele><time>2026-04-26T12:56:33.003Z</time></trkpt><trkpt lat="45.70688485610553" lon="8.28656597062224"><ele>345.0</ele><time>2026-04-26T12:56:34.003Z</time></trkpt><trkpt lat="45.7069934927927" lon="8.286387788378338"><ele>345.0</ele><time>2026-04-26T12:56:35.003Z</time></trkpt><trkpt lat="45.707102598607605" lon="8.28620867337414"><ele>345.0</ele><time>2026-04-26T12:56:36.003Z</time></trkpt><trkpt lat="45.70721292016274" lon="8.286024956464978"><ele>345.0</ele><time>2026-04-26T12:56:37.003Z</time></trkpt><trkpt lat="45.70732514022319" lon="8.28584350246688"><ele>345.0</ele><time>2026-04-26T12:56:38.003Z</time></trkpt><trkpt lat="45.70743683917898" lon="8.28566148502918"><ele>345.6666666666667</ele><time>2026-04-26T12:56:39.003Z</time></trkpt><trkpt lat="45.70755038282265" lon="8.285472853202123"><ele>346.33333333333337</ele><time>2026-04-26T12:56:40.003Z</time></trkpt><trkpt lat="45.70766479917431" lon="8.285292148273884"><ele>347.0</ele><time>2026-04-26T12:56:41.003Z</time></trkpt><trkpt lat="45.70776932265258" lon="8.285124192246844"><ele>347.0</ele><time>2026-04-26T12:56:42.003Z</time></trkpt><trkpt lat="45.70786692119053" lon="8.284966926833714"><ele>347.0</ele><time>2026-04-26T12:56:43.003Z</time></trkpt><trkpt lat="45.707960402876004" lon="8.284819294336918"><ele>347.0</ele><time>2026-04-26T12:56:44.003Z</time></trkpt><trkpt lat="45.70804972301256" lon="8.284670652343012"><ele>347.0</ele><time>2026-04-26T12:56:45.003Z</time></trkpt><trkpt lat="45.708139757472594" lon="8.284521620875717"><ele>347.0</ele><time>2026-04-26T12:56:46.003Z</time></trkpt><trkpt lat="45.708230056520755" lon="8.284366394430306"><ele>347.0</ele><time>2026-04-26T12:56:47.003Z</time></trkpt><trkpt lat="45.708322224384126" lon="8.284217598124345"><ele>347.0</ele><time>2026-04-26T12:56:48.003Z</time></trkpt><trkpt lat="45.70841397294718" lon="8.284063968855861"><ele>347.0</ele><time>2026-04-26T12:56:49.003Z</time></trkpt><trkpt lat="45.70850877404711" lon="8.283912210723386"><ele>347.0</ele><time>2026-04-26T12:56:49.999Z</time></trkpt><trkpt lat="45.70860118661452" lon="8.28376920406108"><ele>347.0</ele><time>2026-04-26T12:56:50.999Z</time></trkpt><trkpt lat="45.70868350089357" lon="8.283637317930793"><ele>347.0</ele><time>2026-04-26T12:56:51.999Z</time></trkpt><trkpt lat="45.70876366805896" lon="8.283510444762454"><ele>347.0</ele><time>2026-04-26T12:56:52.999Z</time></trkpt><trkpt lat="45.70884093277169" lon="8.283383580842003"><ele>347.0</ele><time>2026-04-26T12:56:53.999Z</time></trkpt><trkpt lat="45.7089227558506" lon="8.283250400833474"><ele>347.0</ele><time>2026-04-26T12:56:54.999Z</time></trkpt><trkpt lat="45.70901088549082" lon="8.283113982568889"><ele>347.0</ele><time>2026-04-26T12:56:55.999Z</time></trkpt><trkpt lat="45.70910093047813" lon="8.28297027941594"><ele>347.0</ele><time>2026-04-26T12:56:56.999Z</time></trkpt><trkpt lat="45.70918603137314" lon="8.282822630615422"><ele>347.0</ele><time>2026-04-26T12:56:57.999Z</time></trkpt><trkpt lat="45.70927693065716" lon="8.282672605407384"><ele>347.0</ele><time>2026-04-26T12:56:58.999Z</time></trkpt><trkpt lat="45.709367914111496" lon="8.28252277797434"><ele>347.0</ele><time>2026-04-26T12:56:59.999Z</time></trkpt><trkpt lat="45.70946189565593" lon="8.282370390798597"><ele>347.0</ele><time>2026-04-26T12:57:00.999Z</time></trkpt><trkpt lat="45.709550795491396" lon="8.282233083529599"><ele>347.75</ele><time>2026-04-26T12:57:01.999Z</time></trkpt><trkpt lat="45.70963344563077" lon="8.282105531313638"><ele>348.5</ele><time>2026-04-26T12:57:02.999Z</time></trkpt><trkpt lat="45.709711010075225" lon="8.282001627057083"><ele>349.25</ele><time>2026-04-26T12:57:03.999Z</time></trkpt><trkpt lat="45.70978476722632" lon="8.281901352561523"><ele>350.0</ele><time>2026-04-26T12:57:05Z</time></trkpt><trkpt lat="45.70983607048826" lon="8.281743403111294"><ele>350.0</ele><time>2026-04-26T12:57:06Z</time></trkpt><trkpt lat="45.709909792281834" lon="8.281590539664272"><ele>350.0</ele><time>2026-04-26T12:57:07Z</time></trkpt><trkpt lat="45.70999601495639" lon="8.281461581152591"><ele>350.0</ele><time>2026-04-26T12:57:08Z</time></trkpt><trkpt lat="45.710083094084695" lon="8.28132169751581"><ele>350.0</ele><time>2026-04-26T12:57:09Z</time></trkpt><trkpt lat="45.71016836241753" lon="8.281174502060775"><ele>350.0</ele><time>2026-04-26T12:57:10Z</time></trkpt><trkpt lat="45.71025436906699" lon="8.281025890538501"><ele>350.0</ele><time>2026-04-26T12:57:11Z</time></trkpt><trkpt lat="45.71033895531019" lon="8.280874366413128"><ele>350.0</ele><time>2026-04-26T12:57:12Z</time></trkpt><trkpt lat="45.71042656715198" lon="8.280725772098034"><ele>350.0</ele><time>2026-04-26T12:57:13Z</time></trkpt><trkpt lat="45.71051640375585" lon="8.2805860060741"><ele>350.0</ele><time>2026-04-26T12:57:14Z</time></trkpt><trkpt lat="45.71060241891096" lon="8.280444678617659"><ele>350.0</ele><time>2026-04-26T12:57:15Z</time></trkpt><trkpt lat="45.71069067993061" lon="8.280298001568704"><ele>350.0</ele><time>2026-04-26T12:57:16Z</time></trkpt><trkpt lat="45.71078355470347" lon="8.280152084873947"><ele>350.0</ele><time>2026-04-26T12:57:17Z</time></trkpt><trkpt lat="45.71087296158615" lon="8.280002025772482"><ele>350.0</ele><time>2026-04-26T12:57:18Z</time></trkpt><trkpt lat="45.71096225301234" lon="8.279850062859238"><ele>350.0</ele><time>2026-04-26T12:57:19Z</time></trkpt><trkpt lat="45.71104861211619" lon="8.2797152198314"><ele>350.0</ele><time>2026-04-26T12:57:20Z</time></trkpt><trkpt lat="45.711129555590794" lon="8.279585601866449"><ele>350.0</ele><time>2026-04-26T12:57:21Z</time></trkpt><trkpt lat="45.71120472595699" lon="8.279465100118196"><ele>350.0</ele><time>2026-04-26T12:57:22Z</time></trkpt><trkpt lat="45.71127907670434" lon="8.279347452178671"><ele>350.0</ele><time>2026-04-26T12:57:23Z</time></trkpt><trkpt lat="45.71135610856971" lon="8.279222995995996"><ele>350.0</ele><time>2026-04-26T12:57:24Z</time></trkpt><trkpt lat="45.71143336882118" lon="8.279093107758586"><ele>350.0</ele><time>2026-04-26T12:57:25Z</time></trkpt><trkpt lat="45.71151401521519" lon="8.278959984358465"><ele>350.4</ele><time>2026-04-26T12:57:26.001Z</time></trkpt><trkpt lat="45.71159019028563" lon="8.278830853373046"><ele>350.8</ele><time>2026-04-26T12:57:27.001Z</time></trkpt><trkpt lat="45.71165976815811" lon="8.278720801712794"><ele>351.20000000000005</ele><time>2026-04-26T12:57:28.001Z</time></trkpt><trkpt lat="45.71172585674958" lon="8.27861215247628"><ele>351.6</ele><time>2026-04-26T12:57:29.001Z</time></trkpt><trkpt lat="45.71178261924106" lon="8.27850524113462"><ele>352.0</ele><time>2026-04-26T12:57:30.001Z</time></trkpt><trkpt lat="45.71182674840258" lon="8.278403952591411"><ele>352.0</ele><time>2026-04-26T12:57:31.001Z</time></trkpt><trkpt lat="45.7118662232433" lon="8.278294362155275"><ele>352.0</ele><time>2026-04-26T12:57:32.001Z</time></trkpt><trkpt lat="45.71190281191511" lon="8.278169606624832"><ele>352.0</ele><time>2026-04-26T12:57:33.001Z</time></trkpt><trkpt lat="45.71195771970338" lon="8.27804641202959"><ele>352.0</ele><time>2026-04-26T12:57:34.001Z</time></trkpt><trkpt lat="45.71205695436977" lon="8.277951106717948"><ele>352.0</ele><time>2026-04-26T12:57:35.001Z</time></trkpt><trkpt lat="45.71215874693962" lon="8.277986388538926"><ele>349.8</ele><time>2026-04-26T12:57:36.001Z</time></trkpt><trkpt lat="45.712261574003435" lon="8.277971824504121"><ele>347.6</ele><time>2026-04-26T12:57:37.001Z</time></trkpt><trkpt lat="45.712372576695785" lon="8.27794493640368"><ele>345.40000000000003</ele><time>2026-04-26T12:57:38.001Z</time></trkpt><trkpt lat="45.71248121412394" lon="8.277917926011183"><ele>343.20000000000005</ele><time>2026-04-26T12:57:39.001Z</time></trkpt><trkpt lat="45.71259025732215" lon="8.277890521537458"><ele>341.0</ele><time>2026-04-26T12:57:40.001Z</time></trkpt><trkpt lat="45.71270617089842" lon="8.27786194939842"><ele>343.0</ele><time>2026-04-26T12:57:41.001Z</time></trkpt><trkpt lat="45.71282238574475" lon="8.277836025434743"><ele>345.0</ele><time>2026-04-26T12:57:42.001Z</time></trkpt><trkpt lat="45.712931832012934" lon="8.277818719249264"><ele>347.0</ele><time>2026-04-26T12:57:43.001Z</time></trkpt><trkpt lat="45.71303933090096" lon="8.277811301739781"><ele>349.0</ele><time>2026-04-26T12:57:44.001Z</time></trkpt><trkpt lat="45.71313842764435" lon="8.277793945532487"><ele>351.0</ele><time>2026-04-26T12:57:45.001Z</time></trkpt><trkpt lat="45.71323041386446" lon="8.277767949195061"><ele>351.0</ele><time>2026-04-26T12:57:46.001Z</time></trkpt><trkpt lat="45.713315811875944" lon="8.277741680496142"><ele>351.0</ele><time>2026-04-26T12:57:47.001Z</time></trkpt><trkpt lat="45.713402079601394" lon="8.277718375054048"><ele>351.0</ele><time>2026-04-26T12:57:48.001Z</time></trkpt><trkpt lat="45.71347975736359" lon="8.277705485403452"><ele>351.0</ele><time>2026-04-26T12:57:49.001Z</time></trkpt><trkpt lat="45.71354867957296" lon="8.277712394642304"><ele>351.0</ele><time>2026-04-26T12:57:51.001Z</time></trkpt><trkpt lat="45.71362485796978" lon="8.277755332172003"><ele>351.0</ele><time>2026-04-26T12:57:53.001Z</time></trkpt><trkpt lat="45.71372749160927" lon="8.277807730260657"><ele>351.3333333333333</ele><time>2026-04-26T12:57:55.001Z</time></trkpt><trkpt lat="45.71380841724802" lon="8.277870381653623"><ele>351.6666666666667</ele><time>2026-04-26T12:57:56.002Z</time></trkpt><trkpt lat="45.713884367674126" lon="8.27793658750686"><ele>352.0</ele><time>2026-04-26T12:57:57.002Z</time></trkpt><trkpt lat="45.71396309350645" lon="8.278003179867667"><ele>352.33333333333337</ele><time>2026-04-26T12:57:58.002Z</time></trkpt><trkpt lat="45.71404011895759" lon="8.278067658309217"><ele>352.6666666666667</ele><time>2026-04-26T12:57:59.002Z</time></trkpt><trkpt lat="45.714116875171186" lon="8.278127251529138"><ele>353.0</ele><time>2026-04-26T12:58:00.002Z</time></trkpt><trkpt lat="45.71419170198716" lon="8.278172982402259"><ele>353.0</ele><time>2026-04-26T12:58:01.002Z</time></trkpt><trkpt lat="45.7142607869737" lon="8.2782255487641"><ele>353.0</ele><time>2026-04-26T12:58:02.002Z</time></trkpt><trkpt lat="45.71434374751314" lon="8.278271899978384"><ele>353.0</ele><time>2026-04-26T12:58:03.002Z</time></trkpt><trkpt lat="45.71443021838736" lon="8.278309405126778"><ele>353.0</ele><time>2026-04-26T12:58:04.002Z</time></trkpt><trkpt lat="45.7145112245759" lon="8.278350361757369"><ele>353.0</ele><time>2026-04-26T12:58:05.002Z</time></trkpt><trkpt lat="45.714586259220326" lon="8.278390196348587"><ele>353.0</ele><time>2026-04-26T12:58:06.002Z</time></trkpt><trkpt lat="45.71465092814717" lon="8.27842116203122"><ele>354.0</ele><time>2026-04-26T12:58:07.002Z</time></trkpt><trkpt lat="45.71473093762454" lon="8.278429593103569"><ele>355.0</ele><time>2026-04-26T12:58:08.002Z</time></trkpt><trkpt lat="45.71484572689759" lon="8.278511970329777"><ele>356.0</ele><time>2026-04-26T12:58:10.002Z</time></trkpt><trkpt lat="45.71490788300269" lon="8.2785843942891"><ele>357.0</ele><time>2026-04-26T12:58:11.002Z</time></trkpt><trkpt lat="45.71497973665837" lon="8.2786422613409"><ele>358.0</ele><time>2026-04-26T12:58:12.002Z</time></trkpt><trkpt lat="45.71505107181106" lon="8.278693139248704"><ele>358.0</ele><time>2026-04-26T12:58:13.002Z</time></trkpt><trkpt lat="45.715133731682606" lon="8.278725532572926"><ele>358.0</ele><time>2026-04-26T12:58:14.002Z</time></trkpt><trkpt lat="45.715237510072505" lon="8.278793221687001"><ele>358.0</ele><time>2026-04-26T12:58:15.002Z</time></trkpt><trkpt lat="45.715320578298865" lon="8.278868224285304"><ele>358.0</ele><time>2026-04-26T12:58:16.002Z</time></trkpt><trkpt lat="45.715424307758674" lon="8.27893820742835"><ele>358.0</ele><time>2026-04-26T12:58:17.002Z</time></trkpt><trkpt lat="45.71552855742267" lon="8.279003355666893"><ele>357.4</ele><time>2026-04-26T12:58:18.002Z</time></trkpt><trkpt lat="45.71562719688431" lon="8.279062072265395"><ele>356.79999999999995</ele><time>2026-04-26T12:58:19.002Z</time></trkpt><trkpt lat="45.71572918190462" lon="8.279127789425784"><ele>356.2</ele><time>2026-04-26T12:58:20.002Z</time></trkpt><trkpt lat="45.715830170263224" lon="8.279197582267257"><ele>355.6</ele><time>2026-04-26T12:58:21.002Z</time></trkpt><trkpt lat="45.71593394138848" lon="8.279265135539394"><ele>355.0</ele><time>2026-04-26T12:58:22.002Z</time></trkpt><trkpt lat="45.71603444739103" lon="8.279339419556631"><ele>355.25</ele><time>2026-04-26T12:58:23.002Z</time></trkpt><trkpt lat="45.716128412462055" lon="8.279402617900411"><ele>355.5</ele><time>2026-04-26T12:58:24.002Z</time></trkpt><trkpt lat="45.71622762146824" lon="8.279464280282102"><ele>355.75</ele><time>2026-04-26T12:58:25.002Z</time></trkpt><trkpt lat="45.71638649484344" lon="8.279594361797475"><ele>356.0</ele><time>2026-04-26T12:58:27.002Z</time></trkpt><trkpt lat="45.71649714964992" lon="8.279673903409792"><ele>356.0</ele><time>2026-04-26T12:58:29.003Z</time></trkpt><trkpt lat="45.71656475722004" lon="8.279530646916959"><ele>356.0</ele><time>2026-04-26T12:58:31.003Z</time></trkpt><trkpt lat="45.716574711221185" lon="8.279384630897352"><ele>356.0</ele><time>2026-04-26T12:58:32.003Z</time></trkpt><trkpt lat="45.71660921766599" lon="8.27923561270953"><ele>356.0</ele><time>2026-04-26T12:58:33.003Z</time></trkpt><trkpt lat="45.71663965803675" lon="8.2790885283618"><ele>356.0</ele><time>2026-04-26T12:58:34.003Z</time></trkpt><trkpt lat="45.71665914773638" lon="8.278925340718589"><ele>356.5</ele><time>2026-04-26T12:58:35.003Z</time></trkpt><trkpt lat="45.71667627171549" lon="8.278751427118607"><ele>357.0</ele><time>2026-04-26T12:58:36.003Z</time></trkpt><trkpt lat="45.7167034146289" lon="8.278574863631377"><ele>357.5</ele><time>2026-04-26T12:58:37.003Z</time></trkpt><trkpt lat="45.71672401483154" lon="8.27839137600909"><ele>358.0</ele><time>2026-04-26T12:58:38.003Z</time></trkpt><trkpt lat="45.71676058585465" lon="8.278207589517342"><ele>357.59999999999997</ele><time>2026-04-26T12:58:39.003Z</time></trkpt><trkpt lat="45.716785997998464" lon="8.278028053235102"><ele>357.2</ele><time>2026-04-26T12:58:40.003Z</time></trkpt><trkpt lat="45.716801331692906" lon="8.27786311745011"><ele>356.8</ele><time>2026-04-26T12:58:41.003Z</time></trkpt><trkpt lat="45.7168243827795" lon="8.277717223775204"><ele>356.4</ele><time>2026-04-26T12:58:42.003Z</time></trkpt><trkpt lat="45.71683492549312" lon="8.277619622532828"><ele>356.0</ele><time>2026-04-26T12:58:43.003Z</time></trkpt><trkpt lat="45.716832317156545" lon="8.27747759962993"><ele>356.0</ele><time>2026-04-26T12:58:45.003Z</time></trkpt><trkpt lat="45.716751526270826" lon="8.277360037970872"><ele>356.0</ele><time>2026-04-26T12:58:47.003Z</time></trkpt><trkpt lat="45.716685335793514" lon="8.277339129935429"><ele>356.0</ele><time>2026-04-26T12:58:48.003Z</time></trkpt><trkpt lat="45.71661464482697" lon="8.277320355985587"><ele>356.0</ele><time>2026-04-26T12:58:49.003Z</time></trkpt><trkpt lat="45.716547891920456" lon="8.277290298977407"><ele>356.0</ele><time>2026-04-26T12:58:50.003Z</time></trkpt><trkpt lat="45.71642508747337" lon="8.27721560378489"><ele>356.20000000000005</ele><time>2026-04-26T12:58:52.003Z</time></trkpt><trkpt lat="45.71634615818851" lon="8.277097017694052"><ele>356.40000000000003</ele><time>2026-04-26T12:58:54.003Z</time></trkpt><trkpt lat="45.71631943509252" lon="8.276918477893725"><ele>356.6</ele><time>2026-04-26T12:58:55.999Z</time></trkpt><trkpt lat="45.71631837529782" lon="8.276729323012658"><ele>356.8</ele><time>2026-04-26T12:58:57.999Z</time></trkpt><trkpt lat="45.716314915941666" lon="8.276632830766932"><ele>357.0</ele><time>2026-04-26T12:58:58.999Z</time></trkpt><trkpt lat="45.716316586433344" lon="8.276449452507265"><ele>357.1666666666667</ele><time>2026-04-26T12:59:00.999Z</time></trkpt><trkpt lat="45.71632420082811" lon="8.276347412452994"><ele>357.3333333333333</ele><time>2026-04-26T12:59:01.999Z</time></trkpt><trkpt lat="45.71633216596121" lon="8.276237064264487"><ele>357.5</ele><time>2026-04-26T12:59:02.999Z</time></trkpt><trkpt lat="45.71634951220595" lon="8.27612535450342"><ele>357.66666666666663</ele><time>2026-04-26T12:59:03.999Z</time></trkpt><trkpt lat="45.71636654966077" lon="8.27601462033597"><ele>357.8333333333333</ele><time>2026-04-26T12:59:04.999Z</time></trkpt><trkpt lat="45.71639000568241" lon="8.2759204728005"><ele>358.0</ele><time>2026-04-26T12:59:05.999Z</time></trkpt><trkpt lat="45.716415489167595" lon="8.275798597029462"><ele>358.0</ele><time>2026-04-26T12:59:07.999Z</time></trkpt><trkpt lat="45.71652092249325" lon="8.275757620392522"><ele>358.0</ele><time>2026-04-26T12:59:10.999Z</time></trkpt><trkpt lat="45.71659462689183" lon="8.275797472381715"><ele>358.0</ele><time>2026-04-26T12:59:11.999Z</time></trkpt><trkpt lat="45.71665912417386" lon="8.275859398309635"><ele>358.0</ele><time>2026-04-26T12:59:12.999Z</time></trkpt><trkpt lat="45.716795362949576" lon="8.275909025176711"><ele>358.0</ele><time>2026-04-26T12:59:15Z</time></trkpt><trkpt lat="45.71687171040872" lon="8.275869349657835"><ele>358.4</ele><time>2026-04-26T12:59:16Z</time></trkpt><trkpt lat="45.716954475110654" lon="8.275841133940014"><ele>358.79999999999995</ele><time>2026-04-26T12:59:17Z</time></trkpt><trkpt lat="45.71706780008718" lon="8.275831972701857"><ele>359.2</ele><time>2026-04-26T12:59:18Z</time></trkpt><trkpt lat="45.71718588422713" lon="8.27581843377064"><ele>359.6</ele><time>2026-04-26T12:59:20Z</time></trkpt><trkpt lat="45.71730044707532" lon="8.275785157697756"><ele>360.0</ele><time>2026-04-26T12:59:22Z</time></trkpt><trkpt lat="45.71736818282895" lon="8.275776775101189"><ele>360.0</ele><time>2026-04-26T12:59:23Z</time></trkpt><trkpt lat="45.71743986491049" lon="8.275752134475788"><ele>360.0</ele><time>2026-04-26T12:59:24Z</time></trkpt><trkpt lat="45.71750016096088" lon="8.27569288165178"><ele>360.0</ele><time>2026-04-26T12:59:25Z</time></trkpt><trkpt lat="45.71755906141677" lon="8.27564646995502"><ele>360.0</ele><time>2026-04-26T12:59:26Z</time></trkpt><trkpt lat="45.71762080583941" lon="8.2755934375454"><ele>360.0</ele><time>2026-04-26T12:59:27Z</time></trkpt><trkpt lat="45.71769759624679" lon="8.275545627863533"><ele>360.0</ele><time>2026-04-26T12:59:28Z</time></trkpt><trkpt lat="45.717749492960394" lon="8.275481116178964"><ele>360.0</ele><time>2026-04-26T12:59:29Z</time></trkpt><trkpt lat="45.71782849465465" lon="8.275383389106953"><ele>360.6</ele><time>2026-04-26T12:59:31Z</time></trkpt><trkpt lat="45.71783813507231" lon="8.275290676577724"><ele>361.2</ele><time>2026-04-26T12:59:33Z</time></trkpt><trkpt lat="45.717935703947" lon="8.275414706172354"><ele>361.79999999999995</ele><time>2026-04-26T12:59:37.001Z</time></trkpt><trkpt lat="45.718090426892346" lon="8.275441181434989"><ele>362.4</ele><time>2026-04-26T12:59:39.001Z</time></trkpt><trkpt lat="45.71813058618024" lon="8.275367463847438"><ele>363.0</ele><time>2026-04-26T12:59:43.001Z</time></trkpt><trkpt lat="45.71805288126686" lon="8.275401486529802"><ele>363.0</ele><time>2026-04-26T12:59:49.001Z</time></trkpt><trkpt lat="45.71796543429406" lon="8.275368504195693"><ele>363.0</ele><time>2026-04-26T12:59:52.001Z</time></trkpt><trkpt lat="45.717968046949416" lon="8.27527482136428"><ele>363.0</ele><time>2026-04-26T12:59:54.001Z</time></trkpt><trkpt lat="45.718005153470614" lon="8.275171640458888"><ele>363.0</ele><time>2026-04-26T12:59:57.001Z</time></trkpt><trkpt lat="45.71803749730229" lon="8.275082079647728"><ele>363.0</ele><time>2026-04-26T12:59:59.001Z</time></trkpt><trkpt lat="45.71809340434594" lon="8.275013697656371"><ele>363.0</ele><time>2026-04-26T13:00:01.001Z</time></trkpt><trkpt lat="45.71815211002579" lon="8.274919147182194"><ele>363.0</ele><time>2026-04-26T13:00:04.002Z</time></trkpt><trkpt lat="45.71818685929412" lon="8.274842233789503"><ele>363.0</ele><time>2026-04-26T13:00:06.002Z</time></trkpt><trkpt lat="45.71827412656035" lon="8.274692420661506"><ele>363.0</ele><time>2026-04-26T13:00:08.002Z</time></trkpt><trkpt lat="45.71834023120366" lon="8.274635032017082"><ele>363.0</ele><time>2026-04-26T13:00:10.002Z</time></trkpt><trkpt lat="45.718420280632714" lon="8.274739002595426"><ele>363.0</ele><time>2026-04-26T13:00:12.002Z</time></trkpt><trkpt lat="45.71844281800681" lon="8.274842652820729"><ele>363.0</ele><time>2026-04-26T13:00:13.002Z</time></trkpt><trkpt lat="45.71845992844562" lon="8.274992732230665"><ele>363.0</ele><time>2026-04-26T13:00:14.002Z</time></trkpt><trkpt lat="45.718483761837504" lon="8.275135723733586"><ele>363.0</ele><time>2026-04-26T13:00:15.002Z</time></trkpt><trkpt lat="45.71850967605936" lon="8.275276668517794"><ele>363.0</ele><time>2026-04-26T13:00:16.002Z</time></trkpt><trkpt lat="45.71852479923847" lon="8.275411744315237"><ele>363.0</ele><time>2026-04-26T13:00:17.002Z</time></trkpt><trkpt lat="45.71853644304533" lon="8.27554539671062"><ele>363.0</ele><time>2026-04-26T13:00:18.002Z</time></trkpt><trkpt lat="45.7185590447523" lon="8.275656173916621"><ele>363.0</ele><time>2026-04-26T13:00:19.002Z</time></trkpt><trkpt lat="45.71857373269217" lon="8.275788670177134"><ele>363.0</ele><time>2026-04-26T13:00:20.002Z</time></trkpt><trkpt lat="45.71858392247807" lon="8.275931339567547"><ele>363.0</ele><time>2026-04-26T13:00:21.002Z</time></trkpt><trkpt lat="45.71858049002458" lon="8.276079617059569"><ele>363.0</ele><time>2026-04-26T13:00:22.002Z</time></trkpt><trkpt lat="45.71858021101146" lon="8.27622777889475"><ele>363.59999999999997</ele><time>2026-04-26T13:00:23.002Z</time></trkpt><trkpt lat="45.71857225605775" lon="8.276369662420427"><ele>364.2</ele><time>2026-04-26T13:00:24.002Z</time></trkpt><trkpt lat="45.71855301498963" lon="8.276511632402974"><ele>364.8</ele><time>2026-04-26T13:00:25.002Z</time></trkpt><trkpt lat="45.71852964463539" lon="8.276658974114195"><ele>365.4</ele><time>2026-04-26T13:00:26.002Z</time></trkpt><trkpt lat="45.71851346198813" lon="8.276815398589548"><ele>366.0</ele><time>2026-04-26T13:00:27.002Z</time></trkpt><trkpt lat="45.718495033665576" lon="8.27697707966731"><ele>366.0</ele><time>2026-04-26T13:00:28.002Z</time></trkpt><trkpt lat="45.71847988735191" lon="8.277139822790943"><ele>366.0</ele><time>2026-04-26T13:00:29.002Z</time></trkpt><trkpt lat="45.718470923401334" lon="8.277320926289457"><ele>366.0</ele><time>2026-04-26T13:00:30.002Z</time></trkpt><trkpt lat="45.71845876383126" lon="8.27749777283043"><ele>366.0</ele><time>2026-04-26T13:00:31.002Z</time></trkpt><trkpt lat="45.71846099088438" lon="8.277672331959256"><ele>366.5</ele><time>2026-04-26T13:00:32.002Z</time></trkpt><trkpt lat="45.71847016938841" lon="8.277850379751017"><ele>367.0</ele><time>2026-04-26T13:00:33.002Z</time></trkpt><trkpt lat="45.718464863083746" lon="8.278009289626022"><ele>367.5</ele><time>2026-04-26T13:00:34.002Z</time></trkpt><trkpt lat="45.71847250576013" lon="8.278175450578455"><ele>368.0</ele><time>2026-04-26T13:00:35.002Z</time></trkpt><trkpt lat="45.71848314465178" lon="8.278342026378343"><ele>368.0</ele><time>2026-04-26T13:00:36.003Z</time></trkpt><trkpt lat="45.71847599110524" lon="8.27851894520189"><ele>368.0</ele><time>2026-04-26T13:00:37.003Z</time></trkpt><trkpt lat="45.718457335917726" lon="8.278702882981058"><ele>368.0</ele><time>2026-04-26T13:00:38.003Z</time></trkpt><trkpt lat="45.71843631025427" lon="8.27888732722348"><ele>368.0</ele><time>2026-04-26T13:00:39.003Z</time></trkpt><trkpt lat="45.71840740529057" lon="8.279061056341193"><ele>367.6666666666667</ele><time>2026-04-26T13:00:40.003Z</time></trkpt><trkpt lat="45.71836241476695" lon="8.279218262854656"><ele>367.33333333333337</ele><time>2026-04-26T13:00:41.003Z</time></trkpt><trkpt lat="45.718301643307164" lon="8.279333917475768"><ele>367.0</ele><time>2026-04-26T13:00:42.003Z</time></trkpt><trkpt lat="45.71826037683513" lon="8.27942561508201"><ele>366.6666666666667</ele><time>2026-04-26T13:00:43.003Z</time></trkpt><trkpt lat="45.718228737125834" lon="8.27950738533728"><ele>366.3333333333333</ele><time>2026-04-26T13:00:44.003Z</time></trkpt><trkpt lat="45.71817075343827" lon="8.27958616229871"><ele>366.0</ele><time>2026-04-26T13:00:46.003Z</time></trkpt><trkpt lat="45.718116706873225" lon="8.27972253308533"><ele>365.6</ele><time>2026-04-26T13:00:50.003Z</time></trkpt><trkpt lat="45.71814165042462" lon="8.279857684269304"><ele>365.20000000000005</ele><time>2026-04-26T13:00:51.003Z</time></trkpt><trkpt lat="45.718165298610245" lon="8.279997543159748"><ele>364.79999999999995</ele><time>2026-04-26T13:00:52.003Z</time></trkpt><trkpt lat="45.718184466153986" lon="8.280127946714485"><ele>364.4</ele><time>2026-04-26T13:00:53.003Z</time></trkpt><trkpt lat="45.71817754157044" lon="8.280262678988159"><ele>364.0</ele><time>2026-04-26T13:00:54.003Z</time></trkpt><trkpt lat="45.71813460948821" lon="8.280392038779015"><ele>364.0</ele><time>2026-04-26T13:00:55.003Z</time></trkpt><trkpt lat="45.7180779641455" lon="8.280515369453113"><ele>364.0</ele><time>2026-04-26T13:00:56.003Z</time></trkpt><trkpt lat="45.71803784688525" lon="8.280635664931049"><ele>364.0</ele><time>2026-04-26T13:00:57.003Z</time></trkpt><trkpt lat="45.718017782824695" lon="8.280768006817004"><ele>364.0</ele><time>2026-04-26T13:00:58.003Z</time></trkpt><trkpt lat="45.718004696389634" lon="8.28089243961274"><ele>364.0</ele><time>2026-04-26T13:00:59.003Z</time></trkpt><trkpt lat="45.717991146984666" lon="8.2810136262712"><ele>364.16666666666663</ele><time>2026-04-26T13:01:00.003Z</time></trkpt><trkpt lat="45.71799173662939" lon="8.281152822559285"><ele>364.3333333333333</ele><time>2026-04-26T13:01:01.003Z</time></trkpt><trkpt lat="45.717993037915036" lon="8.28130143090136"><ele>364.5</ele><time>2026-04-26T13:01:02.999Z</time></trkpt><trkpt lat="45.717997752390396" lon="8.281394245159156"><ele>364.6666666666667</ele><time>2026-04-26T13:01:03.999Z</time></trkpt><trkpt lat="45.71799596612722" lon="8.281489160720222"><ele>364.83333333333337</ele><time>2026-04-26T13:01:05.999Z</time></trkpt><trkpt lat="45.717981739964046" lon="8.281601914936706"><ele>365.0</ele><time>2026-04-26T13:01:07.999Z</time></trkpt><trkpt lat="45.71796722145895" lon="8.281692997465385"><ele>365.0</ele><time>2026-04-26T13:01:08.999Z</time></trkpt><trkpt lat="45.71794991767806" lon="8.281793813411637"><ele>365.0</ele><time>2026-04-26T13:01:09.999Z</time></trkpt><trkpt lat="45.71792556553669" lon="8.281905146054479"><ele>365.0</ele><time>2026-04-26T13:01:10.999Z</time></trkpt><trkpt lat="45.71790038243396" lon="8.282010738623338"><ele>365.0</ele><time>2026-04-26T13:01:11.999Z</time></trkpt><trkpt lat="45.717880684513574" lon="8.282107223680322"><ele>365.0</ele><time>2026-04-26T13:01:12.999Z</time></trkpt><trkpt lat="45.71787690069865" lon="8.282213225275127"><ele>365.0</ele><time>2026-04-26T13:01:13.999Z</time></trkpt><trkpt lat="45.717903903991306" lon="8.282320908933023"><ele>365.2</ele><time>2026-04-26T13:01:14.999Z</time></trkpt><trkpt lat="45.71795904817778" lon="8.282425536459307"><ele>365.4</ele><time>2026-04-26T13:01:16Z</time></trkpt><trkpt lat="45.71803233992711" lon="8.282515552766439"><ele>365.6</ele><time>2026-04-26T13:01:17Z</time></trkpt><trkpt lat="45.71811344846047" lon="8.282598394663015"><ele>365.8</ele><time>2026-04-26T13:01:18Z</time></trkpt><trkpt lat="45.718190177577064" lon="8.282694225335375"><ele>366.0</ele><time>2026-04-26T13:01:19Z</time></trkpt><trkpt lat="45.71826586247106" lon="8.282798044448068"><ele>366.0</ele><time>2026-04-26T13:01:20Z</time></trkpt><trkpt lat="45.718348188316455" lon="8.28289931684684"><ele>366.0</ele><time>2026-04-26T13:01:21Z</time></trkpt><trkpt lat="45.71842632426286" lon="8.283014432683743"><ele>366.0</ele><time>2026-04-26T13:01:22Z</time></trkpt><trkpt lat="45.71849664019922" lon="8.28319441176515"><ele>366.0</ele><time>2026-04-26T13:01:23Z</time></trkpt><trkpt lat="45.71853277774988" lon="8.28338399857337"><ele>366.20000000000005</ele><time>2026-04-26T13:01:24Z</time></trkpt><trkpt lat="45.71852537986396" lon="8.283527391166427"><ele>366.40000000000003</ele><time>2026-04-26T13:01:25Z</time></trkpt><trkpt lat="45.718515047787356" lon="8.283654391296574"><ele>366.6</ele><time>2026-04-26T13:01:26Z</time></trkpt><trkpt lat="45.718486698326416" lon="8.283781797167286"><ele>366.8</ele><time>2026-04-26T13:01:27Z</time></trkpt><trkpt lat="45.71842486194996" lon="8.283914209073025"><ele>367.0</ele><time>2026-04-26T13:01:28Z</time></trkpt><trkpt lat="45.7183363157166" lon="8.284032881806146"><ele>367.75</ele><time>2026-04-26T13:01:29Z</time></trkpt><trkpt lat="45.718226999851794" lon="8.284133075170653"><ele>368.5</ele><time>2026-04-26T13:01:30Z</time></trkpt><trkpt lat="45.71810185278262" lon="8.28421488280458"><ele>369.25</ele><time>2026-04-26T13:01:31Z</time></trkpt><trkpt lat="45.717967788654676" lon="8.284289587921425"><ele>370.0</ele><time>2026-04-26T13:01:32Z</time></trkpt><trkpt lat="45.71782503196262" lon="8.284378823974501"><ele>368.66666666666663</ele><time>2026-04-26T13:01:33Z</time></trkpt><trkpt lat="45.717680648021314" lon="8.284479579162943"><ele>367.3333333333333</ele><time>2026-04-26T13:01:34Z</time></trkpt><trkpt lat="45.717542202595624" lon="8.284602672915273"><ele>366.0</ele><time>2026-04-26T13:01:35Z</time></trkpt><trkpt lat="45.717414984387844" lon="8.28476729573388"><ele>366.0</ele><time>2026-04-26T13:01:36Z</time></trkpt><trkpt lat="45.717310459736694" lon="8.284955181255109"><ele>366.0</ele><time>2026-04-26T13:01:37.001Z</time></trkpt><trkpt lat="45.7172013766422" lon="8.28514335354025"><ele>366.0</ele><time>2026-04-26T13:01:38.001Z</time></trkpt><trkpt lat="45.71709284979323" lon="8.285317844547897"><ele>366.0</ele><time>2026-04-26T13:01:39.001Z</time></trkpt><trkpt lat="45.716989116183825" lon="8.285490891341729"><ele>366.0</ele><time>2026-04-26T13:01:40.001Z</time></trkpt><trkpt lat="45.71688552359235" lon="8.285660471821702"><ele>366.0</ele><time>2026-04-26T13:01:41.001Z</time></trkpt><trkpt lat="45.71678310726191" lon="8.285848151881956"><ele>366.0</ele><time>2026-04-26T13:01:42.001Z</time></trkpt><trkpt lat="45.716683255639076" lon="8.28603376192234"><ele>366.0</ele><time>2026-04-26T13:01:43.001Z</time></trkpt><trkpt lat="45.716599266706474" lon="8.2862325914439"><ele>366.0</ele><time>2026-04-26T13:01:44.001Z</time></trkpt><trkpt lat="45.716533222821006" lon="8.28643858475073"><ele>366.5</ele><time>2026-04-26T13:01:45.001Z</time></trkpt><trkpt lat="45.716484759774524" lon="8.286636820754595"><ele>367.0</ele><time>2026-04-26T13:01:46.001Z</time></trkpt><trkpt lat="45.716435742023435" lon="8.286804295002565"><ele>367.5</ele><time>2026-04-26T13:01:47.001Z</time></trkpt><trkpt lat="45.71637092974708" lon="8.286936118155788"><ele>368.0</ele><time>2026-04-26T13:01:48.001Z</time></trkpt><trkpt lat="45.71629126655647" lon="8.287045344572233"><ele>368.0</ele><time>2026-04-26T13:01:49.001Z</time></trkpt><trkpt lat="45.71620395892909" lon="8.287145640794025"><ele>368.0</ele><time>2026-04-26T13:01:50.001Z</time></trkpt><trkpt lat="45.716108801984234" lon="8.287243558700329"><ele>368.0</ele><time>2026-04-26T13:01:51.001Z</time></trkpt><trkpt lat="45.71600455754669" lon="8.287339030594257"><ele>368.0</ele><time>2026-04-26T13:01:52.001Z</time></trkpt><trkpt lat="45.71589447231587" lon="8.287414898531498"><ele>368.0</ele><time>2026-04-26T13:01:53.001Z</time></trkpt><trkpt lat="45.715799493270715" lon="8.287460729692624"><ele>368.0</ele><time>2026-04-26T13:01:54.001Z</time></trkpt><trkpt lat="45.715717629717545" lon="8.287497631117693"><ele>368.0</ele><time>2026-04-26T13:01:55.001Z</time></trkpt><trkpt lat="45.71564124839134" lon="8.28753454836434"><ele>368.0</ele><time>2026-04-26T13:01:56.001Z</time></trkpt><trkpt lat="45.71557413432919" lon="8.287560748574302"><ele>368.0</ele><time>2026-04-26T13:01:57.001Z</time></trkpt><trkpt lat="45.71545982142582" lon="8.287560436924"><ele>368.0</ele><time>2026-04-26T13:01:59.001Z</time></trkpt><trkpt lat="45.715365777579564" lon="8.287611778111797"><ele>368.0</ele><time>2026-04-26T13:02:01.001Z</time></trkpt><trkpt lat="45.71526383819355" lon="8.287768502409197"><ele>368.0</ele><time>2026-04-26T13:02:03.001Z</time></trkpt><trkpt lat="45.715141643945785" lon="8.287840329812592"><ele>368.0</ele><time>2026-04-26T13:02:04.001Z</time></trkpt><trkpt lat="45.714992768646326" lon="8.287910880327448"><ele>367.6666666666667</ele><time>2026-04-26T13:02:05.001Z</time></trkpt><trkpt lat="45.7148458538553" lon="8.28798804179095"><ele>367.3333333333333</ele><time>2026-04-26T13:02:06.001Z</time></trkpt><trkpt lat="45.714702109566126" lon="8.288072154291397"><ele>367.0</ele><time>2026-04-26T13:02:07.002Z</time></trkpt><trkpt lat="45.714559032625225" lon="8.28815163901478"><ele>368.0</ele><time>2026-04-26T13:02:08.002Z</time></trkpt><trkpt lat="45.71440698634406" lon="8.288223404076577"><ele>369.0</ele><time>2026-04-26T13:02:09.002Z</time></trkpt><trkpt lat="45.71426128079115" lon="8.288307809936496"><ele>370.0</ele><time>2026-04-26T13:02:10.002Z</time></trkpt><trkpt lat="45.71411646409839" lon="8.288393739980295"><ele>370.0</ele><time>2026-04-26T13:02:11.002Z</time></trkpt><trkpt lat="45.7139791031326" lon="8.288481730201521"><ele>370.0</ele><time>2026-04-26T13:02:12.002Z</time></trkpt><trkpt lat="45.71384103348497" lon="8.288564081704598"><ele>370.0</ele><time>2026-04-26T13:02:13.002Z</time></trkpt><trkpt lat="45.713717543735676" lon="8.288642007020405"><ele>370.0</ele><time>2026-04-26T13:02:14.002Z</time></trkpt><trkpt lat="45.713618851061824" lon="8.288695939723882"><ele>368.8333333333333</ele><time>2026-04-26T13:02:15.002Z</time></trkpt><trkpt lat="45.713528315302206" lon="8.288692755723051"><ele>367.66666666666663</ele><time>2026-04-26T13:02:16.002Z</time></trkpt><trkpt lat="45.71344989148098" lon="8.28863070808648"><ele>366.5</ele><time>2026-04-26T13:02:17.002Z</time></trkpt><trkpt lat="45.71339081357058" lon="8.288528203807411"><ele>365.3333333333333</ele><time>2026-04-26T13:02:18.002Z</time></trkpt><trkpt lat="45.713347383421514" lon="8.28846149063065"><ele>364.1666666666667</ele><time>2026-04-26T13:02:19.002Z</time></trkpt><trkpt lat="45.713252161524366" lon="8.288505307832592"><ele>363.0</ele><time>2026-04-26T13:02:21.002Z</time></trkpt><trkpt lat="45.71320710424828" lon="8.28862532837051"><ele>363.0</ele><time>2026-04-26T13:02:22.002Z</time></trkpt><trkpt lat="45.71315136521302" lon="8.28877938001175"><ele>363.0</ele><time>2026-04-26T13:02:23.002Z</time></trkpt><trkpt lat="45.713057543860266" lon="8.288944540068604"><ele>363.0</ele><time>2026-04-26T13:02:24.002Z</time></trkpt><trkpt lat="45.71296376987727" lon="8.28911576284541"><ele>363.0</ele><time>2026-04-26T13:02:25.002Z</time></trkpt><trkpt lat="45.71286640941957" lon="8.289294233025005"><ele>362.6666666666667</ele><time>2026-04-26T13:02:26.002Z</time></trkpt><trkpt lat="45.71276945126585" lon="8.28947674217181"><ele>362.33333333333337</ele><time>2026-04-26T13:02:27.002Z</time></trkpt><trkpt lat="45.71267890314095" lon="8.289671008438553"><ele>362.0</ele><time>2026-04-26T13:02:28.002Z</time></trkpt><trkpt lat="45.71258182165979" lon="8.289878140782196"><ele>361.33333333333337</ele><time>2026-04-26T13:02:29.002Z</time></trkpt><trkpt lat="45.71247232755274" lon="8.290078473243424"><ele>360.6666666666667</ele><time>2026-04-26T13:02:30.002Z</time></trkpt><trkpt lat="45.712379367705644" lon="8.290252411599301"><ele>360.0</ele><time>2026-04-26T13:02:31.002Z</time></trkpt><trkpt lat="45.712292944669386" lon="8.290405677280948"><ele>360.0</ele><time>2026-04-26T13:02:32.002Z</time></trkpt><trkpt lat="45.71221261257636" lon="8.29052465154954"><ele>360.0</ele><time>2026-04-26T13:02:33.002Z</time></trkpt><trkpt lat="45.7121485364127" lon="8.29063822331377"><ele>360.0</ele><time>2026-04-26T13:02:34.002Z</time></trkpt><trkpt lat="45.71209846200235" lon="8.290742301406713"><ele>360.0</ele><time>2026-04-26T13:02:35.002Z</time></trkpt><trkpt lat="45.712073637607695" lon="8.290837867900173"><ele>360.0</ele><time>2026-04-26T13:02:36.002Z</time></trkpt><trkpt lat="45.71210912824347" lon="8.290935599498491"><ele>360.0</ele><time>2026-04-26T13:02:37.002Z</time></trkpt><trkpt lat="45.71220176511577" lon="8.291008582925818"><ele>360.0</ele><time>2026-04-26T13:02:38.002Z</time></trkpt><trkpt lat="45.71227804765921" lon="8.291069617829288"><ele>360.0</ele><time>2026-04-26T13:02:39.002Z</time></trkpt><trkpt lat="45.71232101182892" lon="8.29117589502179"><ele>360.0</ele><time>2026-04-26T13:02:40.003Z</time></trkpt><trkpt lat="45.71230593708674" lon="8.29132304315303"><ele>360.0</ele><time>2026-04-26T13:02:41.003Z</time></trkpt><trkpt lat="45.71226198462673" lon="8.291467297768508"><ele>359.25</ele><time>2026-04-26T13:02:42.003Z</time></trkpt><trkpt lat="45.712217524363474" lon="8.29163306804635"><ele>358.5</ele><time>2026-04-26T13:02:43.003Z</time></trkpt><trkpt lat="45.71221031096148" lon="8.291839601825052"><ele>357.75</ele><time>2026-04-26T13:02:44.003Z</time></trkpt><trkpt lat="45.71226078093257" lon="8.292014271293086"><ele>357.0</ele><time>2026-04-26T13:02:45.003Z</time></trkpt><trkpt lat="45.712306652130174" lon="8.292159526029954"><ele>356.5</ele><time>2026-04-26T13:02:46.003Z</time></trkpt><trkpt lat="45.71235811512304" lon="8.292317116846966"><ele>356.0</ele><time>2026-04-26T13:02:47.003Z</time></trkpt><trkpt lat="45.71238773803117" lon="8.292482554594784"><ele>355.5</ele><time>2026-04-26T13:02:48.003Z</time></trkpt><trkpt lat="45.71241889315519" lon="8.292648261724677"><ele>355.0</ele><time>2026-04-26T13:02:49.003Z</time></trkpt><trkpt lat="45.7124495888999" lon="8.292800588416274"><ele>355.0</ele><time>2026-04-26T13:02:50.003Z</time></trkpt><trkpt lat="45.71250248466876" lon="8.292920235064708"><ele>355.0</ele><time>2026-04-26T13:02:51.003Z</time></trkpt><trkpt lat="45.71252707256323" lon="8.293066056441406"><ele>355.0</ele><time>2026-04-26T13:02:52.003Z</time></trkpt><trkpt lat="45.71249846443301" lon="8.293219985616147"><ele>355.0</ele><time>2026-04-26T13:02:53.003Z</time></trkpt><trkpt lat="45.712454176923536" lon="8.293363312877684"><ele>355.0</ele><time>2026-04-26T13:02:54.003Z</time></trkpt><trkpt lat="45.71237953036719" lon="8.293494255135524"><ele>355.0</ele><time>2026-04-26T13:02:55.003Z</time></trkpt><trkpt lat="45.71229404457637" lon="8.293631164465921"><ele>355.0</ele><time>2026-04-26T13:02:56.003Z</time></trkpt><trkpt lat="45.7122373870229" lon="8.293812101189243"><ele>355.0</ele><time>2026-04-26T13:02:57.003Z</time></trkpt><trkpt lat="45.71220883114316" lon="8.294011382575894"><ele>355.0</ele><time>2026-04-26T13:02:58.003Z</time></trkpt><trkpt lat="45.71217233945033" lon="8.294211507076836"><ele>355.5</ele><time>2026-04-26T13:02:59.003Z</time></trkpt><trkpt lat="45.71212305754122" lon="8.294360847699819"><ele>356.0</ele><time>2026-04-26T13:03:00.003Z</time></trkpt><trkpt lat="45.71207635742296" lon="8.294510295745171"><ele>356.5</ele><time>2026-04-26T13:03:01.003Z</time></trkpt><trkpt lat="45.71203472675281" lon="8.294664087782595"><ele>357.0</ele><time>2026-04-26T13:03:02.003Z</time></trkpt><trkpt lat="45.71200391398945" lon="8.294816546533585"><ele>357.0</ele><time>2026-04-26T13:03:03.003Z</time></trkpt><trkpt lat="45.711948381022424" lon="8.294939152983662"><ele>357.0</ele><time>2026-04-26T13:03:04.003Z</time></trkpt><trkpt lat="45.711891396272996" lon="8.295054234722828"><ele>357.0</ele><time>2026-04-26T13:03:05.003Z</time></trkpt><trkpt lat="45.71184491325088" lon="8.295167029620352"><ele>357.0</ele><time>2026-04-26T13:03:06.003Z</time></trkpt><trkpt lat="45.71179830869452" lon="8.295301190257897"><ele>357.0</ele><time>2026-04-26T13:03:07.003Z</time></trkpt><trkpt lat="45.711755083491035" lon="8.295452349268533"><ele>355.0</ele><time>2026-04-26T13:03:07.999Z</time></trkpt><trkpt lat="45.71171517324024" lon="8.295617579830054"><ele>353.0</ele><time>2026-04-26T13:03:08.999Z</time></trkpt><trkpt lat="45.71167026573552" lon="8.29578901567111"><ele>351.0</ele><time>2026-04-26T13:03:09.999Z</time></trkpt><trkpt lat="45.711622881957844" lon="8.295952611245497"><ele>349.0</ele><time>2026-04-26T13:03:10.999Z</time></trkpt><trkpt lat="45.71158027132979" lon="8.296094429691477"><ele>349.0</ele><time>2026-04-26T13:03:11.999Z</time></trkpt><trkpt lat="45.7115345433369" lon="8.29621626191228"><ele>349.0</ele><time>2026-04-26T13:03:12.999Z</time></trkpt><trkpt lat="45.71148823331191" lon="8.296304066180062"><ele>349.0</ele><time>2026-04-26T13:03:13.999Z</time></trkpt><trkpt lat="45.71142504551276" lon="8.296376881008204"><ele>349.0</ele><time>2026-04-26T13:03:21Z</time></trkpt><trkpt lat="45.71144858760913" lon="8.296508988187364"><ele>349.0</ele><time>2026-04-26T13:03:22Z</time></trkpt><trkpt lat="45.711500548434415" lon="8.296663924305982"><ele>348.75</ele><time>2026-04-26T13:03:23Z</time></trkpt><trkpt lat="45.71155593154689" lon="8.296833263755165"><ele>348.5</ele><time>2026-04-26T13:03:24Z</time></trkpt><trkpt lat="45.71160932419528" lon="8.297004559920135"><ele>348.25</ele><time>2026-04-26T13:03:25Z</time></trkpt><trkpt lat="45.711663404959786" lon="8.29718701725368"><ele>348.0</ele><time>2026-04-26T13:03:26Z</time></trkpt><trkpt lat="45.71173813156693" lon="8.297363287872436"><ele>347.6666666666667</ele><time>2026-04-26T13:03:27Z</time></trkpt><trkpt lat="45.71184324771862" lon="8.297505090592795"><ele>347.33333333333337</ele><time>2026-04-26T13:03:28Z</time></trkpt><trkpt lat="45.711976806134935" lon="8.297621038198582"><ele>347.0</ele><time>2026-04-26T13:03:29Z</time></trkpt><trkpt lat="45.71213672213042" lon="8.297716401501576"><ele>347.0</ele><time>2026-04-26T13:03:30Z</time></trkpt><trkpt lat="45.712289605725225" lon="8.297755134886726"><ele>347.0</ele><time>2026-04-26T13:03:31Z</time></trkpt><trkpt lat="45.71247103035091" lon="8.297729124605722"><ele>347.0</ele><time>2026-04-26T13:03:32Z</time></trkpt><trkpt lat="45.712699368257596" lon="8.297686722174824"><ele>346.0</ele><time>2026-04-26T13:03:33Z</time></trkpt><trkpt lat="45.71293484449167" lon="8.297678382255757"><ele>345.0</ele><time>2026-04-26T13:03:34Z</time></trkpt><trkpt lat="45.71313827335988" lon="8.297685496176685"><ele>344.0</ele><time>2026-04-26T13:03:35Z</time></trkpt><trkpt lat="45.71329649730207" lon="8.297672321099695"><ele>344.0</ele><time>2026-04-26T13:03:36Z</time></trkpt><trkpt lat="45.71345059852735" lon="8.29765923038096"><ele>344.0</ele><time>2026-04-26T13:03:37Z</time></trkpt><trkpt lat="45.713600069621044" lon="8.297647214504657"><ele>344.0</ele><time>2026-04-26T13:03:38Z</time></trkpt><trkpt lat="45.713751800718185" lon="8.297639253685517"><ele>346.0</ele><time>2026-04-26T13:03:39Z</time></trkpt><trkpt lat="45.713915402858326" lon="8.297631037657586"><ele>348.0</ele><time>2026-04-26T13:03:40Z</time></trkpt><trkpt lat="45.714091756556925" lon="8.297612839945398"><ele>350.0</ele><time>2026-04-26T13:03:41Z</time></trkpt><trkpt lat="45.7143048073324" lon="8.29759021262503"><ele>352.5</ele><time>2026-04-26T13:03:42.001Z</time></trkpt><trkpt lat="45.71455885567939" lon="8.297584915325597"><ele>355.0</ele><time>2026-04-26T13:03:43.001Z</time></trkpt><trkpt lat="45.71482700175151" lon="8.297595061543074"><ele>355.0</ele><time>2026-04-26T13:03:44.001Z</time></trkpt><trkpt lat="45.71508462331571" lon="8.297580773577158"><ele>355.0</ele><time>2026-04-26T13:03:45.001Z</time></trkpt><trkpt lat="45.715300263735" lon="8.297560024686573"><ele>358.3333333333333</ele><time>2026-04-26T13:03:46.001Z</time></trkpt><trkpt lat="45.71550827364021" lon="8.297553446802102"><ele>361.6666666666667</ele><time>2026-04-26T13:03:47.001Z</time></trkpt><trkpt lat="45.71570504956407" lon="8.297571576671384"><ele>365.0</ele><time>2026-04-26T13:03:48.001Z</time></trkpt><trkpt lat="45.71588826519121" lon="8.297656727720248"><ele>365.0</ele><time>2026-04-26T13:03:49.001Z</time></trkpt><trkpt lat="45.71606018800856" lon="8.297799798167652"><ele>365.0</ele><time>2026-04-26T13:03:50.001Z</time></trkpt><trkpt lat="45.71619905164975" lon="8.297991039632542"><ele>365.0</ele><time>2026-04-26T13:03:51.001Z</time></trkpt><trkpt lat="45.71631849479677" lon="8.298240035588424"><ele>361.0</ele><time>2026-04-26T13:03:52.001Z</time></trkpt><trkpt lat="45.71642182325503" lon="8.298546159407993"><ele>357.0</ele><time>2026-04-26T13:03:53.001Z</time></trkpt><trkpt lat="45.71649198900748" lon="8.29890513710197"><ele>352.0</ele><time>2026-04-26T13:03:54.001Z</time></trkpt><trkpt lat="45.71659853933613" lon="8.29924053497748"><ele>347.0</ele><time>2026-04-26T13:03:55.001Z</time></trkpt><trkpt lat="45.7167515328441" lon="8.299553276712484"><ele>354.5</ele><time>2026-04-26T13:03:56.001Z</time></trkpt><trkpt lat="45.71693538135376" lon="8.299856832213509"><ele>362.0</ele><time>2026-04-26T13:03:57.001Z</time></trkpt><trkpt lat="45.71714308307484" lon="8.300153041043933"><ele>362.0</ele><time>2026-04-26T13:03:58.001Z</time></trkpt><trkpt lat="45.71734783107265" lon="8.30043452549619"><ele>362.0</ele><time>2026-04-26T13:03:59.001Z</time></trkpt><trkpt lat="45.717549545875215" lon="8.300701535013491"><ele>372.5</ele><time>2026-04-26T13:04:00.001Z</time></trkpt><trkpt lat="45.71776045744968" lon="8.300932096257863"><ele>383.0</ele><time>2026-04-26T13:04:01.001Z</time></trkpt><trkpt lat="45.71799230100278" lon="8.30111102646055"><ele>383.0</ele><time>2026-04-26T13:04:02.001Z</time></trkpt><trkpt lat="45.71823828040963" lon="8.301265165068022"><ele>383.0</ele><time>2026-04-26T13:04:03.001Z</time></trkpt><trkpt lat="45.718469821300864" lon="8.301404676940763"><ele>376.33333333333337</ele><time>2026-04-26T13:04:04.001Z</time></trkpt><trkpt lat="45.71867079107966" lon="8.301532415028907"><ele>369.6666666666667</ele><time>2026-04-26T13:04:05.001Z</time></trkpt><trkpt lat="45.718854519325504" lon="8.301665844639874"><ele>363.0</ele><time>2026-04-26T13:04:06.001Z</time></trkpt><trkpt lat="45.7190234018535" lon="8.301804879415172"><ele>363.0</ele><time>2026-04-26T13:04:07.001Z</time></trkpt><trkpt lat="45.71918701585782" lon="8.301988440989883"><ele>363.0</ele><time>2026-04-26T13:04:08.001Z</time></trkpt><trkpt lat="45.719329036740696" lon="8.302202992964935"><ele>363.0</ele><time>2026-04-26T13:04:09.001Z</time></trkpt><trkpt lat="45.719441055178" lon="8.3024301926658"><ele>361.3333333333333</ele><time>2026-04-26T13:04:10.001Z</time></trkpt><trkpt lat="45.7195200027253" lon="8.30265208265297"><ele>359.66666666666663</ele><time>2026-04-26T13:04:11.001Z</time></trkpt><trkpt lat="45.719577310574984" lon="8.302888510923342"><ele>358.0</ele><time>2026-04-26T13:04:12.002Z</time></trkpt><trkpt lat="45.719612331739285" lon="8.303148230550097"><ele>358.0</ele><time>2026-04-26T13:04:13.002Z</time></trkpt><trkpt lat="45.719629068720806" lon="8.30339637775096"><ele>358.0</ele><time>2026-04-26T13:04:14.002Z</time></trkpt><trkpt lat="45.71965430444362" lon="8.303624007745745"><ele>358.0</ele><time>2026-04-26T13:04:15.002Z</time></trkpt><trkpt lat="45.719676268401855" lon="8.303819963508777"><ele>358.66666666666663</ele><time>2026-04-26T13:04:16.002Z</time></trkpt><trkpt lat="45.71968109709306" lon="8.304028835395746"><ele>359.3333333333333</ele><time>2026-04-26T13:04:17.002Z</time></trkpt><trkpt lat="45.71970906791639" lon="8.30426309172231"><ele>360.0</ele><time>2026-04-26T13:04:18.002Z</time></trkpt><trkpt lat="45.7197699761458" lon="8.304554299216385"><ele>364.0</ele><time>2026-04-26T13:04:19.002Z</time></trkpt><trkpt lat="45.719807565668944" lon="8.304885602191812"><ele>368.0</ele><time>2026-04-26T13:04:20.002Z</time></trkpt><trkpt lat="45.71983193699381" lon="8.305239485371075"><ele>372.0</ele><time>2026-04-26T13:04:21.002Z</time></trkpt><trkpt lat="45.719821056563354" lon="8.305613591689248"><ele>376.0</ele><time>2026-04-26T13:04:22.002Z</time></trkpt><trkpt lat="45.719765693429274" lon="8.305989720762765"><ele>376.0</ele><time>2026-04-26T13:04:23.002Z</time></trkpt><trkpt lat="45.71970333194785" lon="8.306369187199598"><ele>376.0</ele><time>2026-04-26T13:04:24.002Z</time></trkpt><trkpt lat="45.71969097030214" lon="8.30673864713043"><ele>376.0</ele><time>2026-04-26T13:04:25.002Z</time></trkpt><trkpt lat="45.71975022815663" lon="8.307090551799632"><ele>376.0</ele><time>2026-04-26T13:04:26.002Z</time></trkpt><trkpt lat="45.7198681937632" lon="8.307454693286692"><ele>372.0</ele><time>2026-04-26T13:04:27.002Z</time></trkpt><trkpt lat="45.720003081078524" lon="8.307838092105898"><ele>368.0</ele><time>2026-04-26T13:04:28.002Z</time></trkpt><trkpt lat="45.720135653854555" lon="8.308253410659438"><ele>375.0</ele><time>2026-04-26T13:04:29.002Z</time></trkpt><trkpt lat="45.72025825359494" lon="8.308682600271275"><ele>382.0</ele><time>2026-04-26T13:04:30.002Z</time></trkpt><trkpt lat="45.72037197161458" lon="8.309085031173396"><ele>382.0</ele><time>2026-04-26T13:04:31.002Z</time></trkpt><trkpt lat="45.720483762562154" lon="8.309475982568904"><ele>382.0</ele><time>2026-04-26T13:04:32.002Z</time></trkpt><trkpt lat="45.72058170921899" lon="8.309823293998363"><ele>377.5</ele><time>2026-04-26T13:04:33.002Z</time></trkpt><trkpt lat="45.72067341656731" lon="8.310144835759372"><ele>373.0</ele><time>2026-04-26T13:04:34.002Z</time></trkpt><trkpt lat="45.720764505958215" lon="8.310447741154928"><ele>371.3333333333333</ele><time>2026-04-26T13:04:35.002Z</time></trkpt><trkpt lat="45.72084193151039" lon="8.310719563831423"><ele>369.6666666666667</ele><time>2026-04-26T13:04:36.002Z</time></trkpt><trkpt lat="45.72091563334112" lon="8.310954094928055"><ele>368.0</ele><time>2026-04-26T13:04:37.002Z</time></trkpt><trkpt lat="45.72098704033165" lon="8.311164177110125"><ele>368.0</ele><time>2026-04-26T13:04:38.002Z</time></trkpt><trkpt lat="45.721059433710394" lon="8.311366627311504"><ele>368.0</ele><time>2026-04-26T13:04:39.002Z</time></trkpt><trkpt lat="45.721108191499546" lon="8.31151669301413"><ele>368.0</ele><time>2026-04-26T13:04:40.002Z</time></trkpt><trkpt lat="45.72114563719406" lon="8.311685972067709"><ele>368.0</ele><time>2026-04-26T13:04:41.002Z</time></trkpt><trkpt lat="45.72116714737199" lon="8.311897473015012"><ele>367.33333333333337</ele><time>2026-04-26T13:04:42.002Z</time></trkpt><trkpt lat="45.721172866999225" lon="8.312132918023808"><ele>366.6666666666667</ele><time>2026-04-26T13:04:43.002Z</time></trkpt><trkpt lat="45.721173571061286" lon="8.312376396665144"><ele>366.0</ele><time>2026-04-26T13:04:44.002Z</time></trkpt><trkpt lat="45.72117895717383" lon="8.31258774849367"><ele>366.0</ele><time>2026-04-26T13:04:45.003Z</time></trkpt><trkpt lat="45.721200952977014" lon="8.312788366402433"><ele>366.0</ele><time>2026-04-26T13:04:46.003Z</time></trkpt><trkpt lat="45.72120447734177" lon="8.313017017903533"><ele>366.0</ele><time>2026-04-26T13:04:47.003Z</time></trkpt><trkpt lat="45.72116838883161" lon="8.313311835112925"><ele>369.0</ele><time>2026-04-26T13:04:48.003Z</time></trkpt><trkpt lat="45.72114914519006" lon="8.313638798192251"><ele>372.0</ele><time>2026-04-26T13:04:49.003Z</time></trkpt><trkpt lat="45.72114238189723" lon="8.313969017322169"><ele>373.6666666666667</ele><time>2026-04-26T13:04:50.003Z</time></trkpt><trkpt lat="45.72113193554791" lon="8.31428857964072"><ele>375.33333333333337</ele><time>2026-04-26T13:04:51.003Z</time></trkpt><trkpt lat="45.72112001914201" lon="8.314600225364893"><ele>377.0</ele><time>2026-04-26T13:04:52.003Z</time></trkpt><trkpt lat="45.721114009857416" lon="8.314911971766495"><ele>379.0</ele><time>2026-04-26T13:04:53.003Z</time></trkpt><trkpt lat="45.72111061437155" lon="8.315219308741314"><ele>381.0</ele><time>2026-04-26T13:04:54.003Z</time></trkpt><trkpt lat="45.72111362583109" lon="8.315528118502401"><ele>383.0</ele><time>2026-04-26T13:04:55.003Z</time></trkpt><trkpt lat="45.72112340202456" lon="8.315835329857517"><ele>382.33333333333337</ele><time>2026-04-26T13:04:56.003Z</time></trkpt><trkpt lat="45.72113931282795" lon="8.316140243186933"><ele>381.6666666666667</ele><time>2026-04-26T13:04:57.003Z</time></trkpt><trkpt lat="45.72116044930247" lon="8.316447415694503"><ele>381.0</ele><time>2026-04-26T13:04:58.003Z</time></trkpt><trkpt lat="45.72118757804905" lon="8.31675315098654"><ele>381.0</ele><time>2026-04-26T13:04:59.003Z</time></trkpt><trkpt lat="45.721216860240816" lon="8.317050039327913"><ele>381.0</ele><time>2026-04-26T13:05:00.003Z</time></trkpt><trkpt lat="45.72124415747545" lon="8.317358680433639"><ele>381.0</ele><time>2026-04-26T13:05:01.003Z</time></trkpt><trkpt lat="45.721274568975275" lon="8.317664790588596"><ele>380.6666666666667</ele><time>2026-04-26T13:05:02.003Z</time></trkpt><trkpt lat="45.72130416016357" lon="8.317965131425511"><ele>380.33333333333337</ele><time>2026-04-26T13:05:03.003Z</time></trkpt><trkpt lat="45.721332680044505" lon="8.318261555976008"><ele>380.0</ele><time>2026-04-26T13:05:04.003Z</time></trkpt><trkpt lat="45.72135996917249" lon="8.318549246933994"><ele>380.0</ele><time>2026-04-26T13:05:05.003Z</time></trkpt><trkpt lat="45.72138878305665" lon="8.318833761839612"><ele>380.0</ele><time>2026-04-26T13:05:06.003Z</time></trkpt><trkpt lat="45.72141626203938" lon="8.319112803255322"><ele>380.0</ele><time>2026-04-26T13:05:07.003Z</time></trkpt><trkpt lat="45.7214431853647" lon="8.31938728427662"><ele>379.6666666666667</ele><time>2026-04-26T13:05:08.003Z</time></trkpt><trkpt lat="45.72147099452762" lon="8.319656057965151"><ele>379.3333333333333</ele><time>2026-04-26T13:05:09.003Z</time></trkpt><trkpt lat="45.7215015188858" lon="8.31992522408344"><ele>379.0</ele><time>2026-04-26T13:05:10.003Z</time></trkpt><trkpt lat="45.721528511042465" lon="8.320199283854048"><ele>380.0</ele><time>2026-04-26T13:05:11.003Z</time></trkpt><trkpt lat="45.72155488202101" lon="8.320479889572214"><ele>381.0</ele><time>2026-04-26T13:05:12.003Z</time></trkpt><trkpt lat="45.72158063774001" lon="8.320765416901516"><ele>382.0</ele><time>2026-04-26T13:05:13.003Z</time></trkpt><trkpt lat="45.72161037388444" lon="8.321050452519898"><ele>381.0</ele><time>2026-04-26T13:05:14Z</time></trkpt><trkpt lat="45.72164020744328" lon="8.321347569203379"><ele>380.0</ele><time>2026-04-26T13:05:15Z</time></trkpt><trkpt lat="45.72167572341482" lon="8.32163745195003"><ele>379.0</ele><time>2026-04-26T13:05:16Z</time></trkpt><trkpt lat="45.721725193493036" lon="8.321928788746293"><ele>379.0</ele><time>2026-04-26T13:05:17Z</time></trkpt><trkpt lat="45.72181605980204" lon="8.322198076812697"><ele>379.0</ele><time>2026-04-26T13:05:18Z</time></trkpt><trkpt lat="45.72193325015393" lon="8.322451001436283"><ele>379.0</ele><time>2026-04-26T13:05:19Z</time></trkpt><trkpt lat="45.722072724728996" lon="8.322670431246857"><ele>379.0</ele><time>2026-04-26T13:05:20Z</time></trkpt><trkpt lat="45.72223206207237" lon="8.322867431298548"><ele>379.0</ele><time>2026-04-26T13:05:21Z</time></trkpt><trkpt lat="45.72240809192621" lon="8.323050977391455"><ele>379.0</ele><time>2026-04-26T13:05:22Z</time></trkpt><trkpt lat="45.722595687761164" lon="8.32320438434434"><ele>380.3333333333333</ele><time>2026-04-26T13:05:23Z</time></trkpt><trkpt lat="45.72278755180615" lon="8.323334011123132"><ele>381.6666666666667</ele><time>2026-04-26T13:05:24Z</time></trkpt><trkpt lat="45.72296827804972" lon="8.323468420696937"><ele>383.0</ele><time>2026-04-26T13:05:25Z</time></trkpt><trkpt lat="45.72311359265365" lon="8.323646536685798"><ele>383.0</ele><time>2026-04-26T13:05:26Z</time></trkpt><trkpt lat="45.72322744836497" lon="8.32386218306317"><ele>383.0</ele><time>2026-04-26T13:05:27Z</time></trkpt><trkpt lat="45.723298248819674" lon="8.324110415777833"><ele>383.0</ele><time>2026-04-26T13:05:28Z</time></trkpt><trkpt lat="45.723347220105154" lon="8.324371219442863"><ele>384.33333333333337</ele><time>2026-04-26T13:05:29Z</time></trkpt><trkpt lat="45.7233748613746" lon="8.324671733419375"><ele>385.6666666666667</ele><time>2026-04-26T13:05:30Z</time></trkpt><trkpt lat="45.723383444724014" lon="8.324961584115403"><ele>387.0</ele><time>2026-04-26T13:05:31Z</time></trkpt><trkpt lat="45.72340375567185" lon="8.325269675594622"><ele>386.66666666666663</ele><time>2026-04-26T13:05:32Z</time></trkpt><trkpt lat="45.72345527876411" lon="8.325578653363772"><ele>386.3333333333333</ele><time>2026-04-26T13:05:33Z</time></trkpt><trkpt lat="45.723516933731" lon="8.325878160527013"><ele>386.0</ele><time>2026-04-26T13:05:34Z</time></trkpt><trkpt lat="45.7235973452167" lon="8.326158960232235"><ele>387.0</ele><time>2026-04-26T13:05:35Z</time></trkpt><trkpt lat="45.72372345904014" lon="8.326421700526831"><ele>388.0</ele><time>2026-04-26T13:05:36Z</time></trkpt><trkpt lat="45.72386710353502" lon="8.326668429837904"><ele>389.0</ele><time>2026-04-26T13:05:37Z</time></trkpt><trkpt lat="45.72401275578614" lon="8.326905191216575"><ele>389.0</ele><time>2026-04-26T13:05:38Z</time></trkpt><trkpt lat="45.72416500840743" lon="8.327135429911777"><ele>389.0</ele><time>2026-04-26T13:05:39Z</time></trkpt><trkpt lat="45.72434365057704" lon="8.327353441767947"><ele>392.5</ele><time>2026-04-26T13:05:40Z</time></trkpt><trkpt lat="45.72453659170836" lon="8.327565650834769"><ele>396.0</ele><time>2026-04-26T13:05:41Z</time></trkpt><trkpt lat="45.72473574216394" lon="8.32777210877741"><ele>396.0</ele><time>2026-04-26T13:05:42Z</time></trkpt><trkpt lat="45.724931853409146" lon="8.327978547510815"><ele>396.0</ele><time>2026-04-26T13:05:43.001Z</time></trkpt><trkpt lat="45.72511502471054" lon="8.328193085927449"><ele>394.0</ele><time>2026-04-26T13:05:44.001Z</time></trkpt><trkpt lat="45.725287570613226" lon="8.32844161885656"><ele>392.0</ele><time>2026-04-26T13:05:45.001Z</time></trkpt><trkpt lat="45.72544950835017" lon="8.328711317816841"><ele>395.0</ele><time>2026-04-26T13:05:46.001Z</time></trkpt><trkpt lat="45.72560926248938" lon="8.328981481741078"><ele>398.0</ele><time>2026-04-26T13:05:47.001Z</time></trkpt><trkpt lat="45.72578191513014" lon="8.329254772168316"><ele>398.0</ele><time>2026-04-26T13:05:48.001Z</time></trkpt><trkpt lat="45.72594866849713" lon="8.32952663101648"><ele>398.0</ele><time>2026-04-26T13:05:49.001Z</time></trkpt><trkpt lat="45.72611229327773" lon="8.329798562430419"><ele>396.66666666666663</ele><time>2026-04-26T13:05:50.001Z</time></trkpt><trkpt lat="45.726263150624206" lon="8.3300512835262"><ele>395.33333333333337</ele><time>2026-04-26T13:05:51.001Z</time></trkpt><trkpt lat="45.72641149185505" lon="8.33027485469326"><ele>394.0</ele><time>2026-04-26T13:05:52.001Z</time></trkpt><trkpt lat="45.72659372401979" lon="8.330465721584606"><ele>397.5</ele><time>2026-04-26T13:05:53.001Z</time></trkpt><trkpt lat="45.72680763432577" lon="8.330592506732692"><ele>401.0</ele><time>2026-04-26T13:05:54.001Z</time></trkpt><trkpt lat="45.727029178554425" lon="8.33067659887118"><ele>401.0</ele><time>2026-04-26T13:05:55.001Z</time></trkpt><trkpt lat="45.72725407944387" lon="8.330725969132866"><ele>401.0</ele><time>2026-04-26T13:05:56.001Z</time></trkpt><trkpt lat="45.72747793724724" lon="8.330780621271616"><ele>401.0</ele><time>2026-04-26T13:05:57.001Z</time></trkpt><trkpt lat="45.72769796030176" lon="8.330850551135365"><ele>401.0</ele><time>2026-04-26T13:05:58.001Z</time></trkpt><trkpt lat="45.72791645062105" lon="8.330922062510487"><ele>401.0</ele><time>2026-04-26T13:05:59.001Z</time></trkpt><trkpt lat="45.72813084791428" lon="8.331004624012724"><ele>401.0</ele><time>2026-04-26T13:06:00.001Z</time></trkpt><trkpt lat="45.72834903553219" lon="8.331100156680046"><ele>401.0</ele><time>2026-04-26T13:06:01.001Z</time></trkpt><trkpt lat="45.728559755302214" lon="8.33120319569855"><ele>401.0</ele><time>2026-04-26T13:06:02.001Z</time></trkpt><trkpt lat="45.72875999896517" lon="8.331323802757494"><ele>401.0</ele><time>2026-04-26T13:06:03.001Z</time></trkpt><trkpt lat="45.72893861908383" lon="8.331473392477179"><ele>401.0</ele><time>2026-04-26T13:06:04.001Z</time></trkpt><trkpt lat="45.729106237830784" lon="8.331651578443957"><ele>401.0</ele><time>2026-04-26T13:06:05.001Z</time></trkpt><trkpt lat="45.729280827324935" lon="8.331843699971342"><ele>401.0</ele><time>2026-04-26T13:06:06.001Z</time></trkpt><trkpt lat="45.72945503761848" lon="8.332043011297861"><ele>401.0</ele><time>2026-04-26T13:06:07.001Z</time></trkpt><trkpt lat="45.729603589240824" lon="8.332235410044076"><ele>402.0</ele><time>2026-04-26T13:06:08.001Z</time></trkpt><trkpt lat="45.729720413796315" lon="8.332447556360261"><ele>403.0</ele><time>2026-04-26T13:06:09.001Z</time></trkpt><trkpt lat="45.729809982869234" lon="8.332667874902905"><ele>404.0</ele><time>2026-04-26T13:06:10.001Z</time></trkpt><trkpt lat="45.729895277869325" lon="8.33288874483082"><ele>405.3333333333333</ele><time>2026-04-26T13:06:11.001Z</time></trkpt><trkpt lat="45.73000489225143" lon="8.333122849017345"><ele>406.66666666666663</ele><time>2026-04-26T13:06:12.001Z</time></trkpt><trkpt lat="45.730122851090606" lon="8.333288512974871"><ele>408.0</ele><time>2026-04-26T13:06:13.001Z</time></trkpt><trkpt lat="45.730269009906856" lon="8.333455572068193"><ele>408.0</ele><time>2026-04-26T13:06:14.001Z</time></trkpt><trkpt lat="45.730414686376825" lon="8.333609374047498"><ele>408.0</ele><time>2026-04-26T13:06:15.001Z</time></trkpt><trkpt lat="45.730596129900555" lon="8.33378292380776"><ele>408.0</ele><time>2026-04-26T13:06:16.001Z</time></trkpt><trkpt lat="45.7307298285303" lon="8.334007672895634"><ele>409.0</ele><time>2026-04-26T13:06:17.002Z</time></trkpt><trkpt lat="45.7308565270379" lon="8.334192772917609"><ele>410.0</ele><time>2026-04-26T13:06:18.002Z</time></trkpt><trkpt lat="45.73098928938442" lon="8.334357215742124"><ele>411.0</ele><time>2026-04-26T13:06:19.002Z</time></trkpt><trkpt lat="45.73113113690556" lon="8.334516854212"><ele>411.0</ele><time>2026-04-26T13:06:20.002Z</time></trkpt><trkpt lat="45.731296392630604" lon="8.334612947911799"><ele>411.0</ele><time>2026-04-26T13:06:21.002Z</time></trkpt><trkpt lat="45.73147042203946" lon="8.334625700836161"><ele>411.0</ele><time>2026-04-26T13:06:22.002Z</time></trkpt><trkpt lat="45.731632532033025" lon="8.334643124899078"><ele>411.33333333333337</ele><time>2026-04-26T13:06:23.002Z</time></trkpt><trkpt lat="45.73176390020697" lon="8.33475491461558"><ele>411.6666666666667</ele><time>2026-04-26T13:06:24.002Z</time></trkpt><trkpt lat="45.73188517404368" lon="8.334926120188134"><ele>412.0</ele><time>2026-04-26T13:06:25.002Z</time></trkpt><trkpt lat="45.73196694438166" lon="8.335146441725152"><ele>416.33333333333337</ele><time>2026-04-26T13:06:26.002Z</time></trkpt><trkpt lat="45.732022391224646" lon="8.335428596095838"><ele>420.66666666666663</ele><time>2026-04-26T13:06:27.002Z</time></trkpt><trkpt lat="45.732085691219304" lon="8.3357210642362"><ele>425.0</ele><time>2026-04-26T13:06:28.002Z</time></trkpt><trkpt lat="45.73218710633183" lon="8.33599099468863"><ele>425.5</ele><time>2026-04-26T13:06:29.002Z</time></trkpt><trkpt lat="45.73235489059471" lon="8.336254371288256"><ele>426.0</ele><time>2026-04-26T13:06:30.002Z</time></trkpt><trkpt lat="45.73255792661675" lon="8.336534767440444"><ele>432.5</ele><time>2026-04-26T13:06:31.002Z</time></trkpt><trkpt lat="45.73277396137067" lon="8.33683122976322"><ele>439.0</ele><time>2026-04-26T13:06:32.002Z</time></trkpt><trkpt lat="45.73298380923815" lon="8.337145511795772"><ele>436.0</ele><time>2026-04-26T13:06:33.002Z</time></trkpt><trkpt lat="45.733198210208585" lon="8.337463743972775"><ele>433.0</ele><time>2026-04-26T13:06:34.002Z</time></trkpt><trkpt lat="45.73341079405951" lon="8.337778285503925"><ele>438.0</ele><time>2026-04-26T13:06:35.002Z</time></trkpt><trkpt lat="45.733622824677255" lon="8.338074624246039"><ele>443.0</ele><time>2026-04-26T13:06:36.002Z</time></trkpt><trkpt lat="45.7338038284698" lon="8.338337549415012"><ele>443.0</ele><time>2026-04-26T13:06:37.002Z</time></trkpt><trkpt lat="45.73396273893684" lon="8.338582579856798"><ele>443.0</ele><time>2026-04-26T13:06:38.002Z</time></trkpt><trkpt lat="45.73407999802413" lon="8.338811701504994"><ele>443.0</ele><time>2026-04-26T13:06:39.002Z</time></trkpt><trkpt lat="45.734166064701235" lon="8.339050685546766"><ele>443.0</ele><time>2026-04-26T13:06:40.002Z</time></trkpt><trkpt lat="45.7342302110751" lon="8.339342138148787"><ele>443.0</ele><time>2026-04-26T13:06:41.002Z</time></trkpt><trkpt lat="45.73425153248816" lon="8.339668700642838"><ele>443.0</ele><time>2026-04-26T13:06:42.002Z</time></trkpt><trkpt lat="45.734220391955894" lon="8.340013545967802"><ele>443.0</ele><time>2026-04-26T13:06:43.002Z</time></trkpt><trkpt lat="45.73417740636377" lon="8.340387343183963"><ele>443.0</ele><time>2026-04-26T13:06:44.002Z</time></trkpt><trkpt lat="45.73420206878796" lon="8.340727732664742"><ele>444.0</ele><time>2026-04-26T13:06:45.002Z</time></trkpt><trkpt lat="45.73427252618225" lon="8.34097927471837"><ele>445.0</ele><time>2026-04-26T13:06:46.002Z</time></trkpt><trkpt lat="45.734353268692445" lon="8.34112588989124"><ele>446.0</ele><time>2026-04-26T13:06:47.002Z</time></trkpt><trkpt lat="45.73438002673604" lon="8.341257972412413"><ele>447.0</ele><time>2026-04-26T13:06:48.002Z</time></trkpt><trkpt lat="45.734343990907355" lon="8.341411781006308"><ele>448.75</ele><time>2026-04-26T13:06:49.002Z</time></trkpt><trkpt lat="45.73425975400916" lon="8.341559664880064"><ele>450.5</ele><time>2026-04-26T13:06:50.002Z</time></trkpt><trkpt lat="45.734147194214394" lon="8.341678092987168"><ele>452.25</ele><time>2026-04-26T13:06:51.002Z</time></trkpt><trkpt lat="45.73407641086126" lon="8.341845129074752"><ele>454.0</ele><time>2026-04-26T13:06:52.003Z</time></trkpt><trkpt lat="45.734061882253854" lon="8.342028403748515"><ele>455.33333333333337</ele><time>2026-04-26T13:06:53.003Z</time></trkpt><trkpt lat="45.73410440445107" lon="8.342243179323656"><ele>456.66666666666663</ele><time>2026-04-26T13:06:54.003Z</time></trkpt><trkpt lat="45.7341852957854" lon="8.342541235712954"><ele>458.0</ele><time>2026-04-26T13:06:55.003Z</time></trkpt><trkpt lat="45.73421942100393" lon="8.342865942379312"><ele>458.66666666666663</ele><time>2026-04-26T13:06:56.003Z</time></trkpt><trkpt lat="45.73419784299639" lon="8.34316157298614"><ele>459.33333333333337</ele><time>2026-04-26T13:06:57.003Z</time></trkpt><trkpt lat="45.73414308670852" lon="8.343399499975305"><ele>460.0</ele><time>2026-04-26T13:06:58.003Z</time></trkpt><trkpt lat="45.73415507210414" lon="8.343616944835759"><ele>460.0</ele><time>2026-04-26T13:06:59.003Z</time></trkpt><trkpt lat="45.73420270976792" lon="8.343805178851214"><ele>460.0</ele><time>2026-04-26T13:07:00.003Z</time></trkpt><trkpt lat="45.7343120869408" lon="8.343985043378598"><ele>460.0</ele><time>2026-04-26T13:07:01.003Z</time></trkpt><trkpt lat="45.73445270292916" lon="8.34417651485133"><ele>462.0</ele><time>2026-04-26T13:07:02.003Z</time></trkpt><trkpt lat="45.73461068971231" lon="8.34447229424412"><ele>464.0</ele><time>2026-04-26T13:07:03.003Z</time></trkpt><trkpt lat="45.73477468326219" lon="8.344732938991903"><ele>464.0</ele><time>2026-04-26T13:07:04.003Z</time></trkpt><trkpt lat="45.73497717034076" lon="8.344916672181133"><ele>464.0</ele><time>2026-04-26T13:07:05.003Z</time></trkpt><trkpt lat="45.73519842365343" lon="8.345019766099004"><ele>470.0</ele><time>2026-04-26T13:07:06.003Z</time></trkpt><trkpt lat="45.73545831225136" lon="8.345106174373715"><ele>476.0</ele><time>2026-04-26T13:07:07.003Z</time></trkpt><trkpt lat="45.735727551404615" lon="8.345232337416903"><ele>476.0</ele><time>2026-04-26T13:07:08.003Z</time></trkpt><trkpt lat="45.735959353228814" lon="8.345359156762795"><ele>476.0</ele><time>2026-04-26T13:07:09.003Z</time></trkpt><trkpt lat="45.73615950627853" lon="8.34550839967881"><ele>479.3333333333333</ele><time>2026-04-26T13:07:10.003Z</time></trkpt><trkpt lat="45.73632948209288" lon="8.345724572970754"><ele>482.66666666666663</ele><time>2026-04-26T13:07:11.003Z</time></trkpt><trkpt lat="45.73646222006848" lon="8.345972287478938"><ele>486.0</ele><time>2026-04-26T13:07:12.003Z</time></trkpt><trkpt lat="45.736616376099235" lon="8.346157252403799"><ele>486.0</ele><time>2026-04-26T13:07:13.003Z</time></trkpt><trkpt lat="45.73681952178477" lon="8.346269393708168"><ele>486.0</ele><time>2026-04-26T13:07:14.003Z</time></trkpt><trkpt lat="45.73706919584459" lon="8.346319858364005"><ele>494.0</ele><time>2026-04-26T13:07:15.003Z</time></trkpt><trkpt lat="45.73737333051605" lon="8.346282286728238"><ele>502.0</ele><time>2026-04-26T13:07:16.003Z</time></trkpt><trkpt lat="45.73766211794493" lon="8.346306358783734"><ele>504.5</ele><time>2026-04-26T13:07:17.003Z</time></trkpt><trkpt lat="45.73791937262042" lon="8.346341772053124"><ele>507.0</ele><time>2026-04-26T13:07:18.003Z</time></trkpt><trkpt lat="45.73811301845392" lon="8.346375333463703"><ele>502.0</ele><time>2026-04-26T13:07:19.003Z</time></trkpt><trkpt lat="45.73826052232996" lon="8.346408142309556"><ele>497.0</ele><time>2026-04-26T13:07:20.001Z</time></trkpt><trkpt lat="45.73839227859395" lon="8.346499600295935"><ele>492.0</ele><time>2026-04-26T13:07:21.001Z</time></trkpt><trkpt lat="45.738481746396424" lon="8.346659214633616"><ele>487.0</ele><time>2026-04-26T13:07:22.001Z</time></trkpt><trkpt lat="45.73851847822224" lon="8.346861176622683"><ele>487.0</ele><time>2026-04-26T13:07:23.001Z</time></trkpt><trkpt lat="45.738527132275614" lon="8.347083399625467"><ele>487.0</ele><time>2026-04-26T13:07:24.001Z</time></trkpt><trkpt lat="45.7384987047524" lon="8.347307894106384"><ele>487.0</ele><time>2026-04-26T13:07:25.001Z</time></trkpt><trkpt lat="45.73840973344867" lon="8.347491077018384"><ele>489.6666666666667</ele><time>2026-04-26T13:07:26.001Z</time></trkpt><trkpt lat="45.73827953375301" lon="8.347593335918361"><ele>492.33333333333337</ele><time>2026-04-26T13:07:27.001Z</time></trkpt><trkpt lat="45.73812272492121" lon="8.347626543913112"><ele>495.0</ele><time>2026-04-26T13:07:28.001Z</time></trkpt><trkpt lat="45.73796759101251" lon="8.34757506550253"><ele>495.0</ele><time>2026-04-26T13:07:29.001Z</time></trkpt><trkpt lat="45.73782150265533" lon="8.347451336290453"><ele>495.0</ele><time>2026-04-26T13:07:30.001Z</time></trkpt><trkpt lat="45.737668900279836" lon="8.347334199441946"><ele>495.0</ele><time>2026-04-26T13:07:31.001Z</time></trkpt><trkpt lat="45.73749915904868" lon="8.347262367767797"><ele>495.66666666666663</ele><time>2026-04-26T13:07:32.001Z</time></trkpt><trkpt lat="45.737314814106846" lon="8.347282613994372"><ele>496.3333333333333</ele><time>2026-04-26T13:07:33.001Z</time></trkpt><trkpt lat="45.73712494009939" lon="8.347380303020325"><ele>497.0</ele><time>2026-04-26T13:07:34.001Z</time></trkpt><trkpt lat="45.73694309780529" lon="8.347531166050679"><ele>496.25</ele><time>2026-04-26T13:07:35.001Z</time></trkpt><trkpt lat="45.736805318050045" lon="8.34766650877622"><ele>495.5</ele><time>2026-04-26T13:07:36.001Z</time></trkpt><trkpt lat="45.7367100579059" lon="8.347784148774336"><ele>494.75</ele><time>2026-04-26T13:07:37.001Z</time></trkpt><trkpt lat="45.736650109232016" lon="8.347959204180807"><ele>494.0</ele><time>2026-04-26T13:07:38.001Z</time></trkpt><trkpt lat="45.73664059344663" lon="8.34819611663154"><ele>494.0</ele><time>2026-04-26T13:07:39.001Z</time></trkpt><trkpt lat="45.73668381906515" lon="8.348445856728258"><ele>494.0</ele><time>2026-04-26T13:07:40.001Z</time></trkpt><trkpt lat="45.73678275442356" lon="8.348703561004688"><ele>494.0</ele><time>2026-04-26T13:07:41.001Z</time></trkpt><trkpt lat="45.73691360370476" lon="8.348981160190746"><ele>512.0</ele><time>2026-04-26T13:07:42.001Z</time></trkpt><trkpt lat="45.73699605978494" lon="8.349303740835623"><ele>530.0</ele><time>2026-04-26T13:07:43.001Z</time></trkpt><trkpt lat="45.737014584303715" lon="8.349618847970557"><ele>527.0</ele><time>2026-04-26T13:07:44.001Z</time></trkpt><trkpt lat="45.73704607238232" lon="8.349878641740965"><ele>524.0</ele><time>2026-04-26T13:07:45.001Z</time></trkpt><trkpt lat="45.737150832933686" lon="8.350063810700115"><ele>521.0</ele><time>2026-04-26T13:07:46.001Z</time></trkpt><trkpt lat="45.73731972800747" lon="8.350205743886699"><ele>521.0</ele><time>2026-04-26T13:07:47.001Z</time></trkpt><trkpt lat="45.737527836169704" lon="8.350296139259836"><ele>521.0</ele><time>2026-04-26T13:07:48.001Z</time></trkpt><trkpt lat="45.73774240222574" lon="8.350469827703375"><ele>526.5</ele><time>2026-04-26T13:07:49.001Z</time></trkpt><trkpt lat="45.73792115988179" lon="8.350699430682855"><ele>532.0</ele><time>2026-04-26T13:07:50.001Z</time></trkpt><trkpt lat="45.73807736825931" lon="8.35098995759796"><ele>532.0</ele><time>2026-04-26T13:07:51.001Z</time></trkpt><trkpt lat="45.738235764766586" lon="8.351290078996875"><ele>532.0</ele><time>2026-04-26T13:07:52.001Z</time></trkpt><trkpt lat="45.73839056861412" lon="8.351590039522652"><ele>523.0</ele><time>2026-04-26T13:07:53.001Z</time></trkpt><trkpt lat="45.73854441609129" lon="8.35187803874558"><ele>514.0</ele><time>2026-04-26T13:07:54.001Z</time></trkpt><trkpt lat="45.738674898814544" lon="8.352125420399283"><ele>516.6666666666667</ele><time>2026-04-26T13:07:55.001Z</time></trkpt><trkpt lat="45.7388101973176" lon="8.352338337444383"><ele>519.3333333333334</ele><time>2026-04-26T13:07:56.001Z</time></trkpt><trkpt lat="45.7389762656551" lon="8.35247605347187"><ele>522.0</ele><time>2026-04-26T13:07:57.001Z</time></trkpt><trkpt lat="45.73917836178728" lon="8.352533230791527"><ele>525.3333333333334</ele><time>2026-04-26T13:07:58.001Z</time></trkpt><trkpt lat="45.73939362097406" lon="8.352519901695652"><ele>528.6666666666667</ele><time>2026-04-26T13:07:59.001Z</time></trkpt><trkpt lat="45.73957565244718" lon="8.352442960076566"><ele>532.0</ele><time>2026-04-26T13:08:00.001Z</time></trkpt><trkpt lat="45.7397324396523" lon="8.352389501473674"><ele>532.0</ele><time>2026-04-26T13:08:01.001Z</time></trkpt><trkpt lat="45.73988069643982" lon="8.352357694309022"><ele>532.0</ele><time>2026-04-26T13:08:02.001Z</time></trkpt><trkpt lat="45.740016499066435" lon="8.352340287589621"><ele>532.0</ele><time>2026-04-26T13:08:03.001Z</time></trkpt><trkpt lat="45.74015789767666" lon="8.352324040739585"><ele>532.0</ele><time>2026-04-26T13:08:04.001Z</time></trkpt><trkpt lat="45.74029896763701" lon="8.352321520985997"><ele>534.3333333333334</ele><time>2026-04-26T13:08:05.001Z</time></trkpt><trkpt lat="45.7404797532343" lon="8.35234617405448"><ele>536.6666666666666</ele><time>2026-04-26T13:08:06.001Z</time></trkpt><trkpt lat="45.740685284815974" lon="8.35240907486835"><ele>539.0</ele><time>2026-04-26T13:08:07.001Z</time></trkpt><trkpt lat="45.740893433588994" lon="8.352469147905293"><ele>544.25</ele><time>2026-04-26T13:08:08.001Z</time></trkpt><trkpt lat="45.74105058598733" lon="8.35252955820419"><ele>549.5</ele><time>2026-04-26T13:08:09.001Z</time></trkpt><trkpt lat="45.74116320538323" lon="8.35261860417035"><ele>554.75</ele><time>2026-04-26T13:08:10.001Z</time></trkpt><trkpt lat="45.741230573898605" lon="8.352766152727265"><ele>560.0</ele><time>2026-04-26T13:08:11.001Z</time></trkpt><trkpt lat="45.74124726609479" lon="8.352934772257989"><ele>559.5</ele><time>2026-04-26T13:08:12.001Z</time></trkpt><trkpt lat="45.74119893417434" lon="8.353101186691655"><ele>559.0</ele><time>2026-04-26T13:08:13.001Z</time></trkpt><trkpt lat="45.74110156374615" lon="8.35322552029553"><ele>558.5</ele><time>2026-04-26T13:08:14.001Z</time></trkpt><trkpt lat="45.7409704342535" lon="8.353298564561626"><ele>558.0</ele><time>2026-04-26T13:08:15.001Z</time></trkpt><trkpt lat="45.74081781945709" lon="8.353280836946697"><ele>553.6666666666666</ele><time>2026-04-26T13:08:16.001Z</time></trkpt><trkpt lat="45.74063614087197" lon="8.35320387106243"><ele>549.3333333333333</ele><time>2026-04-26T13:08:17.001Z</time></trkpt><trkpt lat="45.74042408722962" lon="8.353156898728388"><ele>545.0</ele><time>2026-04-26T13:08:18.001Z</time></trkpt><trkpt lat="45.74021202548307" lon="8.35319500647695"><ele>541.6666666666666</ele><time>2026-04-26T13:08:19.001Z</time></trkpt><trkpt lat="45.740037711018786" lon="8.353293958732262"><ele>538.3333333333334</ele><time>2026-04-26T13:08:20.001Z</time></trkpt><trkpt lat="45.73990437115717" lon="8.353419928694757"><ele>535.0</ele><time>2026-04-26T13:08:21.001Z</time></trkpt><trkpt lat="45.73980900685162" lon="8.353541037891812"><ele>535.0</ele><time>2026-04-26T13:08:22.001Z</time></trkpt><trkpt lat="45.73974905610591" lon="8.353670736575522"><ele>535.0</ele><time>2026-04-26T13:08:23.001Z</time></trkpt><trkpt lat="45.73971326760108" lon="8.353805058566397"><ele>535.0</ele><time>2026-04-26T13:08:24.001Z</time></trkpt><trkpt lat="45.739707387812246" lon="8.353954550902664"><ele>535.0</ele><time>2026-04-26T13:08:25.001Z</time></trkpt><trkpt lat="45.739750760876944" lon="8.354116172633349"><ele>535.0</ele><time>2026-04-26T13:08:26.001Z</time></trkpt><trkpt lat="45.73984601521805" lon="8.354295611002513"><ele>539.3333333333334</ele><time>2026-04-26T13:08:27.001Z</time></trkpt><trkpt lat="45.73994673328529" lon="8.354520850360016"><ele>543.6666666666666</ele><time>2026-04-26T13:08:28.001Z</time></trkpt><trkpt lat="45.74000347716647" lon="8.354806000926299"><ele>548.0</ele><time>2026-04-26T13:08:29.001Z</time></trkpt><trkpt lat="45.74001535374251" lon="8.355118893018474"><ele>548.0</ele><time>2026-04-26T13:08:30.001Z</time></trkpt><trkpt lat="45.74005483606197" lon="8.355442139597645"><ele>548.0</ele><time>2026-04-26T13:08:31.001Z</time></trkpt><trkpt lat="45.740170108643454" lon="8.355766712837834"><ele>558.0</ele><time>2026-04-26T13:08:32.001Z</time></trkpt><trkpt lat="45.74033232146263" lon="8.356106526864465"><ele>568.0</ele><time>2026-04-26T13:08:33.001Z</time></trkpt><trkpt lat="45.7404713241782" lon="8.356481921672884"><ele>568.0</ele><time>2026-04-26T13:08:34.001Z</time></trkpt><trkpt lat="45.74060586036349" lon="8.356831749320756"><ele>568.0</ele><time>2026-04-26T13:08:35.001Z</time></trkpt><trkpt lat="45.74072875830191" lon="8.35716161482901"><ele>565.5</ele><time>2026-04-26T13:08:36.001Z</time></trkpt><trkpt lat="45.74083756637079" lon="8.357482943339319"><ele>563.0</ele><time>2026-04-26T13:08:37.001Z</time></trkpt><trkpt lat="45.74092169716109" lon="8.357804085831916"><ele>566.6666666666666</ele><time>2026-04-26T13:08:38.001Z</time></trkpt><trkpt lat="45.74099657527337" lon="8.35809709112763"><ele>570.3333333333334</ele><time>2026-04-26T13:08:39.001Z</time></trkpt><trkpt lat="45.74107286420979" lon="8.358395942050791"><ele>574.0</ele><time>2026-04-26T13:08:40.001Z</time></trkpt><trkpt lat="45.74116128290814" lon="8.3586827871248"><ele>582.6666666666667</ele><time>2026-04-26T13:08:41.001Z</time></trkpt><trkpt lat="45.7412330000649" lon="8.358983059034598"><ele>591.3333333333334</ele><time>2026-04-26T13:08:42.018Z</time></trkpt><trkpt lat="45.741304652343636" lon="8.359280048631698"><ele>600.0</ele><time>2026-04-26T13:08:43.024Z</time></trkpt><trkpt lat="45.74137583447661" lon="8.359574742762913"><ele>595.3333333333334</ele><time>2026-04-26T13:08:44.015Z</time></trkpt><trkpt lat="45.74145109382768" lon="8.359877869977648"><ele>590.6666666666667</ele><time>2026-04-26T13:08:45.019Z</time></trkpt><trkpt lat="45.74152636657875" lon="8.360180404060726"><ele>586.0</ele><time>2026-04-26T13:08:46.017Z</time></trkpt><trkpt lat="45.74163501194126" lon="8.3606298123582"><ele>585.3333333333334</ele><time>2026-04-26T13:08:48.001Z</time></trkpt><trkpt lat="45.7417417895518" lon="8.36086828660661"><ele>584.6666666666666</ele><time>2026-04-26T13:08:49.001Z</time></trkpt><trkpt lat="45.74184691986872" lon="8.361005649370878"><ele>584.0</ele><time>2026-04-26T13:08:50.001Z</time></trkpt><trkpt lat="45.74197291518113" lon="8.361168570694895"><ele>584.0</ele><time>2026-04-26T13:08:51.001Z</time></trkpt><trkpt lat="45.742156158754966" lon="8.361309470268663"><ele>584.0</ele><time>2026-04-26T13:08:52.002Z</time></trkpt><trkpt lat="45.74233838333503" lon="8.361514975689213"><ele>584.0</ele><time>2026-04-26T13:08:53.002Z</time></trkpt><trkpt lat="45.74247417551942" lon="8.361663645420409"><ele>584.0</ele><time>2026-04-26T13:08:54.002Z</time></trkpt><trkpt lat="45.74264472495731" lon="8.361816905614445"><ele>584.0</ele><time>2026-04-26T13:08:55.002Z</time></trkpt><trkpt lat="45.74285906039104" lon="8.361921091996866"><ele>584.0</ele><time>2026-04-26T13:08:56.002Z</time></trkpt><trkpt lat="45.743092584133656" lon="8.36201698476703"><ele>584.0</ele><time>2026-04-26T13:08:57.002Z</time></trkpt><trkpt lat="45.743336827237854" lon="8.362088141510116"><ele>584.0</ele><time>2026-04-26T13:08:58.002Z</time></trkpt><trkpt lat="45.743560029372496" lon="8.362153981488946"><ele>579.6666666666666</ele><time>2026-04-26T13:08:59.002Z</time></trkpt><trkpt lat="45.74375831708873" lon="8.362245195964356"><ele>575.3333333333334</ele><time>2026-04-26T13:09:00.002Z</time></trkpt><trkpt lat="45.7439168655732" lon="8.362315797424532"><ele>571.0</ele><time>2026-04-26T13:09:01.002Z</time></trkpt><trkpt lat="45.74402898619411" lon="8.362404526348366"><ele>571.0</ele><time>2026-04-26T13:09:02.002Z</time></trkpt><trkpt lat="45.7441039720958" lon="8.362554163652298"><ele>571.0</ele><time>2026-04-26T13:09:03.002Z</time></trkpt><trkpt lat="45.74414624693701" lon="8.36274116060588"><ele>571.0</ele><time>2026-04-26T13:09:04.002Z</time></trkpt><trkpt lat="45.74416305669525" lon="8.362954450700547"><ele>571.0</ele><time>2026-04-26T13:09:05.002Z</time></trkpt><trkpt lat="45.74413981345353" lon="8.36317969166022"><ele>568.0</ele><time>2026-04-26T13:09:06.002Z</time></trkpt><trkpt lat="45.74406112768063" lon="8.36340784084303"><ele>565.0</ele><time>2026-04-26T13:09:07.002Z</time></trkpt><trkpt lat="45.74396646659473" lon="8.36365955809237"><ele>562.0</ele><time>2026-04-26T13:09:08.002Z</time></trkpt><trkpt lat="45.743857351792464" lon="8.363876621764991"><ele>561.0</ele><time>2026-04-26T13:09:09.002Z</time></trkpt><trkpt lat="45.74381127631718" lon="8.364107749011099"><ele>560.0</ele><time>2026-04-26T13:09:10.002Z</time></trkpt><trkpt lat="45.743827233583765" lon="8.364350936026755"><ele>559.0</ele><time>2026-04-26T13:09:11.002Z</time></trkpt><trkpt lat="45.743901395698614" lon="8.364555811730899"><ele>559.0</ele><time>2026-04-26T13:09:12.002Z</time></trkpt><trkpt lat="45.744028736992476" lon="8.364692026294538"><ele>559.0</ele><time>2026-04-26T13:09:13.002Z</time></trkpt><trkpt lat="45.74417797356386" lon="8.364730547064724"><ele>559.0</ele><time>2026-04-26T13:09:14.002Z</time></trkpt><trkpt lat="45.74425974119056" lon="8.364861290288253"><ele>559.0</ele><time>2026-04-26T13:09:15.002Z</time></trkpt><trkpt lat="45.74427719771167" lon="8.365032153924698"><ele>555.0</ele><time>2026-04-26T13:09:16.002Z</time></trkpt><trkpt lat="45.744251376486275" lon="8.365199399748587"><ele>551.0</ele><time>2026-04-26T13:09:17.002Z</time></trkpt><trkpt lat="45.74414841247879" lon="8.365362615382368"><ele>547.0</ele><time>2026-04-26T13:09:18.002Z</time></trkpt><trkpt lat="45.74403494309127" lon="8.365590156750041"><ele>547.0</ele><time>2026-04-26T13:09:19.002Z</time></trkpt><trkpt lat="45.743914212177955" lon="8.36586240188263"><ele>547.0</ele><time>2026-04-26T13:09:20.002Z</time></trkpt><trkpt lat="45.74381046997935" lon="8.366213789748883"><ele>549.5</ele><time>2026-04-26T13:09:21.002Z</time></trkpt><trkpt lat="45.743723178831104" lon="8.366600338480369"><ele>552.0</ele><time>2026-04-26T13:09:22.002Z</time></trkpt><trkpt lat="45.74366347228575" lon="8.366982205595942"><ele>552.0</ele><time>2026-04-26T13:09:23.002Z</time></trkpt><trkpt lat="45.7436322102918" lon="8.36733030159428"><ele>552.0</ele><time>2026-04-26T13:09:24.002Z</time></trkpt><trkpt lat="45.74362382471585" lon="8.367684215262283"><ele>549.5</ele><time>2026-04-26T13:09:25.002Z</time></trkpt><trkpt lat="45.74365101267053" lon="8.368040363381605"><ele>547.0</ele><time>2026-04-26T13:09:26Z</time></trkpt><trkpt lat="45.743685548406425" lon="8.36836139498681"><ele>547.0</ele><time>2026-04-26T13:09:27Z</time></trkpt><trkpt lat="45.743741222156096" lon="8.368678233966222"><ele>547.0</ele><time>2026-04-26T13:09:28Z</time></trkpt><trkpt lat="45.743828499388826" lon="8.368972181106372"><ele>545.0</ele><time>2026-04-26T13:09:29Z</time></trkpt><trkpt lat="45.74390681189364" lon="8.36921717586087"><ele>543.0</ele><time>2026-04-26T13:09:30Z</time></trkpt><trkpt lat="45.74392056972724" lon="8.36945530634698"><ele>541.0</ele><time>2026-04-26T13:09:31Z</time></trkpt><trkpt lat="45.74390501501449" lon="8.369701758560737"><ele>539.0</ele><time>2026-04-26T13:09:32Z</time></trkpt><trkpt lat="45.743878762839344" lon="8.369951195950879"><ele>537.0</ele><time>2026-04-26T13:09:33Z</time></trkpt><trkpt lat="45.74388782392277" lon="8.370218411043375"><ele>535.0</ele><time>2026-04-26T13:09:34Z</time></trkpt><trkpt lat="45.743925763322146" lon="8.370490662617293"><ele>533.0</ele><time>2026-04-26T13:09:35Z</time></trkpt><trkpt lat="45.74400093309205" lon="8.370755676868333"><ele>531.0</ele><time>2026-04-26T13:09:36Z</time></trkpt><trkpt lat="45.74410079282114" lon="8.37103614700692"><ele>529.0</ele><time>2026-04-26T13:09:37Z</time></trkpt><trkpt lat="45.74415824339832" lon="8.371316921494705"><ele>526.0</ele><time>2026-04-26T13:09:38Z</time></trkpt><trkpt lat="45.74416534111712" lon="8.371573028208573"><ele>523.0</ele><time>2026-04-26T13:09:39Z</time></trkpt><trkpt lat="45.74416997392558" lon="8.37174145319809"><ele>520.0</ele><time>2026-04-26T13:09:40Z</time></trkpt><trkpt lat="45.74419970315703" lon="8.371894522372822"><ele>517.0</ele><time>2026-04-26T13:09:41Z</time></trkpt><trkpt lat="45.74421643733479" lon="8.372107540648727"><ele>518.0</ele><time>2026-04-26T13:09:42Z</time></trkpt><trkpt lat="45.74442350627792" lon="8.372102075882507"><ele>519.0</ele><time>2026-04-26T13:09:43Z</time></trkpt><trkpt lat="45.74455945581369" lon="8.372013980129262"><ele>520.0</ele><time>2026-04-26T13:09:44Z</time></trkpt><trkpt lat="45.744696808738524" lon="8.371851974868397"><ele>520.0</ele><time>2026-04-26T13:09:45Z</time></trkpt><trkpt lat="45.74483297802156" lon="8.37175093491845"><ele>520.0</ele><time>2026-04-26T13:09:46Z</time></trkpt><trkpt lat="45.74494895458478" lon="8.371730070907368"><ele>520.0</ele><time>2026-04-26T13:09:47Z</time></trkpt><trkpt lat="45.745037778303335" lon="8.371757044431103"><ele>520.0</ele><time>2026-04-26T13:09:48Z</time></trkpt><trkpt lat="45.745102572431755" lon="8.371874684669935"><ele>520.0</ele><time>2026-04-26T13:09:49Z</time></trkpt><trkpt lat="45.74513184983015" lon="8.37203551462266"><ele>520.0</ele><time>2026-04-26T13:09:50Z</time></trkpt><trkpt lat="45.745107417328235" lon="8.372185683858108"><ele>520.0</ele><time>2026-04-26T13:09:51Z</time></trkpt><trkpt lat="45.74504229449583" lon="8.372324249572992"><ele>520.0</ele><time>2026-04-26T13:09:52Z</time></trkpt><trkpt lat="45.74490916156629" lon="8.37241019916975"><ele>519.0</ele><time>2026-04-26T13:09:53Z</time></trkpt><trkpt lat="45.74474007126791" lon="8.372465099817083"><ele>518.0</ele><time>2026-04-26T13:09:54Z</time></trkpt><trkpt lat="45.74462401608367" lon="8.37260491417322"><ele>517.0</ele><time>2026-04-26T13:09:55Z</time></trkpt><trkpt lat="45.74457093380635" lon="8.372833978460648"><ele>520.3333333333334</ele><time>2026-04-26T13:09:56Z</time></trkpt><trkpt lat="45.74454420544372" lon="8.373122029264904"><ele>523.6666666666666</ele><time>2026-04-26T13:09:57Z</time></trkpt><trkpt lat="45.744477846220924" lon="8.373426449846653"><ele>527.0</ele><time>2026-04-26T13:09:58Z</time></trkpt><trkpt lat="45.7443880576913" lon="8.373728130167972"><ele>520.6666666666666</ele><time>2026-04-26T13:09:59Z</time></trkpt><trkpt lat="45.74432620438349" lon="8.374031258170612"><ele>514.3333333333334</ele><time>2026-04-26T13:10:00Z</time></trkpt><trkpt lat="45.744230113544305" lon="8.37428333119202"><ele>508.0</ele><time>2026-04-26T13:10:01Z</time></trkpt><trkpt lat="45.74408316504229" lon="8.374513132989401"><ele>509.0</ele><time>2026-04-26T13:10:02Z</time></trkpt><trkpt lat="45.743979847544544" lon="8.374797991002383"><ele>510.0</ele><time>2026-04-26T13:10:03Z</time></trkpt><trkpt lat="45.74391285151999" lon="8.375096910575566"><ele>511.0</ele><time>2026-04-26T13:10:04Z</time></trkpt><trkpt lat="45.74383774768219" lon="8.375317909618314"><ele>511.6666666666667</ele><time>2026-04-26T13:10:05Z</time></trkpt><trkpt lat="45.743809641752726" lon="8.375540374546038"><ele>512.3333333333334</ele><time>2026-04-26T13:10:06.001Z</time></trkpt><trkpt lat="45.74385193990884" lon="8.37584881975012"><ele>513.0</ele><time>2026-04-26T13:10:07.001Z</time></trkpt><trkpt lat="45.743914652010844" lon="8.37622395764236"><ele>509.0</ele><time>2026-04-26T13:10:08.001Z</time></trkpt><trkpt lat="45.743967212359244" lon="8.376636205184322"><ele>505.0</ele><time>2026-04-26T13:10:09.001Z</time></trkpt><trkpt lat="45.744018997458916" lon="8.377063689701039"><ele>503.5</ele><time>2026-04-26T13:10:10.001Z</time></trkpt><trkpt lat="45.74407820118405" lon="8.37744168282514"><ele>502.0</ele><time>2026-04-26T13:10:11.001Z</time></trkpt><trkpt lat="45.744172957082085" lon="8.37777779309493"><ele>501.0</ele><time>2026-04-26T13:10:12.001Z</time></trkpt><trkpt lat="45.74432513522224" lon="8.37810552730389"><ele>500.0</ele><time>2026-04-26T13:10:13.001Z</time></trkpt><trkpt lat="45.744491244842735" lon="8.378390458531191"><ele>501.66666666666663</ele><time>2026-04-26T13:10:14.001Z</time></trkpt><trkpt lat="45.74461365875573" lon="8.378636275099074"><ele>503.33333333333337</ele><time>2026-04-26T13:10:15.001Z</time></trkpt><trkpt lat="45.74470009560974" lon="8.378887354108981"><ele>505.0</ele><time>2026-04-26T13:10:16.001Z</time></trkpt><trkpt lat="45.744746087317615" lon="8.379162072173859"><ele>505.0</ele><time>2026-04-26T13:10:17.001Z</time></trkpt><trkpt lat="45.74479984759375" lon="8.379400923468902"><ele>505.0</ele><time>2026-04-26T13:10:18.001Z</time></trkpt><trkpt lat="45.74484355420765" lon="8.379601364770416"><ele>505.0</ele><time>2026-04-26T13:10:19.001Z</time></trkpt><trkpt lat="45.74486693410423" lon="8.379783831658902"><ele>503.0</ele><time>2026-04-26T13:10:20.001Z</time></trkpt><trkpt lat="45.74488690412083" lon="8.379942992817996"><ele>501.0</ele><time>2026-04-26T13:10:21.001Z</time></trkpt><trkpt lat="45.744900248040786" lon="8.380112711059194"><ele>499.0</ele><time>2026-04-26T13:10:22.001Z</time></trkpt><trkpt lat="45.744903367729485" lon="8.380315585688198"><ele>497.0</ele><time>2026-04-26T13:10:23.001Z</time></trkpt><trkpt lat="45.74490046562217" lon="8.380585826452274"><ele>496.75</ele><time>2026-04-26T13:10:24.001Z</time></trkpt><trkpt lat="45.74490697723852" lon="8.380842280495791"><ele>496.5</ele><time>2026-04-26T13:10:25.001Z</time></trkpt><trkpt lat="45.74488709918341" lon="8.38105465628476"><ele>496.25</ele><time>2026-04-26T13:10:26.001Z</time></trkpt><trkpt lat="45.74488419694219" lon="8.381171926595"><ele>496.0</ele><time>2026-04-26T13:10:27.001Z</time></trkpt><trkpt lat="45.74488126114307" lon="8.381334713645467"><ele>495.25</ele><time>2026-04-26T13:10:28.001Z</time></trkpt><trkpt lat="45.74487413512431" lon="8.381507158063675"><ele>494.5</ele><time>2026-04-26T13:10:29.001Z</time></trkpt><trkpt lat="45.74487647934038" lon="8.38166051522428"><ele>493.75</ele><time>2026-04-26T13:10:30.001Z</time></trkpt><trkpt lat="45.7449244742005" lon="8.381817154888884"><ele>493.0</ele><time>2026-04-26T13:10:31.001Z</time></trkpt><trkpt lat="45.74502361144251" lon="8.381997212218193"><ele>491.5</ele><time>2026-04-26T13:10:32.001Z</time></trkpt><trkpt lat="45.745153472775975" lon="8.382207980882303"><ele>490.0</ele><time>2026-04-26T13:10:33.001Z</time></trkpt><trkpt lat="45.74522548859278" lon="8.382381415510977"><ele>488.5</ele><time>2026-04-26T13:10:34.001Z</time></trkpt><trkpt lat="45.745230403319184" lon="8.382537805079554"><ele>487.0</ele><time>2026-04-26T13:10:35.001Z</time></trkpt><trkpt lat="45.74523038967566" lon="8.382718446305537"><ele>486.0</ele><time>2026-04-26T13:10:36.001Z</time></trkpt><trkpt lat="45.745232078255555" lon="8.382920756075496"><ele>485.00000000000006</ele><time>2026-04-26T13:10:37.001Z</time></trkpt><trkpt lat="45.7452074086532" lon="8.383086831691632"><ele>484.00000000000006</ele><time>2026-04-26T13:10:38.001Z</time></trkpt><trkpt lat="45.74521128865199" lon="8.383207035276477"><ele>483.0</ele><time>2026-04-26T13:10:39.001Z</time></trkpt><trkpt lat="45.74522859285313" lon="8.383309955129187"><ele>482.0</ele><time>2026-04-26T13:10:40.001Z</time></trkpt><trkpt lat="45.74527796702132" lon="8.38342227229846"><ele>485.0</ele><time>2026-04-26T13:10:41.001Z</time></trkpt><trkpt lat="45.74537359155181" lon="8.38354272914152"><ele>488.0</ele><time>2026-04-26T13:10:42.001Z</time></trkpt><trkpt lat="45.74550358982099" lon="8.38364102491488"><ele>491.0</ele><time>2026-04-26T13:10:43.001Z</time></trkpt><trkpt lat="45.745643392425805" lon="8.383713012050933"><ele>494.0</ele><time>2026-04-26T13:10:44.001Z</time></trkpt><trkpt lat="45.74576040835404" lon="8.383798132384578"><ele>489.75</ele><time>2026-04-26T13:10:45.001Z</time></trkpt><trkpt lat="45.745866096032195" lon="8.383881547510933"><ele>485.5</ele><time>2026-04-26T13:10:46.001Z</time></trkpt><trkpt lat="45.746008538521274" lon="8.38391966984064"><ele>481.25</ele><time>2026-04-26T13:10:47.001Z</time></trkpt><trkpt lat="45.746169419622504" lon="8.383917172222434"><ele>477.0</ele><time>2026-04-26T13:10:48.001Z</time></trkpt><trkpt lat="45.746312007222365" lon="8.383869860836514"><ele>479.25</ele><time>2026-04-26T13:10:49.001Z</time></trkpt><trkpt lat="45.746423367818956" lon="8.383744497138022"><ele>481.5</ele><time>2026-04-26T13:10:50.001Z</time></trkpt><trkpt lat="45.74651769476082" lon="8.383629322784241"><ele>483.75</ele><time>2026-04-26T13:10:51.001Z</time></trkpt><trkpt lat="45.74659412503375" lon="8.383499453748822"><ele>486.0</ele><time>2026-04-26T13:10:52.001Z</time></trkpt><trkpt lat="45.74666547412042" lon="8.383370797433596"><ele>486.0</ele><time>2026-04-26T13:10:53.001Z</time></trkpt><trkpt lat="45.7467243983192" lon="8.383219560009797"><ele>486.0</ele><time>2026-04-26T13:10:54.001Z</time></trkpt><trkpt lat="45.746816058267044" lon="8.383011498262437"><ele>486.0</ele><time>2026-04-26T13:10:55.001Z</time></trkpt><trkpt lat="45.746893802478496" lon="8.38272703801507"><ele>483.33333333333337</ele><time>2026-04-26T13:10:56.001Z</time></trkpt><trkpt lat="45.74696839223721" lon="8.382461749172299"><ele>480.6666666666667</ele><time>2026-04-26T13:10:57.001Z</time></trkpt><trkpt lat="45.74703274668367" lon="8.382250751301928"><ele>478.0</ele><time>2026-04-26T13:10:58.001Z</time></trkpt><trkpt lat="45.747103815764966" lon="8.382093848758418"><ele>478.0</ele><time>2026-04-26T13:10:59.001Z</time></trkpt><trkpt lat="45.74719565227749" lon="8.38201570911943"><ele>478.0</ele><time>2026-04-26T13:11:00.001Z</time></trkpt><trkpt lat="45.74730633288042" lon="8.38198731919221"><ele>478.0</ele><time>2026-04-26T13:11:01.001Z</time></trkpt><trkpt lat="45.74746952738779" lon="8.382045712970466"><ele>478.0</ele><time>2026-04-26T13:11:02.001Z</time></trkpt><trkpt lat="45.74767856290265" lon="8.382079348957504"><ele>480.0</ele><time>2026-04-26T13:11:03.001Z</time></trkpt><trkpt lat="45.747917832981315" lon="8.3821475739279"><ele>482.0</ele><time>2026-04-26T13:11:04.002Z</time></trkpt><trkpt lat="45.74813476419829" lon="8.382189086533385"><ele>482.0</ele><time>2026-04-26T13:11:05.002Z</time></trkpt><trkpt lat="45.748325412355335" lon="8.382138917255821"><ele>482.0</ele><time>2026-04-26T13:11:06.002Z</time></trkpt><trkpt lat="45.74855130627459" lon="8.38202103851617"><ele>482.0</ele><time>2026-04-26T13:11:07.002Z</time></trkpt><trkpt lat="45.7487988524801" lon="8.381874168451269"><ele>482.0</ele><time>2026-04-26T13:11:08.002Z</time></trkpt><trkpt lat="45.74901433912453" lon="8.381750900817392"><ele>482.0</ele><time>2026-04-26T13:11:09.002Z</time></trkpt><trkpt lat="45.749184734033506" lon="8.38167828754136"><ele>482.0</ele><time>2026-04-26T13:11:10.002Z</time></trkpt><trkpt lat="45.74935937263349" lon="8.38164289200715"><ele>481.0</ele><time>2026-04-26T13:11:11.002Z</time></trkpt><trkpt lat="45.749544660729676" lon="8.3815979682105"><ele>480.0</ele><time>2026-04-26T13:11:12.002Z</time></trkpt><trkpt lat="45.74976460228198" lon="8.381522577416595"><ele>479.0</ele><time>2026-04-26T13:11:13.002Z</time></trkpt><trkpt lat="45.74998999302345" lon="8.381470334724414"><ele>479.0</ele><time>2026-04-26T13:11:14.002Z</time></trkpt><trkpt lat="45.750196665010456" lon="8.3814124979944"><ele>479.0</ele><time>2026-04-26T13:11:15.002Z</time></trkpt><trkpt lat="45.75038291109825" lon="8.381364708754313"><ele>479.0</ele><time>2026-04-26T13:11:16.002Z</time></trkpt><trkpt lat="45.75056140491186" lon="8.381323905119045"><ele>479.0</ele><time>2026-04-26T13:11:17.002Z</time></trkpt><trkpt lat="45.75073431443753" lon="8.381284914525397"><ele>479.0</ele><time>2026-04-26T13:11:18.002Z</time></trkpt><trkpt lat="45.750890033727266" lon="8.381253035853655"><ele>479.0</ele><time>2026-04-26T13:11:19.002Z</time></trkpt><trkpt lat="45.751042476203246" lon="8.381218677800346"><ele>479.0</ele><time>2026-04-26T13:11:20.002Z</time></trkpt><trkpt lat="45.75120024754899" lon="8.381177664372444"><ele>479.0</ele><time>2026-04-26T13:11:21.002Z</time></trkpt><trkpt lat="45.75135923490345" lon="8.381142665109689"><ele>479.0</ele><time>2026-04-26T13:11:22.002Z</time></trkpt><trkpt lat="45.75151641780941" lon="8.381097935279099"><ele>479.0</ele><time>2026-04-26T13:11:23.002Z</time></trkpt><trkpt lat="45.75167195250103" lon="8.381057260890351"><ele>479.0</ele><time>2026-04-26T13:11:24.002Z</time></trkpt><trkpt lat="45.75183788984577" lon="8.381020861030843"><ele>479.0</ele><time>2026-04-26T13:11:25.002Z</time></trkpt><trkpt lat="45.751994589158585" lon="8.380975431388006"><ele>477.3333333333333</ele><time>2026-04-26T13:11:26.002Z</time></trkpt><trkpt lat="45.752153500882514" lon="8.380933833837778"><ele>475.66666666666663</ele><time>2026-04-26T13:11:27.002Z</time></trkpt><trkpt lat="45.752308277448414" lon="8.380893298412127"><ele>474.0</ele><time>2026-04-26T13:11:28.002Z</time></trkpt><trkpt lat="45.75247506112437" lon="8.380860719327151"><ele>474.0</ele><time>2026-04-26T13:11:29.002Z</time></trkpt><trkpt lat="45.75263072669648" lon="8.380823084723918"><ele>474.0</ele><time>2026-04-26T13:11:30.002Z</time></trkpt><trkpt lat="45.75278248313518" lon="8.380776250034504"><ele>474.0</ele><time>2026-04-26T13:11:31.002Z</time></trkpt><trkpt lat="45.752940777237605" lon="8.380742063981165"><ele>471.0</ele><time>2026-04-26T13:11:32Z</time></trkpt><trkpt lat="45.753098982760186" lon="8.380696676452727"><ele>468.0</ele><time>2026-04-26T13:11:33Z</time></trkpt><trkpt lat="45.75326092134299" lon="8.380657288233513"><ele>465.0</ele><time>2026-04-26T13:11:34Z</time></trkpt><trkpt lat="45.75341655654571" lon="8.380620791685663"><ele>463.66666666666663</ele><time>2026-04-26T13:11:35Z</time></trkpt><trkpt lat="45.753573544426736" lon="8.380577668271807"><ele>462.3333333333333</ele><time>2026-04-26T13:11:36Z</time></trkpt><trkpt lat="45.753727149688295" lon="8.380533727857626"><ele>461.0</ele><time>2026-04-26T13:11:37Z</time></trkpt><trkpt lat="45.75388478684771" lon="8.380492111781791"><ele>465.0</ele><time>2026-04-26T13:11:38Z</time></trkpt><trkpt lat="45.754045408358444" lon="8.380451648577928"><ele>469.0</ele><time>2026-04-26T13:11:39Z</time></trkpt><trkpt lat="45.754196272868874" lon="8.380405742804472"><ele>473.0</ele><time>2026-04-26T13:11:40Z</time></trkpt><trkpt lat="45.754350679341584" lon="8.380390167846905"><ele>473.0</ele><time>2026-04-26T13:11:41Z</time></trkpt><trkpt lat="45.75450919092562" lon="8.380364442195047"><ele>473.0</ele><time>2026-04-26T13:11:42Z</time></trkpt><trkpt lat="45.75466558274927" lon="8.380332887828766"><ele>473.0</ele><time>2026-04-26T13:11:43Z</time></trkpt><trkpt lat="45.75482313240917" lon="8.380347250598478"><ele>473.0</ele><time>2026-04-26T13:11:44Z</time></trkpt><trkpt lat="45.75498026981288" lon="8.380381799523485"><ele>473.0</ele><time>2026-04-26T13:11:45Z</time></trkpt><trkpt lat="45.755136509629615" lon="8.380431426733432"><ele>473.0</ele><time>2026-04-26T13:11:46Z</time></trkpt><trkpt lat="45.75527111131754" lon="8.380495279786459"><ele>472.0</ele><time>2026-04-26T13:11:47Z</time></trkpt><trkpt lat="45.755388388999265" lon="8.380565576326322"><ele>471.0</ele><time>2026-04-26T13:11:48Z</time></trkpt><trkpt lat="45.7554964843349" lon="8.380641024048773"><ele>470.0</ele><time>2026-04-26T13:11:49Z</time></trkpt><trkpt lat="45.755601721709226" lon="8.380728120744363"><ele>469.0</ele><time>2026-04-26T13:11:50Z</time></trkpt><trkpt lat="45.75570723835235" lon="8.380828734703474"><ele>469.0</ele><time>2026-04-26T13:11:51Z</time></trkpt><trkpt lat="45.755812728932696" lon="8.380945970685186"><ele>469.0</ele><time>2026-04-26T13:11:52Z</time></trkpt><trkpt lat="45.7559174189053" lon="8.381064423304833"><ele>469.0</ele><time>2026-04-26T13:11:53Z</time></trkpt><trkpt lat="45.75603082811256" lon="8.38120050719732"><ele>469.0</ele><time>2026-04-26T13:11:54Z</time></trkpt><trkpt lat="45.75612608124375" lon="8.381297063659153"><ele>468.6</ele><time>2026-04-26T13:11:55Z</time></trkpt><trkpt lat="45.75622060352989" lon="8.381394060708322"><ele>468.2</ele><time>2026-04-26T13:11:56Z</time></trkpt><trkpt lat="45.75631348966813" lon="8.381492176871092"><ele>467.80000000000007</ele><time>2026-04-26T13:11:57Z</time></trkpt><trkpt lat="45.756401356282446" lon="8.381585236282016"><ele>467.40000000000003</ele><time>2026-04-26T13:11:58Z</time></trkpt><trkpt lat="45.75648376353451" lon="8.381684766927245"><ele>467.0</ele><time>2026-04-26T13:11:59Z</time></trkpt><trkpt lat="45.756572885119425" lon="8.381783483932876"><ele>467.0</ele><time>2026-04-26T13:12:00Z</time></trkpt><trkpt lat="45.75666231165632" lon="8.381876781272304"><ele>467.00000000000006</ele><time>2026-04-26T13:12:01Z</time></trkpt><trkpt lat="45.756745080430065" lon="8.38196801167128"><ele>467.00000000000006</ele><time>2026-04-26T13:12:02Z</time></trkpt><trkpt lat="45.75682070607657" lon="8.382051162787453"><ele>467.0</ele><time>2026-04-26T13:12:03Z</time></trkpt><trkpt lat="45.75689992317534" lon="8.382149913735754"><ele>467.0</ele><time>2026-04-26T13:12:04Z</time></trkpt><trkpt lat="45.75698458329404" lon="8.382244590788149"><ele>466.49999999999994</ele><time>2026-04-26T13:12:05Z</time></trkpt><trkpt lat="45.75706250619426" lon="8.382336611681204"><ele>466.0</ele><time>2026-04-26T13:12:06Z</time></trkpt><trkpt lat="45.75713406682652" lon="8.382417255685723"><ele>465.5</ele><time>2026-04-26T13:12:07Z</time></trkpt><trkpt lat="45.757185115206205" lon="8.382472956764081"><ele>465.0</ele><time>2026-04-26T13:12:08Z</time></trkpt><trkpt lat="45.757251100901186" lon="8.382539763144074"><ele>464.49999999999994</ele><time>2026-04-26T13:12:10Z</time></trkpt><trkpt lat="45.75731845637302" lon="8.382601851238462"><ele>464.0</ele><time>2026-04-26T13:12:13Z</time></trkpt><trkpt lat="45.757387564731104" lon="8.38267636577059"><ele>464.0</ele><time>2026-04-26T13:12:17Z</time></trkpt><trkpt lat="45.75744812558509" lon="8.38273817922561"><ele>464.0</ele><time>2026-04-26T13:12:18.001Z</time></trkpt><trkpt lat="45.75754445423139" lon="8.38284481969647"><ele>464.0</ele><time>2026-04-26T13:12:20.001Z</time></trkpt><trkpt lat="45.75761219418701" lon="8.382926331076106"><ele>464.0</ele><time>2026-04-26T13:12:21.001Z</time></trkpt><trkpt lat="45.75768092577403" lon="8.383007833433993"><ele>464.0</ele><time>2026-04-26T13:12:22.001Z</time></trkpt><trkpt lat="45.75775058343101" lon="8.383089921343506"><ele>463.6</ele><time>2026-04-26T13:12:23.001Z</time></trkpt><trkpt lat="45.757837779813684" lon="8.383182975792293"><ele>463.2</ele><time>2026-04-26T13:12:24.001Z</time></trkpt><trkpt lat="45.757935476864894" lon="8.383276434331288"><ele>462.80000000000007</ele><time>2026-04-26T13:12:25.001Z</time></trkpt><trkpt lat="45.75802733745495" lon="8.383359174176126"><ele>462.40000000000003</ele><time>2026-04-26T13:12:26.001Z</time></trkpt><trkpt lat="45.758106137419546" lon="8.383448266873334"><ele>462.0</ele><time>2026-04-26T13:12:27.001Z</time></trkpt><trkpt lat="45.75817138233642" lon="8.383533794372267"><ele>462.0</ele><time>2026-04-26T13:12:28.001Z</time></trkpt><trkpt lat="45.758236375484195" lon="8.383614972580979"><ele>462.0</ele><time>2026-04-26T13:12:29.001Z</time></trkpt><trkpt lat="45.75829053046805" lon="8.38369784249136"><ele>462.0</ele><time>2026-04-26T13:12:30.001Z</time></trkpt><trkpt lat="45.75831532775701" lon="8.383807874724557"><ele>462.0</ele><time>2026-04-26T13:12:31.001Z</time></trkpt><trkpt lat="45.75825527737479" lon="8.383880874608883"><ele>462.0</ele><time>2026-04-26T13:12:32.001Z</time></trkpt><trkpt lat="45.75820142097554" lon="8.38399191780834"><ele>462.0</ele><time>2026-04-26T13:12:33.001Z</time></trkpt><trkpt lat="45.7581438641938" lon="8.384109695942517"><ele>461.75</ele><time>2026-04-26T13:12:34.001Z</time></trkpt><trkpt lat="45.75808256936271" lon="8.384234972591875"><ele>461.5</ele><time>2026-04-26T13:12:35.001Z</time></trkpt><trkpt lat="45.75803027741738" lon="8.384392498142189"><ele>461.25</ele><time>2026-04-26T13:12:36.001Z</time></trkpt><trkpt lat="45.75795331640162" lon="8.384540174100714"><ele>461.0</ele><time>2026-04-26T13:12:37.001Z</time></trkpt><trkpt lat="45.75788190439815" lon="8.384684231816538"><ele>461.0</ele><time>2026-04-26T13:12:38.001Z</time></trkpt><trkpt lat="45.75780191816624" lon="8.384830529378332"><ele>461.0</ele><time>2026-04-26T13:12:39.001Z</time></trkpt><trkpt lat="45.757714241781045" lon="8.38496039167297"><ele>461.0</ele><time>2026-04-26T13:12:40.001Z</time></trkpt><trkpt lat="45.75764829467222" lon="8.38512847213675"><ele>461.0</ele><time>2026-04-26T13:12:41.001Z</time></trkpt><trkpt lat="45.75755257715645" lon="8.385276207763386"><ele>460.66666666666663</ele><time>2026-04-26T13:12:42.001Z</time></trkpt><trkpt lat="45.757466004382046" lon="8.38544397085324"><ele>460.33333333333337</ele><time>2026-04-26T13:12:43.001Z</time></trkpt><trkpt lat="45.757376872197604" lon="8.385621377642584"><ele>460.0</ele><time>2026-04-26T13:12:44.001Z</time></trkpt><trkpt lat="45.75728616087078" lon="8.385796591657765"><ele>460.0</ele><time>2026-04-26T13:12:45.001Z</time></trkpt><trkpt lat="45.75719328085748" lon="8.385981845381036"><ele>460.0</ele><time>2026-04-26T13:12:46.001Z</time></trkpt><trkpt lat="45.757101093342925" lon="8.386167505206203"><ele>460.0</ele><time>2026-04-26T13:12:47.001Z</time></trkpt><trkpt lat="45.757002224931725" lon="8.386360788779783"><ele>458.75</ele><time>2026-04-26T13:12:48.001Z</time></trkpt><trkpt lat="45.756908283276516" lon="8.386539833181613"><ele>457.5</ele><time>2026-04-26T13:12:49.001Z</time></trkpt><trkpt lat="45.75682360779499" lon="8.386707727372698"><ele>456.25</ele><time>2026-04-26T13:12:50.001Z</time></trkpt><trkpt lat="45.75673812013262" lon="8.386880034555023"><ele>455.0</ele><time>2026-04-26T13:12:51.001Z</time></trkpt><trkpt lat="45.75665663174702" lon="8.387039882582428"><ele>453.75</ele><time>2026-04-26T13:12:52.001Z</time></trkpt><trkpt lat="45.75657456966276" lon="8.387194254721322"><ele>452.5</ele><time>2026-04-26T13:12:53.001Z</time></trkpt><trkpt lat="45.75650647846688" lon="8.387344766634865"><ele>451.25</ele><time>2026-04-26T13:12:54.001Z</time></trkpt><trkpt lat="45.75644624128496" lon="8.38749540749018"><ele>450.0</ele><time>2026-04-26T13:12:55.001Z</time></trkpt><trkpt lat="45.756404243372764" lon="8.387616082382143"><ele>450.0</ele><time>2026-04-26T13:12:56.001Z</time></trkpt><trkpt lat="45.75635830932036" lon="8.387685460367585"><ele>450.0</ele><time>2026-04-26T13:12:57.001Z</time></trkpt><trkpt lat="45.75647083643589" lon="8.387781074800818"><ele>450.0</ele><time>2026-04-26T13:12:58.001Z</time></trkpt><trkpt lat="45.75655927186856" lon="8.387841435655957"><ele>450.0</ele><time>2026-04-26T13:12:59.001Z</time></trkpt><trkpt lat="45.75665027782819" lon="8.387950777835758"><ele>450.0</ele><time>2026-04-26T13:13:00.001Z</time></trkpt><trkpt lat="45.75675703471291" lon="8.388050762543863"><ele>448.5</ele><time>2026-04-26T13:13:01.001Z</time></trkpt><trkpt lat="45.75688940900429" lon="8.388147628068486"><ele>447.0</ele><time>2026-04-26T13:13:02.001Z</time></trkpt><trkpt lat="45.756973472137034" lon="8.388154097229828"><ele>445.5</ele><time>2026-04-26T13:13:03.001Z</time></trkpt><trkpt lat="45.757074137926715" lon="8.388079715660176"><ele>444.0</ele><time>2026-04-26T13:13:04.001Z</time></trkpt><trkpt lat="45.75716560366392" lon="8.387927275301797"><ele>444.0</ele><time>2026-04-26T13:13:05.001Z</time></trkpt><trkpt lat="45.75724119303676" lon="8.387741220948806"><ele>444.0</ele><time>2026-04-26T13:13:06.001Z</time></trkpt><trkpt lat="45.75733758718708" lon="8.38757929055353"><ele>444.0</ele><time>2026-04-26T13:13:07.001Z</time></trkpt><trkpt lat="45.7574247261672" lon="8.387396109076336"><ele>444.0</ele><time>2026-04-26T13:13:08.001Z</time></trkpt><trkpt lat="45.75750115479818" lon="8.387228355210498"><ele>444.0</ele><time>2026-04-26T13:13:09.001Z</time></trkpt><trkpt lat="45.75757715660474" lon="8.38706324583929"><ele>444.0</ele><time>2026-04-26T13:13:10.001Z</time></trkpt><trkpt lat="45.75766449389998" lon="8.386931140566233"><ele>444.0</ele><time>2026-04-26T13:13:11.002Z</time></trkpt><trkpt lat="45.757791971367894" lon="8.386873439717034"><ele>443.0</ele><time>2026-04-26T13:13:12.002Z</time></trkpt><trkpt lat="45.757956555057255" lon="8.386777514572438"><ele>442.0</ele><time>2026-04-26T13:13:13.002Z</time></trkpt><trkpt lat="45.75809937853569" lon="8.386631488008664"><ele>441.0</ele><time>2026-04-26T13:13:14.002Z</time></trkpt><trkpt lat="45.75827005524727" lon="8.386458931990248"><ele>441.0</ele><time>2026-04-26T13:13:15.002Z</time></trkpt><trkpt lat="45.75841913495879" lon="8.38634867475802"><ele>441.0</ele><time>2026-04-26T13:13:16.002Z</time></trkpt><trkpt lat="45.75857766586439" lon="8.386284299046956"><ele>441.0</ele><time>2026-04-26T13:13:17.002Z</time></trkpt><trkpt lat="45.758729457699125" lon="8.386186243949405"><ele>441.66666666666663</ele><time>2026-04-26T13:13:18.002Z</time></trkpt><trkpt lat="45.75888817983352" lon="8.386081418404844"><ele>442.3333333333333</ele><time>2026-04-26T13:13:19.002Z</time></trkpt><trkpt lat="45.75906849114006" lon="8.385951938896202"><ele>443.0</ele><time>2026-04-26T13:13:20.002Z</time></trkpt><trkpt lat="45.75920921805414" lon="8.385843892048067"><ele>437.66666666666663</ele><time>2026-04-26T13:13:21.002Z</time></trkpt><trkpt lat="45.75937045794985" lon="8.385752385958892"><ele>432.33333333333337</ele><time>2026-04-26T13:13:22.002Z</time></trkpt><trkpt lat="45.759543376719925" lon="8.385685646421441"><ele>427.0</ele><time>2026-04-26T13:13:23.002Z</time></trkpt><trkpt lat="45.75970368149573" lon="8.385625331005507"><ele>427.0</ele><time>2026-04-26T13:13:24.002Z</time></trkpt><trkpt lat="45.759856342325754" lon="8.385568739259439"><ele>427.0</ele><time>2026-04-26T13:13:25.002Z</time></trkpt><trkpt lat="45.760008264206576" lon="8.385517870787746"><ele>427.0</ele><time>2026-04-26T13:13:26.002Z</time></trkpt><trkpt lat="45.76016238060407" lon="8.385493952476759"><ele>423.33333333333337</ele><time>2026-04-26T13:13:27.002Z</time></trkpt><trkpt lat="45.760312584163984" lon="8.38551193913111"><ele>419.66666666666663</ele><time>2026-04-26T13:13:28.002Z</time></trkpt><trkpt lat="45.76046559803918" lon="8.385534082884632"><ele>416.0</ele><time>2026-04-26T13:13:29.002Z</time></trkpt><trkpt lat="45.7606280688194" lon="8.385546025846189"><ele>416.0</ele><time>2026-04-26T13:13:30.002Z</time></trkpt><trkpt lat="45.760789854857265" lon="8.385525299930618"><ele>416.0</ele><time>2026-04-26T13:13:31.002Z</time></trkpt><trkpt lat="45.76095500957836" lon="8.385485133148956"><ele>416.0</ele><time>2026-04-26T13:13:32.002Z</time></trkpt><trkpt lat="45.76112275269399" lon="8.385425350925544"><ele>422.0</ele><time>2026-04-26T13:13:33.002Z</time></trkpt><trkpt lat="45.76128594393546" lon="8.385352267433438"><ele>428.0</ele><time>2026-04-26T13:13:34.002Z</time></trkpt><trkpt lat="45.76144466640837" lon="8.385256132488463"><ele>434.0</ele><time>2026-04-26T13:13:35.002Z</time></trkpt><trkpt lat="45.761600454582165" lon="8.385154459053258"><ele>434.0</ele><time>2026-04-26T13:13:36.002Z</time></trkpt><trkpt lat="45.7617740103617" lon="8.385072599839917"><ele>434.0</ele><time>2026-04-26T13:13:37.002Z</time></trkpt><trkpt lat="45.761952034705445" lon="8.385053667797916"><ele>434.0</ele><time>2026-04-26T13:13:37.999Z</time></trkpt><trkpt lat="45.7621441947244" lon="8.385021701450457"><ele>433.3333333333333</ele><time>2026-04-26T13:13:38.999Z</time></trkpt><trkpt lat="45.762335469036465" lon="8.38503261589796"><ele>432.66666666666663</ele><time>2026-04-26T13:13:39.999Z</time></trkpt><trkpt lat="45.76255415817262" lon="8.385040465954061"><ele>432.0</ele><time>2026-04-26T13:13:40.999Z</time></trkpt><trkpt lat="45.762819877176526" lon="8.38503720352197"><ele>432.0</ele><time>2026-04-26T13:13:41.999Z</time></trkpt><trkpt lat="45.76310131478026" lon="8.385091889659783"><ele>432.0</ele><time>2026-04-26T13:13:42.999Z</time></trkpt><trkpt lat="45.763376455053155" lon="8.385063118039628"><ele>431.5</ele><time>2026-04-26T13:13:43.999Z</time></trkpt><trkpt lat="45.76365676958668" lon="8.385079854295471"><ele>431.0</ele><time>2026-04-26T13:13:44.999Z</time></trkpt><trkpt lat="45.76393693665251" lon="8.385101788901208"><ele>431.0</ele><time>2026-04-26T13:13:45.999Z</time></trkpt><trkpt lat="45.764207956341366" lon="8.385197431221052"><ele>431.0</ele><time>2026-04-26T13:13:46.999Z</time></trkpt><trkpt lat="45.76444189222814" lon="8.385290958013053"><ele>433.0</ele><time>2026-04-26T13:13:47.999Z</time></trkpt><trkpt lat="45.7646938081219" lon="8.385399191433999"><ele>435.0</ele><time>2026-04-26T13:13:49Z</time></trkpt><trkpt lat="45.76493021377382" lon="8.385522875851084"><ele>427.0</ele><time>2026-04-26T13:13:50Z</time></trkpt><trkpt lat="45.765103791919266" lon="8.385732172717642"><ele>419.0</ele><time>2026-04-26T13:13:51Z</time></trkpt><trkpt lat="45.765282590165675" lon="8.385923223335691"><ele>419.0</ele><time>2026-04-26T13:13:52Z</time></trkpt><trkpt lat="45.76543898713842" lon="8.386083940949415"><ele>419.0</ele><time>2026-04-26T13:13:53Z</time></trkpt><trkpt lat="45.76560427399126" lon="8.386158574802359"><ele>419.0</ele><time>2026-04-26T13:13:54Z</time></trkpt><trkpt lat="45.76577521566732" lon="8.386115756979896"><ele>419.0</ele><time>2026-04-26T13:13:55Z</time></trkpt><trkpt lat="45.76597462217342" lon="8.3860591764244"><ele>419.0</ele><time>2026-04-26T13:13:56Z</time></trkpt><trkpt lat="45.766211240374204" lon="8.385968156460976"><ele>419.0</ele><time>2026-04-26T13:13:57Z</time></trkpt><trkpt lat="45.76648229854502" lon="8.385882184346057"><ele>417.3333333333333</ele><time>2026-04-26T13:13:58Z</time></trkpt><trkpt lat="45.76671010231149" lon="8.385875795215462"><ele>415.66666666666663</ele><time>2026-04-26T13:13:59Z</time></trkpt><trkpt lat="45.766918939731035" lon="8.38584129560119"><ele>414.0</ele><time>2026-04-26T13:14:00Z</time></trkpt><trkpt lat="45.7671379779315" lon="8.385718392816985"><ele>409.0</ele><time>2026-04-26T13:14:01Z</time></trkpt><trkpt lat="45.76737327743688" lon="8.385554622909329"><ele>404.0</ele><time>2026-04-26T13:14:02Z</time></trkpt><trkpt lat="45.767607198821956" lon="8.385493634555294"><ele>416.5</ele><time>2026-04-26T13:14:03Z</time></trkpt><trkpt lat="45.76784120777591" lon="8.385436648578397"><ele>429.0</ele><time>2026-04-26T13:14:04Z</time></trkpt><trkpt lat="45.76807994124489" lon="8.385389829526808"><ele>429.0</ele><time>2026-04-26T13:14:05Z</time></trkpt><trkpt lat="45.76829510590371" lon="8.385373501979213"><ele>429.0</ele><time>2026-04-26T13:14:06Z</time></trkpt><trkpt lat="45.76850613942823" lon="8.385305146964264"><ele>429.0</ele><time>2026-04-26T13:14:07Z</time></trkpt><trkpt lat="45.76870964393636" lon="8.385153031675989"><ele>419.0</ele><time>2026-04-26T13:14:08Z</time></trkpt><trkpt lat="45.76890850997562" lon="8.384949600178356"><ele>409.0</ele><time>2026-04-26T13:14:09Z</time></trkpt><trkpt lat="45.7691040616657" lon="8.38476279848055"><ele>410.33333333333337</ele><time>2026-04-26T13:14:10Z</time></trkpt><trkpt lat="45.76928942385252" lon="8.3846526551389"><ele>411.66666666666663</ele><time>2026-04-26T13:14:11Z</time></trkpt><trkpt lat="45.76947450069502" lon="8.38460907665449"><ele>413.0</ele><time>2026-04-26T13:14:12Z</time></trkpt><trkpt lat="45.7697003592416" lon="8.384609792239068"><ele>413.0</ele><time>2026-04-26T13:14:13Z</time></trkpt><trkpt lat="45.769934614925965" lon="8.384610469785045"><ele>413.0</ele><time>2026-04-26T13:14:14Z</time></trkpt><trkpt lat="45.77016808338013" lon="8.384582033566362"><ele>409.0</ele><time>2026-04-26T13:14:15Z</time></trkpt><trkpt lat="45.77042606041948" lon="8.384456372647776"><ele>405.0</ele><time>2026-04-26T13:14:16Z</time></trkpt><trkpt lat="45.7706948882115" lon="8.3843074937758"><ele>405.0</ele><time>2026-04-26T13:14:17Z</time></trkpt><trkpt lat="45.770933951635456" lon="8.384197476195649"><ele>405.0</ele><time>2026-04-26T13:14:18Z</time></trkpt><trkpt lat="45.771157055098286" lon="8.384125363811538"><ele>403.0</ele><time>2026-04-26T13:14:19Z</time></trkpt><trkpt lat="45.77138186700358" lon="8.384114141401911"><ele>401.0</ele><time>2026-04-26T13:14:20Z</time></trkpt><trkpt lat="45.77161961941139" lon="8.384071654015624"><ele>400.0</ele><time>2026-04-26T13:14:21Z</time></trkpt><trkpt lat="45.77186618130624" lon="8.384051124036349"><ele>399.0</ele><time>2026-04-26T13:14:22Z</time></trkpt><trkpt lat="45.772119557533934" lon="8.38401945977246"><ele>399.0</ele><time>2026-04-26T13:14:23Z</time></trkpt><trkpt lat="45.77237375036727" lon="8.38398157169125"><ele>399.0</ele><time>2026-04-26T13:14:24Z</time></trkpt><trkpt lat="45.77261632940056" lon="8.383949133739662"><ele>400.33333333333337</ele><time>2026-04-26T13:14:25Z</time></trkpt><trkpt lat="45.77284076029418" lon="8.383926769643656"><ele>401.6666666666667</ele><time>2026-04-26T13:14:26Z</time></trkpt><trkpt lat="45.77303789481432" lon="8.383904139605258"><ele>403.0</ele><time>2026-04-26T13:14:27.001Z</time></trkpt><trkpt lat="45.77323001039887" lon="8.383909532099066"><ele>403.0</ele><time>2026-04-26T13:14:28.001Z</time></trkpt><trkpt lat="45.773434735295936" lon="8.383976177930986"><ele>403.0</ele><time>2026-04-26T13:14:29.001Z</time></trkpt><trkpt lat="45.77364137216775" lon="8.384074005655913"><ele>403.0</ele><time>2026-04-26T13:14:30.001Z</time></trkpt><trkpt lat="45.77384550007179" lon="8.38416289464568"><ele>407.0</ele><time>2026-04-26T13:14:31.001Z</time></trkpt><trkpt lat="45.774089153515625" lon="8.384315388369254"><ele>411.0</ele><time>2026-04-26T13:14:32.001Z</time></trkpt><trkpt lat="45.774333264148716" lon="8.38447120243844"><ele>415.5</ele><time>2026-04-26T13:14:33.001Z</time></trkpt><trkpt lat="45.77457955900818" lon="8.384625334797681"><ele>420.0</ele><time>2026-04-26T13:14:34.001Z</time></trkpt><trkpt lat="45.77483459456099" lon="8.384771419390153"><ele>411.5</ele><time>2026-04-26T13:14:35.001Z</time></trkpt><trkpt lat="45.7750908052608" lon="8.384914283905076"><ele>403.0</ele><time>2026-04-26T13:14:36.001Z</time></trkpt><trkpt lat="45.775350278528414" lon="8.385063031117465"><ele>403.0</ele><time>2026-04-26T13:14:37.001Z</time></trkpt><trkpt lat="45.77557143208717" lon="8.385197172732996"><ele>403.0</ele><time>2026-04-26T13:14:38.001Z</time></trkpt><trkpt lat="45.775753346296554" lon="8.38527734514406"><ele>403.0</ele><time>2026-04-26T13:14:39.001Z</time></trkpt><trkpt lat="45.77591349417739" lon="8.385381003957356"><ele>401.33333333333337</ele><time>2026-04-26T13:14:40.001Z</time></trkpt><trkpt lat="45.77607453302881" lon="8.385457853927429"><ele>399.66666666666663</ele><time>2026-04-26T13:14:41.001Z</time></trkpt><trkpt lat="45.77620373782673" lon="8.385464645799464"><ele>398.0</ele><time>2026-04-26T13:14:42.001Z</time></trkpt><trkpt lat="45.776345223087475" lon="8.385348263454487"><ele>398.0</ele><time>2026-04-26T13:14:43.001Z</time></trkpt><trkpt lat="45.77650301674665" lon="8.385184030499856"><ele>398.0</ele><time>2026-04-26T13:14:44.001Z</time></trkpt><trkpt lat="45.776665265630434" lon="8.384970968212722"><ele>398.0</ele><time>2026-04-26T13:14:45.001Z</time></trkpt><trkpt lat="45.77684731627478" lon="8.384827518665608"><ele>395.66666666666663</ele><time>2026-04-26T13:14:46.001Z</time></trkpt><trkpt lat="45.777037232967814" lon="8.384777012370153"><ele>393.33333333333337</ele><time>2026-04-26T13:14:47.001Z</time></trkpt><trkpt lat="45.777241744176" lon="8.384816201408865"><ele>391.0</ele><time>2026-04-26T13:14:48.001Z</time></trkpt><trkpt lat="45.77745103429691" lon="8.384896316884173"><ele>391.0</ele><time>2026-04-26T13:14:49.001Z</time></trkpt><trkpt lat="45.77766860495908" lon="8.384947085246413"><ele>391.0</ele><time>2026-04-26T13:14:50.001Z</time></trkpt><trkpt lat="45.77790620631912" lon="8.384922649792223"><ele>388.0</ele><time>2026-04-26T13:14:51.001Z</time></trkpt><trkpt lat="45.778168642124236" lon="8.384862253527535"><ele>385.0</ele><time>2026-04-26T13:14:52.001Z</time></trkpt><trkpt lat="45.77841553558365" lon="8.384783202688602"><ele>384.0</ele><time>2026-04-26T13:14:53.001Z</time></trkpt><trkpt lat="45.77866088465879" lon="8.384706477088185"><ele>383.0</ele><time>2026-04-26T13:14:54.001Z</time></trkpt><trkpt lat="45.77889888424153" lon="8.384623210374377"><ele>385.0</ele><time>2026-04-26T13:14:55.001Z</time></trkpt><trkpt lat="45.77913666429442" lon="8.38449517922938"><ele>387.0</ele><time>2026-04-26T13:14:56.001Z</time></trkpt><trkpt lat="45.779380242613605" lon="8.384349112266351"><ele>387.0</ele><time>2026-04-26T13:14:57.001Z</time></trkpt><trkpt lat="45.779609114246824" lon="8.384232048767021"><ele>387.0</ele><time>2026-04-26T13:14:58.001Z</time></trkpt><trkpt lat="45.7798408372152" lon="8.384133615629871"><ele>387.0</ele><time>2026-04-26T13:14:59.001Z</time></trkpt><trkpt lat="45.78007409384768" lon="8.38402468925552"><ele>387.0</ele><time>2026-04-26T13:15:00.001Z</time></trkpt><trkpt lat="45.780313595195885" lon="8.383908782937537"><ele>394.0</ele><time>2026-04-26T13:15:01.001Z</time></trkpt><trkpt lat="45.780548602361094" lon="8.383812250109253"><ele>401.0</ele><time>2026-04-26T13:15:02.001Z</time></trkpt><trkpt lat="45.780783596505046" lon="8.383707405695105"><ele>397.5</ele><time>2026-04-26T13:15:03.001Z</time></trkpt><trkpt lat="45.78102079647598" lon="8.383591981897297"><ele>394.0</ele><time>2026-04-26T13:15:04.001Z</time></trkpt><trkpt lat="45.78125734255823" lon="8.38346035400303"><ele>394.0</ele><time>2026-04-26T13:15:05.001Z</time></trkpt><trkpt lat="45.78150177875643" lon="8.38334609280694"><ele>394.0</ele><time>2026-04-26T13:15:06.001Z</time></trkpt><trkpt lat="45.78174454130493" lon="8.383233067404156"><ele>395.0</ele><time>2026-04-26T13:15:07.001Z</time></trkpt><trkpt lat="45.78199018202827" lon="8.383106392484521"><ele>396.0</ele><time>2026-04-26T13:15:08.001Z</time></trkpt><trkpt lat="45.78223664644938" lon="8.382982268485314"><ele>391.0</ele><time>2026-04-26T13:15:09.001Z</time></trkpt><trkpt lat="45.78270638632761" lon="8.382758628703048"><ele>391.0</ele><time>2026-04-26T13:15:11.001Z</time></trkpt><trkpt lat="45.782915671050844" lon="8.382645753748573"><ele>391.0</ele><time>2026-04-26T13:15:12.001Z</time></trkpt><trkpt lat="45.783110846992884" lon="8.3825566507646"><ele>391.0</ele><time>2026-04-26T13:15:13.001Z</time></trkpt><trkpt lat="45.78327498791837" lon="8.382479621328768"><ele>391.0</ele><time>2026-04-26T13:15:14.001Z</time></trkpt><trkpt lat="45.7834214867153" lon="8.382420670035266"><ele>391.0</ele><time>2026-04-26T13:15:15.002Z</time></trkpt><trkpt lat="45.783557115267236" lon="8.382407268064398"><ele>391.0</ele><time>2026-04-26T13:15:16.002Z</time></trkpt><trkpt lat="45.78365902879836" lon="8.382445026238205"><ele>391.0</ele><time>2026-04-26T13:15:17.002Z</time></trkpt><trkpt lat="45.78373341918388" lon="8.382507402248097"><ele>391.00000000000006</ele><time>2026-04-26T13:15:18.002Z</time></trkpt><trkpt lat="45.783812950808695" lon="8.382543988170779"><ele>391.0</ele><time>2026-04-26T13:15:19.002Z</time></trkpt><trkpt lat="45.78387861917832" lon="8.38247160340938"><ele>391.0</ele><time>2026-04-26T13:15:20.002Z</time></trkpt><trkpt lat="45.78391224663972" lon="8.382362335108285"><ele>391.0</ele><time>2026-04-26T13:15:21.002Z</time></trkpt><trkpt lat="45.78389152155714" lon="8.382227477202589"><ele>391.00000000000006</ele><time>2026-04-26T13:15:22.002Z</time></trkpt><trkpt lat="45.783835932225614" lon="8.382110027292965"><ele>391.0</ele><time>2026-04-26T13:15:23.002Z</time></trkpt><trkpt lat="45.78378856498425" lon="8.381986472839772"><ele>391.25</ele><time>2026-04-26T13:15:24.002Z</time></trkpt><trkpt lat="45.783802180329715" lon="8.38184327581123"><ele>391.5</ele><time>2026-04-26T13:15:25.002Z</time></trkpt><trkpt lat="45.78388495374433" lon="8.381690657431657"><ele>391.75</ele><time>2026-04-26T13:15:26.002Z</time></trkpt><trkpt lat="45.78403997654566" lon="8.381534579117423"><ele>392.0</ele><time>2026-04-26T13:15:27.002Z</time></trkpt><trkpt lat="45.78422206057612" lon="8.381354682978674"><ele>389.5</ele><time>2026-04-26T13:15:28.002Z</time></trkpt><trkpt lat="45.78440417976138" lon="8.381099198008732"><ele>387.0</ele><time>2026-04-26T13:15:29.002Z</time></trkpt><trkpt lat="45.784582593865636" lon="8.380765773912279"><ele>387.5</ele><time>2026-04-26T13:15:30.002Z</time></trkpt><trkpt lat="45.78475094161908" lon="8.380397177176873"><ele>388.0</ele><time>2026-04-26T13:15:31.002Z</time></trkpt><trkpt lat="45.784882681032066" lon="8.380069154505177"><ele>388.0</ele><time>2026-04-26T13:15:32.002Z</time></trkpt><trkpt lat="45.78501283032228" lon="8.379779640614837"><ele>388.0</ele><time>2026-04-26T13:15:33.002Z</time></trkpt><trkpt lat="45.78515095481928" lon="8.379556513060706"><ele>388.0</ele><time>2026-04-26T13:15:34.002Z</time></trkpt><trkpt lat="45.78529623149173" lon="8.379375696673915"><ele>388.6666666666667</ele><time>2026-04-26T13:15:35.002Z</time></trkpt><trkpt lat="45.78545407265588" lon="8.379227277477552"><ele>389.33333333333337</ele><time>2026-04-26T13:15:36.002Z</time></trkpt><trkpt lat="45.78561951525985" lon="8.379113848820712"><ele>390.0</ele><time>2026-04-26T13:15:37.002Z</time></trkpt><trkpt lat="45.7857836237827" lon="8.379017351693825"><ele>390.0</ele><time>2026-04-26T13:15:38.002Z</time></trkpt><trkpt lat="45.785956733065106" lon="8.378914547178852"><ele>390.0</ele><time>2026-04-26T13:15:39.002Z</time></trkpt><trkpt lat="45.786138064041126" lon="8.378836493482142"><ele>390.0</ele><time>2026-04-26T13:15:40.002Z</time></trkpt><trkpt lat="45.7863051816458" lon="8.378811856866868"><ele>390.0</ele><time>2026-04-26T13:15:41.002Z</time></trkpt><trkpt lat="45.786484492791004" lon="8.378841153485313"><ele>390.0</ele><time>2026-04-26T13:15:42.002Z</time></trkpt><trkpt lat="45.78667933491843" lon="8.378895816764805"><ele>390.0</ele><time>2026-04-26T13:15:43.002Z</time></trkpt><trkpt lat="45.78688948476944" lon="8.378897697243682"><ele>390.0</ele><time>2026-04-26T13:15:44Z</time></trkpt><trkpt lat="45.78709817811464" lon="8.378912377092076"><ele>390.0</ele><time>2026-04-26T13:15:45Z</time></trkpt><trkpt lat="45.78731541209584" lon="8.378928209031287"><ele>390.0</ele><time>2026-04-26T13:15:46Z</time></trkpt><trkpt lat="45.787533076564834" lon="8.378931684532096"><ele>389.0</ele><time>2026-04-26T13:15:47Z</time></trkpt><trkpt lat="45.78775504530501" lon="8.378924830693768"><ele>388.0</ele><time>2026-04-26T13:15:48Z</time></trkpt><trkpt lat="45.78797434512334" lon="8.378901973535836"><ele>387.0</ele><time>2026-04-26T13:15:49Z</time></trkpt><trkpt lat="45.78820052459704" lon="8.378873790232987"><ele>387.0</ele><time>2026-04-26T13:15:50Z</time></trkpt><trkpt lat="45.78840145618695" lon="8.378852130298124"><ele>387.0</ele><time>2026-04-26T13:15:51Z</time></trkpt><trkpt lat="45.7886004537873" lon="8.378787670266375"><ele>387.0</ele><time>2026-04-26T13:15:52Z</time></trkpt><trkpt lat="45.78880735571555" lon="8.37870104555272"><ele>387.66666666666663</ele><time>2026-04-26T13:15:53Z</time></trkpt><trkpt lat="45.7890036992571" lon="8.378609045529966"><ele>388.3333333333333</ele><time>2026-04-26T13:15:54Z</time></trkpt><trkpt lat="45.78919240090601" lon="8.37851767091252"><ele>389.0</ele><time>2026-04-26T13:15:55Z</time></trkpt><trkpt lat="45.78937201445333" lon="8.378425960075498"><ele>389.0</ele><time>2026-04-26T13:15:56Z</time></trkpt><trkpt lat="45.78954111971273" lon="8.378348658042507"><ele>389.0</ele><time>2026-04-26T13:15:57Z</time></trkpt><trkpt lat="45.78969808155715" lon="8.378274889545295"><ele>389.0</ele><time>2026-04-26T13:15:58Z</time></trkpt><trkpt lat="45.78984409850324" lon="8.378202745088736"><ele>389.0</ele><time>2026-04-26T13:15:59Z</time></trkpt><trkpt lat="45.78999041313737" lon="8.378129570560473"><ele>389.0</ele><time>2026-04-26T13:16:00Z</time></trkpt><trkpt lat="45.79013106294454" lon="8.378058459118607"><ele>389.0</ele><time>2026-04-26T13:16:01Z</time></trkpt><trkpt lat="45.79025503620434" lon="8.378009299634007"><ele>389.0</ele><time>2026-04-26T13:16:02Z</time></trkpt><trkpt lat="45.79037629531036" lon="8.377955459015974"><ele>390.5</ele><time>2026-04-26T13:16:03Z</time></trkpt><trkpt lat="45.79049040680352" lon="8.377907420183751"><ele>392.0</ele><time>2026-04-26T13:16:04Z</time></trkpt><trkpt lat="45.79060434453514" lon="8.377854886296637"><ele>393.5</ele><time>2026-04-26T13:16:05Z</time></trkpt><trkpt lat="45.79071037959089" lon="8.37780726854759"><ele>395.0</ele><time>2026-04-26T13:16:06Z</time></trkpt><trkpt lat="45.79081730903305" lon="8.377764927104105"><ele>395.0</ele><time>2026-04-26T13:16:07Z</time></trkpt><trkpt lat="45.790923206613805" lon="8.37772737846928"><ele>395.0</ele><time>2026-04-26T13:16:08Z</time></trkpt><trkpt lat="45.7910344875371" lon="8.377695462679613"><ele>395.0</ele><time>2026-04-26T13:16:09Z</time></trkpt><trkpt lat="45.791149129714704" lon="8.377674948705039"><ele>395.0</ele><time>2026-04-26T13:16:10Z</time></trkpt><trkpt lat="45.79126959970854" lon="8.377657884936731"><ele>394.75</ele><time>2026-04-26T13:16:11Z</time></trkpt><trkpt lat="45.79139164715621" lon="8.377638202993847"><ele>394.5</ele><time>2026-04-26T13:16:12Z</time></trkpt><trkpt lat="45.79151800866855" lon="8.377618187898593"><ele>394.25</ele><time>2026-04-26T13:16:13Z</time></trkpt><trkpt lat="45.791650619162624" lon="8.377599682487261"><ele>394.0</ele><time>2026-04-26T13:16:14Z</time></trkpt><trkpt lat="45.79178539741226" lon="8.377579904760125"><ele>393.6666666666667</ele><time>2026-04-26T13:16:15Z</time></trkpt><trkpt lat="45.791927987765234" lon="8.377565868990636"><ele>393.33333333333337</ele><time>2026-04-26T13:16:16Z</time></trkpt><trkpt lat="45.79208692431712" lon="8.377547511533987"><ele>393.0</ele><time>2026-04-26T13:16:17Z</time></trkpt><trkpt lat="45.79224804903024" lon="8.377527345012606"><ele>393.0</ele><time>2026-04-26T13:16:18Z</time></trkpt><trkpt lat="45.79240404506574" lon="8.377511033750727"><ele>393.0</ele><time>2026-04-26T13:16:19Z</time></trkpt><trkpt lat="45.79255766599846" lon="8.37750910002565"><ele>393.0</ele><time>2026-04-26T13:16:20Z</time></trkpt><trkpt lat="45.79271016774512" lon="8.377523975703161"><ele>392.33333333333337</ele><time>2026-04-26T13:16:21Z</time></trkpt><trkpt lat="45.792861171387464" lon="8.37753906803957"><ele>391.6666666666667</ele><time>2026-04-26T13:16:22Z</time></trkpt><trkpt lat="45.79301538908357" lon="8.37755359474163"><ele>391.0</ele><time>2026-04-26T13:16:23Z</time></trkpt><trkpt lat="45.79316721609953" lon="8.377569341815189"><ele>391.0</ele><time>2026-04-26T13:16:24Z</time></trkpt><trkpt lat="45.79331171906175" lon="8.377578835087748"><ele>391.0</ele><time>2026-04-26T13:16:25Z</time></trkpt><trkpt lat="45.793457104956744" lon="8.377588311700746"><ele>391.0</ele><time>2026-04-26T13:16:26Z</time></trkpt><trkpt lat="45.793612474310954" lon="8.377599113902795"><ele>391.0</ele><time>2026-04-26T13:16:27Z</time></trkpt><trkpt lat="45.793772441420614" lon="8.377611981851349"><ele>392.0</ele><time>2026-04-26T13:16:28Z</time></trkpt><trkpt lat="45.79393798290876" lon="8.377615386693996"><ele>393.0</ele><time>2026-04-26T13:16:29Z</time></trkpt><trkpt lat="45.79409554356044" lon="8.377630618987402"><ele>394.0</ele><time>2026-04-26T13:16:30.001Z</time></trkpt><trkpt lat="45.794235268827094" lon="8.377705537564658"><ele>391.33333333333337</ele><time>2026-04-26T13:16:31.001Z</time></trkpt><trkpt lat="45.794371401510276" lon="8.37779816698142"><ele>388.66666666666663</ele><time>2026-04-26T13:16:32.001Z</time></trkpt><trkpt lat="45.794504341890644" lon="8.377908477420329"><ele>386.0</ele><time>2026-04-26T13:16:33.001Z</time></trkpt><trkpt lat="45.79462228214228" lon="8.37804015685181"><ele>386.0</ele><time>2026-04-26T13:16:34.001Z</time></trkpt><trkpt lat="45.794736800325424" lon="8.378156975284691"><ele>386.0</ele><time>2026-04-26T13:16:35.001Z</time></trkpt><trkpt lat="45.794852563940886" lon="8.378272754121499"><ele>386.0</ele><time>2026-04-26T13:16:36.001Z</time></trkpt><trkpt lat="45.7949679538387" lon="8.378385883521847"><ele>386.0</ele><time>2026-04-26T13:16:37.001Z</time></trkpt><trkpt lat="45.79507843355101" lon="8.378497915154393"><ele>386.8</ele><time>2026-04-26T13:16:38.001Z</time></trkpt><trkpt lat="45.795186165582315" lon="8.378600276720453"><ele>387.6</ele><time>2026-04-26T13:16:39.001Z</time></trkpt><trkpt lat="45.79528633811975" lon="8.378703204984824"><ele>388.4</ele><time>2026-04-26T13:16:40.001Z</time></trkpt><trkpt lat="45.79537061070168" lon="8.37878189162454"><ele>389.2</ele><time>2026-04-26T13:16:41.001Z</time></trkpt><trkpt lat="45.79543595545841" lon="8.378855953720219"><ele>390.0</ele><time>2026-04-26T13:16:42.001Z</time></trkpt><trkpt lat="45.79549326265753" lon="8.378920604122687"><ele>387.0</ele><time>2026-04-26T13:16:44.001Z</time></trkpt><trkpt lat="45.795533032090404" lon="8.37901093963452"><ele>384.0</ele><time>2026-04-26T13:16:47.001Z</time></trkpt><trkpt lat="45.79568523214091" lon="8.378983002375941"><ele>381.0</ele><time>2026-04-26T13:16:48.001Z</time></trkpt><trkpt lat="45.79582324427978" lon="8.378983236692354"><ele>378.0</ele><time>2026-04-26T13:16:49.001Z</time></trkpt><trkpt lat="45.795956701251015" lon="8.378960502100304"><ele>379.0</ele><time>2026-04-26T13:16:50.001Z</time></trkpt><trkpt lat="45.79612403577682" lon="8.37893209948992"><ele>380.0</ele><time>2026-04-26T13:16:51.001Z</time></trkpt><trkpt lat="45.79629675957283" lon="8.378905652084805"><ele>381.0</ele><time>2026-04-26T13:16:52.001Z</time></trkpt><trkpt lat="45.79646688344697" lon="8.37888926902693"><ele>381.0</ele><time>2026-04-26T13:16:53.001Z</time></trkpt><trkpt lat="45.796629068639504" lon="8.37889198533222"><ele>381.0</ele><time>2026-04-26T13:16:54.001Z</time></trkpt><trkpt lat="45.796789286902076" lon="8.37895591290702"><ele>381.0</ele><time>2026-04-26T13:16:55.001Z</time></trkpt><trkpt lat="45.796970750301725" lon="8.379087551394006"><ele>387.0</ele><time>2026-04-26T13:16:56.001Z</time></trkpt><trkpt lat="45.797179655383616" lon="8.379229748069159"><ele>393.0</ele><time>2026-04-26T13:16:57.001Z</time></trkpt><trkpt lat="45.79740114700727" lon="8.379382107302256"><ele>393.0</ele><time>2026-04-26T13:16:58.001Z</time></trkpt><trkpt lat="45.79761688068626" lon="8.379528270379412"><ele>393.0</ele><time>2026-04-26T13:16:59.001Z</time></trkpt><trkpt lat="45.79779655351945" lon="8.379653710784737"><ele>393.0</ele><time>2026-04-26T13:17:00.001Z</time></trkpt><trkpt lat="45.79800957191871" lon="8.379822510420626"><ele>390.66666666666663</ele><time>2026-04-26T13:17:01.001Z</time></trkpt><trkpt lat="45.79819311534078" lon="8.379981056940906"><ele>388.3333333333333</ele><time>2026-04-26T13:17:02.001Z</time></trkpt><trkpt lat="45.79836157332422" lon="8.380103759351956"><ele>386.0</ele><time>2026-04-26T13:17:03.001Z</time></trkpt><trkpt lat="45.79848921126215" lon="8.38020977612479"><ele>387.25</ele><time>2026-04-26T13:17:04.001Z</time></trkpt><trkpt lat="45.79860452098833" lon="8.380279147606988"><ele>388.5</ele><time>2026-04-26T13:17:05.001Z</time></trkpt><trkpt lat="45.798723155887345" lon="8.380334326579336"><ele>389.75</ele><time>2026-04-26T13:17:06.001Z</time></trkpt><trkpt lat="45.79883647617794" lon="8.380345973676395"><ele>391.0</ele><time>2026-04-26T13:17:07.001Z</time></trkpt><trkpt lat="45.7989383927657" lon="8.380327634569031"><ele>391.0</ele><time>2026-04-26T13:17:08.001Z</time></trkpt><trkpt lat="45.79902423969366" lon="8.380268408120612"><ele>391.0</ele><time>2026-04-26T13:17:09.001Z</time></trkpt><trkpt lat="45.799124463105905" lon="8.380193156110622"><ele>391.0</ele><time>2026-04-26T13:17:10.001Z</time></trkpt><trkpt lat="45.799210941890394" lon="8.380064070757573"><ele>391.0</ele><time>2026-04-26T13:17:11.001Z</time></trkpt><trkpt lat="45.79930226916274" lon="8.379864657436757"><ele>394.75</ele><time>2026-04-26T13:17:12.001Z</time></trkpt><trkpt lat="45.79939213819987" lon="8.379650511398442"><ele>398.5</ele><time>2026-04-26T13:17:13.001Z</time></trkpt><trkpt lat="45.799463110464536" lon="8.379502570921948"><ele>402.25</ele><time>2026-04-26T13:17:14.001Z</time></trkpt><trkpt lat="45.799526167441016" lon="8.379445040290268"><ele>406.0</ele><time>2026-04-26T13:17:15.001Z</time></trkpt><trkpt lat="45.79960212068826" lon="8.37949540439807"><ele>406.0</ele><time>2026-04-26T13:17:16.002Z</time></trkpt><trkpt lat="45.799708743738066" lon="8.37952779008443"><ele>406.0</ele><time>2026-04-26T13:17:17.002Z</time></trkpt><trkpt lat="45.799825152553694" lon="8.37955456514267"><ele>406.0</ele><time>2026-04-26T13:17:18.002Z</time></trkpt><trkpt lat="45.799929691910236" lon="8.379605360579955"><ele>406.0</ele><time>2026-04-26T13:17:19.002Z</time></trkpt><trkpt lat="45.799986200787224" lon="8.379702232643972"><ele>406.0</ele><time>2026-04-26T13:17:20.002Z</time></trkpt><trkpt lat="45.80001198456415" lon="8.379869289088562"><ele>402.5</ele><time>2026-04-26T13:17:21.002Z</time></trkpt><trkpt lat="45.80009784495065" lon="8.380054958795546"><ele>399.0</ele><time>2026-04-26T13:17:22.002Z</time></trkpt><trkpt lat="45.80015478202905" lon="8.380189550361766"><ele>395.5</ele><time>2026-04-26T13:17:23.002Z</time></trkpt><trkpt lat="45.80012919156017" lon="8.380364193189967"><ele>392.0</ele><time>2026-04-26T13:17:24.002Z</time></trkpt><trkpt lat="45.80014436155758" lon="8.3805225165002"><ele>392.5</ele><time>2026-04-26T13:17:25.002Z</time></trkpt><trkpt lat="45.80019609477304" lon="8.380670266799632"><ele>393.0</ele><time>2026-04-26T13:17:26.002Z</time></trkpt><trkpt lat="45.80025998484819" lon="8.380807980272618"><ele>393.5</ele><time>2026-04-26T13:17:27.002Z</time></trkpt><trkpt lat="45.800358625070885" lon="8.38098504609212"><ele>394.0</ele><time>2026-04-26T13:17:28.002Z</time></trkpt><trkpt lat="45.80044521180074" lon="8.381136290838588"><ele>394.0</ele><time>2026-04-26T13:17:29.002Z</time></trkpt><trkpt lat="45.800516130069234" lon="8.381277689677745"><ele>394.0</ele><time>2026-04-26T13:17:30.002Z</time></trkpt><trkpt lat="45.800532432794434" lon="8.381465392992231"><ele>394.0</ele><time>2026-04-26T13:17:31.002Z</time></trkpt><trkpt lat="45.80069630915155" lon="8.381396842887652"><ele>394.0</ele><time>2026-04-26T13:17:32.002Z</time></trkpt><trkpt lat="45.80084886154732" lon="8.381462614202656"><ele>388.0</ele><time>2026-04-26T13:17:33.002Z</time></trkpt><trkpt lat="45.80102982535134" lon="8.381510453095002"><ele>382.0</ele><time>2026-04-26T13:17:34.002Z</time></trkpt><trkpt lat="45.801201387045666" lon="8.381556759878546"><ele>376.0</ele><time>2026-04-26T13:17:35.002Z</time></trkpt><trkpt lat="45.80134273977448" lon="8.381555836095082"><ele>376.0</ele><time>2026-04-26T13:17:36.002Z</time></trkpt><trkpt lat="45.80143175247047" lon="8.381527105119826"><ele>376.0</ele><time>2026-04-26T13:17:37.002Z</time></trkpt><trkpt lat="45.80151093280565" lon="8.381416921098198"><ele>376.0</ele><time>2026-04-26T13:17:38.002Z</time></trkpt><trkpt lat="45.80157500281091" lon="8.38123504935897"><ele>376.0</ele><time>2026-04-26T13:17:39.002Z</time></trkpt><trkpt lat="45.8016362036409" lon="8.38099385800411"><ele>377.0</ele><time>2026-04-26T13:17:40.002Z</time></trkpt><trkpt lat="45.801692884658024" lon="8.380722120781007"><ele>378.0</ele><time>2026-04-26T13:17:41.002Z</time></trkpt><trkpt lat="45.80178959873478" lon="8.380462952028207"><ele>379.0</ele><time>2026-04-26T13:17:42.002Z</time></trkpt><trkpt lat="45.801883359729636" lon="8.380232339189694"><ele>379.0</ele><time>2026-04-26T13:17:43.002Z</time></trkpt><trkpt lat="45.80199150595407" lon="8.380042364548041"><ele>379.0</ele><time>2026-04-26T13:17:44.002Z</time></trkpt><trkpt lat="45.80212761376636" lon="8.37986896273353"><ele>379.0</ele><time>2026-04-26T13:17:45.002Z</time></trkpt><trkpt lat="45.802280586095534" lon="8.379677723323145"><ele>382.3333333333333</ele><time>2026-04-26T13:17:46.002Z</time></trkpt><trkpt lat="45.80243805117285" lon="8.379456956749058"><ele>385.66666666666663</ele><time>2026-04-26T13:17:47.002Z</time></trkpt><trkpt lat="45.80258403434256" lon="8.379256527219438"><ele>389.0</ele><time>2026-04-26T13:17:48.002Z</time></trkpt><trkpt lat="45.80269511263442" lon="8.379072015191552"><ele>389.0</ele><time>2026-04-26T13:17:49.002Z</time></trkpt><trkpt lat="45.802766220484045" lon="8.378871875508171"><ele>389.0</ele><time>2026-04-26T13:17:50Z</time></trkpt><trkpt lat="45.80280722465572" lon="8.378692570311793"><ele>389.0</ele><time>2026-04-26T13:17:51Z</time></trkpt><trkpt lat="45.80284970387561" lon="8.378545493450162"><ele>389.0</ele><time>2026-04-26T13:17:52Z</time></trkpt><trkpt lat="45.80292707501825" lon="8.378422686530852"><ele>389.4</ele><time>2026-04-26T13:17:53Z</time></trkpt><trkpt lat="45.80300019137564" lon="8.378265416667928"><ele>389.79999999999995</ele><time>2026-04-26T13:17:54Z</time></trkpt><trkpt lat="45.8030869642079" lon="8.37812554004405"><ele>390.20000000000005</ele><time>2026-04-26T13:17:55Z</time></trkpt><trkpt lat="45.803169801515466" lon="8.378040212385315"><ele>390.6</ele><time>2026-04-26T13:17:56Z</time></trkpt><trkpt lat="45.803226345364514" lon="8.377991515585396"><ele>391.0</ele><time>2026-04-26T13:17:57Z</time></trkpt><trkpt lat="45.803380914868285" lon="8.378074091851035"><ele>391.0</ele><time>2026-04-26T13:17:59Z</time></trkpt><trkpt lat="45.803486418449765" lon="8.378137256718725"><ele>391.0</ele><time>2026-04-26T13:18:00Z</time></trkpt><trkpt lat="45.80360525219763" lon="8.378193252118566"><ele>391.0</ele><time>2026-04-26T13:18:01Z</time></trkpt><trkpt lat="45.80370924267216" lon="8.378247149190367"><ele>391.0</ele><time>2026-04-26T13:18:02Z</time></trkpt><trkpt lat="45.80380600497293" lon="8.378269765065975"><ele>391.0</ele><time>2026-04-26T13:18:03Z</time></trkpt><trkpt lat="45.80389533306476" lon="8.37825849569916"><ele>395.6666666666667</ele><time>2026-04-26T13:18:04Z</time></trkpt><trkpt lat="45.803997072270576" lon="8.378022077528897"><ele>400.33333333333337</ele><time>2026-04-26T13:18:05Z</time></trkpt><trkpt lat="45.80412033856912" lon="8.377787898087197"><ele>405.0</ele><time>2026-04-26T13:18:06Z</time></trkpt><trkpt lat="45.804263370688766" lon="8.377555492822673"><ele>401.66666666666663</ele><time>2026-04-26T13:18:07Z</time></trkpt><trkpt lat="45.8043841223851" lon="8.377318163665144"><ele>398.3333333333333</ele><time>2026-04-26T13:18:08Z</time></trkpt><trkpt lat="45.804470543082786" lon="8.377098531153942"><ele>395.0</ele><time>2026-04-26T13:18:09Z</time></trkpt><trkpt lat="45.80453290510432" lon="8.376910791383"><ele>395.0</ele><time>2026-04-26T13:18:10Z</time></trkpt><trkpt lat="45.80462003745615" lon="8.376806925645566"><ele>395.0</ele><time>2026-04-26T13:18:11Z</time></trkpt><trkpt lat="45.80472461676729" lon="8.376748181057987"><ele>395.0</ele><time>2026-04-26T13:18:12Z</time></trkpt><trkpt lat="45.8048736910483" lon="8.37667169067493"><ele>395.0</ele><time>2026-04-26T13:18:13Z</time></trkpt><trkpt lat="45.80500746292451" lon="8.37664641827912"><ele>395.0</ele><time>2026-04-26T13:18:14Z</time></trkpt><trkpt lat="45.805133318970164" lon="8.376714537844768"><ele>395.0</ele><time>2026-04-26T13:18:15Z</time></trkpt><trkpt lat="45.805284291325194" lon="8.376743473739955"><ele>395.0</ele><time>2026-04-26T13:18:16Z</time></trkpt><trkpt lat="45.805428477081264" lon="8.376677402696881"><ele>395.0</ele><time>2026-04-26T13:18:17Z</time></trkpt><trkpt lat="45.805556441109104" lon="8.376511808677055"><ele>397.66666666666663</ele><time>2026-04-26T13:18:18.001Z</time></trkpt><trkpt lat="45.805653603624236" lon="8.376288736081332"><ele>400.33333333333337</ele><time>2026-04-26T13:18:19.001Z</time></trkpt><trkpt lat="45.80572315259997" lon="8.376030528872413"><ele>403.0</ele><time>2026-04-26T13:18:20.001Z</time></trkpt><trkpt lat="45.80584534936522" lon="8.375867601129507"><ele>403.0</ele><time>2026-04-26T13:18:21.001Z</time></trkpt><trkpt lat="45.80599288600583" lon="8.37571568136374"><ele>403.0</ele><time>2026-04-26T13:18:22.001Z</time></trkpt><trkpt lat="45.80616394921855" lon="8.375544282110559"><ele>403.0</ele><time>2026-04-26T13:18:23.001Z</time></trkpt><trkpt lat="45.80631542517574" lon="8.375365715176862"><ele>405.6666666666667</ele><time>2026-04-26T13:18:24.001Z</time></trkpt><trkpt lat="45.8064556603082" lon="8.3751535523666"><ele>408.33333333333337</ele><time>2026-04-26T13:18:25.001Z</time></trkpt><trkpt lat="45.80656774346105" lon="8.374862149129617"><ele>411.0</ele><time>2026-04-26T13:18:26.001Z</time></trkpt><trkpt lat="45.80665465219649" lon="8.374563133895322"><ele>411.0</ele><time>2026-04-26T13:18:27.001Z</time></trkpt><trkpt lat="45.806702277021934" lon="8.37423889795583"><ele>411.0</ele><time>2026-04-26T13:18:28.001Z</time></trkpt><trkpt lat="45.80673667746876" lon="8.373895395216543"><ele>411.0</ele><time>2026-04-26T13:18:29.001Z</time></trkpt><trkpt lat="45.80680929589745" lon="8.373606909821223"><ele>411.0</ele><time>2026-04-26T13:18:30.001Z</time></trkpt><trkpt lat="45.806882804565575" lon="8.373361257443875"><ele>411.0</ele><time>2026-04-26T13:18:31.001Z</time></trkpt><trkpt lat="45.80698150645253" lon="8.373137587267905"><ele>423.33333333333337</ele><time>2026-04-26T13:18:32.001Z</time></trkpt><trkpt lat="45.80708098385211" lon="8.372907431481066"><ele>435.6666666666667</ele><time>2026-04-26T13:18:33.001Z</time></trkpt><trkpt lat="45.807166961465114" lon="8.372658818696678"><ele>448.0</ele><time>2026-04-26T13:18:34.001Z</time></trkpt><trkpt lat="45.807222797671535" lon="8.372399650537456"><ele>441.33333333333337</ele><time>2026-04-26T13:18:35.001Z</time></trkpt><trkpt lat="45.80719632024855" lon="8.37210646421808"><ele>434.66666666666663</ele><time>2026-04-26T13:18:36.001Z</time></trkpt><trkpt lat="45.80722650084539" lon="8.371850863410145"><ele>428.0</ele><time>2026-04-26T13:18:37.001Z</time></trkpt><trkpt lat="45.80729108810878" lon="8.371609751929524"><ele>423.66666666666663</ele><time>2026-04-26T13:18:38.001Z</time></trkpt><trkpt lat="45.807372117416854" lon="8.37133675241934"><ele>419.33333333333337</ele><time>2026-04-26T13:18:39.001Z</time></trkpt><trkpt lat="45.80748883390384" lon="8.371073070192688"><ele>415.0</ele><time>2026-04-26T13:18:40.001Z</time></trkpt><trkpt lat="45.80762619368975" lon="8.370788033163462"><ele>426.5</ele><time>2026-04-26T13:18:41.001Z</time></trkpt><trkpt lat="45.80776902150114" lon="8.370490322879588"><ele>438.0</ele><time>2026-04-26T13:18:42.001Z</time></trkpt><trkpt lat="45.8078981750111" lon="8.37021757920496"><ele>438.0</ele><time>2026-04-26T13:18:43.001Z</time></trkpt><trkpt lat="45.80799432012814" lon="8.370032450252136"><ele>438.0</ele><time>2026-04-26T13:18:44.001Z</time></trkpt><trkpt lat="45.80809459098274" lon="8.369908637732875"><ele>438.0</ele><time>2026-04-26T13:18:45.001Z</time></trkpt><trkpt lat="45.808226406122685" lon="8.36985028925601"><ele>438.0</ele><time>2026-04-26T13:18:46.001Z</time></trkpt><trkpt lat="45.80840408095444" lon="8.369738322329482"><ele>444.66666666666663</ele><time>2026-04-26T13:18:47.001Z</time></trkpt><trkpt lat="45.80855222711407" lon="8.369574380148626"><ele>451.3333333333333</ele><time>2026-04-26T13:18:48.001Z</time></trkpt><trkpt lat="45.8086709122962" lon="8.369396977882424"><ele>458.0</ele><time>2026-04-26T13:18:49.001Z</time></trkpt><trkpt lat="45.80874681514646" lon="8.36917313014571"><ele>458.0</ele><time>2026-04-26T13:18:50.001Z</time></trkpt><trkpt lat="45.808789233063585" lon="8.368921099811798"><ele>458.0</ele><time>2026-04-26T13:18:51.001Z</time></trkpt><trkpt lat="45.80885714399111" lon="8.368674196223303"><ele>458.0</ele><time>2026-04-26T13:18:52.001Z</time></trkpt><trkpt lat="45.8089306630768" lon="8.368496725500657"><ele>450.0</ele><time>2026-04-26T13:18:53.001Z</time></trkpt><trkpt lat="45.80900274088346" lon="8.368332464248278"><ele>442.0</ele><time>2026-04-26T13:18:54.001Z</time></trkpt><trkpt lat="45.809166176572994" lon="8.368264909910021"><ele>434.0</ele><time>2026-04-26T13:18:55.001Z</time></trkpt><trkpt lat="45.80930043770054" lon="8.368061656158694"><ele>442.0</ele><time>2026-04-26T13:18:56.001Z</time></trkpt><trkpt lat="45.8094396438643" lon="8.367807199255953"><ele>450.0</ele><time>2026-04-26T13:18:57.001Z</time></trkpt><trkpt lat="45.80955296455173" lon="8.367482421741098"><ele>444.0</ele><time>2026-04-26T13:18:58.001Z</time></trkpt><trkpt lat="45.809675321790905" lon="8.367129579865136"><ele>438.0</ele><time>2026-04-26T13:18:59.001Z</time></trkpt><trkpt lat="45.80981833494642" lon="8.366827375199103"><ele>438.0</ele><time>2026-04-26T13:19:00.001Z</time></trkpt><trkpt lat="45.80996392654526" lon="8.366538781809236"><ele>438.0</ele><time>2026-04-26T13:19:01.001Z</time></trkpt><trkpt lat="45.8101325834937" lon="8.366239110577698"><ele>448.0</ele><time>2026-04-26T13:19:02.001Z</time></trkpt><trkpt lat="45.81029634545967" lon="8.36592521817069"><ele>458.0</ele><time>2026-04-26T13:19:03.001Z</time></trkpt><trkpt lat="45.81043305572817" lon="8.365568626079133"><ele>448.5</ele><time>2026-04-26T13:19:04.001Z</time></trkpt><trkpt lat="45.810548218748814" lon="8.365239705641928"><ele>439.0</ele><time>2026-04-26T13:19:05.001Z</time></trkpt><trkpt lat="45.81063934472017" lon="8.364945654514955"><ele>439.0</ele><time>2026-04-26T13:19:06.001Z</time></trkpt><trkpt lat="45.81071160731369" lon="8.36471899989024"><ele>439.0</ele><time>2026-04-26T13:19:07.001Z</time></trkpt><trkpt lat="45.81079098122887" lon="8.364543255351776"><ele>439.0</ele><time>2026-04-26T13:19:08.002Z</time></trkpt><trkpt lat="45.81089350210554" lon="8.364472289883139"><ele>439.0</ele><time>2026-04-26T13:19:09.002Z</time></trkpt><trkpt lat="45.81102267084385" lon="8.364432694801742"><ele>435.33333333333337</ele><time>2026-04-26T13:19:10.002Z</time></trkpt><trkpt lat="45.81115337201496" lon="8.364500802166893"><ele>431.66666666666663</ele><time>2026-04-26T13:19:11.002Z</time></trkpt><trkpt lat="45.8113327811167" lon="8.36461316014092"><ele>428.0</ele><time>2026-04-26T13:19:12.002Z</time></trkpt><trkpt lat="45.81150931471169" lon="8.364692070555588"><ele>430.5</ele><time>2026-04-26T13:19:13.002Z</time></trkpt><trkpt lat="45.81179718114326" lon="8.36488502918873"><ele>433.0</ele><time>2026-04-26T13:19:14.002Z</time></trkpt><trkpt lat="45.812084119406904" lon="8.365029794745345"><ele>433.5</ele><time>2026-04-26T13:19:15.002Z</time></trkpt><trkpt lat="45.81239275419918" lon="8.365195391806743"><ele>434.0</ele><time>2026-04-26T13:19:16.002Z</time></trkpt><trkpt lat="45.81273847452109" lon="8.365377998048078"><ele>434.5</ele><time>2026-04-26T13:19:17.002Z</time></trkpt><trkpt lat="45.81310611521323" lon="8.365578641760653"><ele>435.0</ele><time>2026-04-26T13:19:18.002Z</time></trkpt><trkpt lat="45.813471344099085" lon="8.365776282745163"><ele>437.0</ele><time>2026-04-26T13:19:19.002Z</time></trkpt><trkpt lat="45.813785057456094" lon="8.365937797675974"><ele>439.0</ele><time>2026-04-26T13:19:20.002Z</time></trkpt><trkpt lat="45.81406350942262" lon="8.366097297843913"><ele>439.0</ele><time>2026-04-26T13:19:21.002Z</time></trkpt><trkpt lat="45.814317213984275" lon="8.366233901067876"><ele>439.0</ele><time>2026-04-26T13:19:22.002Z</time></trkpt><trkpt lat="45.81453260715077" lon="8.366366304599872"><ele>440.0</ele><time>2026-04-26T13:19:23.002Z</time></trkpt><trkpt lat="45.81470934890216" lon="8.366540680457549"><ele>441.0</ele><time>2026-04-26T13:19:24.002Z</time></trkpt><trkpt lat="45.81486869495595" lon="8.366736848596869"><ele>442.0</ele><time>2026-04-26T13:19:25.002Z</time></trkpt><trkpt lat="45.81504594175545" lon="8.366978011073181"><ele>445.0</ele><time>2026-04-26T13:19:26.002Z</time></trkpt><trkpt lat="45.815250672935164" lon="8.367227645347649"><ele>448.0</ele><time>2026-04-26T13:19:27.002Z</time></trkpt><trkpt lat="45.81544640129832" lon="8.367511693039683"><ele>448.0</ele><time>2026-04-26T13:19:28.002Z</time></trkpt><trkpt lat="45.815656891810875" lon="8.367805372730734"><ele>448.0</ele><time>2026-04-26T13:19:29.002Z</time></trkpt><trkpt lat="45.81586229352199" lon="8.368086624703258"><ele>445.0</ele><time>2026-04-26T13:19:30.002Z</time></trkpt><trkpt lat="45.81604463946821" lon="8.368339407338148"><ele>442.0</ele><time>2026-04-26T13:19:31.002Z</time></trkpt><trkpt lat="45.8162072394437" lon="8.36855139124482"><ele>442.0</ele><time>2026-04-26T13:19:32.002Z</time></trkpt><trkpt lat="45.81637037432121" lon="8.36869610382254"><ele>442.0</ele><time>2026-04-26T13:19:33.002Z</time></trkpt><trkpt lat="45.81652186074836" lon="8.36882645023677"><ele>442.0</ele><time>2026-04-26T13:19:34.002Z</time></trkpt><trkpt lat="45.81666600629621" lon="8.368959647506998"><ele>449.0</ele><time>2026-04-26T13:19:35.002Z</time></trkpt><trkpt lat="45.81678859392453" lon="8.369059467395902"><ele>456.0</ele><time>2026-04-26T13:19:36.002Z</time></trkpt><trkpt lat="45.817152569402424" lon="8.368560488339705"><ele>456.0</ele><time>2026-04-26T13:19:37.002Z</time></trkpt><trkpt lat="45.817349772918874" lon="8.368379794682943"><ele>456.0</ele><time>2026-04-26T13:19:38.002Z</time></trkpt><trkpt lat="45.81755532188226" lon="8.36817366574604"><ele>460.0</ele><time>2026-04-26T13:19:39.002Z</time></trkpt><trkpt lat="45.81776166921572" lon="8.367951384006748"><ele>464.0</ele><time>2026-04-26T13:19:40.002Z</time></trkpt><trkpt lat="45.81795336231184" lon="8.367696807050923"><ele>464.0</ele><time>2026-04-26T13:19:41.002Z</time></trkpt><trkpt lat="45.81813953504731" lon="8.367419374984843"><ele>464.0</ele><time>2026-04-26T13:19:42.002Z</time></trkpt><trkpt lat="45.81831550175833" lon="8.367155617085851"><ele>461.0</ele><time>2026-04-26T13:19:43.002Z</time></trkpt><trkpt lat="45.81844877053043" lon="8.36691834509141"><ele>458.0</ele><time>2026-04-26T13:19:44.002Z</time></trkpt><trkpt lat="45.81853090024399" lon="8.366680932994317"><ele>455.0</ele><time>2026-04-26T13:19:45.002Z</time></trkpt><trkpt lat="45.81861143826887" lon="8.36645922690675"><ele>456.0</ele><time>2026-04-26T13:19:46.002Z</time></trkpt><trkpt lat="45.81876147361314" lon="8.366278325793983"><ele>457.0</ele><time>2026-04-26T13:19:47.002Z</time></trkpt><trkpt lat="45.81893113982064" lon="8.366147322871676"><ele>458.0</ele><time>2026-04-26T13:19:48.002Z</time></trkpt><trkpt lat="45.81908822156993" lon="8.366013505064188"><ele>458.0</ele><time>2026-04-26T13:19:49.002Z</time></trkpt><trkpt lat="45.81924051017433" lon="8.365844817032261"><ele>458.0</ele><time>2026-04-26T13:19:50.002Z</time></trkpt><trkpt lat="45.81941947824872" lon="8.365648195759"><ele>458.0</ele><time>2026-04-26T13:19:51.002Z</time></trkpt><trkpt lat="45.81961667585289" lon="8.365426353610317"><ele>457.0</ele><time>2026-04-26T13:19:52.002Z</time></trkpt><trkpt lat="45.81983531307805" lon="8.365188792137657"><ele>456.0</ele><time>2026-04-26T13:19:53.002Z</time></trkpt><trkpt lat="45.82005804880441" lon="8.364973502349185"><ele>460.0</ele><time>2026-04-26T13:19:54.002Z</time></trkpt><trkpt lat="45.82028649840083" lon="8.364775802999093"><ele>464.0</ele><time>2026-04-26T13:19:55.002Z</time></trkpt><trkpt lat="45.820489284607476" lon="8.364602474544471"><ele>464.0</ele><time>2026-04-26T13:19:56.001Z</time></trkpt><trkpt lat="45.82067073777186" lon="8.36443226693164"><ele>464.0</ele><time>2026-04-26T13:19:57.001Z</time></trkpt><trkpt lat="45.82083527159891" lon="8.364263311172492"><ele>464.0</ele><time>2026-04-26T13:19:58.001Z</time></trkpt><trkpt lat="45.82097412884724" lon="8.364081822338756"><ele>467.3333333333333</ele><time>2026-04-26T13:19:59.001Z</time></trkpt><trkpt lat="45.821077480858584" lon="8.363873638608538"><ele>470.66666666666663</ele><time>2026-04-26T13:20:00.001Z</time></trkpt><trkpt lat="45.8211697115023" lon="8.363672328930859"><ele>474.0</ele><time>2026-04-26T13:20:01.001Z</time></trkpt><trkpt lat="45.821303982490605" lon="8.363470791103651"><ele>474.0</ele><time>2026-04-26T13:20:02.001Z</time></trkpt><trkpt lat="45.821442936685656" lon="8.363281393028952"><ele>474.0</ele><time>2026-04-26T13:20:03Z</time></trkpt><trkpt lat="45.82158622254542" lon="8.363098681273032"><ele>474.0</ele><time>2026-04-26T13:20:04.001Z</time></trkpt><trkpt lat="45.82172992723601" lon="8.36294137701451"><ele>470.66666666666663</ele><time>2026-04-26T13:20:05Z</time></trkpt><trkpt lat="45.82188643987335" lon="8.362829944061366"><ele>467.3333333333333</ele><time>2026-04-26T13:20:06Z</time></trkpt><trkpt lat="45.82202898834919" lon="8.36280370277874"><ele>464.0</ele><time>2026-04-26T13:20:07Z</time></trkpt><trkpt lat="45.822181557629804" lon="8.362853876196448"><ele>464.0</ele><time>2026-04-26T13:20:08Z</time></trkpt><trkpt lat="45.82235375126436" lon="8.362939649083536"><ele>464.0</ele><time>2026-04-26T13:20:09Z</time></trkpt><trkpt lat="45.822527654082506" lon="8.363002677874507"><ele>464.0</ele><time>2026-04-26T13:20:10Z</time></trkpt><trkpt lat="45.822711651693915" lon="8.36306608022458"><ele>468.0</ele><time>2026-04-26T13:20:11Z</time></trkpt><trkpt lat="45.822898148809706" lon="8.3631300004458"><ele>472.0</ele><time>2026-04-26T13:20:12Z</time></trkpt><trkpt lat="45.82308956842461" lon="8.363198021741109"><ele>476.0</ele><time>2026-04-26T13:20:13Z</time></trkpt><trkpt lat="45.82328560949199" lon="8.363265942162396"><ele>473.0</ele><time>2026-04-26T13:20:14Z</time></trkpt><trkpt lat="45.82348874946476" lon="8.363337300022838"><ele>470.0</ele><time>2026-04-26T13:20:15Z</time></trkpt><trkpt lat="45.82369370642883" lon="8.36341279951039"><ele>467.0</ele><time>2026-04-26T13:20:16Z</time></trkpt><trkpt lat="45.82389747742422" lon="8.363487769628566"><ele>467.0</ele><time>2026-04-26T13:20:17Z</time></trkpt><trkpt lat="45.82410024837432" lon="8.363564860661105"><ele>467.0</ele><time>2026-04-26T13:20:18Z</time></trkpt><trkpt lat="45.824306760322806" lon="8.36364197841823"><ele>467.0</ele><time>2026-04-26T13:20:19Z</time></trkpt><trkpt lat="45.82450699630396" lon="8.363720544839037"><ele>465.66666666666663</ele><time>2026-04-26T13:20:20.001Z</time></trkpt><trkpt lat="45.82468910518271" lon="8.363789462421895"><ele>464.33333333333337</ele><time>2026-04-26T13:20:21.001Z</time></trkpt><trkpt lat="45.82486378668369" lon="8.363848947051427"><ele>463.0</ele><time>2026-04-26T13:20:22.001Z</time></trkpt><trkpt lat="45.82502621997373" lon="8.363907936361722"><ele>465.33333333333337</ele><time>2026-04-26T13:20:23.001Z</time></trkpt><trkpt lat="45.82518321773434" lon="8.36396614777629"><ele>467.66666666666663</ele><time>2026-04-26T13:20:24.001Z</time></trkpt><trkpt lat="45.82533072930398" lon="8.364019062537754"><ele>470.0</ele><time>2026-04-26T13:20:25.001Z</time></trkpt><trkpt lat="45.82546596154839" lon="8.364060875528713"><ele>470.0</ele><time>2026-04-26T13:20:26.001Z</time></trkpt><trkpt lat="45.825599249072134" lon="8.364103502242857"><ele>470.0</ele><time>2026-04-26T13:20:27.001Z</time></trkpt><trkpt lat="45.825725122905105" lon="8.364152890009583"><ele>470.0</ele><time>2026-04-26T13:20:28.001Z</time></trkpt><trkpt lat="45.825878446968545" lon="8.364222097891773"><ele>470.0</ele><time>2026-04-26T13:20:29.001Z</time></trkpt><trkpt lat="45.82606751453087" lon="8.364365749388398"><ele>470.0</ele><time>2026-04-26T13:20:30.001Z</time></trkpt><trkpt lat="45.82628109172603" lon="8.364582433388815"><ele>470.0</ele><time>2026-04-26T13:20:31.001Z</time></trkpt><trkpt lat="45.82654538790629" lon="8.364823194899355"><ele>480.5</ele><time>2026-04-26T13:20:32.001Z</time></trkpt><trkpt lat="45.82684593798376" lon="8.365078010585172"><ele>491.0</ele><time>2026-04-26T13:20:33.001Z</time></trkpt><trkpt lat="45.82716842711623" lon="8.365358795242521"><ele>489.0</ele><time>2026-04-26T13:20:34.001Z</time></trkpt><trkpt lat="45.82750622944157" lon="8.365660873472972"><ele>487.0</ele><time>2026-04-26T13:20:35.001Z</time></trkpt><trkpt lat="45.827826097834375" lon="8.365937332141032"><ele>487.0</ele><time>2026-04-26T13:20:36.001Z</time></trkpt><trkpt lat="45.82810909795559" lon="8.366171873370234"><ele>487.0</ele><time>2026-04-26T13:20:37.001Z</time></trkpt><trkpt lat="45.82836843191004" lon="8.366376339197183"><ele>480.0</ele><time>2026-04-26T13:20:38.001Z</time></trkpt><trkpt lat="45.82860357776263" lon="8.366539826772186"><ele>473.0</ele><time>2026-04-26T13:20:39.001Z</time></trkpt><trkpt lat="45.828818631439034" lon="8.3666733692248"><ele>473.0</ele><time>2026-04-26T13:20:40.001Z</time></trkpt><trkpt lat="45.82901996378836" lon="8.36679931083986"><ele>473.0</ele><time>2026-04-26T13:20:41.001Z</time></trkpt><trkpt lat="45.82921810897733" lon="8.366925630646247"><ele>473.0</ele><time>2026-04-26T13:20:42.001Z</time></trkpt><trkpt lat="45.829422991988935" lon="8.367025219804056"><ele>473.3333333333333</ele><time>2026-04-26T13:20:43.001Z</time></trkpt><trkpt lat="45.82963079612074" lon="8.367133960573367"><ele>473.66666666666663</ele><time>2026-04-26T13:20:44.001Z</time></trkpt><trkpt lat="45.82983419687368" lon="8.367244779310228"><ele>474.0</ele><time>2026-04-26T13:20:45.001Z</time></trkpt><trkpt lat="45.83003918642193" lon="8.367349947034906"><ele>474.33333333333337</ele><time>2026-04-26T13:20:46.001Z</time></trkpt><trkpt lat="45.830243405396246" lon="8.367460237148732"><ele>474.6666666666667</ele><time>2026-04-26T13:20:47.001Z</time></trkpt><trkpt lat="45.830436748069985" lon="8.36756222128141"><ele>475.0</ele><time>2026-04-26T13:20:48.001Z</time></trkpt><trkpt lat="45.830620059314455" lon="8.367665186260044"><ele>475.0</ele><time>2026-04-26T13:20:49.001Z</time></trkpt><trkpt lat="45.83078687135938" lon="8.367748043951552"><ele>475.0</ele><time>2026-04-26T13:20:50.001Z</time></trkpt><trkpt lat="45.83093971078938" lon="8.367828176464965"><ele>475.0</ele><time>2026-04-26T13:20:51.001Z</time></trkpt><trkpt lat="45.83108224838256" lon="8.367910616369276"><ele>475.0</ele><time>2026-04-26T13:20:52.001Z</time></trkpt><trkpt lat="45.831223815576855" lon="8.367986914617825"><ele>475.0</ele><time>2026-04-26T13:20:53.001Z</time></trkpt><trkpt lat="45.8313595991765" lon="8.368059074190231"><ele>475.0</ele><time>2026-04-26T13:20:54.001Z</time></trkpt><trkpt lat="45.831499873539585" lon="8.368125030748423"><ele>475.0</ele><time>2026-04-26T13:20:55.001Z</time></trkpt><trkpt lat="45.831646014582184" lon="8.368173098971981"><ele>475.0</ele><time>2026-04-26T13:20:56.001Z</time></trkpt><trkpt lat="45.831792801035846" lon="8.368172729935482"><ele>475.0</ele><time>2026-04-26T13:20:57.001Z</time></trkpt><trkpt lat="45.831941276650724" lon="8.368156671532537"><ele>475.0</ele><time>2026-04-26T13:20:58.001Z</time></trkpt><trkpt lat="45.832093121298904" lon="8.36812510344235"><ele>475.0</ele><time>2026-04-26T13:20:59.001Z</time></trkpt><trkpt lat="45.83224328548129" lon="8.368103396071318"><ele>475.0</ele><time>2026-04-26T13:21:00.001Z</time></trkpt><trkpt lat="45.83239307852448" lon="8.368090691894604"><ele>475.0</ele><time>2026-04-26T13:21:01.001Z</time></trkpt><trkpt lat="45.8325446603338" lon="8.368056889075516"><ele>475.0</ele><time>2026-04-26T13:21:02.001Z</time></trkpt><trkpt lat="45.83269974708527" lon="8.368023994179689"><ele>477.0</ele><time>2026-04-26T13:21:03.001Z</time></trkpt><trkpt lat="45.83285347531312" lon="8.36800574156351"><ele>479.0</ele><time>2026-04-26T13:21:04.001Z</time></trkpt><trkpt lat="45.83300017817519" lon="8.367986098080173"><ele>481.0</ele><time>2026-04-26T13:21:05.001Z</time></trkpt><trkpt lat="45.833137065985966" lon="8.367961415799273"><ele>483.0</ele><time>2026-04-26T13:21:06.001Z</time></trkpt><trkpt lat="45.83326339363417" lon="8.36793887158402"><ele>483.0</ele><time>2026-04-26T13:21:07.001Z</time></trkpt><trkpt lat="45.83338507205336" lon="8.367917396159065"><ele>482.99999999999994</ele><time>2026-04-26T13:21:08.001Z</time></trkpt><trkpt lat="45.83350222822614" lon="8.367904506897927"><ele>482.99999999999994</ele><time>2026-04-26T13:21:09.001Z</time></trkpt><trkpt lat="45.83360078212937" lon="8.367899446220395"><ele>483.0</ele><time>2026-04-26T13:21:10.001Z</time></trkpt><trkpt lat="45.83369549501161" lon="8.367874676485995"><ele>483.0</ele><time>2026-04-26T13:21:11.001Z</time></trkpt><trkpt lat="45.83378200621357" lon="8.367864455413255"><ele>483.79999999999995</ele><time>2026-04-26T13:21:12.001Z</time></trkpt><trkpt lat="45.83387406754043" lon="8.367849638383015"><ele>484.59999999999997</ele><time>2026-04-26T13:21:13.001Z</time></trkpt><trkpt lat="45.833974547860485" lon="8.367822831593022"><ele>485.40000000000003</ele><time>2026-04-26T13:21:14.001Z</time></trkpt><trkpt lat="45.83407974112138" lon="8.367811700833563"><ele>486.20000000000005</ele><time>2026-04-26T13:21:15.001Z</time></trkpt><trkpt lat="45.834170209901956" lon="8.367820327958386"><ele>487.0</ele><time>2026-04-26T13:21:16.001Z</time></trkpt><trkpt lat="45.834255185301785" lon="8.367863619124217"><ele>488.0</ele><time>2026-04-26T13:21:17.001Z</time></trkpt><trkpt lat="45.83432140050749" lon="8.367948525296212"><ele>489.00000000000006</ele><time>2026-04-26T13:21:18.001Z</time></trkpt><trkpt lat="45.83437068755245" lon="8.368085457408684"><ele>490.00000000000006</ele><time>2026-04-26T13:21:19.002Z</time></trkpt><trkpt lat="45.83441043720354" lon="8.368240346227562"><ele>491.0</ele><time>2026-04-26T13:21:20.002Z</time></trkpt><trkpt lat="45.8344418489572" lon="8.368395292351696"><ele>492.0</ele><time>2026-04-26T13:21:21.002Z</time></trkpt><trkpt lat="45.834483354353445" lon="8.36855316067686"><ele>492.5</ele><time>2026-04-26T13:21:22.002Z</time></trkpt><trkpt lat="45.83453413999785" lon="8.368710984140106"><ele>493.0</ele><time>2026-04-26T13:21:23.002Z</time></trkpt><trkpt lat="45.83459056163049" lon="8.36887421155496"><ele>493.5</ele><time>2026-04-26T13:21:24.002Z</time></trkpt><trkpt lat="45.83465721421801" lon="8.369044716589961"><ele>494.0</ele><time>2026-04-26T13:21:25.002Z</time></trkpt><trkpt lat="45.83475751012493" lon="8.369203506509384"><ele>493.66666666666663</ele><time>2026-04-26T13:21:26.002Z</time></trkpt><trkpt lat="45.83488590783568" lon="8.369327881963908"><ele>493.33333333333337</ele><time>2026-04-26T13:21:27.002Z</time></trkpt><trkpt lat="45.835037189327295" lon="8.369446539005542"><ele>493.0</ele><time>2026-04-26T13:21:28.002Z</time></trkpt><trkpt lat="45.83520543393966" lon="8.36957059231877"><ele>487.6666666666667</ele><time>2026-04-26T13:21:29.002Z</time></trkpt><trkpt lat="45.83538614113827" lon="8.369710529634872"><ele>482.33333333333337</ele><time>2026-04-26T13:21:30.002Z</time></trkpt><trkpt lat="45.835559347749275" lon="8.369853841523835"><ele>477.0</ele><time>2026-04-26T13:21:31.002Z</time></trkpt><trkpt lat="45.83571528449699" lon="8.369982936296864"><ele>477.0</ele><time>2026-04-26T13:21:32.002Z</time></trkpt><trkpt lat="45.83587083644342" lon="8.370118152049024"><ele>477.0</ele><time>2026-04-26T13:21:33.002Z</time></trkpt><trkpt lat="45.836013024447176" lon="8.37024788403066"><ele>477.0</ele><time>2026-04-26T13:21:34.002Z</time></trkpt><trkpt lat="45.83614989954612" lon="8.370392228225104"><ele>478.33333333333337</ele><time>2026-04-26T13:21:35.002Z</time></trkpt><trkpt lat="45.83628532928023" lon="8.37057508992797"><ele>479.6666666666667</ele><time>2026-04-26T13:21:36.002Z</time></trkpt><trkpt lat="45.83640732502112" lon="8.370785204559866"><ele>481.0</ele><time>2026-04-26T13:21:37.002Z</time></trkpt><trkpt lat="45.836544712995895" lon="8.371025983152489"><ele>481.0</ele><time>2026-04-26T13:21:38.002Z</time></trkpt><trkpt lat="45.83669084779504" lon="8.371289298070666"><ele>481.0</ele><time>2026-04-26T13:21:39.002Z</time></trkpt><trkpt lat="45.836844779746926" lon="8.37157573509893"><ele>477.0</ele><time>2026-04-26T13:21:40.002Z</time></trkpt><trkpt lat="45.83699830551796" lon="8.371865932029817"><ele>473.0</ele><time>2026-04-26T13:21:41.002Z</time></trkpt><trkpt lat="45.83715329207495" lon="8.372146393372443"><ele>465.0</ele><time>2026-04-26T13:21:42.002Z</time></trkpt><trkpt lat="45.83730397857122" lon="8.372427254957078"><ele>457.0</ele><time>2026-04-26T13:21:43.002Z</time></trkpt><trkpt lat="45.83746131173293" lon="8.372721559178416"><ele>457.0</ele><time>2026-04-26T13:21:44.002Z</time></trkpt><trkpt lat="45.83762019819088" lon="8.37301197063246"><ele>457.0</ele><time>2026-04-26T13:21:45.002Z</time></trkpt><trkpt lat="45.83778004160448" lon="8.37329163394925"><ele>460.0</ele><time>2026-04-26T13:21:46.002Z</time></trkpt><trkpt lat="45.83795457798453" lon="8.3735577330993"><ele>463.0</ele><time>2026-04-26T13:21:47.002Z</time></trkpt><trkpt lat="45.83812529432434" lon="8.37379134705163"><ele>464.0</ele><time>2026-04-26T13:21:48.002Z</time></trkpt><trkpt lat="45.838298882065935" lon="8.373997447319754"><ele>465.0</ele><time>2026-04-26T13:21:49.002Z</time></trkpt><trkpt lat="45.83849881255261" lon="8.374155172765331"><ele>465.0</ele><time>2026-04-26T13:21:50.002Z</time></trkpt><trkpt lat="45.83874659757142" lon="8.37428238152654"><ele>465.0</ele><time>2026-04-26T13:21:51.002Z</time></trkpt><trkpt lat="45.838991155001835" lon="8.374418862126523"><ele>465.0</ele><time>2026-04-26T13:21:52.002Z</time></trkpt><trkpt lat="45.83924126153941" lon="8.374557612356169"><ele>465.0</ele><time>2026-04-26T13:21:53.002Z</time></trkpt><trkpt lat="45.839478037798386" lon="8.374703201994752"><ele>464.0</ele><time>2026-04-26T13:21:54.002Z</time></trkpt><trkpt lat="45.83971660065955" lon="8.374844237134802"><ele>463.0</ele><time>2026-04-26T13:21:55.002Z</time></trkpt><trkpt lat="45.83992947460752" lon="8.374972242667999"><ele>463.0</ele><time>2026-04-26T13:21:56.002Z</time></trkpt><trkpt lat="45.840123644263926" lon="8.375096245303142"><ele>463.0</ele><time>2026-04-26T13:21:57.002Z</time></trkpt><trkpt lat="45.84027854566594" lon="8.375238284188006"><ele>463.0</ele><time>2026-04-26T13:21:58.002Z</time></trkpt><trkpt lat="45.84038138801583" lon="8.375434001541615"><ele>465.0</ele><time>2026-04-26T13:21:59.002Z</time></trkpt><trkpt lat="45.84047648051295" lon="8.375653568314242"><ele>467.0</ele><time>2026-04-26T13:22:00.002Z</time></trkpt><trkpt lat="45.84054917554511" lon="8.375910809827225"><ele>469.0</ele><time>2026-04-26T13:22:01.002Z</time></trkpt><trkpt lat="45.84062309222688" lon="8.376184745742622"><ele>466.0</ele><time>2026-04-26T13:22:02Z</time></trkpt><trkpt lat="45.84069656891499" lon="8.376422628934048"><ele>463.0</ele><time>2026-04-26T13:22:03Z</time></trkpt><trkpt lat="45.84076043443502" lon="8.376645357255722"><ele>460.0</ele><time>2026-04-26T13:22:04Z</time></trkpt><trkpt lat="45.84084011175858" lon="8.376837950280779"><ele>461.33333333333337</ele><time>2026-04-26T13:22:05Z</time></trkpt><trkpt lat="45.840977478868844" lon="8.37698072378588"><ele>462.66666666666663</ele><time>2026-04-26T13:22:06Z</time></trkpt><trkpt lat="45.84118234675419" lon="8.377098126303748"><ele>464.0</ele><time>2026-04-26T13:22:07Z</time></trkpt><trkpt lat="45.84142401060675" lon="8.37720108942758"><ele>464.0</ele><time>2026-04-26T13:22:08Z</time></trkpt><trkpt lat="45.841657337577566" lon="8.377310791549434"><ele>464.0</ele><time>2026-04-26T13:22:09Z</time></trkpt><trkpt lat="45.84185364779441" lon="8.377412444225037"><ele>466.0</ele><time>2026-04-26T13:22:10Z</time></trkpt><trkpt lat="45.84203549451412" lon="8.377506943927846"><ele>468.0</ele><time>2026-04-26T13:22:11Z</time></trkpt><trkpt lat="45.84219732521203" lon="8.377584114435072"><ele>470.0</ele><time>2026-04-26T13:22:12Z</time></trkpt><trkpt lat="45.842346170808874" lon="8.377666880013619"><ele>470.0</ele><time>2026-04-26T13:22:13Z</time></trkpt><trkpt lat="45.842486120854325" lon="8.377733270772561"><ele>470.0</ele><time>2026-04-26T13:22:14Z</time></trkpt><trkpt lat="45.84261378601607" lon="8.377803340264213"><ele>470.0</ele><time>2026-04-26T13:22:15Z</time></trkpt><trkpt lat="45.84274420551228" lon="8.37785944861062"><ele>470.0</ele><time>2026-04-26T13:22:16Z</time></trkpt><trkpt lat="45.8428635420771" lon="8.377891212734292"><ele>470.75</ele><time>2026-04-26T13:22:17Z</time></trkpt><trkpt lat="45.84298661830535" lon="8.377902208818325"><ele>471.5</ele><time>2026-04-26T13:22:18Z</time></trkpt><trkpt lat="45.84311121937561" lon="8.377906668131912"><ele>472.25</ele><time>2026-04-26T13:22:19Z</time></trkpt><trkpt lat="45.843243069950084" lon="8.37790231052323"><ele>473.0</ele><time>2026-04-26T13:22:20Z</time></trkpt><trkpt lat="45.843371955003654" lon="8.377892005023899"><ele>473.5</ele><time>2026-04-26T13:22:21Z</time></trkpt><trkpt lat="45.84350223602548" lon="8.3778886948152"><ele>474.0</ele><time>2026-04-26T13:22:22Z</time></trkpt><trkpt lat="45.84363516807335" lon="8.377884226726167"><ele>474.5</ele><time>2026-04-26T13:22:23Z</time></trkpt><trkpt lat="45.843767000190546" lon="8.377869249826999"><ele>475.0</ele><time>2026-04-26T13:22:24Z</time></trkpt><trkpt lat="45.8439005819633" lon="8.377853905165097"><ele>475.0</ele><time>2026-04-26T13:22:25Z</time></trkpt><trkpt lat="45.8440305352085" lon="8.377806324580353"><ele>475.0</ele><time>2026-04-26T13:22:26Z</time></trkpt><trkpt lat="45.84415338410809" lon="8.377757380289053"><ele>475.0</ele><time>2026-04-26T13:22:27Z</time></trkpt><trkpt lat="45.84427277323137" lon="8.377678607109841"><ele>475.0</ele><time>2026-04-26T13:22:28Z</time></trkpt><trkpt lat="45.844405457420514" lon="8.377634639056014"><ele>473.0</ele><time>2026-04-26T13:22:29Z</time></trkpt><trkpt lat="45.844528680839225" lon="8.377576818997522"><ele>471.0</ele><time>2026-04-26T13:22:30Z</time></trkpt><trkpt lat="45.84464947130616" lon="8.37750580306675"><ele>469.0</ele><time>2026-04-26T13:22:31Z</time></trkpt><trkpt lat="45.84476545380176" lon="8.377448656233494"><ele>467.0</ele><time>2026-04-26T13:22:32Z</time></trkpt><trkpt lat="45.844891997355575" lon="8.377411195253757"><ele>467.0</ele><time>2026-04-26T13:22:33.001Z</time></trkpt><trkpt lat="45.84502314687665" lon="8.37737025054121"><ele>467.0</ele><time>2026-04-26T13:22:34.001Z</time></trkpt><trkpt lat="45.845134221781066" lon="8.37736161567638"><ele>467.0</ele><time>2026-04-26T13:22:35.001Z</time></trkpt><trkpt lat="45.845246041248245" lon="8.377352068943605"><ele>467.0</ele><time>2026-04-26T13:22:36.001Z</time></trkpt><trkpt lat="45.84535245196547" lon="8.377360640173473"><ele>467.20000000000005</ele><time>2026-04-26T13:22:37.001Z</time></trkpt><trkpt lat="45.84546200741551" lon="8.377381193208887"><ele>467.40000000000003</ele><time>2026-04-26T13:22:38.001Z</time></trkpt><trkpt lat="45.84556057329801" lon="8.377423412570629"><ele>467.59999999999997</ele><time>2026-04-26T13:22:39.001Z</time></trkpt><trkpt lat="45.84565273596292" lon="8.377475383545592"><ele>467.79999999999995</ele><time>2026-04-26T13:22:40.001Z</time></trkpt><trkpt lat="45.84574159462237" lon="8.377533427993727"><ele>468.0</ele><time>2026-04-26T13:22:41.001Z</time></trkpt><trkpt lat="45.84583624219137" lon="8.377604607547843"><ele>468.0</ele><time>2026-04-26T13:22:42.001Z</time></trkpt><trkpt lat="45.84593451287802" lon="8.37768085105587"><ele>467.99999999999994</ele><time>2026-04-26T13:22:43.001Z</time></trkpt><trkpt lat="45.84602288716502" lon="8.377755047943218"><ele>467.99999999999994</ele><time>2026-04-26T13:22:44.001Z</time></trkpt><trkpt lat="45.84610315531699" lon="8.377826886264392"><ele>468.0</ele><time>2026-04-26T13:22:45.001Z</time></trkpt><trkpt lat="45.84618915487552" lon="8.37788826462328"><ele>468.0</ele><time>2026-04-26T13:22:46.001Z</time></trkpt><trkpt lat="45.846266281435184" lon="8.377950412592433"><ele>468.0</ele><time>2026-04-26T13:22:47.001Z</time></trkpt><trkpt lat="45.846343505870415" lon="8.37801566610899"><ele>467.99999999999994</ele><time>2026-04-26T13:22:48.001Z</time></trkpt><trkpt lat="45.84641231107266" lon="8.378078178000639"><ele>467.99999999999994</ele><time>2026-04-26T13:22:49.001Z</time></trkpt><trkpt lat="45.84646209375977" lon="8.378144334120572"><ele>468.0</ele><time>2026-04-26T13:22:50.001Z</time></trkpt><trkpt lat="45.84654877427382" lon="8.378380810753377"><ele>468.0</ele><time>2026-04-26T13:22:52.001Z</time></trkpt><trkpt lat="45.84655602123772" lon="8.378519877870886"><ele>467.0</ele><time>2026-04-26T13:22:53.001Z</time></trkpt><trkpt lat="45.84656436410454" lon="8.378674299253479"><ele>465.99999999999994</ele><time>2026-04-26T13:22:54.001Z</time></trkpt><trkpt lat="45.84659465126359" lon="8.378832556566433"><ele>464.99999999999994</ele><time>2026-04-26T13:22:55.001Z</time></trkpt><trkpt lat="45.846646789822564" lon="8.378958560528158"><ele>464.0</ele><time>2026-04-26T13:22:56.001Z</time></trkpt><trkpt lat="45.84674686692155" lon="8.379024092349136"><ele>463.0</ele><time>2026-04-26T13:22:57.001Z</time></trkpt><trkpt lat="45.846872591758284" lon="8.37906674981206"><ele>460.33333333333337</ele><time>2026-04-26T13:22:58.001Z</time></trkpt><trkpt lat="45.8470412585679" lon="8.379089365516428"><ele>457.66666666666663</ele><time>2026-04-26T13:22:59.001Z</time></trkpt><trkpt lat="45.84724820609093" lon="8.379102495232656"><ele>455.0</ele><time>2026-04-26T13:23:00.001Z</time></trkpt><trkpt lat="45.84743773169299" lon="8.379131195182826"><ele>455.0</ele><time>2026-04-26T13:23:01.001Z</time></trkpt><trkpt lat="45.8475826359372" lon="8.379202043099827"><ele>455.0</ele><time>2026-04-26T13:23:02.001Z</time></trkpt><trkpt lat="45.84774604505905" lon="8.379182734914243"><ele>455.0</ele><time>2026-04-26T13:23:03.001Z</time></trkpt><trkpt lat="45.84791263574528" lon="8.379236275380823"><ele>453.3333333333333</ele><time>2026-04-26T13:23:04.001Z</time></trkpt><trkpt lat="45.84803577524636" lon="8.379393329170654"><ele>451.66666666666663</ele><time>2026-04-26T13:23:05.001Z</time></trkpt><trkpt lat="45.84816648624771" lon="8.379561846339472"><ele>450.0</ele><time>2026-04-26T13:23:06.001Z</time></trkpt><trkpt lat="45.84830408632569" lon="8.379755272458368"><ele>455.33333333333337</ele><time>2026-04-26T13:23:07.001Z</time></trkpt><trkpt lat="45.84846698468587" lon="8.37994628738448"><ele>460.6666666666667</ele><time>2026-04-26T13:23:08.001Z</time></trkpt><trkpt lat="45.84863229146437" lon="8.380159115415477"><ele>466.0</ele><time>2026-04-26T13:23:09.001Z</time></trkpt><trkpt lat="45.848822380782494" lon="8.380355041915095"><ele>462.0</ele><time>2026-04-26T13:23:10.001Z</time></trkpt><trkpt lat="45.84903340301668" lon="8.38054218252853"><ele>458.0</ele><time>2026-04-26T13:23:11.001Z</time></trkpt><trkpt lat="45.84925636880007" lon="8.380721103801609"><ele>459.5</ele><time>2026-04-26T13:23:12.001Z</time></trkpt><trkpt lat="45.84950507168527" lon="8.380893361232678"><ele>461.0</ele><time>2026-04-26T13:23:13.001Z</time></trkpt><trkpt lat="45.84973417377791" lon="8.381077584204885"><ele>461.0</ele><time>2026-04-26T13:23:14.001Z</time></trkpt><trkpt lat="45.8499593322815" lon="8.381260751530299"><ele>461.0</ele><time>2026-04-26T13:23:15.001Z</time></trkpt><trkpt lat="45.8501471347368" lon="8.38141433006585"><ele>457.66666666666663</ele><time>2026-04-26T13:23:16.001Z</time></trkpt><trkpt lat="45.8503264391591" lon="8.381558038944348"><ele>454.33333333333337</ele><time>2026-04-26T13:23:17.001Z</time></trkpt><trkpt lat="45.850490811909815" lon="8.381680030826853"><ele>451.0</ele><time>2026-04-26T13:23:18.001Z</time></trkpt><trkpt lat="45.850651981823844" lon="8.381767114946376"><ele>451.0</ele><time>2026-04-26T13:23:19.001Z</time></trkpt><trkpt lat="45.85083177186804" lon="8.381819370757135"><ele>451.0</ele><time>2026-04-26T13:23:20.001Z</time></trkpt><trkpt lat="45.85102510356164" lon="8.38183481378512"><ele>451.0</ele><time>2026-04-26T13:23:21.001Z</time></trkpt><trkpt lat="45.85121516186199" lon="8.381814520341846"><ele>451.6666666666667</ele><time>2026-04-26T13:23:22.001Z</time></trkpt><trkpt lat="45.85138084569528" lon="8.381790980918105"><ele>452.33333333333337</ele><time>2026-04-26T13:23:23.001Z</time></trkpt><trkpt lat="45.85158037086124" lon="8.381799443950184"><ele>453.0</ele><time>2026-04-26T13:23:24.001Z</time></trkpt><trkpt lat="45.85178206937971" lon="8.381883703036209"><ele>454.33333333333337</ele><time>2026-04-26T13:23:25.001Z</time></trkpt><trkpt lat="45.85196733994924" lon="8.382002425348416"><ele>455.6666666666667</ele><time>2026-04-26T13:23:26.001Z</time></trkpt><trkpt lat="45.852138020134966" lon="8.382208521852723"><ele>457.0</ele><time>2026-04-26T13:23:27.001Z</time></trkpt><trkpt lat="45.85233543892798" lon="8.382404419426532"><ele>455.5</ele><time>2026-04-26T13:23:28.001Z</time></trkpt><trkpt lat="45.85252959903422" lon="8.382630035344794"><ele>454.0</ele><time>2026-04-26T13:23:29.002Z</time></trkpt><trkpt lat="45.85273759989936" lon="8.382848066102202"><ele>446.5</ele><time>2026-04-26T13:23:30.002Z</time></trkpt><trkpt lat="45.85294878339168" lon="8.383083891315438"><ele>439.0</ele><time>2026-04-26T13:23:31.002Z</time></trkpt><trkpt lat="45.853166924720924" lon="8.38331729892552"><ele>439.0</ele><time>2026-04-26T13:23:32.002Z</time></trkpt><trkpt lat="45.85338724251199" lon="8.383550245603388"><ele>439.0</ele><time>2026-04-26T13:23:33.002Z</time></trkpt><trkpt lat="45.85360286070854" lon="8.383781259110156"><ele>439.5</ele><time>2026-04-26T13:23:34.002Z</time></trkpt><trkpt lat="45.85379819512243" lon="8.383993350527902"><ele>440.0</ele><time>2026-04-26T13:23:35.002Z</time></trkpt><trkpt lat="45.85398619873593" lon="8.384195854784123"><ele>440.0</ele><time>2026-04-26T13:23:36.002Z</time></trkpt><trkpt lat="45.85415875082351" lon="8.384384655369761"><ele>440.0</ele><time>2026-04-26T13:23:37.002Z</time></trkpt><trkpt lat="45.854313757584556" lon="8.384553649857697"><ele>440.0</ele><time>2026-04-26T13:23:38.002Z</time></trkpt><trkpt lat="45.85446520413018" lon="8.384720444552753"><ele>438.0</ele><time>2026-04-26T13:23:39.002Z</time></trkpt><trkpt lat="45.85460929191908" lon="8.384881451430346"><ele>436.0</ele><time>2026-04-26T13:23:40.002Z</time></trkpt><trkpt lat="45.854752996633614" lon="8.38503227551774"><ele>434.0</ele><time>2026-04-26T13:23:41.002Z</time></trkpt><trkpt lat="45.854882529693434" lon="8.385166771676621"><ele>434.0</ele><time>2026-04-26T13:23:42.002Z</time></trkpt><trkpt lat="45.8550096467492" lon="8.385302657873387"><ele>434.0</ele><time>2026-04-26T13:23:43.002Z</time></trkpt><trkpt lat="45.85513089568425" lon="8.385417452557267"><ele>434.0</ele><time>2026-04-26T13:23:44.002Z</time></trkpt><trkpt lat="45.85527122285176" lon="8.38550820683594"><ele>431.0</ele><time>2026-04-26T13:23:45.002Z</time></trkpt><trkpt lat="45.855427033843554" lon="8.385559732596747"><ele>428.0</ele><time>2026-04-26T13:23:46.002Z</time></trkpt><trkpt lat="45.855590960102994" lon="8.385570158926019"><ele>425.0</ele><time>2026-04-26T13:23:47.002Z</time></trkpt><trkpt lat="45.85576137358137" lon="8.385544016192458"><ele>426.66666666666663</ele><time>2026-04-26T13:23:48.002Z</time></trkpt><trkpt lat="45.85593870534055" lon="8.385495335640881"><ele>428.33333333333337</ele><time>2026-04-26T13:23:49.002Z</time></trkpt><trkpt lat="45.85612169153914" lon="8.385441370798512"><ele>430.0</ele><time>2026-04-26T13:23:50.002Z</time></trkpt><trkpt lat="45.856307937443404" lon="8.385400926691258"><ele>430.0</ele><time>2026-04-26T13:23:51.002Z</time></trkpt><trkpt lat="45.85648665883755" lon="8.385363537805246"><ele>430.0</ele><time>2026-04-26T13:23:52.002Z</time></trkpt><trkpt lat="45.85664273322321" lon="8.385336318133692"><ele>430.0</ele><time>2026-04-26T13:23:53.002Z</time></trkpt><trkpt lat="45.856808054277224" lon="8.385322897760567"><ele>431.33333333333337</ele><time>2026-04-26T13:23:54.002Z</time></trkpt><trkpt lat="45.856965658396625" lon="8.38534372990706"><ele>432.66666666666663</ele><time>2026-04-26T13:23:55.002Z</time></trkpt><trkpt lat="45.85712396171224" lon="8.385357725331952"><ele>434.0</ele><time>2026-04-26T13:23:56.002Z</time></trkpt><trkpt lat="45.85727831952092" lon="8.385428523119192"><ele>429.66666666666663</ele><time>2026-04-26T13:23:57.002Z</time></trkpt><trkpt lat="45.85741801720964" lon="8.385547869248036"><ele>425.33333333333337</ele><time>2026-04-26T13:23:58.002Z</time></trkpt><trkpt lat="45.857551213331085" lon="8.385667941196312"><ele>421.0</ele><time>2026-04-26T13:23:59.002Z</time></trkpt><trkpt lat="45.857665797824396" lon="8.385823504979903"><ele>421.0</ele><time>2026-04-26T13:24:00.002Z</time></trkpt><trkpt lat="45.85776776232069" lon="8.386006754214348"><ele>421.0</ele><time>2026-04-26T13:24:01.002Z</time></trkpt><trkpt lat="45.85786262577352" lon="8.386200057230095"><ele>421.0</ele><time>2026-04-26T13:24:02.002Z</time></trkpt><trkpt lat="45.85794897052442" lon="8.38639062738913"><ele>416.0</ele><time>2026-04-26T13:24:03.002Z</time></trkpt><trkpt lat="45.85802761922589" lon="8.386564211718737"><ele>411.0</ele><time>2026-04-26T13:24:04.002Z</time></trkpt><trkpt lat="45.858102369125135" lon="8.386718400252576"><ele>406.0</ele><time>2026-04-26T13:24:05.002Z</time></trkpt><trkpt lat="45.85839836875126" lon="8.386655583014312"><ele>405.0</ele><time>2026-04-26T13:24:06.002Z</time></trkpt><trkpt lat="45.85856933017665" lon="8.38668376988565"><ele>404.0</ele><time>2026-04-26T13:24:07.002Z</time></trkpt><trkpt lat="45.85873353589981" lon="8.386628974095087"><ele>403.0</ele><time>2026-04-26T13:24:08Z</time></trkpt><trkpt lat="45.85889753752121" lon="8.386530715605463"><ele>403.0</ele><time>2026-04-26T13:24:09Z</time></trkpt><trkpt lat="45.85906033133161" lon="8.386450197589632"><ele>403.0</ele><time>2026-04-26T13:24:10Z</time></trkpt><trkpt lat="45.85922467661503" lon="8.386395429735808"><ele>403.0</ele><time>2026-04-26T13:24:11Z</time></trkpt><trkpt lat="45.859381962387815" lon="8.386367847827074"><ele>402.0</ele><time>2026-04-26T13:24:12Z</time></trkpt><trkpt lat="45.85953124401971" lon="8.386376971022191"><ele>401.0</ele><time>2026-04-26T13:24:13Z</time></trkpt><trkpt lat="45.85968521811467" lon="8.386377170047721"><ele>400.0</ele><time>2026-04-26T13:24:14Z</time></trkpt><trkpt lat="45.859837686944715" lon="8.386408563310324"><ele>400.0</ele><time>2026-04-26T13:24:15Z</time></trkpt><trkpt lat="45.85999481361276" lon="8.386466058719805"><ele>400.0</ele><time>2026-04-26T13:24:16Z</time></trkpt><trkpt lat="45.86015963281263" lon="8.386519518147486"><ele>400.0</ele><time>2026-04-26T13:24:17Z</time></trkpt><trkpt lat="45.860330564422554" lon="8.38656857899467"><ele>401.6666666666667</ele><time>2026-04-26T13:24:18Z</time></trkpt><trkpt lat="45.86050737139277" lon="8.386617695074293"><ele>403.33333333333337</ele><time>2026-04-26T13:24:19Z</time></trkpt><trkpt lat="45.860690395200024" lon="8.386661494175469"><ele>405.0</ele><time>2026-04-26T13:24:20Z</time></trkpt><trkpt lat="45.86087327972353" lon="8.38671911739541"><ele>408.66666666666663</ele><time>2026-04-26T13:24:21Z</time></trkpt><trkpt lat="45.86106178622376" lon="8.386772918710331"><ele>412.3333333333333</ele><time>2026-04-26T13:24:22Z</time></trkpt><trkpt lat="45.86124668128236" lon="8.386835928059513"><ele>416.0</ele><time>2026-04-26T13:24:23Z</time></trkpt><trkpt lat="45.86141764900683" lon="8.386909920035256"><ele>416.0</ele><time>2026-04-26T13:24:24Z</time></trkpt><trkpt lat="45.861586224873406" lon="8.386983680647031"><ele>416.0</ele><time>2026-04-26T13:24:25Z</time></trkpt><trkpt lat="45.86174432237674" lon="8.387050258120802"><ele>416.0</ele><time>2026-04-26T13:24:26Z</time></trkpt><trkpt lat="45.861908479091916" lon="8.387122555544824"><ele>410.3333333333333</ele><time>2026-04-26T13:24:27Z</time></trkpt><trkpt lat="45.86205828607776" lon="8.387203348656735"><ele>404.66666666666663</ele><time>2026-04-26T13:24:28Z</time></trkpt><trkpt lat="45.86220283990723" lon="8.387299650805144"><ele>399.0</ele><time>2026-04-26T13:24:29Z</time></trkpt><trkpt lat="45.862339868998596" lon="8.387394392383072"><ele>399.0</ele><time>2026-04-26T13:24:30Z</time></trkpt><trkpt lat="45.86247222846831" lon="8.387481347189313"><ele>399.0</ele><time>2026-04-26T13:24:31Z</time></trkpt><trkpt lat="45.862600758309604" lon="8.387568400734459"><ele>399.0</ele><time>2026-04-26T13:24:32Z</time></trkpt><trkpt lat="45.86271746793664" lon="8.387646571929462"><ele>399.0</ele><time>2026-04-26T13:24:33Z</time></trkpt><trkpt lat="45.86283619878468" lon="8.387723907919243"><ele>398.79999999999995</ele><time>2026-04-26T13:24:34Z</time></trkpt><trkpt lat="45.86295101726845" lon="8.387800748871713"><ele>398.59999999999997</ele><time>2026-04-26T13:24:35Z</time></trkpt><trkpt lat="45.863069983090924" lon="8.38787357382517"><ele>398.4</ele><time>2026-04-26T13:24:36Z</time></trkpt><trkpt lat="45.863164977150994" lon="8.387937374360323"><ele>398.2</ele><time>2026-04-26T13:24:37Z</time></trkpt><trkpt lat="45.863242934998524" lon="8.38799427861893"><ele>398.0</ele><time>2026-04-26T13:24:38Z</time></trkpt><trkpt lat="45.86329216916238" lon="8.38806176739401"><ele>397.99999999999994</ele><time>2026-04-26T13:24:39Z</time></trkpt><trkpt lat="45.86331584011481" lon="8.388163518761372"><ele>398.0</ele><time>2026-04-26T13:24:40Z</time></trkpt><trkpt lat="45.863307491061235" lon="8.388270174156569"><ele>398.0</ele><time>2026-04-26T13:24:41Z</time></trkpt><trkpt lat="45.86325852436331" lon="8.38836440080927"><ele>398.0</ele><time>2026-04-26T13:24:42Z</time></trkpt><trkpt lat="45.86318474189515" lon="8.388396009722554"><ele>397.99999999999994</ele><time>2026-04-26T13:24:43Z</time></trkpt><trkpt lat="45.86310770703521" lon="8.388391209808452"><ele>398.0</ele><time>2026-04-26T13:24:44Z</time></trkpt><trkpt lat="45.863026924298005" lon="8.388378707571592"><ele>398.0</ele><time>2026-04-26T13:24:45Z</time></trkpt><trkpt lat="45.86293690389757" lon="8.388385903111995"><ele>398.0</ele><time>2026-04-26T13:24:46Z</time></trkpt><trkpt lat="45.86284078576155" lon="8.388392002419739"><ele>398.0</ele><time>2026-04-26T13:24:47Z</time></trkpt><trkpt lat="45.8627390738389" lon="8.388399870165408"><ele>398.0</ele><time>2026-04-26T13:24:48Z</time></trkpt><trkpt lat="45.862631485945656" lon="8.388408677110554"><ele>398.0</ele><time>2026-04-26T13:24:49Z</time></trkpt><trkpt lat="45.8625266960772" lon="8.388432479473522"><ele>394.59999999999997</ele><time>2026-04-26T13:24:50Z</time></trkpt><trkpt lat="45.86243974540834" lon="8.388496168457559"><ele>391.2</ele><time>2026-04-26T13:24:51Z</time></trkpt><trkpt lat="45.862377752502255" lon="8.388604776329524"><ele>387.8</ele><time>2026-04-26T13:24:52Z</time></trkpt><trkpt lat="45.862354539122826" lon="8.388733325647642"><ele>384.4</ele><time>2026-04-26T13:24:53Z</time></trkpt><trkpt lat="45.862366751409915" lon="8.388876989623705"><ele>381.0</ele><time>2026-04-26T13:24:54Z</time></trkpt><trkpt lat="45.8624178966317" lon="8.389015977788569"><ele>379.25</ele><time>2026-04-26T13:24:55Z</time></trkpt><trkpt lat="45.862494885118615" lon="8.38914760129636"><ele>377.5</ele><time>2026-04-26T13:24:56Z</time></trkpt><trkpt lat="45.86256754796449" lon="8.38928450316366"><ele>375.75</ele><time>2026-04-26T13:24:57.001Z</time></trkpt><trkpt lat="45.862648082331475" lon="8.389424763128453"><ele>374.0</ele><time>2026-04-26T13:24:58.001Z</time></trkpt><trkpt lat="45.86276480019317" lon="8.38956140431134"><ele>379.0</ele><time>2026-04-26T13:24:59.001Z</time></trkpt><trkpt lat="45.86290773938073" lon="8.389786990519054"><ele>384.0</ele><time>2026-04-26T13:25:00.001Z</time></trkpt><trkpt lat="45.863080633135276" lon="8.390020718718468"><ele>384.0</ele><time>2026-04-26T13:25:01.001Z</time></trkpt><trkpt lat="45.86323996920329" lon="8.39023903601106"><ele>384.0</ele><time>2026-04-26T13:25:02.001Z</time></trkpt><trkpt lat="45.86339391851189" lon="8.39041829842275"><ele>384.0</ele><time>2026-04-26T13:25:03.001Z</time></trkpt><trkpt lat="45.86349785174598" lon="8.390584242444959"><ele>384.4</ele><time>2026-04-26T13:25:04.001Z</time></trkpt><trkpt lat="45.863591176407525" lon="8.390708811754763"><ele>384.79999999999995</ele><time>2026-04-26T13:25:05.001Z</time></trkpt><trkpt lat="45.86366678042057" lon="8.390810156792272"><ele>385.20000000000005</ele><time>2026-04-26T13:25:06.001Z</time></trkpt><trkpt lat="45.863729489090936" lon="8.390909268558804"><ele>385.6</ele><time>2026-04-26T13:25:07.001Z</time></trkpt><trkpt lat="45.863746740525116" lon="8.391023016789287"><ele>386.0</ele><time>2026-04-26T13:25:08.001Z</time></trkpt><trkpt lat="45.863735405416996" lon="8.391189311227478"><ele>385.99999999999994</ele><time>2026-04-26T13:25:10.001Z</time></trkpt><trkpt lat="45.86369574568081" lon="8.391264346666862"><ele>386.0</ele><time>2026-04-26T13:25:11.001Z</time></trkpt><trkpt lat="45.863640854937316" lon="8.391326949109734"><ele>386.0</ele><time>2026-04-26T13:25:12.001Z</time></trkpt><trkpt lat="45.86357379890406" lon="8.391360643820581"><ele>386.0</ele><time>2026-04-26T13:25:13.001Z</time></trkpt><trkpt lat="45.863496205581235" lon="8.391369448607891"><ele>385.99999999999994</ele><time>2026-04-26T13:25:14.001Z</time></trkpt><trkpt lat="45.86341202186816" lon="8.391337512038657"><ele>386.0</ele><time>2026-04-26T13:25:15.001Z</time></trkpt><trkpt lat="45.86333658010788" lon="8.39129783305594"><ele>382.49999999999994</ele><time>2026-04-26T13:25:16.001Z</time></trkpt><trkpt lat="45.86326278062678" lon="8.391263076538575"><ele>379.0</ele><time>2026-04-26T13:25:17.001Z</time></trkpt><trkpt lat="45.86319700926788" lon="8.391266542652414"><ele>375.5</ele><time>2026-04-26T13:25:18.001Z</time></trkpt><trkpt lat="45.86313441893913" lon="8.391301117459216"><ele>372.0</ele><time>2026-04-26T13:25:19.001Z</time></trkpt><trkpt lat="45.86309822184214" lon="8.391380808241578"><ele>368.5</ele><time>2026-04-26T13:25:20.001Z</time></trkpt><trkpt lat="45.86311203190997" lon="8.391553174805258"><ele>365.0</ele><time>2026-04-26T13:25:22.001Z</time></trkpt><trkpt lat="45.86320100114145" lon="8.391666017831922"><ele>368.0</ele><time>2026-04-26T13:25:23.001Z</time></trkpt><trkpt lat="45.863317210093875" lon="8.39180377697012"><ele>371.0</ele><time>2026-04-26T13:25:24.001Z</time></trkpt><trkpt lat="45.86343191071265" lon="8.391984777150043"><ele>374.0</ele><time>2026-04-26T13:25:25.001Z</time></trkpt><trkpt lat="45.86353600047158" lon="8.39218915665692"><ele>374.0</ele><time>2026-04-26T13:25:26.001Z</time></trkpt><trkpt lat="45.86367503545638" lon="8.392381399094388"><ele>374.0</ele><time>2026-04-26T13:25:27.001Z</time></trkpt><trkpt lat="45.86382811014163" lon="8.392548253381035"><ele>374.0</ele><time>2026-04-26T13:25:28.001Z</time></trkpt><trkpt lat="45.864002094752216" lon="8.392735300746397"><ele>374.0</ele><time>2026-04-26T13:25:29.001Z</time></trkpt><trkpt lat="45.86418696062659" lon="8.392914726269447"><ele>374.0</ele><time>2026-04-26T13:25:30.001Z</time></trkpt><trkpt lat="45.8643610429927" lon="8.393078593484857"><ele>374.0</ele><time>2026-04-26T13:25:31.001Z</time></trkpt><trkpt lat="45.86452521826349" lon="8.393233122397517"><ele>375.0</ele><time>2026-04-26T13:25:32.001Z</time></trkpt><trkpt lat="45.86467499772332" lon="8.393404391736414"><ele>376.0</ele><time>2026-04-26T13:25:33.001Z</time></trkpt><trkpt lat="45.864816297118466" lon="8.393584402474595"><ele>377.0</ele><time>2026-04-26T13:25:34.001Z</time></trkpt><trkpt lat="45.86493837792654" lon="8.39376817305429"><ele>374.0</ele><time>2026-04-26T13:25:35.001Z</time></trkpt><trkpt lat="45.865117783625266" lon="8.39392682582352"><ele>371.0</ele><time>2026-04-26T13:25:36.001Z</time></trkpt><trkpt lat="45.86531825970079" lon="8.39407819226016"><ele>368.0</ele><time>2026-04-26T13:25:37.001Z</time></trkpt><trkpt lat="45.86551385564015" lon="8.394264264369552"><ele>368.0</ele><time>2026-04-26T13:25:38.001Z</time></trkpt><trkpt lat="45.865708796357815" lon="8.39442610653319"><ele>368.0</ele><time>2026-04-26T13:25:39.001Z</time></trkpt><trkpt lat="45.86589532142685" lon="8.394591419085604"><ele>368.0</ele><time>2026-04-26T13:25:40.001Z</time></trkpt><trkpt lat="45.866071664902286" lon="8.394750646980649"><ele>362.33333333333337</ele><time>2026-04-26T13:25:41.001Z</time></trkpt><trkpt lat="45.8662601113338" lon="8.394896692670951"><ele>356.6666666666667</ele><time>2026-04-26T13:25:42.001Z</time></trkpt><trkpt lat="45.86643179750931" lon="8.395076316686874"><ele>351.0</ele><time>2026-04-26T13:25:43.001Z</time></trkpt><trkpt lat="45.86660747059896" lon="8.39524953275463"><ele>351.0</ele><time>2026-04-26T13:25:44.001Z</time></trkpt><trkpt lat="45.86676828726301" lon="8.395412904236608"><ele>351.0</ele><time>2026-04-26T13:25:45.001Z</time></trkpt><trkpt lat="45.86690804714249" lon="8.395607450703103"><ele>351.0</ele><time>2026-04-26T13:25:46.001Z</time></trkpt><trkpt lat="45.867067006475395" lon="8.395762019324653"><ele>345.0</ele><time>2026-04-26T13:25:47.001Z</time></trkpt><trkpt lat="45.867210758774064" lon="8.395891436686252"><ele>339.0</ele><time>2026-04-26T13:25:48.002Z</time></trkpt><trkpt lat="45.86753353599685" lon="8.396087851544728"><ele>343.6666666666667</ele><time>2026-04-26T13:25:49.002Z</time></trkpt><trkpt lat="45.86769646024497" lon="8.396158654329028"><ele>348.33333333333337</ele><time>2026-04-26T13:25:50.002Z</time></trkpt><trkpt lat="45.867882772598506" lon="8.39623122041836"><ele>353.0</ele><time>2026-04-26T13:25:51.002Z</time></trkpt><trkpt lat="45.86807370857633" lon="8.396290971711267"><ele>341.0</ele><time>2026-04-26T13:25:52.002Z</time></trkpt><trkpt lat="45.86825234670337" lon="8.396352539973726"><ele>329.0</ele><time>2026-04-26T13:25:53.002Z</time></trkpt><trkpt lat="45.86842478149876" lon="8.396411675233631"><ele>317.0</ele><time>2026-04-26T13:25:54.002Z</time></trkpt><trkpt lat="45.868590106667796" lon="8.396442089833917"><ele>316.0</ele><time>2026-04-26T13:25:55.002Z</time></trkpt><trkpt lat="45.86876249943841" lon="8.396416132598048"><ele>315.0</ele><time>2026-04-26T13:25:56.002Z</time></trkpt><trkpt lat="45.86893599440478" lon="8.396330446044244"><ele>314.0</ele><time>2026-04-26T13:25:57.002Z</time></trkpt><trkpt lat="45.86909797773296" lon="8.396196887293302"><ele>315.0</ele><time>2026-04-26T13:25:58.002Z</time></trkpt><trkpt lat="45.86923800105005" lon="8.396046242644353"><ele>316.0</ele><time>2026-04-26T13:25:59.002Z</time></trkpt><trkpt lat="45.869359899609776" lon="8.39591474043269"><ele>317.0</ele><time>2026-04-26T13:26:00.002Z</time></trkpt><trkpt lat="45.86946889689809" lon="8.3958821573742"><ele>318.0</ele><time>2026-04-26T13:26:01.002Z</time></trkpt><trkpt lat="45.86955336800314" lon="8.395890235092681"><ele>318.0</ele><time>2026-04-26T13:26:02.002Z</time></trkpt><trkpt lat="45.86961475842222" lon="8.395926459992786"><ele>318.0</ele><time>2026-04-26T13:26:03.002Z</time></trkpt><trkpt lat="45.86968415572073" lon="8.395955069361847"><ele>318.0</ele><time>2026-04-26T13:26:04.002Z</time></trkpt><trkpt lat="45.869767711064014" lon="8.395978912973492"><ele>318.0</ele><time>2026-04-26T13:26:05.002Z</time></trkpt><trkpt lat="45.86986076772327" lon="8.395982596590173"><ele>318.0</ele><time>2026-04-26T13:26:06.002Z</time></trkpt><trkpt lat="45.869959652050426" lon="8.396020795658568"><ele>318.0</ele><time>2026-04-26T13:26:07.002Z</time></trkpt><trkpt lat="45.87006981401082" lon="8.39604664078897"><ele>318.8</ele><time>2026-04-26T13:26:08.002Z</time></trkpt><trkpt lat="45.87018666107829" lon="8.396074956041414"><ele>319.6</ele><time>2026-04-26T13:26:09.002Z</time></trkpt><trkpt lat="45.87029101169298" lon="8.396103575591354"><ele>320.40000000000003</ele><time>2026-04-26T13:26:10.002Z</time></trkpt><trkpt lat="45.87038020587039" lon="8.396132213694017"><ele>321.20000000000005</ele><time>2026-04-26T13:26:11.002Z</time></trkpt><trkpt lat="45.8704491115197" lon="8.39615863678392"><ele>322.0</ele><time>2026-04-26T13:26:12.002Z</time></trkpt><trkpt lat="45.87056254764215" lon="8.396252796254267"><ele>322.5</ele><time>2026-04-26T13:26:14Z</time></trkpt><trkpt lat="45.870623755543505" lon="8.396496430035155"><ele>323.0</ele><time>2026-04-26T13:26:16Z</time></trkpt><trkpt lat="45.87059925863864" lon="8.396651379775824"><ele>323.5</ele><time>2026-04-26T13:26:17Z</time></trkpt><trkpt lat="45.87056049833858" lon="8.396808443320795"><ele>324.0</ele><time>2026-04-26T13:26:18Z</time></trkpt><trkpt lat="45.870510963916225" lon="8.396972844576075"><ele>324.0</ele><time>2026-04-26T13:26:19Z</time></trkpt><trkpt lat="45.87046929019101" lon="8.39714300516151"><ele>324.0</ele><time>2026-04-26T13:26:20Z</time></trkpt><trkpt lat="45.870431047335124" lon="8.397301539166886"><ele>324.0</ele><time>2026-04-26T13:26:21Z</time></trkpt><trkpt lat="45.87039427237973" lon="8.397465925554487"><ele>324.0</ele><time>2026-04-26T13:26:22Z</time></trkpt><trkpt lat="45.87035322781895" lon="8.397635343865451"><ele>324.25</ele><time>2026-04-26T13:26:23Z</time></trkpt><trkpt lat="45.87031007558027" lon="8.39781135783581"><ele>324.5</ele><time>2026-04-26T13:26:24Z</time></trkpt><trkpt lat="45.87026888112672" lon="8.39798827982848"><ele>324.75</ele><time>2026-04-26T13:26:25Z</time></trkpt><trkpt lat="45.87022417238815" lon="8.398153550756094"><ele>325.0</ele><time>2026-04-26T13:26:26Z</time></trkpt><trkpt lat="45.87018708514012" lon="8.398325157479622"><ele>324.0</ele><time>2026-04-26T13:26:27Z</time></trkpt><trkpt lat="45.8701397215847" lon="8.398502287118655"><ele>323.0</ele><time>2026-04-26T13:26:28Z</time></trkpt><trkpt lat="45.87009546824439" lon="8.398685268663698"><ele>322.0</ele><time>2026-04-26T13:26:29Z</time></trkpt><trkpt lat="45.87006541757165" lon="8.398870542352741"><ele>321.0</ele><time>2026-04-26T13:26:30Z</time></trkpt><trkpt lat="45.870027588980165" lon="8.399034453036418"><ele>321.0</ele><time>2026-04-26T13:26:31Z</time></trkpt><trkpt lat="45.87000851577214" lon="8.399198228709556"><ele>321.0</ele><time>2026-04-26T13:26:32Z</time></trkpt><trkpt lat="45.86999764797471" lon="8.399348321880744"><ele>321.0</ele><time>2026-04-26T13:26:33Z</time></trkpt><trkpt lat="45.87001096551658" lon="8.399499290418321"><ele>321.0</ele><time>2026-04-26T13:26:34Z</time></trkpt><trkpt lat="45.86998623272023" lon="8.399661404097543"><ele>321.0</ele><time>2026-04-26T13:26:35Z</time></trkpt><trkpt lat="45.86999191031062" lon="8.399831662692035"><ele>320.25</ele><time>2026-04-26T13:26:36Z</time></trkpt><trkpt lat="45.87004998809766" lon="8.399998133122613"><ele>319.5</ele><time>2026-04-26T13:26:37Z</time></trkpt><trkpt lat="45.87008235319443" lon="8.400174216178677"><ele>318.75</ele><time>2026-04-26T13:26:38Z</time></trkpt><trkpt lat="45.87011407406843" lon="8.400351537531261"><ele>318.0</ele><time>2026-04-26T13:26:39Z</time></trkpt><trkpt lat="45.87014047111185" lon="8.400513405402062"><ele>320.2</ele><time>2026-04-26T13:26:40Z</time></trkpt><trkpt lat="45.8701428565045" lon="8.400674403744162"><ele>322.4</ele><time>2026-04-26T13:26:41Z</time></trkpt><trkpt lat="45.87016552495785" lon="8.400823126104346"><ele>324.59999999999997</ele><time>2026-04-26T13:26:42Z</time></trkpt><trkpt lat="45.87016221945453" lon="8.400984881199696"><ele>326.8</ele><time>2026-04-26T13:26:43Z</time></trkpt><trkpt lat="45.87016827744397" lon="8.401141911817616"><ele>329.0</ele><time>2026-04-26T13:26:44Z</time></trkpt><trkpt lat="45.87017449332893" lon="8.401286836267717"><ele>326.4</ele><time>2026-04-26T13:26:45Z</time></trkpt><trkpt lat="45.87019756776402" lon="8.401423280090736"><ele>323.79999999999995</ele><time>2026-04-26T13:26:46Z</time></trkpt><trkpt lat="45.87022732600506" lon="8.401558582214577"><ele>321.20000000000005</ele><time>2026-04-26T13:26:47Z</time></trkpt><trkpt lat="45.87027936015623" lon="8.401680796567266"><ele>318.6</ele><time>2026-04-26T13:26:48Z</time></trkpt><trkpt lat="45.870329712735476" lon="8.401809490381806"><ele>316.0</ele><time>2026-04-26T13:26:49Z</time></trkpt><trkpt lat="45.870386131050736" lon="8.401921200698094"><ele>316.0</ele><time>2026-04-26T13:26:50Z</time></trkpt><trkpt lat="45.87044728052404" lon="8.402042278886842"><ele>316.0</ele><time>2026-04-26T13:26:51Z</time></trkpt><trkpt lat="45.87051580152949" lon="8.402172893865576"><ele>316.0</ele><time>2026-04-26T13:26:52Z</time></trkpt><trkpt lat="45.87059066691857" lon="8.402313426369206"><ele>316.0</ele><time>2026-04-26T13:26:53Z</time></trkpt><trkpt lat="45.870680358329174" lon="8.40244866326058"><ele>314.75</ele><time>2026-04-26T13:26:54Z</time></trkpt><trkpt lat="45.87074729049755" lon="8.402618391358736"><ele>313.5</ele><time>2026-04-26T13:26:55Z</time></trkpt><trkpt lat="45.87082581566743" lon="8.402769931181293"><ele>312.25</ele><time>2026-04-26T13:26:56Z</time></trkpt><trkpt lat="45.870899694898284" lon="8.402909199022986"><ele>311.0</ele><time>2026-04-26T13:26:57.001Z</time></trkpt><trkpt lat="45.87098016488353" lon="8.40302918433478"><ele>313.8</ele><time>2026-04-26T13:26:58.001Z</time></trkpt><trkpt lat="45.871045609193274" lon="8.403158545676263"><ele>316.6</ele><time>2026-04-26T13:26:59.001Z</time></trkpt><trkpt lat="45.871084870029655" lon="8.403299659181892"><ele>319.4</ele><time>2026-04-26T13:27:00.001Z</time></trkpt><trkpt lat="45.871127297842825" lon="8.403439018017918"><ele>322.2</ele><time>2026-04-26T13:27:01.001Z</time></trkpt><trkpt lat="45.87117740459925" lon="8.40358392237562"><ele>325.0</ele><time>2026-04-26T13:27:02.001Z</time></trkpt><trkpt lat="45.87121047367311" lon="8.403750376009508"><ele>321.5</ele><time>2026-04-26T13:27:03.001Z</time></trkpt><trkpt lat="45.87125558889327" lon="8.40391488272075"><ele>318.0</ele><time>2026-04-26T13:27:04.001Z</time></trkpt><trkpt lat="45.87129965680114" lon="8.404072489492934"><ele>314.5</ele><time>2026-04-26T13:27:05.001Z</time></trkpt><trkpt lat="45.871350755082034" lon="8.404227192137032"><ele>311.0</ele><time>2026-04-26T13:27:06.001Z</time></trkpt><trkpt lat="45.871409881426594" lon="8.404385777711154"><ele>311.0</ele><time>2026-04-26T13:27:07.001Z</time></trkpt><trkpt lat="45.871476427600335" lon="8.404533591525148"><ele>311.0</ele><time>2026-04-26T13:27:08.001Z</time></trkpt><trkpt lat="45.871552722562875" lon="8.404683353953844"><ele>311.0</ele><time>2026-04-26T13:27:09.001Z</time></trkpt><trkpt lat="45.87163907702019" lon="8.404828858623269"><ele>311.0</ele><time>2026-04-26T13:27:10.001Z</time></trkpt><trkpt lat="45.8717120482331" lon="8.404980266210462"><ele>310.5</ele><time>2026-04-26T13:27:11.001Z</time></trkpt><trkpt lat="45.87178911982484" lon="8.405120054343737"><ele>310.0</ele><time>2026-04-26T13:27:12.001Z</time></trkpt><trkpt lat="45.87185601106447" lon="8.405259337494277"><ele>309.5</ele><time>2026-04-26T13:27:13.001Z</time></trkpt><trkpt lat="45.871924471877094" lon="8.405390226428691"><ele>309.0</ele><time>2026-04-26T13:27:14.001Z</time></trkpt><trkpt lat="45.871988856512296" lon="8.405506121093469"><ele>309.0</ele><time>2026-04-26T13:27:15.001Z</time></trkpt><trkpt lat="45.87204502979615" lon="8.405622680164385"><ele>309.0</ele><time>2026-04-26T13:27:16.001Z</time></trkpt><trkpt lat="45.87210627593359" lon="8.405734888454116"><ele>309.0</ele><time>2026-04-26T13:27:17.001Z</time></trkpt><trkpt lat="45.872159956046" lon="8.405835432445564"><ele>309.0</ele><time>2026-04-26T13:27:18.001Z</time></trkpt><trkpt lat="45.87220654194679" lon="8.405926400292017"><ele>309.0</ele><time>2026-04-26T13:27:19.001Z</time></trkpt><trkpt lat="45.87217816258099" lon="8.406039914736214"><ele>309.0</ele><time>2026-04-26T13:27:21.001Z</time></trkpt><trkpt lat="45.87211269580203" lon="8.40611842745759"><ele>309.0</ele><time>2026-04-26T13:27:22.001Z</time></trkpt><trkpt lat="45.87205189485653" lon="8.406173579877672"><ele>309.0</ele><time>2026-04-26T13:27:23.001Z</time></trkpt><trkpt lat="45.87198757776739" lon="8.406277160525217"><ele>309.0</ele><time>2026-04-26T13:27:25.001Z</time></trkpt><trkpt lat="45.872056663172316" lon="8.406485653718798"><ele>309.0</ele><time>2026-04-26T13:27:30.001Z</time></trkpt><trkpt lat="45.87213721486445" lon="8.406538452947618"><ele>309.0</ele><time>2026-04-26T13:27:31.001Z</time></trkpt><trkpt lat="45.87220460619916" lon="8.40659231881316"><ele>308.0</ele><time>2026-04-26T13:27:32.001Z</time></trkpt><trkpt lat="45.87227600615772" lon="8.406666029857108"><ele>307.0</ele><time>2026-04-26T13:27:33.001Z</time></trkpt><trkpt lat="45.87235193769701" lon="8.406740922108604"><ele>306.0</ele><time>2026-04-26T13:27:34.001Z</time></trkpt><trkpt lat="45.872440186009136" lon="8.406811176007045"><ele>305.0</ele><time>2026-04-26T13:27:35.001Z</time></trkpt><trkpt lat="45.87253108113548" lon="8.406876342894918"><ele>304.0</ele><time>2026-04-26T13:27:36.001Z</time></trkpt><trkpt lat="45.87262332652209" lon="8.406949488616695"><ele>304.0</ele><time>2026-04-26T13:27:37.001Z</time></trkpt><trkpt lat="45.87270688614553" lon="8.407024757787916"><ele>304.0</ele><time>2026-04-26T13:27:38.001Z</time></trkpt><trkpt lat="45.872789773771444" lon="8.4070966312046"><ele>304.0</ele><time>2026-04-26T13:27:39.001Z</time></trkpt><trkpt lat="45.872870946531215" lon="8.407150803031277"><ele>304.0</ele><time>2026-04-26T13:27:40.001Z</time></trkpt><trkpt lat="45.872950231642214" lon="8.407196222043211"><ele>304.0</ele><time>2026-04-26T13:27:41.001Z</time></trkpt><trkpt lat="45.873040093752145" lon="8.407233445655761"><ele>302.8333333333333</ele><time>2026-04-26T13:27:42.001Z</time></trkpt><trkpt lat="45.873131509090626" lon="8.407263905944973"><ele>301.66666666666663</ele><time>2026-04-26T13:27:43.001Z</time></trkpt><trkpt lat="45.87321935775533" lon="8.407274338109826"><ele>300.5</ele><time>2026-04-26T13:27:44.001Z</time></trkpt><trkpt lat="45.87329914125474" lon="8.407284549265212"><ele>299.3333333333333</ele><time>2026-04-26T13:27:45.002Z</time></trkpt><trkpt lat="45.87337681036757" lon="8.40729701611714"><ele>298.1666666666667</ele><time>2026-04-26T13:27:46.002Z</time></trkpt><trkpt lat="45.87346949979847" lon="8.407264945075998"><ele>297.0</ele><time>2026-04-26T13:27:47.002Z</time></trkpt><trkpt lat="45.873568279431986" lon="8.407253038823374"><ele>297.0</ele><time>2026-04-26T13:27:48.002Z</time></trkpt><trkpt lat="45.873644465579225" lon="8.40735775534786"><ele>297.0</ele><time>2026-04-26T13:27:50.002Z</time></trkpt><trkpt lat="45.87374313132846" lon="8.407473069738634"><ele>297.0</ele><time>2026-04-26T13:27:51.002Z</time></trkpt><trkpt lat="45.87381074746034" lon="8.40755589109152"><ele>297.0</ele><time>2026-04-26T13:27:52.002Z</time></trkpt><trkpt lat="45.87389359067305" lon="8.407659150679942"><ele>297.0</ele><time>2026-04-26T13:27:53.002Z</time></trkpt><trkpt lat="45.87396245498796" lon="8.407755762227639"><ele>297.0</ele><time>2026-04-26T13:27:54.002Z</time></trkpt><trkpt lat="45.87403605841894" lon="8.407854726384535"><ele>297.0</ele><time>2026-04-26T13:27:55.002Z</time></trkpt><trkpt lat="45.87411457044121" lon="8.40794928560425"><ele>297.0</ele><time>2026-04-26T13:27:56.002Z</time></trkpt><trkpt lat="45.87419086177245" lon="8.408027507130512"><ele>297.0</ele><time>2026-04-26T13:27:57.002Z</time></trkpt><trkpt lat="45.8742567162977" lon="8.408091636446509"><ele>297.0</ele><time>2026-04-26T13:27:58.002Z</time></trkpt><trkpt lat="45.874330815520544" lon="8.408160964631858"><ele>297.3333333333333</ele><time>2026-04-26T13:27:59.002Z</time></trkpt><trkpt lat="45.874395808653425" lon="8.408220757402331"><ele>297.6666666666667</ele><time>2026-04-26T13:28:00.002Z</time></trkpt><trkpt lat="45.87445624972739" lon="8.408265465795946"><ele>298.0</ele><time>2026-04-26T13:28:01.002Z</time></trkpt><trkpt lat="45.874503034351534" lon="8.408445572458236"><ele>298.33333333333337</ele><time>2026-04-26T13:28:03.002Z</time></trkpt><trkpt lat="45.87455222529155" lon="8.40853654813739"><ele>298.6666666666667</ele><time>2026-04-26T13:28:04.002Z</time></trkpt><trkpt lat="45.87458546920198" lon="8.408650848354283"><ele>299.0</ele><time>2026-04-26T13:28:05.002Z</time></trkpt><trkpt lat="45.87462448478654" lon="8.408756165699552"><ele>298.59999999999997</ele><time>2026-04-26T13:28:06.002Z</time></trkpt><trkpt lat="45.87466628899948" lon="8.408873023879867"><ele>298.2</ele><time>2026-04-26T13:28:07.002Z</time></trkpt><trkpt lat="45.87470427036181" lon="8.408991680425986"><ele>297.79999999999995</ele><time>2026-04-26T13:28:08.002Z</time></trkpt><trkpt lat="45.87478732260934" lon="8.409077362104368"><ele>297.4</ele><time>2026-04-26T13:28:09.002Z</time></trkpt><trkpt lat="45.874884904235124" lon="8.409079949202635"><ele>297.0</ele><time>2026-04-26T13:28:10.002Z</time></trkpt><trkpt lat="45.87497214045422" lon="8.40904245716842"><ele>297.0</ele><time>2026-04-26T13:28:11.002Z</time></trkpt><trkpt lat="45.87503977507245" lon="8.409064231526214"><ele>297.0</ele><time>2026-04-26T13:28:12.002Z</time></trkpt><trkpt lat="45.875162525736656" lon="8.409073549233891"><ele>297.0</ele><time>2026-04-26T13:28:14.002Z</time></trkpt><trkpt lat="45.87526693374809" lon="8.409055659666256"><ele>297.0</ele><time>2026-04-26T13:28:16.002Z</time></trkpt><trkpt lat="45.87534842449757" lon="8.409048575342425"><ele>297.0</ele><time>2026-04-26T13:28:18.002Z</time></trkpt><trkpt lat="45.87542859871038" lon="8.409059562211125"><ele>297.2</ele><time>2026-04-26T13:28:22Z</time></trkpt><trkpt lat="45.8754798622165" lon="8.409175132800014"><ele>297.4</ele><time>2026-04-26T13:28:24Z</time></trkpt><trkpt lat="45.8754819001054" lon="8.409271322384484"><ele>297.6</ele><time>2026-04-26T13:28:26Z</time></trkpt><trkpt lat="45.87545750656711" lon="8.409357941189205"><ele>297.8</ele><time>2026-04-26T13:28:28Z</time></trkpt><trkpt lat="45.87534734204663" lon="8.409462216224298"><ele>298.0</ele><time>2026-04-26T13:28:31Z</time></trkpt><trkpt lat="45.875263985069324" lon="8.409512519194625"><ele>298.0</ele><time>2026-04-26T13:28:33Z</time></trkpt><trkpt lat="45.87520771135876" lon="8.409574172459799"><ele>298.0</ele><time>2026-04-26T13:28:35Z</time></trkpt><trkpt lat="45.87514727929281" lon="8.409611461215857"><ele>298.0</ele><time>2026-04-26T13:28:37Z</time></trkpt><trkpt lat="45.87508544777273" lon="8.40966115235392"><ele>299.0</ele><time>2026-04-26T13:28:39Z</time></trkpt><trkpt lat="45.87502664879373" lon="8.40969774064649"><ele>299.0</ele><time>2026-04-26T13:28:41Z</time></trkpt><trkpt lat="45.87495935732554" lon="8.409752042666327"><ele>299.0</ele><time>2026-04-26T13:28:44Z</time></trkpt><trkpt lat="45.874888937096614" lon="8.409812542900603"><ele>299.0</ele><time>2026-04-26T13:28:49Z</time></trkpt></trkseg></trk></gpx>